<?xml version='1.0' encoding='UTF-8'?><gpx version="1.1" creator="JPX - https://github.com/jenetics/jpx" xmlns="http://www.topografix.com/GPX/1/1"><trk><trkseg><trkpt lat="43.43882392943988" lon="5.852343838284956"><ele>368.0</ele><time>2026-03-28T12:27:22.561Z</time></trkpt><trkpt lat="43.43879240650785" lon="5.852499545526167"><ele>368.0</ele><time>2026-03-28T12:27:26.561Z</time></trkpt><trkpt lat="43.43870898793865" lon="5.852641755801251"><ele>368.0</ele><time>2026-03-28T12:27:27.561Z</time></trkpt><trkpt lat="43.438714436623535" lon="5.852554483945211"><ele>368.0</ele><time>2026-03-28T12:28:36Z</time></trkpt><trkpt lat="43.438817406243594" lon="5.852462564062277"><ele>368.0</ele><time>2026-03-28T12:30:07Z</time></trkpt><trkpt lat="43.43889978307163" lon="5.8523198495244735"><ele>368.0</ele><time>2026-03-28T12:30:09Z</time></trkpt><trkpt lat="43.4389631914613" lon="5.852247030363138"><ele>368.0</ele><time>2026-03-28T12:30:10Z</time></trkpt><trkpt lat="43.43888473167071" lon="5.852130098630629"><ele>368.0</ele><time>2026-03-28T12:30:11Z</time></trkpt><trkpt lat="43.4388988036172" lon="5.8520313162844415"><ele>368.0</ele><time>2026-03-28T12:30:13Z</time></trkpt><trkpt lat="43.43890309105022" lon="5.851915531880498"><ele>368.0</ele><time>2026-03-28T12:30:15Z</time></trkpt><trkpt lat="43.43893063846603" lon="5.851804344708974"><ele>368.0</ele><time>2026-03-28T12:30:17Z</time></trkpt><trkpt lat="43.43896242033023" lon="5.851658427665397"><ele>368.33333333333337</ele><time>2026-03-28T12:30:19Z</time></trkpt><trkpt lat="43.43899420186912" lon="5.851538703726827"><ele>368.6666666666667</ele><time>2026-03-28T12:30:20Z</time></trkpt><trkpt lat="43.43904617900109" lon="5.851435491501605"><ele>369.0</ele><time>2026-03-28T12:30:22Z</time></trkpt><trkpt lat="43.439050261116314" lon="5.851269536976486"><ele>369.3333333333333</ele><time>2026-03-28T12:30:24Z</time></trkpt><trkpt lat="43.43910205536377" lon="5.851207295181397"><ele>369.66666666666663</ele><time>2026-03-28T12:30:25Z</time></trkpt><trkpt lat="43.439158102640064" lon="5.851143901365994"><ele>370.0</ele><time>2026-03-28T12:30:26Z</time></trkpt><trkpt lat="43.43919989483926" lon="5.8510429251501135"><ele>370.66666666666663</ele><time>2026-03-28T12:30:28Z</time></trkpt><trkpt lat="43.43927369392914" lon="5.85092898078176"><ele>371.3333333333333</ele><time>2026-03-28T12:30:30Z</time></trkpt><trkpt lat="43.43932501359836" lon="5.850843811090135"><ele>372.0</ele><time>2026-03-28T12:30:31Z</time></trkpt><trkpt lat="43.43935609686135" lon="5.850766354662608"><ele>372.6666666666667</ele><time>2026-03-28T12:30:32Z</time></trkpt><trkpt lat="43.43939916592029" lon="5.850639811545715"><ele>373.33333333333337</ele><time>2026-03-28T12:30:34Z</time></trkpt><trkpt lat="43.43946095697907" lon="5.850596464736394"><ele>374.0</ele><time>2026-03-28T12:30:36Z</time></trkpt><trkpt lat="43.43949989812621" lon="5.85068995667764"><ele>374.0</ele><time>2026-03-28T12:30:40Z</time></trkpt><trkpt lat="43.43954893739778" lon="5.850613421363637"><ele>374.0</ele><time>2026-03-28T12:30:44Z</time></trkpt><trkpt lat="43.43954942395583" lon="5.8504695609257675"><ele>374.0</ele><time>2026-03-28T12:30:45Z</time></trkpt><trkpt lat="43.4395570825406" lon="5.850335128706262"><ele>374.0</ele><time>2026-03-28T12:30:46Z</time></trkpt><trkpt lat="43.43956733999015" lon="5.8502001138202475"><ele>374.0</ele><time>2026-03-28T12:30:47Z</time></trkpt><trkpt lat="43.4395818363579" lon="5.850040498310223"><ele>374.75</ele><time>2026-03-28T12:30:48Z</time></trkpt><trkpt lat="43.439604339728106" lon="5.8498623275555515"><ele>375.5</ele><time>2026-03-28T12:30:49Z</time></trkpt><trkpt lat="43.43963476037092" lon="5.849699120604501"><ele>376.25</ele><time>2026-03-28T12:30:50Z</time></trkpt><trkpt lat="43.43966946036035" lon="5.849534509909136"><ele>377.0</ele><time>2026-03-28T12:30:51Z</time></trkpt><trkpt lat="43.43970152748072" lon="5.849366533093242"><ele>377.0</ele><time>2026-03-28T12:30:51.999Z</time></trkpt><trkpt lat="43.43972267703115" lon="5.849233531353778"><ele>377.0</ele><time>2026-03-28T12:30:52.999Z</time></trkpt><trkpt lat="43.43974803383968" lon="5.849116882994845"><ele>377.0</ele><time>2026-03-28T12:30:53.999Z</time></trkpt><trkpt lat="43.43978525042353" lon="5.849027605542788"><ele>377.0</ele><time>2026-03-28T12:30:54.999Z</time></trkpt><trkpt lat="43.43985713488338" lon="5.848935319639189"><ele>377.0</ele><time>2026-03-28T12:30:56.999Z</time></trkpt><trkpt lat="43.43989488689774" lon="5.848853769113672"><ele>377.0</ele><time>2026-03-28T12:30:58.999Z</time></trkpt><trkpt lat="43.43984565256104" lon="5.848717912158352"><ele>377.0</ele><time>2026-03-28T12:31:00.999Z</time></trkpt><trkpt lat="43.43985772521162" lon="5.848619528468529"><ele>377.0</ele><time>2026-03-28T12:31:01.999Z</time></trkpt><trkpt lat="43.439842826562554" lon="5.848510751879143"><ele>377.0</ele><time>2026-03-28T12:31:02.999Z</time></trkpt><trkpt lat="43.43982499938376" lon="5.848367103466253"><ele>377.0</ele><time>2026-03-28T12:31:03.999Z</time></trkpt><trkpt lat="43.439818323649924" lon="5.848226990353411"><ele>377.0</ele><time>2026-03-28T12:31:04.999Z</time></trkpt><trkpt lat="43.439812601750205" lon="5.848095480344246"><ele>377.83333333333337</ele><time>2026-03-28T12:31:05.999Z</time></trkpt><trkpt lat="43.439808257489105" lon="5.847961122529088"><ele>378.6666666666667</ele><time>2026-03-28T12:31:06.999Z</time></trkpt><trkpt lat="43.43979370329848" lon="5.847847334307717"><ele>379.5</ele><time>2026-03-28T12:31:07.999Z</time></trkpt><trkpt lat="43.43978655923715" lon="5.84772999581493"><ele>380.3333333333333</ele><time>2026-03-28T12:31:08.999Z</time></trkpt><trkpt lat="43.43976165630665" lon="5.8476470453601825"><ele>381.16666666666663</ele><time>2026-03-28T12:31:09.999Z</time></trkpt><trkpt lat="43.43972626860808" lon="5.8475414278272"><ele>382.0</ele><time>2026-03-28T12:31:11.999Z</time></trkpt><trkpt lat="43.43976944775391" lon="5.8473838714915605"><ele>383.0</ele><time>2026-03-28T12:31:13.999Z</time></trkpt><trkpt lat="43.439748963665345" lon="5.847296186010753"><ele>384.0</ele><time>2026-03-28T12:31:14.999Z</time></trkpt><trkpt lat="43.43974205901618" lon="5.847191362703663"><ele>385.0</ele><time>2026-03-28T12:31:15.999Z</time></trkpt><trkpt lat="43.43976320390573" lon="5.84707491531306"><ele>386.0</ele><time>2026-03-28T12:31:16.999Z</time></trkpt><trkpt lat="43.43977977015769" lon="5.846929686499387"><ele>387.00000000000006</ele><time>2026-03-28T12:31:17.999Z</time></trkpt><trkpt lat="43.43979349029909" lon="5.846817167077425"><ele>388.0</ele><time>2026-03-28T12:31:18.999Z</time></trkpt><trkpt lat="43.43981982347101" lon="5.846723652318726"><ele>388.4</ele><time>2026-03-28T12:31:19.999Z</time></trkpt><trkpt lat="43.43985063929721" lon="5.846611103328764"><ele>388.79999999999995</ele><time>2026-03-28T12:31:20.999Z</time></trkpt><trkpt lat="43.43987970029392" lon="5.8464938838509815"><ele>389.2</ele><time>2026-03-28T12:31:21.999Z</time></trkpt><trkpt lat="43.43989220829927" lon="5.8463976753393725"><ele>389.6</ele><time>2026-03-28T12:31:22.999Z</time></trkpt><trkpt lat="43.439916636387075" lon="5.846298760117313"><ele>390.0</ele><time>2026-03-28T12:31:23.999Z</time></trkpt><trkpt lat="43.43992998672347" lon="5.846122291477735"><ele>390.0</ele><time>2026-03-28T12:31:25.999Z</time></trkpt><trkpt lat="43.439955922697166" lon="5.84600829588327"><ele>390.0</ele><time>2026-03-28T12:31:26.999Z</time></trkpt><trkpt lat="43.43999541504111" lon="5.845887815862394"><ele>390.0</ele><time>2026-03-28T12:31:27.999Z</time></trkpt><trkpt lat="43.440015246780135" lon="5.845787315232574"><ele>390.0</ele><time>2026-03-28T12:31:28.999Z</time></trkpt><trkpt lat="43.440028619407094" lon="5.845700497448021"><ele>390.0</ele><time>2026-03-28T12:31:29.999Z</time></trkpt><trkpt lat="43.44006712820036" lon="5.845608979552968"><ele>390.0</ele><time>2026-03-28T12:31:30.999Z</time></trkpt><trkpt lat="43.44012159049417" lon="5.84551056487288"><ele>389.8</ele><time>2026-03-28T12:31:31.999Z</time></trkpt><trkpt lat="43.44016373568404" lon="5.845409308465365"><ele>389.6</ele><time>2026-03-28T12:31:32.999Z</time></trkpt><trkpt lat="43.44018474347095" lon="5.845285487139597"><ele>389.4</ele><time>2026-03-28T12:31:33.999Z</time></trkpt><trkpt lat="43.44019346436794" lon="5.845174871204445"><ele>389.2</ele><time>2026-03-28T12:31:34.999Z</time></trkpt><trkpt lat="43.44017956502272" lon="5.845029231081211"><ele>389.0</ele><time>2026-03-28T12:31:35.999Z</time></trkpt><trkpt lat="43.440195166569225" lon="5.844872214403882"><ele>388.8333333333333</ele><time>2026-03-28T12:31:37Z</time></trkpt><trkpt lat="43.4402119975091" lon="5.844768079010229"><ele>388.66666666666663</ele><time>2026-03-28T12:31:38Z</time></trkpt><trkpt lat="43.44023214070336" lon="5.844673886405863"><ele>388.5</ele><time>2026-03-28T12:31:39Z</time></trkpt><trkpt lat="43.44022563731656" lon="5.844578189344446"><ele>388.33333333333337</ele><time>2026-03-28T12:31:40Z</time></trkpt><trkpt lat="43.44023038853221" lon="5.844489036215303"><ele>388.1666666666667</ele><time>2026-03-28T12:31:41Z</time></trkpt><trkpt lat="43.44026346621741" lon="5.844382598330991"><ele>388.0</ele><time>2026-03-28T12:31:42Z</time></trkpt><trkpt lat="43.44029314541469" lon="5.844239716306751"><ele>388.4</ele><time>2026-03-28T12:31:43Z</time></trkpt><trkpt lat="43.440310251402" lon="5.844138391476924"><ele>388.79999999999995</ele><time>2026-03-28T12:31:44Z</time></trkpt><trkpt lat="43.440373406211094" lon="5.8440506359325335"><ele>389.2</ele><time>2026-03-28T12:31:46Z</time></trkpt><trkpt lat="43.44046502150087" lon="5.843922377393566"><ele>389.6</ele><time>2026-03-28T12:31:48Z</time></trkpt><trkpt lat="43.44051733330437" lon="5.843836535707155"><ele>390.0</ele><time>2026-03-28T12:31:49Z</time></trkpt><trkpt lat="43.440584633633534" lon="5.843721293107354"><ele>390.8333333333333</ele><time>2026-03-28T12:31:51Z</time></trkpt><trkpt lat="43.440604581477" lon="5.843636259349044"><ele>391.66666666666663</ele><time>2026-03-28T12:31:52Z</time></trkpt><trkpt lat="43.44061474251992" lon="5.843542411546381"><ele>392.5</ele><time>2026-03-28T12:31:53Z</time></trkpt><trkpt lat="43.440636021083115" lon="5.8434438389043235"><ele>393.3333333333333</ele><time>2026-03-28T12:31:55Z</time></trkpt><trkpt lat="43.44058193958312" lon="5.843390532744947"><ele>394.16666666666663</ele><time>2026-03-28T12:32:04Z</time></trkpt><trkpt lat="43.44054622896365" lon="5.8432308021008454"><ele>395.0</ele><time>2026-03-28T12:37:18.999Z</time></trkpt><trkpt lat="43.44051401290762" lon="5.843128988282847"><ele>395.4</ele><time>2026-03-28T12:37:19.999Z</time></trkpt><trkpt lat="43.440485275473414" lon="5.843040371138339"><ele>395.8</ele><time>2026-03-28T12:37:20.999Z</time></trkpt><trkpt lat="43.440457563821184" lon="5.842937661908752"><ele>396.20000000000005</ele><time>2026-03-28T12:37:21.999Z</time></trkpt><trkpt lat="43.44046192786311" lon="5.8427860888307395"><ele>396.6</ele><time>2026-03-28T12:37:22.999Z</time></trkpt><trkpt lat="43.44046198291118" lon="5.842641111724424"><ele>397.0</ele><time>2026-03-28T12:37:23.999Z</time></trkpt><trkpt lat="43.44044810256393" lon="5.842513495224456"><ele>397.33333333333337</ele><time>2026-03-28T12:37:24.999Z</time></trkpt><trkpt lat="43.44043233775643" lon="5.842402687242426"><ele>397.6666666666667</ele><time>2026-03-28T12:37:25.999Z</time></trkpt><trkpt lat="43.440429755148514" lon="5.842294462850637"><ele>398.0</ele><time>2026-03-28T12:37:26.999Z</time></trkpt><trkpt lat="43.440437906205716" lon="5.842190356203201"><ele>398.33333333333337</ele><time>2026-03-28T12:37:27.999Z</time></trkpt><trkpt lat="43.44044633379217" lon="5.842097855046892"><ele>398.6666666666667</ele><time>2026-03-28T12:37:28.999Z</time></trkpt><trkpt lat="43.44042643732509" lon="5.842005134199554"><ele>399.0</ele><time>2026-03-28T12:37:29.999Z</time></trkpt><trkpt lat="43.44038381774329" lon="5.841916657412265"><ele>399.0</ele><time>2026-03-28T12:37:30.999Z</time></trkpt><trkpt lat="43.44035420396289" lon="5.841828930182308"><ele>399.0</ele><time>2026-03-28T12:37:31.999Z</time></trkpt><trkpt lat="43.44034041893666" lon="5.841710429463829"><ele>399.0</ele><time>2026-03-28T12:37:32.999Z</time></trkpt><trkpt lat="43.44033359160946" lon="5.841554584714435"><ele>399.0</ele><time>2026-03-28T12:37:33.999Z</time></trkpt><trkpt lat="43.440338517982966" lon="5.84140167847419"><ele>399.0</ele><time>2026-03-28T12:37:34.999Z</time></trkpt><trkpt lat="43.44034173582794" lon="5.841271574970178"><ele>399.0</ele><time>2026-03-28T12:37:35.999Z</time></trkpt><trkpt lat="43.44034180220434" lon="5.841152920738694"><ele>399.0</ele><time>2026-03-28T12:37:36.999Z</time></trkpt><trkpt lat="43.440348666610774" lon="5.841042514038812"><ele>399.0</ele><time>2026-03-28T12:37:37.999Z</time></trkpt><trkpt lat="43.44037217287757" lon="5.8409333602486715"><ele>399.0</ele><time>2026-03-28T12:37:38.999Z</time></trkpt><trkpt lat="43.44040788153848" lon="5.840831163010124"><ele>399.0</ele><time>2026-03-28T12:37:39.999Z</time></trkpt><trkpt lat="43.4404487274607" lon="5.840736493032052"><ele>399.0</ele><time>2026-03-28T12:37:40.999Z</time></trkpt><trkpt lat="43.44049388696395" lon="5.840621407034"><ele>400.2</ele><time>2026-03-28T12:37:41.999Z</time></trkpt><trkpt lat="43.44052259423338" lon="5.840479887631971"><ele>401.4</ele><time>2026-03-28T12:37:42.999Z</time></trkpt><trkpt lat="43.44053476304409" lon="5.840321954565505"><ele>402.6</ele><time>2026-03-28T12:37:43.999Z</time></trkpt><trkpt lat="43.44053904120599" lon="5.8401667355914375"><ele>403.8</ele><time>2026-03-28T12:37:44.999Z</time></trkpt><trkpt lat="43.440534222589044" lon="5.8400416270800966"><ele>405.0</ele><time>2026-03-28T12:37:45.999Z</time></trkpt><trkpt lat="43.440540529229175" lon="5.839900495681084"><ele>405.8333333333333</ele><time>2026-03-28T12:37:46.999Z</time></trkpt><trkpt lat="43.440543363363126" lon="5.839774422336355"><ele>406.66666666666663</ele><time>2026-03-28T12:37:47.999Z</time></trkpt><trkpt lat="43.4405520563644" lon="5.839671227955169"><ele>407.5</ele><time>2026-03-28T12:37:48.999Z</time></trkpt><trkpt lat="43.44058434373118" lon="5.839582675091841"><ele>408.3333333333333</ele><time>2026-03-28T12:37:49.999Z</time></trkpt><trkpt lat="43.440639739206794" lon="5.839510754042099"><ele>409.16666666666663</ele><time>2026-03-28T12:37:50.999Z</time></trkpt><trkpt lat="43.44069802542938" lon="5.839442016490237"><ele>410.0</ele><time>2026-03-28T12:37:51.999Z</time></trkpt><trkpt lat="43.44075235581001" lon="5.839304282195634"><ele>409.2</ele><time>2026-03-28T12:37:53.999Z</time></trkpt><trkpt lat="43.4408506376187" lon="5.839197644188181"><ele>408.4</ele><time>2026-03-28T12:37:56Z</time></trkpt><trkpt lat="43.44091449868863" lon="5.8391373803389905"><ele>407.6</ele><time>2026-03-28T12:37:57Z</time></trkpt><trkpt lat="43.44098179228558" lon="5.839052423156086"><ele>406.8</ele><time>2026-03-28T12:37:58Z</time></trkpt><trkpt lat="43.44102866629844" lon="5.838981335320078"><ele>406.0</ele><time>2026-03-28T12:37:59Z</time></trkpt><trkpt lat="43.441077128558966" lon="5.838883178322515"><ele>406.0</ele><time>2026-03-28T12:38:00Z</time></trkpt><trkpt lat="43.44110364745285" lon="5.838765384773617"><ele>406.0</ele><time>2026-03-28T12:38:01Z</time></trkpt><trkpt lat="43.441129673363385" lon="5.8386173973283855"><ele>406.0</ele><time>2026-03-28T12:38:02Z</time></trkpt><trkpt lat="43.44116511176046" lon="5.838486810280018"><ele>406.0</ele><time>2026-03-28T12:38:03Z</time></trkpt><trkpt lat="43.441202309945716" lon="5.838389739329675"><ele>406.0</ele><time>2026-03-28T12:38:04Z</time></trkpt><trkpt lat="43.441236245035206" lon="5.838271873116326"><ele>406.6</ele><time>2026-03-28T12:38:05Z</time></trkpt><trkpt lat="43.44128268640826" lon="5.838156358413058"><ele>407.20000000000005</ele><time>2026-03-28T12:38:06Z</time></trkpt><trkpt lat="43.44130971101345" lon="5.838076017636382"><ele>407.79999999999995</ele><time>2026-03-28T12:38:07Z</time></trkpt><trkpt lat="43.44138338864106" lon="5.837950424727792"><ele>408.4</ele><time>2026-03-28T12:38:09Z</time></trkpt><trkpt lat="43.44143008971718" lon="5.837853238096809"><ele>409.0</ele><time>2026-03-28T12:38:10Z</time></trkpt><trkpt lat="43.4415044871969" lon="5.837780626922629"><ele>410.50000000000006</ele><time>2026-03-28T12:38:11Z</time></trkpt><trkpt lat="43.44154658062098" lon="5.837650483387744"><ele>412.0</ele><time>2026-03-28T12:38:13Z</time></trkpt><trkpt lat="43.44156279949921" lon="5.837528202492981"><ele>413.5</ele><time>2026-03-28T12:38:14Z</time></trkpt><trkpt lat="43.44156988808257" lon="5.837441017746393"><ele>415.0</ele><time>2026-03-28T12:38:15Z</time></trkpt><trkpt lat="43.44151188813881" lon="5.837335092010872"><ele>416.50000000000006</ele><time>2026-03-28T12:38:17Z</time></trkpt><trkpt lat="43.44155378553763" lon="5.837253429505953"><ele>418.0</ele><time>2026-03-28T12:38:19Z</time></trkpt><trkpt lat="43.44155695950206" lon="5.837133377295334"><ele>418.1666666666667</ele><time>2026-03-28T12:38:21Z</time></trkpt><trkpt lat="43.441475639730655" lon="5.8370457068121935"><ele>418.33333333333337</ele><time>2026-03-28T12:38:23Z</time></trkpt><trkpt lat="43.44141080566434" lon="5.837001912524084"><ele>418.5</ele><time>2026-03-28T12:38:25Z</time></trkpt><trkpt lat="43.44135687152475" lon="5.836884045117335"><ele>418.66666666666663</ele><time>2026-03-28T12:38:27Z</time></trkpt><trkpt lat="43.44133459457811" lon="5.836783347843997"><ele>418.8333333333333</ele><time>2026-03-28T12:38:28Z</time></trkpt><trkpt lat="43.44130615395931" lon="5.83665849236331"><ele>419.0</ele><time>2026-03-28T12:38:29Z</time></trkpt><trkpt lat="43.44126117989408" lon="5.836543454224944"><ele>418.99999999999994</ele><time>2026-03-28T12:38:31Z</time></trkpt><trkpt lat="43.44127194221647" lon="5.836407005027635"><ele>419.0</ele><time>2026-03-28T12:38:33Z</time></trkpt><trkpt lat="43.441219581174295" lon="5.836297722167847"><ele>419.0</ele><time>2026-03-28T12:38:34Z</time></trkpt><trkpt lat="43.44115698187581" lon="5.8362285545005115"><ele>419.0</ele><time>2026-03-28T12:38:35Z</time></trkpt><trkpt lat="43.44108768486763" lon="5.836150742443573"><ele>418.99999999999994</ele><time>2026-03-28T12:38:38Z</time></trkpt><trkpt lat="43.44107055849888" lon="5.836052989874538"><ele>419.0</ele><time>2026-03-28T12:38:39.999Z</time></trkpt><trkpt lat="43.44110102998784" lon="5.835937156904403"><ele>419.79999999999995</ele><time>2026-03-28T12:38:41.999Z</time></trkpt><trkpt lat="43.44107935925592" lon="5.8358330202202175"><ele>420.59999999999997</ele><time>2026-03-28T12:38:42.999Z</time></trkpt><trkpt lat="43.44101719229184" lon="5.835682747783315"><ele>421.4</ele><time>2026-03-28T12:38:43.999Z</time></trkpt><trkpt lat="43.4409754797638" lon="5.8355571371003485"><ele>422.2</ele><time>2026-03-28T12:38:44.999Z</time></trkpt><trkpt lat="43.44095409963309" lon="5.83547187079785"><ele>423.0</ele><time>2026-03-28T12:38:45.999Z</time></trkpt><trkpt lat="43.44089911785087" lon="5.835371421912062"><ele>423.0</ele><time>2026-03-28T12:38:47.999Z</time></trkpt><trkpt lat="43.440944912152695" lon="5.8352825120745715"><ele>423.0</ele><time>2026-03-28T12:38:50.999Z</time></trkpt><trkpt lat="43.44093456743297" lon="5.83515424942244"><ele>423.0</ele><time>2026-03-28T12:38:52.999Z</time></trkpt><trkpt lat="43.44087400460363" lon="5.8349259972702985"><ele>423.0</ele><time>2026-03-28T12:38:55.999Z</time></trkpt><trkpt lat="43.440855841908096" lon="5.834775571494195"><ele>422.4</ele><time>2026-03-28T12:38:57.999Z</time></trkpt><trkpt lat="43.44078963932021" lon="5.834656698482871"><ele>421.79999999999995</ele><time>2026-03-28T12:38:59.999Z</time></trkpt><trkpt lat="43.44074718618423" lon="5.8345454142691775"><ele>421.2</ele><time>2026-03-28T12:39:00.999Z</time></trkpt><trkpt lat="43.4407191211824" lon="5.834398310462473"><ele>420.6</ele><time>2026-03-28T12:39:02.999Z</time></trkpt><trkpt lat="43.440744600153465" lon="5.834294985699871"><ele>420.0</ele><time>2026-03-28T12:39:04.999Z</time></trkpt><trkpt lat="43.44073302416869" lon="5.834195746060654"><ele>420.0</ele><time>2026-03-28T12:39:05.999Z</time></trkpt><trkpt lat="43.44070948078242" lon="5.834086240531567"><ele>420.0</ele><time>2026-03-28T12:39:06.999Z</time></trkpt><trkpt lat="43.44071503356522" lon="5.833963165829885"><ele>420.0</ele><time>2026-03-28T12:39:07.999Z</time></trkpt><trkpt lat="43.4406904344585" lon="5.833832086696772"><ele>420.0</ele><time>2026-03-28T12:39:08.999Z</time></trkpt><trkpt lat="43.44066248778221" lon="5.833737465305547"><ele>420.0</ele><time>2026-03-28T12:39:09.999Z</time></trkpt><trkpt lat="43.440618127624404" lon="5.8336329596305685"><ele>420.0</ele><time>2026-03-28T12:39:11.999Z</time></trkpt><trkpt lat="43.44062322639814" lon="5.833510257335626"><ele>420.8333333333333</ele><time>2026-03-28T12:39:13.999Z</time></trkpt><trkpt lat="43.44062227226894" lon="5.833402079020014"><ele>421.66666666666663</ele><time>2026-03-28T12:39:14.999Z</time></trkpt><trkpt lat="43.44062213929241" lon="5.833272982061072"><ele>422.5</ele><time>2026-03-28T12:39:15.999Z</time></trkpt><trkpt lat="43.440641263076614" lon="5.8331311341272585"><ele>423.3333333333333</ele><time>2026-03-28T12:39:16.999Z</time></trkpt><trkpt lat="43.4406350658058" lon="5.833029515416833"><ele>424.16666666666663</ele><time>2026-03-28T12:39:17.999Z</time></trkpt><trkpt lat="43.440608515208986" lon="5.832938519170591"><ele>425.0</ele><time>2026-03-28T12:39:18.999Z</time></trkpt><trkpt lat="43.44060527078556" lon="5.832843243820417"><ele>425.0</ele><time>2026-03-28T12:39:19.999Z</time></trkpt><trkpt lat="43.44061044431122" lon="5.832699402117374"><ele>425.0</ele><time>2026-03-28T12:39:21.999Z</time></trkpt><trkpt lat="43.44058050027157" lon="5.8325934026138055"><ele>425.0</ele><time>2026-03-28T12:39:22.999Z</time></trkpt><trkpt lat="43.440584111174125" lon="5.8324879986335185"><ele>425.0</ele><time>2026-03-28T12:39:23.999Z</time></trkpt><trkpt lat="43.4405833132221" lon="5.832396671200497"><ele>425.0</ele><time>2026-03-28T12:39:24.999Z</time></trkpt><trkpt lat="43.440640368153176" lon="5.832181988208436"><ele>426.16666666666663</ele><time>2026-03-28T12:39:26.999Z</time></trkpt><trkpt lat="43.44065585226969" lon="5.832072986872979"><ele>427.3333333333333</ele><time>2026-03-28T12:39:27.999Z</time></trkpt><trkpt lat="43.440617001754234" lon="5.831922550519819"><ele>428.5</ele><time>2026-03-28T12:39:29.999Z</time></trkpt><trkpt lat="43.440584776337694" lon="5.831821383483581"><ele>429.66666666666663</ele><time>2026-03-28T12:39:30.999Z</time></trkpt><trkpt lat="43.44055822180982" lon="5.831700115946142"><ele>430.8333333333333</ele><time>2026-03-28T12:39:31.999Z</time></trkpt><trkpt lat="43.44053864364887" lon="5.831594354703037"><ele>432.0</ele><time>2026-03-28T12:39:32.999Z</time></trkpt><trkpt lat="43.44052502061352" lon="5.831451763352625"><ele>432.0</ele><time>2026-03-28T12:39:34.999Z</time></trkpt><trkpt lat="43.44052424072813" lon="5.83135617610943"><ele>432.00000000000006</ele><time>2026-03-28T12:39:35.999Z</time></trkpt><trkpt lat="43.44050347252007" lon="5.831235725542528"><ele>432.00000000000006</ele><time>2026-03-28T12:39:36.999Z</time></trkpt><trkpt lat="43.4405024884473" lon="5.831118682626281"><ele>432.0</ele><time>2026-03-28T12:39:37.999Z</time></trkpt><trkpt lat="43.44048904586948" lon="5.83096327117926"><ele>432.0</ele><time>2026-03-28T12:39:39.999Z</time></trkpt><trkpt lat="43.44051158762917" lon="5.83082801076878"><ele>433.0</ele><time>2026-03-28T12:39:41.999Z</time></trkpt><trkpt lat="43.440507519201006" lon="5.830730777827501"><ele>434.0</ele><time>2026-03-28T12:39:42.999Z</time></trkpt><trkpt lat="43.44047598678102" lon="5.830602749801399"><ele>435.0</ele><time>2026-03-28T12:39:44.999Z</time></trkpt><trkpt lat="43.440448679901884" lon="5.830509021586892"><ele>436.0</ele><time>2026-03-28T12:39:46.999Z</time></trkpt><trkpt lat="43.440390398337726" lon="5.830426512455147"><ele>437.0</ele><time>2026-03-28T12:39:48.999Z</time></trkpt><trkpt lat="43.440389215710006" lon="5.830338851332783"><ele>438.0</ele><time>2026-03-28T12:39:49.999Z</time></trkpt><trkpt lat="43.44031618858565" lon="5.830239614196535"><ele>439.59999999999997</ele><time>2026-03-28T12:39:51.999Z</time></trkpt><trkpt lat="43.440286873221545" lon="5.8301406487353455"><ele>441.19999999999993</ele><time>2026-03-28T12:39:52.999Z</time></trkpt><trkpt lat="43.44025809021786" lon="5.830035203991593"><ele>442.8</ele><time>2026-03-28T12:39:53.999Z</time></trkpt><trkpt lat="43.44025599712879" lon="5.82989920805377"><ele>444.4</ele><time>2026-03-28T12:39:55.999Z</time></trkpt><trkpt lat="43.44024527979492" lon="5.829721072803049"><ele>446.0</ele><time>2026-03-28T12:39:57.999Z</time></trkpt><trkpt lat="43.440228074707036" lon="5.829602616336853"><ele>445.99999999999994</ele><time>2026-03-28T12:39:58.999Z</time></trkpt><trkpt lat="43.44023307352975" lon="5.829512278640702"><ele>446.0</ele><time>2026-03-28T12:39:59.999Z</time></trkpt><trkpt lat="43.44022802371934" lon="5.829417270160757"><ele>446.0</ele><time>2026-03-28T12:40:02Z</time></trkpt><trkpt lat="43.44026057134299" lon="5.829292241082649"><ele>446.0</ele><time>2026-03-28T12:40:05Z</time></trkpt><trkpt lat="43.440235805045354" lon="5.829151021755166"><ele>445.99999999999994</ele><time>2026-03-28T12:40:07Z</time></trkpt><trkpt lat="43.44023686389245" lon="5.829049780803264"><ele>446.0</ele><time>2026-03-28T12:40:08Z</time></trkpt><trkpt lat="43.440207105674496" lon="5.828929616929677"><ele>445.99999999999994</ele><time>2026-03-28T12:40:10Z</time></trkpt><trkpt lat="43.440151844814736" lon="5.828842953451394"><ele>446.0</ele><time>2026-03-28T12:40:12Z</time></trkpt><trkpt lat="43.440105955457845" lon="5.828906704945597"><ele>446.0</ele><time>2026-03-28T12:40:16Z</time></trkpt><trkpt lat="43.44012608549684" lon="5.829088782839769"><ele>446.0</ele><time>2026-03-28T12:40:18Z</time></trkpt><trkpt lat="43.44013079978622" lon="5.829194721464153"><ele>445.99999999999994</ele><time>2026-03-28T12:40:19Z</time></trkpt><trkpt lat="43.440135068442586" lon="5.829313322922809"><ele>446.0</ele><time>2026-03-28T12:40:20Z</time></trkpt><trkpt lat="43.4401149461819" lon="5.829434960324217"><ele>446.0</ele><time>2026-03-28T12:40:21Z</time></trkpt><trkpt lat="43.44008633860448" lon="5.829539988388606"><ele>446.0</ele><time>2026-03-28T12:40:22Z</time></trkpt><trkpt lat="43.44004127856032" lon="5.829676551578845"><ele>446.0</ele><time>2026-03-28T12:40:23Z</time></trkpt><trkpt lat="43.44002253357778" lon="5.829824122243504"><ele>446.0</ele><time>2026-03-28T12:40:24Z</time></trkpt><trkpt lat="43.44003629507637" lon="5.830002322650141"><ele>446.0</ele><time>2026-03-28T12:40:25Z</time></trkpt><trkpt lat="43.440062080287674" lon="5.830193957086638"><ele>446.16666666666663</ele><time>2026-03-28T12:40:26Z</time></trkpt><trkpt lat="43.44008700889852" lon="5.83036776677024"><ele>446.3333333333333</ele><time>2026-03-28T12:40:27Z</time></trkpt><trkpt lat="43.44011140162155" lon="5.830483668481421"><ele>446.5</ele><time>2026-03-28T12:40:28Z</time></trkpt><trkpt lat="43.440132428308345" lon="5.830568530704356"><ele>446.66666666666663</ele><time>2026-03-28T12:40:29Z</time></trkpt><trkpt lat="43.44012472917936" lon="5.8306593444664845"><ele>446.8333333333333</ele><time>2026-03-28T12:40:30Z</time></trkpt><trkpt lat="43.4401043925598" lon="5.830778744707519"><ele>447.0</ele><time>2026-03-28T12:40:31Z</time></trkpt><trkpt lat="43.44008168377643" lon="5.8309176604645225"><ele>446.40000000000003</ele><time>2026-03-28T12:40:32Z</time></trkpt><trkpt lat="43.44007390879973" lon="5.831070050581489"><ele>445.80000000000007</ele><time>2026-03-28T12:40:33Z</time></trkpt><trkpt lat="43.440056647468616" lon="5.831191889706326"><ele>445.2</ele><time>2026-03-28T12:40:34Z</time></trkpt><trkpt lat="43.44002086966607" lon="5.831283753114638"><ele>444.6</ele><time>2026-03-28T12:40:35Z</time></trkpt><trkpt lat="43.439972942859484" lon="5.831392692166495"><ele>444.0</ele><time>2026-03-28T12:40:36Z</time></trkpt><trkpt lat="43.43994292269244" lon="5.831502067532413"><ele>444.0</ele><time>2026-03-28T12:40:37Z</time></trkpt><trkpt lat="43.43994673713849" lon="5.831635332576331"><ele>444.0</ele><time>2026-03-28T12:40:38Z</time></trkpt><trkpt lat="43.43997299049511" lon="5.8318007659564275"><ele>444.0</ele><time>2026-03-28T12:40:38.999Z</time></trkpt><trkpt lat="43.43996633088066" lon="5.831938298692466"><ele>444.0</ele><time>2026-03-28T12:40:39.999Z</time></trkpt><trkpt lat="43.43993229120945" lon="5.832082532346013"><ele>444.0</ele><time>2026-03-28T12:40:40.999Z</time></trkpt><trkpt lat="43.43988569926268" lon="5.832237831879987"><ele>444.0</ele><time>2026-03-28T12:40:41.999Z</time></trkpt><trkpt lat="43.43985126192338" lon="5.832358646219992"><ele>444.0</ele><time>2026-03-28T12:40:42.999Z</time></trkpt><trkpt lat="43.43981779304899" lon="5.83247535770369"><ele>444.0</ele><time>2026-03-28T12:40:43.999Z</time></trkpt><trkpt lat="43.43976700239338" lon="5.832570240998296"><ele>444.0</ele><time>2026-03-28T12:40:44.999Z</time></trkpt><trkpt lat="43.43970426418733" lon="5.832648563060182"><ele>444.0</ele><time>2026-03-28T12:40:45.999Z</time></trkpt><trkpt lat="43.439632404562026" lon="5.832729886785215"><ele>444.0</ele><time>2026-03-28T12:40:46.999Z</time></trkpt><trkpt lat="43.43953769827417" lon="5.832813784191765"><ele>447.5</ele><time>2026-03-28T12:40:47.999Z</time></trkpt><trkpt lat="43.43943229575819" lon="5.832911103936102"><ele>451.0</ele><time>2026-03-28T12:40:48.999Z</time></trkpt><trkpt lat="43.43932957453341" lon="5.833038028297153"><ele>454.5</ele><time>2026-03-28T12:40:49.999Z</time></trkpt><trkpt lat="43.439242357831354" lon="5.833134458647405"><ele>458.0</ele><time>2026-03-28T12:40:50.999Z</time></trkpt><trkpt lat="43.43917054739239" lon="5.833213580921146"><ele>458.0</ele><time>2026-03-28T12:40:51.999Z</time></trkpt><trkpt lat="43.43910746782151" lon="5.833268272804314"><ele>457.99999999999994</ele><time>2026-03-28T12:40:52.999Z</time></trkpt><trkpt lat="43.43900842329102" lon="5.833278433086317"><ele>457.99999999999994</ele><time>2026-03-28T12:40:54.999Z</time></trkpt><trkpt lat="43.43894458111434" lon="5.83320410406746"><ele>458.0</ele><time>2026-03-28T12:40:56.999Z</time></trkpt><trkpt lat="43.43888498266451" lon="5.833138693955595"><ele>458.0</ele><time>2026-03-28T12:41:00.999Z</time></trkpt><trkpt lat="43.4386705725128" lon="5.832940967638183"><ele>458.2</ele><time>2026-03-28T12:41:03.999Z</time></trkpt><trkpt lat="43.43861119851973" lon="5.832861546834583"><ele>458.4</ele><time>2026-03-28T12:41:04.999Z</time></trkpt><trkpt lat="43.43857472231491" lon="5.8327633635854905"><ele>458.59999999999997</ele><time>2026-03-28T12:41:05.999Z</time></trkpt><trkpt lat="43.43854522227515" lon="5.832630138089787"><ele>458.79999999999995</ele><time>2026-03-28T12:41:06.999Z</time></trkpt><trkpt lat="43.438495070075255" lon="5.832458843867338"><ele>459.0</ele><time>2026-03-28T12:41:07.999Z</time></trkpt><trkpt lat="43.438407505379175" lon="5.8322638195532015"><ele>459.0</ele><time>2026-03-28T12:41:08.999Z</time></trkpt><trkpt lat="43.438305982218886" lon="5.832075001911993"><ele>459.0</ele><time>2026-03-28T12:41:09.999Z</time></trkpt><trkpt lat="43.43821990895495" lon="5.831874310794396"><ele>459.0</ele><time>2026-03-28T12:41:10.999Z</time></trkpt><trkpt lat="43.43813578830724" lon="5.8317027652591245"><ele>458.0</ele><time>2026-03-28T12:41:11.999Z</time></trkpt><trkpt lat="43.43805446808434" lon="5.831543326707768"><ele>457.0</ele><time>2026-03-28T12:41:12.999Z</time></trkpt><trkpt lat="43.43796931709179" lon="5.831384400876763"><ele>456.0</ele><time>2026-03-28T12:41:13.999Z</time></trkpt><trkpt lat="43.437889754759425" lon="5.8312379834696735"><ele>455.0</ele><time>2026-03-28T12:41:14.999Z</time></trkpt><trkpt lat="43.437828434494755" lon="5.831116203064883"><ele>455.0</ele><time>2026-03-28T12:41:15.999Z</time></trkpt><trkpt lat="43.43778927750005" lon="5.830980912206937"><ele>455.0</ele><time>2026-03-28T12:41:16.999Z</time></trkpt><trkpt lat="43.43774020804065" lon="5.830839079836686"><ele>455.0</ele><time>2026-03-28T12:41:17.999Z</time></trkpt><trkpt lat="43.43769147341045" lon="5.830742285839387"><ele>455.0</ele><time>2026-03-28T12:41:18.999Z</time></trkpt><trkpt lat="43.43762502426827" lon="5.830665310086911"><ele>455.0</ele><time>2026-03-28T12:41:19.999Z</time></trkpt><trkpt lat="43.437561899767395" lon="5.8306372406183815"><ele>457.66666666666663</ele><time>2026-03-28T12:41:20.999Z</time></trkpt><trkpt lat="43.43748242127461" lon="5.830640106649252"><ele>460.3333333333333</ele><time>2026-03-28T12:41:21.999Z</time></trkpt><trkpt lat="43.437396388285414" lon="5.830634420695737"><ele>463.0</ele><time>2026-03-28T12:41:22.999Z</time></trkpt><trkpt lat="43.43731215469844" lon="5.830640277753234"><ele>465.66666666666663</ele><time>2026-03-28T12:41:23.999Z</time></trkpt><trkpt lat="43.437218865991" lon="5.830667691989761"><ele>468.3333333333333</ele><time>2026-03-28T12:41:24.999Z</time></trkpt><trkpt lat="43.43713944567944" lon="5.830665990682816"><ele>471.0</ele><time>2026-03-28T12:41:25.999Z</time></trkpt><trkpt lat="43.43704200690612" lon="5.830637625830502"><ele>472.5</ele><time>2026-03-28T12:41:26.999Z</time></trkpt><trkpt lat="43.43692398134716" lon="5.830669928588165"><ele>474.0</ele><time>2026-03-28T12:41:27.999Z</time></trkpt><trkpt lat="43.436802675442735" lon="5.8307591408229875"><ele>475.5</ele><time>2026-03-28T12:41:28.999Z</time></trkpt><trkpt lat="43.436709259895" lon="5.830851736880037"><ele>477.0</ele><time>2026-03-28T12:41:29.999Z</time></trkpt><trkpt lat="43.43664199627491" lon="5.8309208889419875"><ele>477.0</ele><time>2026-03-28T12:41:30.999Z</time></trkpt><trkpt lat="43.43657719179094" lon="5.830930170932182"><ele>477.00000000000006</ele><time>2026-03-28T12:41:31.999Z</time></trkpt><trkpt lat="43.43651216223145" lon="5.830988725746103"><ele>477.00000000000006</ele><time>2026-03-28T12:41:32.999Z</time></trkpt><trkpt lat="43.436510514026146" lon="5.831159754709089"><ele>477.0</ele><time>2026-03-28T12:41:34.999Z</time></trkpt><trkpt lat="43.43650454019572" lon="5.831299928374669"><ele>477.0</ele><time>2026-03-28T12:41:35.999Z</time></trkpt><trkpt lat="43.43647861713156" lon="5.831449181936348"><ele>478.1666666666667</ele><time>2026-03-28T12:41:36.999Z</time></trkpt><trkpt lat="43.43646379639328" lon="5.831561428389759"><ele>479.33333333333337</ele><time>2026-03-28T12:41:37.999Z</time></trkpt><trkpt lat="43.43645518589701" lon="5.831650103299421"><ele>480.5</ele><time>2026-03-28T12:41:38.999Z</time></trkpt><trkpt lat="43.43641409905471" lon="5.831717867894139"><ele>481.6666666666667</ele><time>2026-03-28T12:41:39.999Z</time></trkpt><trkpt lat="43.43635425798909" lon="5.83168510990746"><ele>482.83333333333337</ele><time>2026-03-28T12:41:43.999Z</time></trkpt><trkpt lat="43.43629244490818" lon="5.831604188628663"><ele>484.0</ele><time>2026-03-28T12:41:45.999Z</time></trkpt><trkpt lat="43.436181091244755" lon="5.831572399482121"><ele>484.0</ele><time>2026-03-28T12:41:47.999Z</time></trkpt><trkpt lat="43.436155621230284" lon="5.831437922501822"><ele>484.0</ele><time>2026-03-28T12:41:52.999Z</time></trkpt><trkpt lat="43.43620778810885" lon="5.831373179292479"><ele>484.0</ele><time>2026-03-28T12:41:54.999Z</time></trkpt><trkpt lat="43.436240874827995" lon="5.831229450480497"><ele>484.0</ele><time>2026-03-28T12:41:56.999Z</time></trkpt><trkpt lat="43.436290170929865" lon="5.831140117621825"><ele>484.0</ele><time>2026-03-28T12:41:58.999Z</time></trkpt><trkpt lat="43.43630415935772" lon="5.831020253394686"><ele>482.83333333333337</ele><time>2026-03-28T12:42:00.999Z</time></trkpt><trkpt lat="43.436306589961006" lon="5.830915990514613"><ele>481.6666666666667</ele><time>2026-03-28T12:42:02.999Z</time></trkpt><trkpt lat="43.43632678385915" lon="5.830785084006621"><ele>480.5</ele><time>2026-03-28T12:42:04.999Z</time></trkpt><trkpt lat="43.43634780821044" lon="5.830654175436859"><ele>479.33333333333337</ele><time>2026-03-28T12:42:07Z</time></trkpt><trkpt lat="43.436393828901096" lon="5.830577081432002"><ele>478.1666666666667</ele><time>2026-03-28T12:42:09Z</time></trkpt><trkpt lat="43.436349666973165" lon="5.8305149290675065"><ele>477.0</ele><time>2026-03-28T12:42:20Z</time></trkpt><trkpt lat="43.43628664682878" lon="5.830530699965993"><ele>477.0</ele><time>2026-03-28T12:42:22Z</time></trkpt><trkpt lat="43.43632120893158" lon="5.830434400900202"><ele>477.0</ele><time>2026-03-28T12:42:27Z</time></trkpt><trkpt lat="43.436331768313394" lon="5.830328385001704"><ele>477.0</ele><time>2026-03-28T12:42:29Z</time></trkpt><trkpt lat="43.436330651195284" lon="5.830213690203249"><ele>477.0</ele><time>2026-03-28T12:42:31Z</time></trkpt><trkpt lat="43.436364800174324" lon="5.830127051275687"><ele>477.0</ele><time>2026-03-28T12:42:33Z</time></trkpt><trkpt lat="43.43641467826929" lon="5.829981457504799"><ele>477.0</ele><time>2026-03-28T12:42:35Z</time></trkpt><trkpt lat="43.43643345479689" lon="5.829892238866341"><ele>479.0</ele><time>2026-03-28T12:42:35.999Z</time></trkpt><trkpt lat="43.43646512356761" lon="5.829776683771972"><ele>481.0</ele><time>2026-03-28T12:42:37.999Z</time></trkpt><trkpt lat="43.43639781221738" lon="5.829821559429119"><ele>483.0</ele><time>2026-03-28T12:42:44.999Z</time></trkpt><trkpt lat="43.43634205172245" lon="5.82987649832374"><ele>485.0</ele><time>2026-03-28T12:42:46.999Z</time></trkpt><trkpt lat="43.43629132912704" lon="5.829965201254266"><ele>487.0</ele><time>2026-03-28T12:42:50.999Z</time></trkpt><trkpt lat="43.43622002552959" lon="5.830006120190126"><ele>489.0</ele><time>2026-03-28T12:42:53.999Z</time></trkpt><trkpt lat="43.43623130736672" lon="5.829884510026714"><ele>489.0</ele><time>2026-03-28T12:42:56.999Z</time></trkpt><trkpt lat="43.43625238537589" lon="5.829757771724196"><ele>489.0</ele><time>2026-03-28T12:42:59.999Z</time></trkpt><trkpt lat="43.436275569822186" lon="5.829676205691703"><ele>489.0</ele><time>2026-03-28T12:43:00.999Z</time></trkpt><trkpt lat="43.436301617371285" lon="5.82955595116555"><ele>489.0</ele><time>2026-03-28T12:43:02.999Z</time></trkpt><trkpt lat="43.43629375539621" lon="5.8294417136168155"><ele>489.0</ele><time>2026-03-28T12:43:04.999Z</time></trkpt><trkpt lat="43.43630431799299" lon="5.8293480010129155"><ele>489.0</ele><time>2026-03-28T12:43:07.999Z</time></trkpt><trkpt lat="43.436315330253926" lon="5.829188536095976"><ele>493.3333333333333</ele><time>2026-03-28T12:43:09.999Z</time></trkpt><trkpt lat="43.43626524600678" lon="5.8290732669102665"><ele>497.66666666666663</ele><time>2026-03-28T12:43:11.999Z</time></trkpt><trkpt lat="43.43625666107472" lon="5.828952493542127"><ele>502.0</ele><time>2026-03-28T12:43:13.999Z</time></trkpt><trkpt lat="43.43618487946556" lon="5.829050564412991"><ele>506.3333333333333</ele><time>2026-03-28T12:43:17.999Z</time></trkpt><trkpt lat="43.43613676112134" lon="5.829119978091394"><ele>510.66666666666663</ele><time>2026-03-28T12:43:19.999Z</time></trkpt><trkpt lat="43.43610379145942" lon="5.829024721748055"><ele>515.0</ele><time>2026-03-28T12:43:24.999Z</time></trkpt><trkpt lat="43.43611942312646" lon="5.828909192529045"><ele>515.0</ele><time>2026-03-28T12:43:27.999Z</time></trkpt><trkpt lat="43.43616011580594" lon="5.8287742203855695"><ele>515.0</ele><time>2026-03-28T12:43:30.999Z</time></trkpt><trkpt lat="43.43610486098509" lon="5.828729256652459"><ele>515.0</ele><time>2026-03-28T12:43:33.999Z</time></trkpt><trkpt lat="43.43603544526933" lon="5.828763022775644"><ele>515.0</ele><time>2026-03-28T12:43:36.999Z</time></trkpt><trkpt lat="43.43604880206502" lon="5.828608493966679"><ele>515.0</ele><time>2026-03-28T12:43:39.999Z</time></trkpt><trkpt lat="43.43607592158264" lon="5.828503301732137"><ele>515.0</ele><time>2026-03-28T12:43:41.999Z</time></trkpt><trkpt lat="43.43607623845478" lon="5.828386119042952"><ele>515.6666666666666</ele><time>2026-03-28T12:43:44.999Z</time></trkpt><trkpt lat="43.43611396243879" lon="5.82826462158068"><ele>516.3333333333333</ele><time>2026-03-28T12:43:46.999Z</time></trkpt><trkpt lat="43.43615667784577" lon="5.828103618216696"><ele>517.0</ele><time>2026-03-28T12:43:49.999Z</time></trkpt><trkpt lat="43.43618618938458" lon="5.8279968952746115"><ele>517.6666666666666</ele><time>2026-03-28T12:43:52.999Z</time></trkpt><trkpt lat="43.436220872955914" lon="5.8279173408459295"><ele>518.3333333333334</ele><time>2026-03-28T12:43:54.999Z</time></trkpt><trkpt lat="43.43625488359454" lon="5.827823324166733"><ele>519.0</ele><time>2026-03-28T12:43:56.999Z</time></trkpt><trkpt lat="43.43632610797451" lon="5.8277483914418955"><ele>519.0</ele><time>2026-03-28T12:43:58.999Z</time></trkpt><trkpt lat="43.43637295331097" lon="5.827682314649226"><ele>519.0</ele><time>2026-03-28T12:44:00.999Z</time></trkpt><trkpt lat="43.43645581602734" lon="5.827615021489679"><ele>519.0</ele><time>2026-03-28T12:44:02.999Z</time></trkpt><trkpt lat="43.43651202616261" lon="5.827555194995179"><ele>519.0</ele><time>2026-03-28T12:44:04.999Z</time></trkpt><trkpt lat="43.43654907452487" lon="5.827481463391412"><ele>519.0</ele><time>2026-03-28T12:44:06.999Z</time></trkpt><trkpt lat="43.43660902091651" lon="5.827428206996608"><ele>519.0</ele><time>2026-03-28T12:44:08.999Z</time></trkpt><trkpt lat="43.43665934778173" lon="5.827365582829578"><ele>519.0</ele><time>2026-03-28T12:44:10.999Z</time></trkpt><trkpt lat="43.43673257688069" lon="5.827338588580713"><ele>522.0</ele><time>2026-03-28T12:44:13Z</time></trkpt><trkpt lat="43.43681114610747" lon="5.827305430019925"><ele>525.0</ele><time>2026-03-28T12:44:15Z</time></trkpt><trkpt lat="43.436872927693614" lon="5.827271887498236"><ele>528.0</ele><time>2026-03-28T12:44:17Z</time></trkpt><trkpt lat="43.43688931493855" lon="5.827185108090575"><ele>531.0</ele><time>2026-03-28T12:44:20Z</time></trkpt><trkpt lat="43.43683384168521" lon="5.8271215008890245"><ele>534.0</ele><time>2026-03-28T12:44:23Z</time></trkpt><trkpt lat="43.436785702317614" lon="5.827034417358211"><ele>537.0</ele><time>2026-03-28T12:44:27Z</time></trkpt><trkpt lat="43.4368506230613" lon="5.8269805367753715"><ele>540.0</ele><time>2026-03-28T12:44:28.999Z</time></trkpt><trkpt lat="43.4369006443374" lon="5.826878072793708"><ele>542.5</ele><time>2026-03-28T12:44:30.999Z</time></trkpt><trkpt lat="43.43692066996671" lon="5.826755292763917"><ele>545.0</ele><time>2026-03-28T12:44:32.999Z</time></trkpt><trkpt lat="43.436841746412576" lon="5.826698586960853"><ele>547.5</ele><time>2026-03-28T12:45:06.999Z</time></trkpt><trkpt lat="43.43686639233322" lon="5.826579010879037"><ele>550.0</ele><time>2026-03-28T12:45:08.999Z</time></trkpt><trkpt lat="43.43689235053048" lon="5.826489894675047"><ele>552.5</ele><time>2026-03-28T12:45:09.999Z</time></trkpt><trkpt lat="43.43690581073595" lon="5.826357804108222"><ele>555.0</ele><time>2026-03-28T12:45:11.999Z</time></trkpt><trkpt lat="43.43688694528897" lon="5.826229624354627"><ele>555.0</ele><time>2026-03-28T12:45:13.999Z</time></trkpt><trkpt lat="43.43688533769656" lon="5.826083634543037"><ele>555.0</ele><time>2026-03-28T12:45:15.999Z</time></trkpt><trkpt lat="43.436827714212335" lon="5.825978572407159"><ele>555.0</ele><time>2026-03-28T12:45:17.999Z</time></trkpt><trkpt lat="43.43682171487039" lon="5.825834827804176"><ele>555.0</ele><time>2026-03-28T12:45:19.999Z</time></trkpt><trkpt lat="43.43678209888338" lon="5.8256781269466025"><ele>555.0</ele><time>2026-03-28T12:45:21.999Z</time></trkpt><trkpt lat="43.43679897463507" lon="5.825498776268745"><ele>555.4</ele><time>2026-03-28T12:45:23.999Z</time></trkpt><trkpt lat="43.43679847793652" lon="5.825380669771077"><ele>555.8</ele><time>2026-03-28T12:45:25.999Z</time></trkpt><trkpt lat="43.43682105111923" lon="5.825289390878067"><ele>556.2</ele><time>2026-03-28T12:45:29Z</time></trkpt><trkpt lat="43.4368608156661" lon="5.825118971309953"><ele>556.6</ele><time>2026-03-28T12:45:31Z</time></trkpt><trkpt lat="43.43687860672364" lon="5.8249824368781065"><ele>557.0</ele><time>2026-03-28T12:45:33Z</time></trkpt><trkpt lat="43.436882443693776" lon="5.82485533917474"><ele>557.1666666666666</ele><time>2026-03-28T12:45:39Z</time></trkpt><trkpt lat="43.436884547870854" lon="5.824743956718151"><ele>557.3333333333333</ele><time>2026-03-28T12:45:42Z</time></trkpt><trkpt lat="43.436874729493624" lon="5.82464646749054"><ele>557.5</ele><time>2026-03-28T12:45:43Z</time></trkpt><trkpt lat="43.43687347668324" lon="5.824541286150174"><ele>557.6666666666666</ele><time>2026-03-28T12:45:44Z</time></trkpt><trkpt lat="43.43689275039893" lon="5.824456933533215"><ele>557.8333333333334</ele><time>2026-03-28T12:45:46Z</time></trkpt><trkpt lat="43.436890504021044" lon="5.824327642728061"><ele>558.0</ele><time>2026-03-28T12:45:48Z</time></trkpt><trkpt lat="43.436867510291016" lon="5.824210006306001"><ele>559.1999999999999</ele><time>2026-03-28T12:45:49Z</time></trkpt><trkpt lat="43.436883479359196" lon="5.824088935814288"><ele>560.4</ele><time>2026-03-28T12:45:51Z</time></trkpt><trkpt lat="43.43687479882006" lon="5.823963560515918"><ele>561.5999999999999</ele><time>2026-03-28T12:45:53Z</time></trkpt><trkpt lat="43.43687520297445" lon="5.823847158340406"><ele>562.8</ele><time>2026-03-28T12:45:54Z</time></trkpt><trkpt lat="43.43684490319807" lon="5.823702274936547"><ele>564.0</ele><time>2026-03-28T12:45:56Z</time></trkpt><trkpt lat="43.436835204397134" lon="5.823595263132072"><ele>564.8</ele><time>2026-03-28T12:45:58Z</time></trkpt><trkpt lat="43.43681578853666" lon="5.823434863978798"><ele>565.5999999999999</ele><time>2026-03-28T12:46:01Z</time></trkpt><trkpt lat="43.436788884490596" lon="5.8233174777468"><ele>566.4</ele><time>2026-03-28T12:46:03Z</time></trkpt><trkpt lat="43.436756393419564" lon="5.823154613566548"><ele>567.1999999999999</ele><time>2026-03-28T12:46:05Z</time></trkpt><trkpt lat="43.436741710691436" lon="5.823041753889814"><ele>568.0</ele><time>2026-03-28T12:46:07Z</time></trkpt><trkpt lat="43.436725713083284" lon="5.82291708453029"><ele>568.0</ele><time>2026-03-28T12:46:09Z</time></trkpt><trkpt lat="43.43669758556941" lon="5.822772520803002"><ele>568.0</ele><time>2026-03-28T12:46:12Z</time></trkpt><trkpt lat="43.43668803717089" lon="5.8226465177042614"><ele>568.0</ele><time>2026-03-28T12:46:14Z</time></trkpt><trkpt lat="43.43667984573333" lon="5.822547998804465"><ele>568.0</ele><time>2026-03-28T12:46:16Z</time></trkpt><trkpt lat="43.43666272007374" lon="5.822453599306772"><ele>568.0</ele><time>2026-03-28T12:46:18Z</time></trkpt><trkpt lat="43.436643720910176" lon="5.822357153745429"><ele>568.0</ele><time>2026-03-28T12:46:21Z</time></trkpt><trkpt lat="43.4366434641421" lon="5.822243492867251"><ele>569.1666666666667</ele><time>2026-03-28T12:46:24Z</time></trkpt><trkpt lat="43.43665432164018" lon="5.822126731345932"><ele>570.3333333333334</ele><time>2026-03-28T12:46:27Z</time></trkpt><trkpt lat="43.43665929567624" lon="5.822000916360445"><ele>571.5</ele><time>2026-03-28T12:46:30Z</time></trkpt><trkpt lat="43.4366670325096" lon="5.821900427419207"><ele>572.6666666666666</ele><time>2026-03-28T12:46:32Z</time></trkpt><trkpt lat="43.43667060468901" lon="5.821804529870953"><ele>573.8333333333333</ele><time>2026-03-28T12:46:34Z</time></trkpt><trkpt lat="43.43667668606598" lon="5.821714876256723"><ele>575.0</ele><time>2026-03-28T12:46:36Z</time></trkpt><trkpt lat="43.43667357955929" lon="5.821573509057143"><ele>575.0</ele><time>2026-03-28T12:46:39Z</time></trkpt><trkpt lat="43.43666847178283" lon="5.821460426259003"><ele>575.0</ele><time>2026-03-28T12:46:41Z</time></trkpt><trkpt lat="43.4366658095749" lon="5.821349407267296"><ele>575.0</ele><time>2026-03-28T12:46:43Z</time></trkpt><trkpt lat="43.436659960410196" lon="5.8212387445483715"><ele>575.0</ele><time>2026-03-28T12:46:45Z</time></trkpt><trkpt lat="43.436638217610735" lon="5.821146407690223"><ele>575.0</ele><time>2026-03-28T12:46:47Z</time></trkpt><trkpt lat="43.43661934251661" lon="5.821016066133956"><ele>575.0</ele><time>2026-03-28T12:46:50Z</time></trkpt><trkpt lat="43.436564608963465" lon="5.820918112135924"><ele>575.0</ele><time>2026-03-28T12:46:53Z</time></trkpt><trkpt lat="43.43650284395722" lon="5.820973176252393"><ele>575.0</ele><time>2026-03-28T12:46:56Z</time></trkpt><trkpt lat="43.43650053288012" lon="5.821060175551789"><ele>575.0</ele><time>2026-03-28T12:47:07Z</time></trkpt><trkpt lat="43.43645193202955" lon="5.821191126264498"><ele>575.0</ele><time>2026-03-28T12:47:09Z</time></trkpt><trkpt lat="43.436440539138026" lon="5.821280763757028"><ele>575.0</ele><time>2026-03-28T12:47:11Z</time></trkpt><trkpt lat="43.436435959862216" lon="5.821422572886732"><ele>575.0</ele><time>2026-03-28T12:47:14Z</time></trkpt><trkpt lat="43.43639222527499" lon="5.821502703942316"><ele>575.3333333333333</ele><time>2026-03-28T12:47:16Z</time></trkpt><trkpt lat="43.436383684360266" lon="5.821631440368024"><ele>575.6666666666666</ele><time>2026-03-28T12:47:19Z</time></trkpt><trkpt lat="43.436328034313505" lon="5.821687751746811"><ele>576.0</ele><time>2026-03-28T12:47:22Z</time></trkpt><trkpt lat="43.43631562099134" lon="5.821781935058625"><ele>576.3333333333334</ele><time>2026-03-28T12:47:24Z</time></trkpt><trkpt lat="43.43628178270417" lon="5.821908947239372"><ele>576.6666666666667</ele><time>2026-03-28T12:47:26Z</time></trkpt><trkpt lat="43.43626275168512" lon="5.822012560919214"><ele>577.0</ele><time>2026-03-28T12:47:28Z</time></trkpt><trkpt lat="43.43624885925913" lon="5.822133414178455"><ele>579.0</ele><time>2026-03-28T12:47:30Z</time></trkpt><trkpt lat="43.436247297729864" lon="5.822356419991222"><ele>581.0</ele><time>2026-03-28T12:47:33Z</time></trkpt><trkpt lat="43.43621001269409" lon="5.82254338159791"><ele>583.0</ele><time>2026-03-28T12:47:35Z</time></trkpt><trkpt lat="43.43619491101582" lon="5.8226314280962805"><ele>585.0</ele><time>2026-03-28T12:47:36Z</time></trkpt><trkpt lat="43.43615135483614" lon="5.822737850593814"><ele>585.4285714285714</ele><time>2026-03-28T12:47:39Z</time></trkpt><trkpt lat="43.436119700235004" lon="5.822836192015008"><ele>585.8571428571429</ele><time>2026-03-28T12:47:41Z</time></trkpt><trkpt lat="43.43605399048953" lon="5.8228516239152155"><ele>586.2857142857142</ele><time>2026-03-28T12:47:48Z</time></trkpt><trkpt lat="43.435968783123904" lon="5.822832112492121"><ele>586.7142857142858</ele><time>2026-03-28T12:47:50Z</time></trkpt><trkpt lat="43.43590217355777" lon="5.822832659413472"><ele>587.1428571428571</ele><time>2026-03-28T12:47:52Z</time></trkpt><trkpt lat="43.43584086359809" lon="5.822862961573069"><ele>587.5714285714286</ele><time>2026-03-28T12:47:56Z</time></trkpt><trkpt lat="43.435797198633956" lon="5.822927806802537"><ele>588.0</ele><time>2026-03-28T12:47:57Z</time></trkpt><trkpt lat="43.43569741637131" lon="5.822957409552714"><ele>588.0</ele><time>2026-03-28T12:48:00Z</time></trkpt><trkpt lat="43.43563162237036" lon="5.822996496698056"><ele>588.0</ele><time>2026-03-28T12:48:04Z</time></trkpt><trkpt lat="43.43560319419155" lon="5.823076038886736"><ele>588.0</ele><time>2026-03-28T12:48:07Z</time></trkpt><trkpt lat="43.435598384566006" lon="5.823178196058421"><ele>588.0</ele><time>2026-03-28T12:48:09Z</time></trkpt><trkpt lat="43.43553225535382" lon="5.8232368702222805"><ele>588.0</ele><time>2026-03-28T12:48:11Z</time></trkpt><trkpt lat="43.43550721726433" lon="5.8233203242106"><ele>588.0</ele><time>2026-03-28T12:48:13Z</time></trkpt><trkpt lat="43.435490971672785" lon="5.823408462872154"><ele>588.0</ele><time>2026-03-28T12:48:15Z</time></trkpt><trkpt lat="43.4354491883719" lon="5.823499094580671"><ele>587.5714285714286</ele><time>2026-03-28T12:48:18Z</time></trkpt><trkpt lat="43.435436911003336" lon="5.823604877625922"><ele>587.1428571428571</ele><time>2026-03-28T12:48:23.999Z</time></trkpt><trkpt lat="43.435419264062524" lon="5.823694906120555"><ele>586.7142857142858</ele><time>2026-03-28T12:48:26Z</time></trkpt><trkpt lat="43.43538948605422" lon="5.823781528247634"><ele>586.2857142857142</ele><time>2026-03-28T12:48:29Z</time></trkpt><trkpt lat="43.435353815720276" lon="5.8238589416282425"><ele>585.8571428571429</ele><time>2026-03-28T12:48:31Z</time></trkpt><trkpt lat="43.43529073532502" lon="5.82389196404772"><ele>585.4285714285714</ele><time>2026-03-28T12:48:34Z</time></trkpt><trkpt lat="43.435261746926315" lon="5.823770157866989"><ele>585.0</ele><time>2026-03-28T12:48:38Z</time></trkpt><trkpt lat="43.43528859925979" lon="5.823656388803802"><ele>585.0</ele><time>2026-03-28T12:48:40Z</time></trkpt><trkpt lat="43.43532572587455" lon="5.823531197364323"><ele>585.0</ele><time>2026-03-28T12:48:41Z</time></trkpt><trkpt lat="43.43537860760016" lon="5.823374778285333"><ele>585.0</ele><time>2026-03-28T12:48:42Z</time></trkpt><trkpt lat="43.43540628044986" lon="5.823232948479582"><ele>585.0</ele><time>2026-03-28T12:48:43Z</time></trkpt><trkpt lat="43.43541081866371" lon="5.823118709863209"><ele>585.0</ele><time>2026-03-28T12:48:44Z</time></trkpt><trkpt lat="43.43539634853514" lon="5.823005440230424"><ele>585.1666666666666</ele><time>2026-03-28T12:48:45Z</time></trkpt><trkpt lat="43.4353870477377" lon="5.822872757430712"><ele>585.3333333333334</ele><time>2026-03-28T12:48:46Z</time></trkpt><trkpt lat="43.43538984835946" lon="5.822761695646103"><ele>585.5</ele><time>2026-03-28T12:48:47Z</time></trkpt><trkpt lat="43.435383658612615" lon="5.82266464623932"><ele>585.6666666666667</ele><time>2026-03-28T12:48:48Z</time></trkpt><trkpt lat="43.43535101608275" lon="5.822575717102064"><ele>585.8333333333334</ele><time>2026-03-28T12:48:49Z</time></trkpt><trkpt lat="43.435272716589246" lon="5.822448151675101"><ele>586.0</ele><time>2026-03-28T12:48:51Z</time></trkpt><trkpt lat="43.43525249325321" lon="5.8223639615767855"><ele>586.0</ele><time>2026-03-28T12:48:52Z</time></trkpt><trkpt lat="43.43525783851662" lon="5.822270813758938"><ele>586.0</ele><time>2026-03-28T12:48:53Z</time></trkpt><trkpt lat="43.43529317448534" lon="5.8221619975103"><ele>586.0</ele><time>2026-03-28T12:48:54Z</time></trkpt><trkpt lat="43.435344339695234" lon="5.822070143750177"><ele>586.0</ele><time>2026-03-28T12:48:55Z</time></trkpt><trkpt lat="43.435410500026485" lon="5.821993110894424"><ele>586.0</ele><time>2026-03-28T12:48:56Z</time></trkpt><trkpt lat="43.43545742131613" lon="5.821907907379082"><ele>586.0</ele><time>2026-03-28T12:48:57Z</time></trkpt><trkpt lat="43.435516377613034" lon="5.821845303069049"><ele>584.6666666666667</ele><time>2026-03-28T12:48:58Z</time></trkpt><trkpt lat="43.435578745489806" lon="5.821767267619574"><ele>583.3333333333334</ele><time>2026-03-28T12:48:59Z</time></trkpt><trkpt lat="43.43562014597484" lon="5.8216863706098145"><ele>582.0</ele><time>2026-03-28T12:49:00Z</time></trkpt><trkpt lat="43.435608126531406" lon="5.821570118232728"><ele>580.6666666666666</ele><time>2026-03-28T12:49:02Z</time></trkpt><trkpt lat="43.435553753518015" lon="5.82148693000857"><ele>579.3333333333333</ele><time>2026-03-28T12:49:04Z</time></trkpt><trkpt lat="43.43559677321785" lon="5.821346654634992"><ele>578.0</ele><time>2026-03-28T12:49:06Z</time></trkpt><trkpt lat="43.435629615333355" lon="5.82125062792857"><ele>578.0</ele><time>2026-03-28T12:49:07Z</time></trkpt><trkpt lat="43.435649167442456" lon="5.82114692161779"><ele>578.0</ele><time>2026-03-28T12:49:08Z</time></trkpt><trkpt lat="43.43565634167905" lon="5.821048731863844"><ele>578.0</ele><time>2026-03-28T12:49:09Z</time></trkpt><trkpt lat="43.43565715032751" lon="5.820953367127573"><ele>578.0</ele><time>2026-03-28T12:49:10Z</time></trkpt><trkpt lat="43.435635959472904" lon="5.820840463756264"><ele>578.0</ele><time>2026-03-28T12:49:11Z</time></trkpt><trkpt lat="43.43560894363057" lon="5.820727284468743"><ele>578.0</ele><time>2026-03-28T12:49:12Z</time></trkpt><trkpt lat="43.43558449163436" lon="5.820633143999653"><ele>576.5</ele><time>2026-03-28T12:49:13Z</time></trkpt><trkpt lat="43.43555198639007" lon="5.820546624191315"><ele>575.0</ele><time>2026-03-28T12:49:14Z</time></trkpt><trkpt lat="43.435503961878666" lon="5.82045748957626"><ele>573.5</ele><time>2026-03-28T12:49:15Z</time></trkpt><trkpt lat="43.435451800841406" lon="5.820361131811647"><ele>572.0</ele><time>2026-03-28T12:49:16Z</time></trkpt><trkpt lat="43.43540524870718" lon="5.82026336121139"><ele>570.5</ele><time>2026-03-28T12:49:17Z</time></trkpt><trkpt lat="43.435363989374416" lon="5.820166993848794"><ele>569.0</ele><time>2026-03-28T12:49:18Z</time></trkpt><trkpt lat="43.435325773453194" lon="5.820074103260115"><ele>566.1666666666666</ele><time>2026-03-28T12:49:19Z</time></trkpt><trkpt lat="43.43529039539594" lon="5.819978139804543"><ele>563.3333333333333</ele><time>2026-03-28T12:49:20Z</time></trkpt><trkpt lat="43.43524859874578" lon="5.819873839973657"><ele>560.5</ele><time>2026-03-28T12:49:21Z</time></trkpt><trkpt lat="43.43520905496148" lon="5.819775912844033"><ele>557.6666666666666</ele><time>2026-03-28T12:49:22Z</time></trkpt><trkpt lat="43.43515371634646" lon="5.81969801883749"><ele>554.8333333333334</ele><time>2026-03-28T12:49:23Z</time></trkpt><trkpt lat="43.435076099060204" lon="5.819654638463033"><ele>552.0</ele><time>2026-03-28T12:49:24Z</time></trkpt><trkpt lat="43.4349817704773" lon="5.8196376512443715"><ele>552.0</ele><time>2026-03-28T12:49:25Z</time></trkpt><trkpt lat="43.43487234676763" lon="5.819640254011556"><ele>552.0</ele><time>2026-03-28T12:49:26Z</time></trkpt><trkpt lat="43.43476995794525" lon="5.819650725404578"><ele>552.0</ele><time>2026-03-28T12:49:27Z</time></trkpt><trkpt lat="43.434677674866656" lon="5.819647487717312"><ele>552.0</ele><time>2026-03-28T12:49:28Z</time></trkpt><trkpt lat="43.43460165701427" lon="5.819606119903837"><ele>552.0</ele><time>2026-03-28T12:49:29Z</time></trkpt><trkpt lat="43.43453420960466" lon="5.819554961412241"><ele>550.6666666666666</ele><time>2026-03-28T12:49:30Z</time></trkpt><trkpt lat="43.43446446206062" lon="5.819518323993374"><ele>549.3333333333334</ele><time>2026-03-28T12:49:31Z</time></trkpt><trkpt lat="43.434382133752784" lon="5.819500997600234"><ele>548.0</ele><time>2026-03-28T12:49:32Z</time></trkpt><trkpt lat="43.4342961057302" lon="5.819515182226279"><ele>546.6666666666667</ele><time>2026-03-28T12:49:33Z</time></trkpt><trkpt lat="43.43422316512051" lon="5.819545989451687"><ele>545.3333333333334</ele><time>2026-03-28T12:49:34Z</time></trkpt><trkpt lat="43.43413785938325" lon="5.81955433550722"><ele>544.0</ele><time>2026-03-28T12:49:35Z</time></trkpt><trkpt lat="43.43405121171981" lon="5.819535102236162"><ele>544.0</ele><time>2026-03-28T12:49:36Z</time></trkpt><trkpt lat="43.433966664425874" lon="5.81950606705373"><ele>544.0</ele><time>2026-03-28T12:49:37Z</time></trkpt><trkpt lat="43.43389305438427" lon="5.819524852867287"><ele>544.0</ele><time>2026-03-28T12:49:38Z</time></trkpt><trkpt lat="43.433824677926076" lon="5.819558774516034"><ele>544.0</ele><time>2026-03-28T12:49:39Z</time></trkpt><trkpt lat="43.43370408906167" lon="5.819556881694515"><ele>544.0</ele><time>2026-03-28T12:49:41Z</time></trkpt><trkpt lat="43.43364776594016" lon="5.819473546414905"><ele>544.0</ele><time>2026-03-28T12:49:42Z</time></trkpt><trkpt lat="43.43361411229165" lon="5.819365595190537"><ele>541.0</ele><time>2026-03-28T12:49:43Z</time></trkpt><trkpt lat="43.433592794652284" lon="5.8192365565370725"><ele>538.0</ele><time>2026-03-28T12:49:44Z</time></trkpt><trkpt lat="43.433544836313445" lon="5.819159900862799"><ele>535.0</ele><time>2026-03-28T12:49:45Z</time></trkpt><trkpt lat="43.433467743362236" lon="5.819137221074476"><ele>532.0</ele><time>2026-03-28T12:49:46Z</time></trkpt><trkpt lat="43.4333889634912" lon="5.819118859778925"><ele>529.0</ele><time>2026-03-28T12:49:47Z</time></trkpt><trkpt lat="43.43332754515467" lon="5.819064217370806"><ele>526.0</ele><time>2026-03-28T12:49:48Z</time></trkpt><trkpt lat="43.433260682360206" lon="5.819045548624249"><ele>526.0</ele><time>2026-03-28T12:49:49Z</time></trkpt><trkpt lat="43.43317247691556" lon="5.819067348690289"><ele>526.0</ele><time>2026-03-28T12:49:50Z</time></trkpt><trkpt lat="43.433055536158015" lon="5.819081297543787"><ele>526.0</ele><time>2026-03-28T12:49:51Z</time></trkpt><trkpt lat="43.432944029922545" lon="5.819072748825088"><ele>526.0</ele><time>2026-03-28T12:49:52Z</time></trkpt><trkpt lat="43.43284809231385" lon="5.819068892445708"><ele>526.0</ele><time>2026-03-28T12:49:53Z</time></trkpt><trkpt lat="43.43275500619131" lon="5.819056286411804"><ele>523.8</ele><time>2026-03-28T12:49:54Z</time></trkpt><trkpt lat="43.432671180990035" lon="5.819015094706807"><ele>521.6</ele><time>2026-03-28T12:49:55Z</time></trkpt><trkpt lat="43.432590188086884" lon="5.818993303643971"><ele>519.4</ele><time>2026-03-28T12:49:56Z</time></trkpt><trkpt lat="43.432470538862546" lon="5.819046933056057"><ele>517.2</ele><time>2026-03-28T12:49:58Z</time></trkpt><trkpt lat="43.43241233158005" lon="5.819154644936302"><ele>515.0</ele><time>2026-03-28T12:49:59Z</time></trkpt><trkpt lat="43.43230386204518" lon="5.819282352288134"><ele>516.4</ele><time>2026-03-28T12:50:00Z</time></trkpt><trkpt lat="43.43220103773322" lon="5.819347814512598"><ele>517.8</ele><time>2026-03-28T12:50:01Z</time></trkpt><trkpt lat="43.432099639392824" lon="5.819405261809873"><ele>519.2</ele><time>2026-03-28T12:50:02Z</time></trkpt><trkpt lat="43.43200519910915" lon="5.8194256110972304"><ele>520.6</ele><time>2026-03-28T12:50:03Z</time></trkpt><trkpt lat="43.431919049001806" lon="5.819435379268746"><ele>522.0</ele><time>2026-03-28T12:50:04Z</time></trkpt><trkpt lat="43.43183303932622" lon="5.819424462499751"><ele>522.0</ele><time>2026-03-28T12:50:05Z</time></trkpt><trkpt lat="43.431756828318356" lon="5.819388175708525"><ele>522.0</ele><time>2026-03-28T12:50:06Z</time></trkpt><trkpt lat="43.43168253774431" lon="5.819314220636993"><ele>522.0</ele><time>2026-03-28T12:50:07Z</time></trkpt><trkpt lat="43.43161041222691" lon="5.819212236803527"><ele>522.0</ele><time>2026-03-28T12:50:08Z</time></trkpt><trkpt lat="43.43153047068044" lon="5.819077675807348"><ele>522.0</ele><time>2026-03-28T12:50:09Z</time></trkpt><trkpt lat="43.43146636055621" lon="5.818955219539891"><ele>519.6</ele><time>2026-03-28T12:50:10Z</time></trkpt><trkpt lat="43.4313846470839" lon="5.8188900064164875"><ele>517.2</ele><time>2026-03-28T12:50:11Z</time></trkpt><trkpt lat="43.43128790331715" lon="5.818883846334044"><ele>514.8</ele><time>2026-03-28T12:50:12Z</time></trkpt><trkpt lat="43.43119910927727" lon="5.818935217831688"><ele>512.4</ele><time>2026-03-28T12:50:13Z</time></trkpt><trkpt lat="43.43112178567652" lon="5.81903070176319"><ele>510.0</ele><time>2026-03-28T12:50:14Z</time></trkpt><trkpt lat="43.43105595518915" lon="5.819155893521567"><ele>509.25</ele><time>2026-03-28T12:50:15Z</time></trkpt><trkpt lat="43.430972876393" lon="5.819277555474304"><ele>508.5</ele><time>2026-03-28T12:50:16Z</time></trkpt><trkpt lat="43.43086312216022" lon="5.819340740853364"><ele>507.75</ele><time>2026-03-28T12:50:16.999Z</time></trkpt><trkpt lat="43.430732535043745" lon="5.819366471619204"><ele>507.0</ele><time>2026-03-28T12:50:17.999Z</time></trkpt><trkpt lat="43.430607739583344" lon="5.819399409807665"><ele>506.20000000000005</ele><time>2026-03-28T12:50:18.999Z</time></trkpt><trkpt lat="43.43050759065592" lon="5.819459518010254"><ele>505.40000000000003</ele><time>2026-03-28T12:50:19.999Z</time></trkpt><trkpt lat="43.430411972948235" lon="5.819537113891668"><ele>504.59999999999997</ele><time>2026-03-28T12:50:20.999Z</time></trkpt><trkpt lat="43.43033832686069" lon="5.819585145013891"><ele>503.79999999999995</ele><time>2026-03-28T12:50:21.999Z</time></trkpt><trkpt lat="43.430262518933716" lon="5.819596623246193"><ele>503.0</ele><time>2026-03-28T12:50:22.999Z</time></trkpt><trkpt lat="43.43015540734239" lon="5.81957085072789"><ele>503.0</ele><time>2026-03-28T12:50:23.999Z</time></trkpt><trkpt lat="43.43005601141804" lon="5.819601159353873"><ele>502.99999999999994</ele><time>2026-03-28T12:50:24.999Z</time></trkpt><trkpt lat="43.42997799860476" lon="5.819698517611552"><ele>502.99999999999994</ele><time>2026-03-28T12:50:25.999Z</time></trkpt><trkpt lat="43.42990763952485" lon="5.8198045274205406"><ele>503.0</ele><time>2026-03-28T12:50:26.999Z</time></trkpt><trkpt lat="43.429835478033255" lon="5.819870240511785"><ele>503.0</ele><time>2026-03-28T12:50:27.999Z</time></trkpt><trkpt lat="43.429773143058036" lon="5.8199343499662906"><ele>502.99999999999994</ele><time>2026-03-28T12:50:28.999Z</time></trkpt><trkpt lat="43.4297129610129" lon="5.820002432236737"><ele>503.0</ele><time>2026-03-28T12:50:30Z</time></trkpt><trkpt lat="43.42964302604764" lon="5.820053174663009"><ele>503.0</ele><time>2026-03-28T12:50:31Z</time></trkpt><trkpt lat="43.42958377185803" lon="5.820097483703996"><ele>503.0</ele><time>2026-03-28T12:50:32Z</time></trkpt><trkpt lat="43.429535530541536" lon="5.820164959762398"><ele>502.99999999999994</ele><time>2026-03-28T12:50:33Z</time></trkpt><trkpt lat="43.42951209212763" lon="5.8202742168380475"><ele>503.0</ele><time>2026-03-28T12:50:34Z</time></trkpt><trkpt lat="43.42949378133802" lon="5.820379432660845"><ele>502.3333333333333</ele><time>2026-03-28T12:50:35Z</time></trkpt><trkpt lat="43.42945710570015" lon="5.820466323275213"><ele>501.66666666666663</ele><time>2026-03-28T12:50:36Z</time></trkpt><trkpt lat="43.429410562177075" lon="5.820531439890355"><ele>501.0</ele><time>2026-03-28T12:50:37Z</time></trkpt><trkpt lat="43.42934091314936" lon="5.820568340338172"><ele>500.33333333333337</ele><time>2026-03-28T12:50:38Z</time></trkpt><trkpt lat="43.42925360330144" lon="5.82058848005276"><ele>499.6666666666667</ele><time>2026-03-28T12:50:39Z</time></trkpt><trkpt lat="43.42913139702541" lon="5.82062607919823"><ele>499.0</ele><time>2026-03-28T12:50:40Z</time></trkpt><trkpt lat="43.429014968723315" lon="5.820681628884396"><ele>499.0</ele><time>2026-03-28T12:50:41Z</time></trkpt><trkpt lat="43.42891126392677" lon="5.820702712782757"><ele>499.0</ele><time>2026-03-28T12:50:42Z</time></trkpt><trkpt lat="43.428794949006324" lon="5.820706293794856"><ele>499.0</ele><time>2026-03-28T12:50:43Z</time></trkpt><trkpt lat="43.42869569576781" lon="5.820737294367976"><ele>499.0</ele><time>2026-03-28T12:50:44Z</time></trkpt><trkpt lat="43.4286177081617" lon="5.820756766596906"><ele>499.0</ele><time>2026-03-28T12:50:45Z</time></trkpt><trkpt lat="43.428546549910365" lon="5.82074976424302"><ele>497.0</ele><time>2026-03-28T12:50:46Z</time></trkpt><trkpt lat="43.42847396463879" lon="5.820728100668931"><ele>495.0</ele><time>2026-03-28T12:50:47Z</time></trkpt><trkpt lat="43.42836412215792" lon="5.820756030212996"><ele>493.0</ele><time>2026-03-28T12:50:49Z</time></trkpt><trkpt lat="43.42830378055394" lon="5.820719087163566"><ele>491.0</ele><time>2026-03-28T12:50:59Z</time></trkpt><trkpt lat="43.42825639619349" lon="5.820634739639353"><ele>489.0</ele><time>2026-03-28T12:51:01Z</time></trkpt><trkpt lat="43.428132049543485" lon="5.820307520015348"><ele>489.0</ele><time>2026-03-28T12:51:03Z</time></trkpt><trkpt lat="43.42811006634773" lon="5.820153857253473"><ele>489.0</ele><time>2026-03-28T12:51:04Z</time></trkpt><trkpt lat="43.428082504786786" lon="5.8199930915834965"><ele>489.0</ele><time>2026-03-28T12:51:05Z</time></trkpt><trkpt lat="43.428041404626754" lon="5.819851874104399"><ele>489.0</ele><time>2026-03-28T12:51:06Z</time></trkpt><trkpt lat="43.42800657376754" lon="5.819729101190749"><ele>489.0</ele><time>2026-03-28T12:51:07Z</time></trkpt><trkpt lat="43.42796935507988" lon="5.819627274954466"><ele>491.1666666666667</ele><time>2026-03-28T12:51:08Z</time></trkpt><trkpt lat="43.4279050176701" lon="5.819524064994441"><ele>493.33333333333337</ele><time>2026-03-28T12:51:09Z</time></trkpt><trkpt lat="43.427839023318946" lon="5.819415159813954"><ele>495.5</ele><time>2026-03-28T12:51:10Z</time></trkpt><trkpt lat="43.427813781291825" lon="5.819296955674864"><ele>497.6666666666667</ele><time>2026-03-28T12:51:11Z</time></trkpt><trkpt lat="43.42780922686401" lon="5.819199323377428"><ele>499.83333333333337</ele><time>2026-03-28T12:51:12Z</time></trkpt><trkpt lat="43.427822162968" lon="5.819114414974676"><ele>502.0</ele><time>2026-03-28T12:51:13Z</time></trkpt><trkpt lat="43.42786068161012" lon="5.818981118808286"><ele>502.0</ele><time>2026-03-28T12:51:14Z</time></trkpt><trkpt lat="43.42790520738398" lon="5.818866286162647"><ele>502.0</ele><time>2026-03-28T12:51:15Z</time></trkpt><trkpt lat="43.42796133800422" lon="5.818713608005603"><ele>502.0</ele><time>2026-03-28T12:51:16Z</time></trkpt><trkpt lat="43.428004379937995" lon="5.818606836051332"><ele>502.0</ele><time>2026-03-28T12:51:17Z</time></trkpt><trkpt lat="43.4280854897414" lon="5.818443154683621"><ele>501.75</ele><time>2026-03-28T12:51:19Z</time></trkpt><trkpt lat="43.42816020160401" lon="5.818354810577285"><ele>501.5</ele><time>2026-03-28T12:51:20Z</time></trkpt><trkpt lat="43.42823362513409" lon="5.818243464093451"><ele>501.25</ele><time>2026-03-28T12:51:21Z</time></trkpt><trkpt lat="43.42830316786647" lon="5.818091956740878"><ele>501.0</ele><time>2026-03-28T12:51:22Z</time></trkpt><trkpt lat="43.42834529246801" lon="5.817940591278049"><ele>501.0</ele><time>2026-03-28T12:51:23Z</time></trkpt><trkpt lat="43.428367444316706" lon="5.817814430063538"><ele>501.0</ele><time>2026-03-28T12:51:24Z</time></trkpt><trkpt lat="43.42838737679811" lon="5.81767554582123"><ele>501.0</ele><time>2026-03-28T12:51:25Z</time></trkpt><trkpt lat="43.42837506699858" lon="5.817531217198681"><ele>501.0</ele><time>2026-03-28T12:51:26Z</time></trkpt><trkpt lat="43.428350173233135" lon="5.817382312312804"><ele>501.0</ele><time>2026-03-28T12:51:27Z</time></trkpt><trkpt lat="43.42835247554847" lon="5.817240021338641"><ele>501.20000000000005</ele><time>2026-03-28T12:51:28Z</time></trkpt><trkpt lat="43.42835713653876" lon="5.817099138984182"><ele>501.40000000000003</ele><time>2026-03-28T12:51:29Z</time></trkpt><trkpt lat="43.42838396606378" lon="5.816951704356278"><ele>501.6</ele><time>2026-03-28T12:51:30Z</time></trkpt><trkpt lat="43.42842204368546" lon="5.816796380518788"><ele>501.8</ele><time>2026-03-28T12:51:31Z</time></trkpt><trkpt lat="43.428445136064674" lon="5.816675712090388"><ele>502.0</ele><time>2026-03-28T12:51:32Z</time></trkpt><trkpt lat="43.42842398165799" lon="5.816568297774957"><ele>502.33333333333337</ele><time>2026-03-28T12:51:33Z</time></trkpt><trkpt lat="43.42837390743669" lon="5.8164714381115035"><ele>502.6666666666667</ele><time>2026-03-28T12:51:34Z</time></trkpt><trkpt lat="43.42833288862914" lon="5.816375538379798"><ele>503.0</ele><time>2026-03-28T12:51:35Z</time></trkpt><trkpt lat="43.42834249524596" lon="5.816210275820225"><ele>503.33333333333337</ele><time>2026-03-28T12:51:37Z</time></trkpt><trkpt lat="43.4283974453619" lon="5.816132395434978"><ele>503.6666666666667</ele><time>2026-03-28T12:51:38Z</time></trkpt><trkpt lat="43.428456734052205" lon="5.816060497916529"><ele>504.0</ele><time>2026-03-28T12:51:39Z</time></trkpt><trkpt lat="43.42851829739257" lon="5.8159583773953525"><ele>505.0</ele><time>2026-03-28T12:51:40Z</time></trkpt><trkpt lat="43.42856100119068" lon="5.815838538519241"><ele>506.0</ele><time>2026-03-28T12:51:41Z</time></trkpt><trkpt lat="43.42858571623533" lon="5.815674297090816"><ele>507.0</ele><time>2026-03-28T12:51:42Z</time></trkpt><trkpt lat="43.42859806277969" lon="5.815519746471674"><ele>508.0</ele><time>2026-03-28T12:51:43Z</time></trkpt><trkpt lat="43.42858013255434" lon="5.815332902229947"><ele>508.0</ele><time>2026-03-28T12:51:44Z</time></trkpt><trkpt lat="43.42854391848041" lon="5.815165863501279"><ele>507.99999999999994</ele><time>2026-03-28T12:51:45Z</time></trkpt><trkpt lat="43.42849987245124" lon="5.815046260469781"><ele>507.99999999999994</ele><time>2026-03-28T12:51:46Z</time></trkpt><trkpt lat="43.42845887177323" lon="5.814948184887638"><ele>508.0</ele><time>2026-03-28T12:51:47Z</time></trkpt><trkpt lat="43.42843164528455" lon="5.814864756356276"><ele>508.0</ele><time>2026-03-28T12:51:48Z</time></trkpt><trkpt lat="43.42840350395698" lon="5.8147617152777125"><ele>508.50000000000006</ele><time>2026-03-28T12:51:50Z</time></trkpt><trkpt lat="43.42833793654312" lon="5.814731972029161"><ele>509.0</ele><time>2026-03-28T12:51:52Z</time></trkpt><trkpt lat="43.428275884756204" lon="5.814681461296342"><ele>509.5</ele><time>2026-03-28T12:51:53Z</time></trkpt><trkpt lat="43.42820513908093" lon="5.814630962331981"><ele>510.0</ele><time>2026-03-28T12:51:54Z</time></trkpt><trkpt lat="43.428137901272564" lon="5.81456197362851"><ele>510.50000000000006</ele><time>2026-03-28T12:51:55Z</time></trkpt><trkpt lat="43.42806735576825" lon="5.814519877745105"><ele>511.0</ele><time>2026-03-28T12:51:56Z</time></trkpt><trkpt lat="43.42800403348874" lon="5.814467615762841"><ele>512.8333333333334</ele><time>2026-03-28T12:51:57Z</time></trkpt><trkpt lat="43.42792140851003" lon="5.814428727426358"><ele>514.6666666666667</ele><time>2026-03-28T12:51:58Z</time></trkpt><trkpt lat="43.4278576074525" lon="5.81438035329678"><ele>516.5</ele><time>2026-03-28T12:51:59Z</time></trkpt><trkpt lat="43.427780938497996" lon="5.814354536334822"><ele>518.3333333333334</ele><time>2026-03-28T12:52:00Z</time></trkpt><trkpt lat="43.42769649007264" lon="5.814324746686438"><ele>520.1666666666666</ele><time>2026-03-28T12:52:01Z</time></trkpt><trkpt lat="43.4275979692049" lon="5.81430720393123"><ele>522.0</ele><time>2026-03-28T12:52:02Z</time></trkpt><trkpt lat="43.427520408917665" lon="5.814293422778521"><ele>521.6666666666666</ele><time>2026-03-28T12:52:03Z</time></trkpt><trkpt lat="43.427445403136836" lon="5.814300205290242"><ele>521.3333333333334</ele><time>2026-03-28T12:52:04Z</time></trkpt><trkpt lat="43.4273703753099" lon="5.814290892278675"><ele>521.0</ele><time>2026-03-28T12:52:05Z</time></trkpt><trkpt lat="43.42729537257098" lon="5.814260349698731"><ele>520.6666666666667</ele><time>2026-03-28T12:52:06Z</time></trkpt><trkpt lat="43.427221621837354" lon="5.814233704228736"><ele>520.3333333333334</ele><time>2026-03-28T12:52:07Z</time></trkpt><trkpt lat="43.42713778434125" lon="5.814177334533801"><ele>520.0</ele><time>2026-03-28T12:52:08Z</time></trkpt><trkpt lat="43.427060469017746" lon="5.814117448300422"><ele>520.0</ele><time>2026-03-28T12:52:09Z</time></trkpt><trkpt lat="43.42698876818489" lon="5.81412574813172"><ele>520.0</ele><time>2026-03-28T12:52:11Z</time></trkpt><trkpt lat="43.426956478171036" lon="5.814233944628475"><ele>520.0</ele><time>2026-03-28T12:52:13Z</time></trkpt><trkpt lat="43.426879057958516" lon="5.81426897400327"><ele>520.0</ele><time>2026-03-28T12:52:15Z</time></trkpt><trkpt lat="43.42687119907432" lon="5.814163711959999"><ele>520.0</ele><time>2026-03-28T12:52:16.999Z</time></trkpt><trkpt lat="43.42691655461358" lon="5.814085149750034"><ele>520.0</ele><time>2026-03-28T12:52:18.999Z</time></trkpt><trkpt lat="43.426884220918886" lon="5.813980847929616"><ele>520.0</ele><time>2026-03-28T12:52:21.999Z</time></trkpt><trkpt lat="43.42683334336756" lon="5.813883653349192"><ele>520.0</ele><time>2026-03-28T12:52:23.999Z</time></trkpt><trkpt lat="43.42677366787867" lon="5.81372266321535"><ele>520.0</ele><time>2026-03-28T12:52:25.999Z</time></trkpt><trkpt lat="43.426691516280236" lon="5.813625057444754"><ele>520.0</ele><time>2026-03-28T12:52:27.999Z</time></trkpt><trkpt lat="43.426635729115226" lon="5.813506164854356"><ele>520.0</ele><time>2026-03-28T12:52:29.999Z</time></trkpt><trkpt lat="43.42658609090796" lon="5.81336569161057"><ele>520.6</ele><time>2026-03-28T12:52:31.999Z</time></trkpt><trkpt lat="43.42651385264373" lon="5.813342530512426"><ele>521.2</ele><time>2026-03-28T12:52:33.999Z</time></trkpt><trkpt lat="43.42640232502079" lon="5.813407755759013"><ele>521.8</ele><time>2026-03-28T12:52:36Z</time></trkpt><trkpt lat="43.426309475056414" lon="5.813467390927927"><ele>522.4</ele><time>2026-03-28T12:52:38Z</time></trkpt><trkpt lat="43.42623589152937" lon="5.813420316271568"><ele>523.0</ele><time>2026-03-28T12:52:40Z</time></trkpt><trkpt lat="43.426149507968795" lon="5.813353505964617"><ele>517.8</ele><time>2026-03-28T12:52:42Z</time></trkpt><trkpt lat="43.4260491296961" lon="5.813306964156196"><ele>512.5999999999999</ele><time>2026-03-28T12:52:44Z</time></trkpt><trkpt lat="43.425958229909114" lon="5.813203649911424"><ele>507.40000000000003</ele><time>2026-03-28T12:52:46Z</time></trkpt><trkpt lat="43.425871614201085" lon="5.813099225589227"><ele>502.20000000000005</ele><time>2026-03-28T12:52:48Z</time></trkpt><trkpt lat="43.425809287379316" lon="5.813035007954445"><ele>497.0</ele><time>2026-03-28T12:52:50Z</time></trkpt><trkpt lat="43.425763770284476" lon="5.812930902778793"><ele>497.0</ele><time>2026-03-28T12:52:52Z</time></trkpt><trkpt lat="43.4257090526853" lon="5.812829651722896"><ele>497.00000000000006</ele><time>2026-03-28T12:52:54Z</time></trkpt><trkpt lat="43.42560389658484" lon="5.812644393221668"><ele>497.00000000000006</ele><time>2026-03-28T12:52:57Z</time></trkpt><trkpt lat="43.42553894226938" lon="5.812549153676139"><ele>497.0</ele><time>2026-03-28T12:52:59Z</time></trkpt><trkpt lat="43.4254834447208" lon="5.812488557687597"><ele>497.0</ele><time>2026-03-28T12:53:01Z</time></trkpt><trkpt lat="43.42541740964528" lon="5.81238701744228"><ele>494.20000000000005</ele><time>2026-03-28T12:53:03Z</time></trkpt><trkpt lat="43.425364061297465" lon="5.8122496304980436"><ele>491.40000000000003</ele><time>2026-03-28T12:53:05Z</time></trkpt><trkpt lat="43.42528982465445" lon="5.812141429510554"><ele>488.59999999999997</ele><time>2026-03-28T12:53:07Z</time></trkpt><trkpt lat="43.42524723494273" lon="5.812024029665286"><ele>485.79999999999995</ele><time>2026-03-28T12:53:09Z</time></trkpt><trkpt lat="43.42517402309114" lon="5.811925589671707"><ele>483.0</ele><time>2026-03-28T12:53:11Z</time></trkpt><trkpt lat="43.425093233223095" lon="5.811838287420508"><ele>483.4</ele><time>2026-03-28T12:53:13Z</time></trkpt><trkpt lat="43.42501942782354" lon="5.8116968315154836"><ele>483.79999999999995</ele><time>2026-03-28T12:53:15Z</time></trkpt><trkpt lat="43.4249524261795" lon="5.811617652570654"><ele>484.2</ele><time>2026-03-28T12:53:16Z</time></trkpt><trkpt lat="43.42489938599203" lon="5.811540210992746"><ele>484.6</ele><time>2026-03-28T12:53:17Z</time></trkpt><trkpt lat="43.42484626664425" lon="5.8114628015970275"><ele>485.0</ele><time>2026-03-28T12:53:18Z</time></trkpt><trkpt lat="43.42471485269412" lon="5.8114143542761525"><ele>482.49999999999994</ele><time>2026-03-28T12:53:20Z</time></trkpt><trkpt lat="43.42464136415772" lon="5.811402773136213"><ele>480.0</ele><time>2026-03-28T12:53:21Z</time></trkpt><trkpt lat="43.42454451245033" lon="5.811393347109193"><ele>477.5</ele><time>2026-03-28T12:53:23Z</time></trkpt><trkpt lat="43.424514373603756" lon="5.8112904039431275"><ele>475.0</ele><time>2026-03-28T12:53:25Z</time></trkpt><trkpt lat="43.42449696828" lon="5.811183987493243"><ele>472.49999999999994</ele><time>2026-03-28T12:53:26Z</time></trkpt><trkpt lat="43.42448618642151" lon="5.811087263553483"><ele>470.0</ele><time>2026-03-28T12:53:27Z</time></trkpt><trkpt lat="43.42445860934257" lon="5.8109594149531345"><ele>469.99999999999994</ele><time>2026-03-28T12:53:29Z</time></trkpt><trkpt lat="43.42437985048266" lon="5.810857206215623"><ele>470.0</ele><time>2026-03-28T12:53:31Z</time></trkpt><trkpt lat="43.424302971558845" lon="5.810809709308601"><ele>470.0</ele><time>2026-03-28T12:53:32Z</time></trkpt><trkpt lat="43.42423263193874" lon="5.810766709741488"><ele>470.0</ele><time>2026-03-28T12:53:33Z</time></trkpt><trkpt lat="43.424162934622764" lon="5.810730484820739"><ele>469.99999999999994</ele><time>2026-03-28T12:53:34Z</time></trkpt><trkpt lat="43.42408453818328" lon="5.8106928203751265"><ele>470.0</ele><time>2026-03-28T12:53:35Z</time></trkpt><trkpt lat="43.42401467448502" lon="5.81066143303785"><ele>470.0</ele><time>2026-03-28T12:53:36Z</time></trkpt><trkpt lat="43.42394626935401" lon="5.810627977986426"><ele>469.99999999999994</ele><time>2026-03-28T12:53:37Z</time></trkpt><trkpt lat="43.423874482199416" lon="5.810603553268325"><ele>470.0</ele><time>2026-03-28T12:53:38Z</time></trkpt><trkpt lat="43.423797983697646" lon="5.810589208612303"><ele>470.0</ele><time>2026-03-28T12:53:39Z</time></trkpt><trkpt lat="43.423728275229536" lon="5.810583311154671"><ele>469.99999999999994</ele><time>2026-03-28T12:53:40Z</time></trkpt><trkpt lat="43.423661733045755" lon="5.810580631451996"><ele>470.0</ele><time>2026-03-28T12:53:41Z</time></trkpt><trkpt lat="43.4235943487163" lon="5.810609679534411"><ele>470.0</ele><time>2026-03-28T12:53:42Z</time></trkpt><trkpt lat="43.42353681124597" lon="5.810675426368147"><ele>467.2</ele><time>2026-03-28T12:53:43Z</time></trkpt><trkpt lat="43.423476765456705" lon="5.810729156980017"><ele>464.4</ele><time>2026-03-28T12:53:44Z</time></trkpt><trkpt lat="43.42339045377227" lon="5.810817559871572"><ele>461.6</ele><time>2026-03-28T12:53:45Z</time></trkpt><trkpt lat="43.423288144533274" lon="5.810931639417724"><ele>458.8</ele><time>2026-03-28T12:53:46Z</time></trkpt><trkpt lat="43.42321566748986" lon="5.81103687507932"><ele>456.0</ele><time>2026-03-28T12:53:47Z</time></trkpt><trkpt lat="43.423153107654734" lon="5.811112228045062"><ele>456.0</ele><time>2026-03-28T12:53:48Z</time></trkpt><trkpt lat="43.42310098368666" lon="5.811164433660532"><ele>456.0</ele><time>2026-03-28T12:53:49Z</time></trkpt><trkpt lat="43.42297065930934" lon="5.81115643751489"><ele>456.0</ele><time>2026-03-28T12:53:51Z</time></trkpt><trkpt lat="43.422856695689525" lon="5.811172856249604"><ele>456.0</ele><time>2026-03-28T12:53:52Z</time></trkpt><trkpt lat="43.42276668024364" lon="5.811198372807739"><ele>456.0</ele><time>2026-03-28T12:53:53Z</time></trkpt><trkpt lat="43.4226976025895" lon="5.811203955407489"><ele>453.20000000000005</ele><time>2026-03-28T12:53:54Z</time></trkpt><trkpt lat="43.422624896935176" lon="5.811223586472781"><ele>450.40000000000003</ele><time>2026-03-28T12:53:55Z</time></trkpt><trkpt lat="43.422552195068704" lon="5.811297773280895"><ele>447.6</ele><time>2026-03-28T12:53:56Z</time></trkpt><trkpt lat="43.42247247186383" lon="5.811397556110634"><ele>444.8</ele><time>2026-03-28T12:53:57Z</time></trkpt><trkpt lat="43.422389871255525" lon="5.811455557603564"><ele>442.0</ele><time>2026-03-28T12:53:58Z</time></trkpt><trkpt lat="43.42231443081381" lon="5.811509318638645"><ele>442.00000000000006</ele><time>2026-03-28T12:53:59Z</time></trkpt><trkpt lat="43.422235367364074" lon="5.811534408979385"><ele>442.0</ele><time>2026-03-28T12:54:00Z</time></trkpt><trkpt lat="43.42216044755678" lon="5.811539574599449"><ele>442.0</ele><time>2026-03-28T12:54:01Z</time></trkpt><trkpt lat="43.42208783226149" lon="5.811530962987922"><ele>442.0</ele><time>2026-03-28T12:54:02Z</time></trkpt><trkpt lat="43.4220025869957" lon="5.8114984840059245"><ele>442.00000000000006</ele><time>2026-03-28T12:54:03Z</time></trkpt><trkpt lat="43.421911360570036" lon="5.811491226711671"><ele>442.0</ele><time>2026-03-28T12:54:04Z</time></trkpt><trkpt lat="43.42183301989816" lon="5.811515371478631"><ele>440.0</ele><time>2026-03-28T12:54:06Z</time></trkpt><trkpt lat="43.42173507790251" lon="5.811387284397036"><ele>438.0</ele><time>2026-03-28T12:54:10.999Z</time></trkpt><trkpt lat="43.42165430379309" lon="5.811324816145693"><ele>436.0</ele><time>2026-03-28T12:54:11.999Z</time></trkpt><trkpt lat="43.42155043023991" lon="5.811253318571701"><ele>434.0</ele><time>2026-03-28T12:54:12.999Z</time></trkpt><trkpt lat="43.4214488828069" lon="5.811199516185011"><ele>433.99999999999994</ele><time>2026-03-28T12:54:13.999Z</time></trkpt><trkpt lat="43.42137683602311" lon="5.811172204952972"><ele>434.0</ele><time>2026-03-28T12:54:14.999Z</time></trkpt><trkpt lat="43.42130426409762" lon="5.811136149423686"><ele>434.0</ele><time>2026-03-28T12:54:15.999Z</time></trkpt><trkpt lat="43.42121048644445" lon="5.811086690328445"><ele>434.0</ele><time>2026-03-28T12:54:16.999Z</time></trkpt><trkpt lat="43.421137733535936" lon="5.8110103325464975"><ele>433.99999999999994</ele><time>2026-03-28T12:54:17.999Z</time></trkpt><trkpt lat="43.4210650975922" lon="5.810940652370007"><ele>434.0</ele><time>2026-03-28T12:54:18.999Z</time></trkpt><trkpt lat="43.421014884592765" lon="5.81086840835355"><ele>432.66666666666663</ele><time>2026-03-28T12:54:19.999Z</time></trkpt><trkpt lat="43.42098476691048" lon="5.810788650402791"><ele>431.3333333333333</ele><time>2026-03-28T12:54:20.999Z</time></trkpt><trkpt lat="43.42096978567806" lon="5.8106994384976165"><ele>430.0</ele><time>2026-03-28T12:54:21.999Z</time></trkpt><trkpt lat="43.42095742378107" lon="5.810612070282403"><ele>428.66666666666663</ele><time>2026-03-28T12:54:22.999Z</time></trkpt><trkpt lat="43.4209724237895" lon="5.81050533831426"><ele>427.3333333333333</ele><time>2026-03-28T12:54:24.999Z</time></trkpt><trkpt lat="43.42104407661963" lon="5.810494861900802"><ele>426.0</ele><time>2026-03-28T12:54:51Z</time></trkpt><trkpt lat="43.421149947588795" lon="5.810405791221063"><ele>426.0</ele><time>2026-03-28T12:54:53Z</time></trkpt><trkpt lat="43.42118132024514" lon="5.810309973397855"><ele>426.0</ele><time>2026-03-28T12:54:54Z</time></trkpt><trkpt lat="43.42123307836229" lon="5.810192382550745"><ele>426.0</ele><time>2026-03-28T12:54:55Z</time></trkpt><trkpt lat="43.42130326994389" lon="5.810085658067911"><ele>426.0</ele><time>2026-03-28T12:54:56Z</time></trkpt><trkpt lat="43.42141387864637" lon="5.810027326001845"><ele>426.0</ele><time>2026-03-28T12:54:58Z</time></trkpt><trkpt lat="43.42150785588909" lon="5.810050139172263"><ele>428.0</ele><time>2026-03-28T12:54:59Z</time></trkpt><trkpt lat="43.42159176510859" lon="5.810071834503182"><ele>430.0</ele><time>2026-03-28T12:55:00Z</time></trkpt><trkpt lat="43.421723801444976" lon="5.810000626961691"><ele>432.0</ele><time>2026-03-28T12:55:02Z</time></trkpt><trkpt lat="43.421815915967485" lon="5.809933374616857"><ele>434.0</ele><time>2026-03-28T12:55:03Z</time></trkpt><trkpt lat="43.42194061001396" lon="5.8098621666628585"><ele>433.99999999999994</ele><time>2026-03-28T12:55:04Z</time></trkpt><trkpt lat="43.42205192290676" lon="5.809774518155503"><ele>434.0</ele><time>2026-03-28T12:55:05Z</time></trkpt><trkpt lat="43.42212328411228" lon="5.8097062674931435"><ele>434.0</ele><time>2026-03-28T12:55:06Z</time></trkpt><trkpt lat="43.42217598190392" lon="5.8096425797653595"><ele>434.0</ele><time>2026-03-28T12:55:07Z</time></trkpt><trkpt lat="43.422210540448056" lon="5.809546359795443"><ele>433.99999999999994</ele><time>2026-03-28T12:55:08Z</time></trkpt><trkpt lat="43.422239398089445" lon="5.809464226526509"><ele>434.0</ele><time>2026-03-28T12:55:09Z</time></trkpt><trkpt lat="43.42230940860471" lon="5.809370719055988"><ele>436.2</ele><time>2026-03-28T12:55:10Z</time></trkpt><trkpt lat="43.42240017063121" lon="5.809283441931216"><ele>438.4</ele><time>2026-03-28T12:55:11Z</time></trkpt><trkpt lat="43.422447927831904" lon="5.80918873260381"><ele>440.6</ele><time>2026-03-28T12:55:12Z</time></trkpt><trkpt lat="43.4224577326222" lon="5.809065337332629"><ele>442.8</ele><time>2026-03-28T12:55:13Z</time></trkpt><trkpt lat="43.42246300067094" lon="5.808931252657466"><ele>445.0</ele><time>2026-03-28T12:55:14Z</time></trkpt><trkpt lat="43.422493540353784" lon="5.808846685477934"><ele>445.00000000000006</ele><time>2026-03-28T12:55:15Z</time></trkpt><trkpt lat="43.42256235999401" lon="5.808777872269754"><ele>445.0</ele><time>2026-03-28T12:55:16Z</time></trkpt><trkpt lat="43.422643321339166" lon="5.808697239770883"><ele>445.0</ele><time>2026-03-28T12:55:17Z</time></trkpt><trkpt lat="43.422712095926386" lon="5.808640583242367"><ele>445.0</ele><time>2026-03-28T12:55:18Z</time></trkpt><trkpt lat="43.42277688312293" lon="5.808610354256254"><ele>445.00000000000006</ele><time>2026-03-28T12:55:19Z</time></trkpt><trkpt lat="43.42286760077742" lon="5.808612804119586"><ele>445.0</ele><time>2026-03-28T12:55:20Z</time></trkpt><trkpt lat="43.42297606156964" lon="5.808612125975534"><ele>447.4</ele><time>2026-03-28T12:55:21Z</time></trkpt><trkpt lat="43.42305210250284" lon="5.80856457071427"><ele>449.8</ele><time>2026-03-28T12:55:22Z</time></trkpt><trkpt lat="43.42308775723571" lon="5.808485108310703"><ele>452.20000000000005</ele><time>2026-03-28T12:55:23Z</time></trkpt><trkpt lat="43.42310172636969" lon="5.808351369266836"><ele>454.6</ele><time>2026-03-28T12:55:24Z</time></trkpt><trkpt lat="43.42313108547479" lon="5.808231979505381"><ele>457.0</ele><time>2026-03-28T12:55:25Z</time></trkpt><trkpt lat="43.42319607043063" lon="5.80809564672381"><ele>457.0</ele><time>2026-03-28T12:55:26Z</time></trkpt><trkpt lat="43.423275292767734" lon="5.807940840096018"><ele>457.0</ele><time>2026-03-28T12:55:27Z</time></trkpt><trkpt lat="43.42332613240069" lon="5.807792204988049"><ele>457.0</ele><time>2026-03-28T12:55:28Z</time></trkpt><trkpt lat="43.4233747646601" lon="5.807635570427847"><ele>457.0</ele><time>2026-03-28T12:55:29Z</time></trkpt><trkpt lat="43.42341669707692" lon="5.807465175113823"><ele>457.8</ele><time>2026-03-28T12:55:30Z</time></trkpt><trkpt lat="43.42344036149502" lon="5.807328463148984"><ele>458.6</ele><time>2026-03-28T12:55:31Z</time></trkpt><trkpt lat="43.423468095342166" lon="5.8071840453484"><ele>459.40000000000003</ele><time>2026-03-28T12:55:32Z</time></trkpt><trkpt lat="43.42349975242798" lon="5.807069578641626"><ele>460.20000000000005</ele><time>2026-03-28T12:55:33Z</time></trkpt><trkpt lat="43.42354794718581" lon="5.806979872369586"><ele>461.0</ele><time>2026-03-28T12:55:34Z</time></trkpt><trkpt lat="43.423597783868814" lon="5.80688985441052"><ele>462.6</ele><time>2026-03-28T12:55:35Z</time></trkpt><trkpt lat="43.42363597386546" lon="5.806805295210445"><ele>464.20000000000005</ele><time>2026-03-28T12:55:36Z</time></trkpt><trkpt lat="43.42365812549441" lon="5.806707810284576"><ele>465.79999999999995</ele><time>2026-03-28T12:55:37Z</time></trkpt><trkpt lat="43.42374789227737" lon="5.806597797700862"><ele>467.4</ele><time>2026-03-28T12:55:39Z</time></trkpt><trkpt lat="43.42381525881972" lon="5.806483869270571"><ele>469.0</ele><time>2026-03-28T12:55:41Z</time></trkpt><trkpt lat="43.42387412744535" lon="5.806278432898451"><ele>470.0</ele><time>2026-03-28T12:55:43Z</time></trkpt><trkpt lat="43.423932500651865" lon="5.806158611984671"><ele>471.0</ele><time>2026-03-28T12:55:44Z</time></trkpt><trkpt lat="43.42397907637087" lon="5.806066912723029"><ele>472.0</ele><time>2026-03-28T12:55:45Z</time></trkpt><trkpt lat="43.42397246829862" lon="5.8059184498367316"><ele>473.0</ele><time>2026-03-28T12:55:47Z</time></trkpt><trkpt lat="43.42396124059752" lon="5.805799772690484"><ele>474.0</ele><time>2026-03-28T12:55:48Z</time></trkpt><trkpt lat="43.42396718950198" lon="5.80565439466596"><ele>474.42857142857133</ele><time>2026-03-28T12:55:49Z</time></trkpt><trkpt lat="43.423977898119105" lon="5.805538827251546"><ele>474.85714285714283</ele><time>2026-03-28T12:55:50Z</time></trkpt><trkpt lat="43.42399254999316" lon="5.805445830148279"><ele>475.2857142857142</ele><time>2026-03-28T12:55:51Z</time></trkpt><trkpt lat="43.42402343708227" lon="5.805363960390786"><ele>475.71428571428567</ele><time>2026-03-28T12:55:52Z</time></trkpt><trkpt lat="43.42407283768064" lon="5.805273559643806"><ele>476.1428571428571</ele><time>2026-03-28T12:55:53Z</time></trkpt><trkpt lat="43.42410214774357" lon="5.8051939891422695"><ele>476.57142857142856</ele><time>2026-03-28T12:55:54Z</time></trkpt><trkpt lat="43.42414288525901" lon="5.805114890868202"><ele>477.0</ele><time>2026-03-28T12:55:55Z</time></trkpt><trkpt lat="43.424201044703025" lon="5.805056858273047"><ele>477.6666666666667</ele><time>2026-03-28T12:55:56Z</time></trkpt><trkpt lat="43.42424898206359" lon="5.804997503950754"><ele>478.33333333333337</ele><time>2026-03-28T12:55:57Z</time></trkpt><trkpt lat="43.42426659510762" lon="5.804913814985016"><ele>479.0</ele><time>2026-03-28T12:55:58Z</time></trkpt><trkpt lat="43.42427903335522" lon="5.804805427040008"><ele>479.6666666666667</ele><time>2026-03-28T12:55:59Z</time></trkpt><trkpt lat="43.42431572612992" lon="5.8047252397932505"><ele>480.33333333333337</ele><time>2026-03-28T12:56:00Z</time></trkpt><trkpt lat="43.42440225110462" lon="5.804605789147753"><ele>481.0</ele><time>2026-03-28T12:56:02Z</time></trkpt><trkpt lat="43.424437727728325" lon="5.8044603407792295"><ele>480.99999999999994</ele><time>2026-03-28T12:56:04Z</time></trkpt><trkpt lat="43.42444955558777" lon="5.804367716260534"><ele>481.0</ele><time>2026-03-28T12:56:05Z</time></trkpt><trkpt lat="43.42446492173521" lon="5.804261804247792"><ele>480.99999999999994</ele><time>2026-03-28T12:56:05.999Z</time></trkpt><trkpt lat="43.424503435000716" lon="5.804171470943925"><ele>480.99999999999994</ele><time>2026-03-28T12:56:06.999Z</time></trkpt><trkpt lat="43.42455447799643" lon="5.804111799990295"><ele>481.0</ele><time>2026-03-28T12:56:07.999Z</time></trkpt><trkpt lat="43.42461611727825" lon="5.804057760564558"><ele>480.99999999999994</ele><time>2026-03-28T12:56:08.999Z</time></trkpt><trkpt lat="43.424685653181754" lon="5.804017979085512"><ele>480.99999999999994</ele><time>2026-03-28T12:56:09.999Z</time></trkpt><trkpt lat="43.42477904172056" lon="5.803963854759215"><ele>483.8</ele><time>2026-03-28T12:56:10.999Z</time></trkpt><trkpt lat="43.42485829890678" lon="5.80389293153365"><ele>486.6</ele><time>2026-03-28T12:56:11.999Z</time></trkpt><trkpt lat="43.42491770472507" lon="5.803825158433807"><ele>489.4</ele><time>2026-03-28T12:56:12.999Z</time></trkpt><trkpt lat="43.424985135226635" lon="5.803750387361892"><ele>492.2</ele><time>2026-03-28T12:56:13.999Z</time></trkpt><trkpt lat="43.425061226150376" lon="5.80368271305044"><ele>495.0</ele><time>2026-03-28T12:56:14.999Z</time></trkpt><trkpt lat="43.42513748509835" lon="5.803547754318632"><ele>495.8</ele><time>2026-03-28T12:56:16.999Z</time></trkpt><trkpt lat="43.425186551701664" lon="5.803469230806582"><ele>496.6</ele><time>2026-03-28T12:56:17.999Z</time></trkpt><trkpt lat="43.42527077663252" lon="5.803378653417102"><ele>497.4</ele><time>2026-03-28T12:56:18.999Z</time></trkpt><trkpt lat="43.42533549106231" lon="5.803287608203193"><ele>498.2</ele><time>2026-03-28T12:56:19.999Z</time></trkpt><trkpt lat="43.425384808528456" lon="5.803174318065365"><ele>499.0</ele><time>2026-03-28T12:56:20.999Z</time></trkpt><trkpt lat="43.42542544002196" lon="5.803080356288681"><ele>499.0</ele><time>2026-03-28T12:56:21.999Z</time></trkpt><trkpt lat="43.42545220910268" lon="5.802995060485918"><ele>499.0</ele><time>2026-03-28T12:56:22.999Z</time></trkpt><trkpt lat="43.42552211906735" lon="5.802873409863918"><ele>499.0</ele><time>2026-03-28T12:56:24.999Z</time></trkpt><trkpt lat="43.42558206258956" lon="5.802800774060433"><ele>499.0</ele><time>2026-03-28T12:56:25.999Z</time></trkpt><trkpt lat="43.425635231952455" lon="5.802726725051807"><ele>499.0</ele><time>2026-03-28T12:56:26.999Z</time></trkpt><trkpt lat="43.42574336971966" lon="5.802654367313843"><ele>500.4</ele><time>2026-03-28T12:56:28.999Z</time></trkpt><trkpt lat="43.425834781482195" lon="5.8026326896300615"><ele>501.79999999999995</ele><time>2026-03-28T12:56:29.999Z</time></trkpt><trkpt lat="43.42593307507246" lon="5.802627643378539"><ele>503.20000000000005</ele><time>2026-03-28T12:56:30.999Z</time></trkpt><trkpt lat="43.42603089292639" lon="5.802638854688693"><ele>504.6</ele><time>2026-03-28T12:56:31.999Z</time></trkpt><trkpt lat="43.426130433334045" lon="5.8026481143215305"><ele>506.0</ele><time>2026-03-28T12:56:32.999Z</time></trkpt><trkpt lat="43.42622054095805" lon="5.802648452992853"><ele>506.0</ele><time>2026-03-28T12:56:33.999Z</time></trkpt><trkpt lat="43.42630726034263" lon="5.802632124380434"><ele>506.0</ele><time>2026-03-28T12:56:34.999Z</time></trkpt><trkpt lat="43.42638806261578" lon="5.802594062747897"><ele>506.0</ele><time>2026-03-28T12:56:35.999Z</time></trkpt><trkpt lat="43.426488269948365" lon="5.802533819528371"><ele>506.0</ele><time>2026-03-28T12:56:37.999Z</time></trkpt><trkpt lat="43.426576971374" lon="5.802499854471677"><ele>506.0</ele><time>2026-03-28T12:56:39.999Z</time></trkpt><trkpt lat="43.42664589882532" lon="5.802413875741325"><ele>506.99999999999994</ele><time>2026-03-28T12:56:42.999Z</time></trkpt><trkpt lat="43.42671531903394" lon="5.802385089390172"><ele>508.0</ele><time>2026-03-28T12:56:56Z</time></trkpt><trkpt lat="43.42676762327058" lon="5.802308526449254"><ele>509.0</ele><time>2026-03-28T12:57:04Z</time></trkpt><trkpt lat="43.42686701166887" lon="5.802222792770442"><ele>510.0</ele><time>2026-03-28T12:57:06Z</time></trkpt><trkpt lat="43.42690739043653" lon="5.802115160462522"><ele>510.99999999999994</ele><time>2026-03-28T12:57:10Z</time></trkpt><trkpt lat="43.42695160121544" lon="5.802008363831371"><ele>512.0</ele><time>2026-03-28T12:57:13Z</time></trkpt><trkpt lat="43.427035533017275" lon="5.801867291763188"><ele>513.6</ele><time>2026-03-28T12:57:15Z</time></trkpt><trkpt lat="43.4271115879631" lon="5.801764612120522"><ele>515.2</ele><time>2026-03-28T12:57:16Z</time></trkpt><trkpt lat="43.42712177060799" lon="5.801665815579363"><ele>516.8</ele><time>2026-03-28T12:57:17Z</time></trkpt><trkpt lat="43.427108505923506" lon="5.801552389587416"><ele>518.4</ele><time>2026-03-28T12:57:18Z</time></trkpt><trkpt lat="43.427148222298804" lon="5.801378708567221"><ele>520.0</ele><time>2026-03-28T12:57:20Z</time></trkpt><trkpt lat="43.4271822674399" lon="5.801261469962559"><ele>520.6666666666667</ele><time>2026-03-28T12:57:21Z</time></trkpt><trkpt lat="43.4272279547576" lon="5.80115891139471"><ele>521.3333333333334</ele><time>2026-03-28T12:57:23Z</time></trkpt><trkpt lat="43.4272944892964" lon="5.80103919784542"><ele>522.0</ele><time>2026-03-28T12:57:25Z</time></trkpt><trkpt lat="43.42734933779229" lon="5.800943337933758"><ele>522.6666666666666</ele><time>2026-03-28T12:57:26Z</time></trkpt><trkpt lat="43.42740661916693" lon="5.800854793975894"><ele>523.3333333333333</ele><time>2026-03-28T12:57:27Z</time></trkpt><trkpt lat="43.42744855926762" lon="5.8007703684485605"><ele>524.0</ele><time>2026-03-28T12:57:28Z</time></trkpt><trkpt lat="43.42747945724292" lon="5.800675220136906"><ele>524.6666666666666</ele><time>2026-03-28T12:57:29Z</time></trkpt><trkpt lat="43.42752582196422" lon="5.80053813666893"><ele>525.3333333333333</ele><time>2026-03-28T12:57:31Z</time></trkpt><trkpt lat="43.427562839563166" lon="5.800436907026118"><ele>526.0</ele><time>2026-03-28T12:57:32Z</time></trkpt><trkpt lat="43.42759248435941" lon="5.8003464584214335"><ele>526.6666666666666</ele><time>2026-03-28T12:57:33Z</time></trkpt><trkpt lat="43.427602418897315" lon="5.800233903359479"><ele>527.3333333333334</ele><time>2026-03-28T12:57:35Z</time></trkpt><trkpt lat="43.42765235259855" lon="5.800130873104359"><ele>528.0</ele><time>2026-03-28T12:57:38Z</time></trkpt><trkpt lat="43.42772317650152" lon="5.800091461121765"><ele>530.0</ele><time>2026-03-28T12:57:40Z</time></trkpt><trkpt lat="43.42781969085632" lon="5.800081594643966"><ele>532.0</ele><time>2026-03-28T12:57:42Z</time></trkpt><trkpt lat="43.42787732417398" lon="5.800002962898586"><ele>534.0</ele><time>2026-03-28T12:57:44Z</time></trkpt><trkpt lat="43.427951020195366" lon="5.799974479514516"><ele>536.0</ele><time>2026-03-28T12:57:46Z</time></trkpt><trkpt lat="43.42804713326176" lon="5.799967829514496"><ele>538.0</ele><time>2026-03-28T12:57:48Z</time></trkpt><trkpt lat="43.42811359419939" lon="5.799922490227844"><ele>540.0</ele><time>2026-03-28T12:57:50Z</time></trkpt><trkpt lat="43.428179798957544" lon="5.799879926621691"><ele>540.0</ele><time>2026-03-28T12:57:53Z</time></trkpt><trkpt lat="43.42826598955585" lon="5.7998574002743135"><ele>540.0</ele><time>2026-03-28T12:57:56Z</time></trkpt><trkpt lat="43.42821877852026" lon="5.799788940404559"><ele>540.0</ele><time>2026-03-28T12:57:58Z</time></trkpt><trkpt lat="43.42816129832431" lon="5.7997474528345885"><ele>540.0</ele><time>2026-03-28T12:58:01Z</time></trkpt><trkpt lat="43.42808663617704" lon="5.799689176926351"><ele>540.0</ele><time>2026-03-28T12:58:03Z</time></trkpt><trkpt lat="43.42799987923207" lon="5.7996032442394485"><ele>540.0</ele><time>2026-03-28T12:58:05Z</time></trkpt><trkpt lat="43.42791395335644" lon="5.799517374276607"><ele>540.0</ele><time>2026-03-28T12:58:06.999Z</time></trkpt><trkpt lat="43.427843045607844" lon="5.79948216775814"><ele>540.0</ele><time>2026-03-28T12:58:09.999Z</time></trkpt><trkpt lat="43.42791065054346" lon="5.799420487043516"><ele>540.0</ele><time>2026-03-28T12:58:12.999Z</time></trkpt><trkpt lat="43.42810930534733" lon="5.799384890161279"><ele>540.0</ele><time>2026-03-28T12:58:15.999Z</time></trkpt><trkpt lat="43.42821560829249" lon="5.799371637544145"><ele>541.1666666666666</ele><time>2026-03-28T12:58:16.999Z</time></trkpt><trkpt lat="43.42828255609207" lon="5.799353826236198"><ele>542.3333333333334</ele><time>2026-03-28T12:58:17.999Z</time></trkpt><trkpt lat="43.4283600687143" lon="5.799342922480954"><ele>543.5</ele><time>2026-03-28T12:58:19.999Z</time></trkpt><trkpt lat="43.42845032152405" lon="5.799294107624255"><ele>544.6666666666667</ele><time>2026-03-28T12:58:21.999Z</time></trkpt><trkpt lat="43.42851179847002" lon="5.799243090128701"><ele>545.8333333333334</ele><time>2026-03-28T12:58:23.999Z</time></trkpt><trkpt lat="43.42842634504292" lon="5.799207705299267"><ele>547.0</ele><time>2026-03-28T12:58:27.999Z</time></trkpt><trkpt lat="43.428342303643554" lon="5.799134694595159"><ele>549.8000000000001</ele><time>2026-03-28T12:58:29.999Z</time></trkpt><trkpt lat="43.42825941351445" lon="5.799059256684168"><ele>552.6</ele><time>2026-03-28T12:58:31.999Z</time></trkpt><trkpt lat="43.4283677220553" lon="5.799001349194143"><ele>555.4000000000001</ele><time>2026-03-28T12:58:36.999Z</time></trkpt><trkpt lat="43.42847187964125" lon="5.799039615375061"><ele>558.2</ele><time>2026-03-28T12:58:38.999Z</time></trkpt><trkpt lat="43.428540140714006" lon="5.798977940906122"><ele>561.0</ele><time>2026-03-28T12:58:40.999Z</time></trkpt><trkpt lat="43.428585657556674" lon="5.798899761615016"><ele>561.0</ele><time>2026-03-28T12:58:42.999Z</time></trkpt><trkpt lat="43.42866976527247" lon="5.798937901182376"><ele>561.0</ele><time>2026-03-28T12:58:44.999Z</time></trkpt><trkpt lat="43.4287416849836" lon="5.798970826116266"><ele>561.0</ele><time>2026-03-28T12:58:46.999Z</time></trkpt><trkpt lat="43.42880945204122" lon="5.7989050088707135"><ele>561.0</ele><time>2026-03-28T12:58:48.999Z</time></trkpt><trkpt lat="43.428897908437165" lon="5.798871349131501"><ele>561.0</ele><time>2026-03-28T12:58:50.999Z</time></trkpt><trkpt lat="43.42896517081341" lon="5.798939489197648"><ele>561.0</ele><time>2026-03-28T12:58:54Z</time></trkpt><trkpt lat="43.42905520546213" lon="5.799007409512284"><ele>564.1666666666666</ele><time>2026-03-28T12:58:56Z</time></trkpt><trkpt lat="43.42915219605332" lon="5.79907284929367"><ele>567.3333333333334</ele><time>2026-03-28T12:58:59Z</time></trkpt><trkpt lat="43.42918687133386" lon="5.798974464394583"><ele>570.5</ele><time>2026-03-28T12:59:03Z</time></trkpt><trkpt lat="43.4291730822452" lon="5.79888456676885"><ele>573.6666666666667</ele><time>2026-03-28T12:59:05Z</time></trkpt><trkpt lat="43.42926121177012" lon="5.7988299171192565"><ele>576.8333333333334</ele><time>2026-03-28T12:59:08Z</time></trkpt><trkpt lat="43.429312224890836" lon="5.798926480231153"><ele>580.0</ele><time>2026-03-28T12:59:11Z</time></trkpt><trkpt lat="43.429367186205944" lon="5.798975958208725"><ele>580.0</ele><time>2026-03-28T12:59:14Z</time></trkpt><trkpt lat="43.429463688290504" lon="5.7989842153796936"><ele>580.0</ele><time>2026-03-28T12:59:17Z</time></trkpt><trkpt lat="43.42956961822805" lon="5.798985080455131"><ele>580.0</ele><time>2026-03-28T12:59:19Z</time></trkpt><trkpt lat="43.429671828683155" lon="5.798984032724512"><ele>580.0</ele><time>2026-03-28T12:59:20Z</time></trkpt><trkpt lat="43.429767940004844" lon="5.799023700462161"><ele>580.0</ele><time>2026-03-28T12:59:22Z</time></trkpt><trkpt lat="43.42984593750155" lon="5.799062820395077"><ele>585.2</ele><time>2026-03-28T12:59:24Z</time></trkpt><trkpt lat="43.42991995667295" lon="5.799035822245895"><ele>590.4</ele><time>2026-03-28T12:59:26Z</time></trkpt><trkpt lat="43.42999631730057" lon="5.798994300518238"><ele>595.6</ele><time>2026-03-28T12:59:28Z</time></trkpt><trkpt lat="43.43010363658228" lon="5.798902537266212"><ele>600.8</ele><time>2026-03-28T12:59:30Z</time></trkpt><trkpt lat="43.430156869618564" lon="5.798843752419893"><ele>606.0</ele><time>2026-03-28T12:59:31Z</time></trkpt><trkpt lat="43.43025241213715" lon="5.7987555632671635"><ele>606.0</ele><time>2026-03-28T12:59:33Z</time></trkpt><trkpt lat="43.430317654584876" lon="5.798658147802701"><ele>606.0</ele><time>2026-03-28T12:59:35Z</time></trkpt><trkpt lat="43.43034314950143" lon="5.798566414060905"><ele>606.0</ele><time>2026-03-28T12:59:37Z</time></trkpt><trkpt lat="43.430297384472986" lon="5.798640017757547"><ele>606.0</ele><time>2026-03-28T12:59:40Z</time></trkpt><trkpt lat="43.43029548346378" lon="5.798524166033165"><ele>606.0</ele><time>2026-03-28T13:03:42Z</time></trkpt><trkpt lat="43.43030099211825" lon="5.79842859946649"><ele>606.0</ele><time>2026-03-28T13:03:43Z</time></trkpt><trkpt lat="43.4303117796951" lon="5.798324612143657"><ele>604.8333333333334</ele><time>2026-03-28T13:03:45Z</time></trkpt><trkpt lat="43.430297609781675" lon="5.798197653285478"><ele>603.6666666666666</ele><time>2026-03-28T13:03:47Z</time></trkpt><trkpt lat="43.430320498032955" lon="5.798100025472699"><ele>602.5</ele><time>2026-03-28T13:03:49Z</time></trkpt><trkpt lat="43.43035216313142" lon="5.797990214747462"><ele>601.3333333333333</ele><time>2026-03-28T13:03:50.999Z</time></trkpt><trkpt lat="43.43036682918465" lon="5.797905768875613"><ele>600.1666666666666</ele><time>2026-03-28T13:03:52.999Z</time></trkpt><trkpt lat="43.4303950349013" lon="5.797820301742574"><ele>599.0</ele><time>2026-03-28T13:03:54.999Z</time></trkpt><trkpt lat="43.43047086713043" lon="5.797809290547118"><ele>605.0</ele><time>2026-03-28T13:03:56.999Z</time></trkpt><trkpt lat="43.43055199481337" lon="5.797814129371629"><ele>611.0</ele><time>2026-03-28T13:03:59.999Z</time></trkpt><trkpt lat="43.4306838566306" lon="5.797811306780651"><ele>617.0</ele><time>2026-03-28T13:04:01.999Z</time></trkpt><trkpt lat="43.43077247315943" lon="5.797858127721913"><ele>623.0</ele><time>2026-03-28T13:04:03.999Z</time></trkpt><trkpt lat="43.430863975878296" lon="5.797913336187091"><ele>629.0</ele><time>2026-03-28T13:04:05.999Z</time></trkpt><trkpt lat="43.430968006732556" lon="5.797964660231106"><ele>629.0</ele><time>2026-03-28T13:04:07.999Z</time></trkpt><trkpt lat="43.43105698567159" lon="5.79795952127815"><ele>629.0</ele><time>2026-03-28T13:04:09.999Z</time></trkpt><trkpt lat="43.43113069888663" lon="5.797884791430744"><ele>629.0</ele><time>2026-03-28T13:04:11.999Z</time></trkpt><trkpt lat="43.431229630020226" lon="5.797839166718441"><ele>629.0</ele><time>2026-03-28T13:04:13.999Z</time></trkpt><trkpt lat="43.43131903069955" lon="5.797779649346249"><ele>629.0</ele><time>2026-03-28T13:04:15.999Z</time></trkpt><trkpt lat="43.43143080344276" lon="5.797718689619703"><ele>630.5</ele><time>2026-03-28T13:04:17.999Z</time></trkpt><trkpt lat="43.431524484142365" lon="5.797685112303001"><ele>632.0</ele><time>2026-03-28T13:04:19.999Z</time></trkpt><trkpt lat="43.431607546684624" lon="5.797685493206276"><ele>633.5</ele><time>2026-03-28T13:04:21.999Z</time></trkpt><trkpt lat="43.43167403602967" lon="5.797729761893074"><ele>635.0</ele><time>2026-03-28T13:04:23.999Z</time></trkpt><trkpt lat="43.43175852328106" lon="5.79776759245045"><ele>636.5</ele><time>2026-03-28T13:04:25.999Z</time></trkpt><trkpt lat="43.43184766746073" lon="5.797823929967967"><ele>638.0</ele><time>2026-03-28T13:04:28.999Z</time></trkpt><trkpt lat="43.43192487671336" lon="5.797849910787895"><ele>638.0</ele><time>2026-03-28T13:04:29.999Z</time></trkpt><trkpt lat="43.43200309266169" lon="5.797907475733578"><ele>638.0</ele><time>2026-03-28T13:04:31.999Z</time></trkpt><trkpt lat="43.43207894159442" lon="5.79797791589955"><ele>638.0</ele><time>2026-03-28T13:04:33.999Z</time></trkpt><trkpt lat="43.43217055788541" lon="5.798070900377116"><ele>638.0</ele><time>2026-03-28T13:04:35.999Z</time></trkpt><trkpt lat="43.432242007187426" lon="5.7981278953367115"><ele>638.0</ele><time>2026-03-28T13:04:37.999Z</time></trkpt><trkpt lat="43.43233386475246" lon="5.798191798760356"><ele>636.6666666666666</ele><time>2026-03-28T13:04:39.999Z</time></trkpt><trkpt lat="43.43239795308577" lon="5.798250918393901"><ele>635.3333333333333</ele><time>2026-03-28T13:04:41.999Z</time></trkpt><trkpt lat="43.432479890631285" lon="5.798354687106049"><ele>634.0</ele><time>2026-03-28T13:04:43.999Z</time></trkpt><trkpt lat="43.43253643584053" lon="5.798396819248374"><ele>632.6666666666666</ele><time>2026-03-28T13:04:44.999Z</time></trkpt><trkpt lat="43.432612806391475" lon="5.798358213119054"><ele>631.3333333333334</ele><time>2026-03-28T13:04:46.999Z</time></trkpt><trkpt lat="43.432690142581556" lon="5.798321056309509"><ele>630.0</ele><time>2026-03-28T13:04:48.999Z</time></trkpt><trkpt lat="43.43275024446864" lon="5.798259776039693"><ele>630.0</ele><time>2026-03-28T13:04:51.999Z</time></trkpt><trkpt lat="43.43282028565642" lon="5.798217230490184"><ele>630.0</ele><time>2026-03-28T13:04:53.999Z</time></trkpt><trkpt lat="43.43289070686932" lon="5.7982135193825854"><ele>630.0</ele><time>2026-03-28T13:04:54.999Z</time></trkpt><trkpt lat="43.43298551009535" lon="5.7981992530472075"><ele>630.0</ele><time>2026-03-28T13:04:55.999Z</time></trkpt><trkpt lat="43.43307692177894" lon="5.79820347577819"><ele>630.0</ele><time>2026-03-28T13:04:57.999Z</time></trkpt><trkpt lat="43.43317409316674" lon="5.798191884887486"><ele>630.0</ele><time>2026-03-28T13:05:00.999Z</time></trkpt><trkpt lat="43.43337184105696" lon="5.798210660489833"><ele>629.6666666666666</ele><time>2026-03-28T13:05:03.999Z</time></trkpt><trkpt lat="43.43344424385623" lon="5.798266789654545"><ele>629.3333333333334</ele><time>2026-03-28T13:05:05.999Z</time></trkpt><trkpt lat="43.43350930559653" lon="5.798245768580993"><ele>629.0</ele><time>2026-03-28T13:05:07.999Z</time></trkpt><trkpt lat="43.4335739270896" lon="5.798223078389158"><ele>628.6666666666667</ele><time>2026-03-28T13:05:09.999Z</time></trkpt><trkpt lat="43.43366518705986" lon="5.798240354648627"><ele>628.3333333333334</ele><time>2026-03-28T13:05:12Z</time></trkpt><trkpt lat="43.43374988448508" lon="5.798251831823801"><ele>628.0</ele><time>2026-03-28T13:05:14Z</time></trkpt><trkpt lat="43.43386279832784" lon="5.7982917596003185"><ele>628.0</ele><time>2026-03-28T13:05:16Z</time></trkpt><trkpt lat="43.43396320523788" lon="5.798339811470507"><ele>628.0</ele><time>2026-03-28T13:05:18Z</time></trkpt><trkpt lat="43.43405299987138" lon="5.7983834585256595"><ele>628.0</ele><time>2026-03-28T13:05:20Z</time></trkpt><trkpt lat="43.43412835535248" lon="5.798423669888841"><ele>628.0</ele><time>2026-03-28T13:05:22Z</time></trkpt><trkpt lat="43.43415998905299" lon="5.7985327172998895"><ele>628.0</ele><time>2026-03-28T13:05:24Z</time></trkpt><trkpt lat="43.43423918504285" lon="5.798551997944987"><ele>628.0</ele><time>2026-03-28T13:05:26Z</time></trkpt><trkpt lat="43.43431273949858" lon="5.798448807413167"><ele>628.0</ele><time>2026-03-28T13:05:28Z</time></trkpt><trkpt lat="43.434329736899194" lon="5.798318587687726"><ele>628.0</ele><time>2026-03-28T13:05:30Z</time></trkpt><trkpt lat="43.434407630413695" lon="5.798280501127871"><ele>628.0</ele><time>2026-03-28T13:05:32Z</time></trkpt><trkpt lat="43.434502740734295" lon="5.798296038021333"><ele>628.0</ele><time>2026-03-28T13:05:34Z</time></trkpt><trkpt lat="43.434582539012126" lon="5.7982573002195466"><ele>628.0</ele><time>2026-03-28T13:05:36Z</time></trkpt><trkpt lat="43.434673269676935" lon="5.7982230940524015"><ele>628.4</ele><time>2026-03-28T13:05:38Z</time></trkpt><trkpt lat="43.43473571076283" lon="5.7982080431737995"><ele>628.8</ele><time>2026-03-28T13:05:41Z</time></trkpt><trkpt lat="43.43487182711841" lon="5.798131670262837"><ele>629.2</ele><time>2026-03-28T13:05:43Z</time></trkpt><trkpt lat="43.434964849673015" lon="5.7980822909843015"><ele>629.6</ele><time>2026-03-28T13:05:45Z</time></trkpt><trkpt lat="43.435048175237554" lon="5.798047997812939"><ele>630.0</ele><time>2026-03-28T13:05:47Z</time></trkpt><trkpt lat="43.4351213620636" lon="5.798020865490272"><ele>630.0</ele><time>2026-03-28T13:05:49Z</time></trkpt><trkpt lat="43.43521758991118" lon="5.798029964423053"><ele>630.0</ele><time>2026-03-28T13:05:53.999Z</time></trkpt><trkpt lat="43.43529285394197" lon="5.7980613041163505"><ele>630.0</ele><time>2026-03-28T13:05:55.999Z</time></trkpt><trkpt lat="43.43538509913641" lon="5.7980490696406015"><ele>630.0</ele><time>2026-03-28T13:06:15.999Z</time></trkpt><trkpt lat="43.435472333812484" lon="5.798085192443263"><ele>630.0</ele><time>2026-03-28T13:06:17.999Z</time></trkpt><trkpt lat="43.435600057480535" lon="5.798099458643601"><ele>632.0</ele><time>2026-03-28T13:06:19.999Z</time></trkpt><trkpt lat="43.43570071633525" lon="5.798072754951888"><ele>634.0</ele><time>2026-03-28T13:06:21.999Z</time></trkpt><trkpt lat="43.435770980810766" lon="5.798109699889194"><ele>636.0</ele><time>2026-03-28T13:06:22.999Z</time></trkpt><trkpt lat="43.435840480777166" lon="5.7981448887906435"><ele>638.0</ele><time>2026-03-28T13:06:23.999Z</time></trkpt><trkpt lat="43.436015169730425" lon="5.798127943974365"><ele>640.0</ele><time>2026-03-28T13:06:26.999Z</time></trkpt><trkpt lat="43.43609968793299" lon="5.798083013983212"><ele>640.0</ele><time>2026-03-28T13:06:27.999Z</time></trkpt><trkpt lat="43.43616113602529" lon="5.798060638753433"><ele>640.0</ele><time>2026-03-28T13:06:28.999Z</time></trkpt><trkpt lat="43.43622763744139" lon="5.7980203991687"><ele>640.0</ele><time>2026-03-28T13:06:29.999Z</time></trkpt><trkpt lat="43.43633036356015" lon="5.798024338345976"><ele>640.0</ele><time>2026-03-28T13:06:31.999Z</time></trkpt><trkpt lat="43.43637005535816" lon="5.798187153258941"><ele>640.0</ele><time>2026-03-28T13:06:34.999Z</time></trkpt><trkpt lat="43.43642551189464" lon="5.798235520480234"><ele>640.0</ele><time>2026-03-28T13:06:36.999Z</time></trkpt><trkpt lat="43.43652995799559" lon="5.798313122779336"><ele>642.0</ele><time>2026-03-28T13:06:40.999Z</time></trkpt><trkpt lat="43.43663394015904" lon="5.798302929942523"><ele>644.0</ele><time>2026-03-28T13:06:42.999Z</time></trkpt><trkpt lat="43.43670167226472" lon="5.798280154548322"><ele>646.0</ele><time>2026-03-28T13:06:44.999Z</time></trkpt><trkpt lat="43.43676307963426" lon="5.798239403480655"><ele>648.0</ele><time>2026-03-28T13:06:45.999Z</time></trkpt><trkpt lat="43.43684374615415" lon="5.7981770389762275"><ele>650.0</ele><time>2026-03-28T13:06:47.999Z</time></trkpt><trkpt lat="43.43695092930006" lon="5.798150613844156"><ele>652.0</ele><time>2026-03-28T13:06:49.999Z</time></trkpt><trkpt lat="43.43704006587032" lon="5.798167647688209"><ele>652.0</ele><time>2026-03-28T13:06:53.999Z</time></trkpt><trkpt lat="43.437093913722656" lon="5.798233732503979"><ele>652.0</ele><time>2026-03-28T13:06:55.999Z</time></trkpt><trkpt lat="43.4372016488523" lon="5.798329389068114"><ele>652.0</ele><time>2026-03-28T13:06:57.999Z</time></trkpt><trkpt lat="43.4372804291" lon="5.798385069356327"><ele>652.0</ele><time>2026-03-28T13:06:58.999Z</time></trkpt><trkpt lat="43.437346950374675" lon="5.798420420417123"><ele>652.0</ele><time>2026-03-28T13:07:00.999Z</time></trkpt><trkpt lat="43.43741482587413" lon="5.798439420416252"><ele>652.0</ele><time>2026-03-28T13:07:02.999Z</time></trkpt><trkpt lat="43.437504193297016" lon="5.798414843182601"><ele>654.1666666666667</ele><time>2026-03-28T13:07:04.999Z</time></trkpt><trkpt lat="43.43758282266656" lon="5.798350321612087"><ele>656.3333333333334</ele><time>2026-03-28T13:07:07.999Z</time></trkpt><trkpt lat="43.43766630149082" lon="5.798370242369574"><ele>658.5</ele><time>2026-03-28T13:07:10.999Z</time></trkpt><trkpt lat="43.43777661308164" lon="5.79841224185859"><ele>660.6666666666666</ele><time>2026-03-28T13:07:12.999Z</time></trkpt><trkpt lat="43.4378388425235" lon="5.798475832008767"><ele>662.8333333333333</ele><time>2026-03-28T13:07:17Z</time></trkpt><trkpt lat="43.43790472753034" lon="5.798490647684327"><ele>665.0</ele><time>2026-03-28T13:07:19Z</time></trkpt><trkpt lat="43.43798925425311" lon="5.798536338725031"><ele>673.3333333333333</ele><time>2026-03-28T13:07:22Z</time></trkpt><trkpt lat="43.43809075147517" lon="5.798579209899773"><ele>681.6666666666666</ele><time>2026-03-28T13:07:25Z</time></trkpt><trkpt lat="43.43836296974066" lon="5.798669928452411"><ele>690.0</ele><time>2026-03-28T13:07:27Z</time></trkpt><trkpt lat="43.43845129857579" lon="5.798758714824709"><ele>690.0</ele><time>2026-03-28T13:07:29Z</time></trkpt><trkpt lat="43.43850513207146" lon="5.7988645336340605"><ele>690.0</ele><time>2026-03-28T13:07:31Z</time></trkpt><trkpt lat="43.43856823553485" lon="5.798936610478784"><ele>690.0</ele><time>2026-03-28T13:07:33Z</time></trkpt><trkpt lat="43.43862129242076" lon="5.799010766792843"><ele>690.0</ele><time>2026-03-28T13:07:35Z</time></trkpt><trkpt lat="43.438706744544625" lon="5.799066502925528"><ele>690.0</ele><time>2026-03-28T13:07:37Z</time></trkpt><trkpt lat="43.43878383953463" lon="5.799096902409055"><ele>690.0</ele><time>2026-03-28T13:07:39Z</time></trkpt><trkpt lat="43.43888607165896" lon="5.79911031728809"><ele>691.3333333333334</ele><time>2026-03-28T13:07:41Z</time></trkpt><trkpt lat="43.43897582328561" lon="5.799105863751065"><ele>692.6666666666666</ele><time>2026-03-28T13:07:43Z</time></trkpt><trkpt lat="43.439044593994566" lon="5.799110270266737"><ele>694.0</ele><time>2026-03-28T13:07:46Z</time></trkpt><trkpt lat="43.43910932460756" lon="5.799138232818828"><ele>695.3333333333333</ele><time>2026-03-28T13:07:48Z</time></trkpt><trkpt lat="43.439163830547166" lon="5.79924122313543"><ele>696.6666666666666</ele><time>2026-03-28T13:07:50.999Z</time></trkpt><trkpt lat="43.43923444687347" lon="5.799276749772697"><ele>698.0</ele><time>2026-03-28T13:07:52.999Z</time></trkpt><trkpt lat="43.43932214477415" lon="5.799308796350809"><ele>698.0</ele><time>2026-03-28T13:07:54.999Z</time></trkpt><trkpt lat="43.4395438754276" lon="5.799261743834588"><ele>698.0</ele><time>2026-03-28T13:07:59.999Z</time></trkpt><trkpt lat="43.43960555853905" lon="5.799242036312075"><ele>698.0</ele><time>2026-03-28T13:08:00.999Z</time></trkpt><trkpt lat="43.43966954147775" lon="5.799234550313956"><ele>698.0</ele><time>2026-03-28T13:08:01.999Z</time></trkpt><trkpt lat="43.439733005512664" lon="5.79918781666586"><ele>698.0</ele><time>2026-03-28T13:08:04.999Z</time></trkpt><trkpt lat="43.43982969352976" lon="5.79916750597719"><ele>699.6666666666666</ele><time>2026-03-28T13:08:07.999Z</time></trkpt><trkpt lat="43.439921740118706" lon="5.799094396996761"><ele>701.3333333333333</ele><time>2026-03-28T13:08:09.999Z</time></trkpt><trkpt lat="43.4400011347013" lon="5.799035155170138"><ele>703.0</ele><time>2026-03-28T13:08:11.999Z</time></trkpt><trkpt lat="43.440077789510255" lon="5.799043762521272"><ele>704.6666666666666</ele><time>2026-03-28T13:08:14.999Z</time></trkpt><trkpt lat="43.440135718033574" lon="5.799005536304418"><ele>706.3333333333334</ele><time>2026-03-28T13:08:19.999Z</time></trkpt><trkpt lat="43.440202098820144" lon="5.798958190830864"><ele>708.0</ele><time>2026-03-28T13:08:25.999Z</time></trkpt><trkpt lat="43.44026416223495" lon="5.798930000148123"><ele>708.0</ele><time>2026-03-28T13:08:27.999Z</time></trkpt><trkpt lat="43.44033542842216" lon="5.798888834430219"><ele>708.0</ele><time>2026-03-28T13:08:29.999Z</time></trkpt><trkpt lat="43.440424011232544" lon="5.798895257632748"><ele>708.0</ele><time>2026-03-28T13:08:31.999Z</time></trkpt><trkpt lat="43.440495631180454" lon="5.798899590973741"><ele>708.0</ele><time>2026-03-28T13:08:32.999Z</time></trkpt><trkpt lat="43.44056555256552" lon="5.798936921261166"><ele>708.0</ele><time>2026-03-28T13:08:34.999Z</time></trkpt><trkpt lat="43.440639632482814" lon="5.799022278287086"><ele>708.0</ele><time>2026-03-28T13:08:37.999Z</time></trkpt><trkpt lat="43.440735196383564" lon="5.798988861058529"><ele>711.0</ele><time>2026-03-28T13:08:39.999Z</time></trkpt><trkpt lat="43.44082767711388" lon="5.799032310416755"><ele>714.0</ele><time>2026-03-28T13:08:42.999Z</time></trkpt><trkpt lat="43.44091634629316" lon="5.799077969479858"><ele>717.0</ele><time>2026-03-28T13:08:44.999Z</time></trkpt><trkpt lat="43.44101205313891" lon="5.799079588451831"><ele>720.0</ele><time>2026-03-28T13:08:46.999Z</time></trkpt><trkpt lat="43.44109867018502" lon="5.799116390244377"><ele>723.0</ele><time>2026-03-28T13:08:48.999Z</time></trkpt><trkpt lat="43.441186832028734" lon="5.799167089705325"><ele>723.0</ele><time>2026-03-28T13:08:50.999Z</time></trkpt><trkpt lat="43.44128164575372" lon="5.799170965320905"><ele>723.0</ele><time>2026-03-28T13:08:54.999Z</time></trkpt><trkpt lat="43.441378360046166" lon="5.79916888441648"><ele>723.0</ele><time>2026-03-28T13:08:57.999Z</time></trkpt><trkpt lat="43.44146717845166" lon="5.799186939193793"><ele>723.0</ele><time>2026-03-28T13:09:00.999Z</time></trkpt><trkpt lat="43.44153615664921" lon="5.799155115949167"><ele>723.0</ele><time>2026-03-28T13:09:02.999Z</time></trkpt><trkpt lat="43.44160200799162" lon="5.799186296063089"><ele>723.0</ele><time>2026-03-28T13:09:04.999Z</time></trkpt><trkpt lat="43.441662074240476" lon="5.799151131315583"><ele>725.6666666666666</ele><time>2026-03-28T13:09:06.999Z</time></trkpt><trkpt lat="43.44174958699837" lon="5.79910970748476"><ele>728.3333333333334</ele><time>2026-03-28T13:09:08.999Z</time></trkpt><trkpt lat="43.44185751857317" lon="5.799040208047666"><ele>731.0</ele><time>2026-03-28T13:09:10.999Z</time></trkpt><trkpt lat="43.44193436167437" lon="5.798992599183593"><ele>733.6666666666667</ele><time>2026-03-28T13:09:12.999Z</time></trkpt><trkpt lat="43.44200161859428" lon="5.7989683056647365"><ele>736.3333333333334</ele><time>2026-03-28T13:09:14.999Z</time></trkpt><trkpt lat="43.44205975971945" lon="5.798896026053636"><ele>739.0</ele><time>2026-03-28T13:09:19.999Z</time></trkpt><trkpt lat="43.44216096966843" lon="5.798818597635283"><ele>743.25</ele><time>2026-03-28T13:09:22Z</time></trkpt><trkpt lat="43.44234377651364" lon="5.798691030855887"><ele>747.5</ele><time>2026-03-28T13:09:25Z</time></trkpt><trkpt lat="43.442424780024425" lon="5.798609327016593"><ele>751.75</ele><time>2026-03-28T13:09:27Z</time></trkpt><trkpt lat="43.44248331871133" lon="5.79853764095787"><ele>756.0</ele><time>2026-03-28T13:09:29Z</time></trkpt><trkpt lat="43.44255721330093" lon="5.798480152012742"><ele>757.3333333333334</ele><time>2026-03-28T13:09:31Z</time></trkpt><trkpt lat="43.44262951243675" lon="5.798428699806738"><ele>758.6666666666666</ele><time>2026-03-28T13:09:33Z</time></trkpt><trkpt lat="43.44268811287631" lon="5.798363397085502"><ele>760.0</ele><time>2026-03-28T13:09:35Z</time></trkpt><trkpt lat="43.44273699130019" lon="5.79828888729177"><ele>761.3333333333333</ele><time>2026-03-28T13:09:37Z</time></trkpt><trkpt lat="43.44280002225538" lon="5.798213048595043"><ele>762.6666666666666</ele><time>2026-03-28T13:09:40Z</time></trkpt><trkpt lat="43.442847878466615" lon="5.798126573994165"><ele>764.0</ele><time>2026-03-28T13:09:42Z</time></trkpt><trkpt lat="43.44290504079193" lon="5.798048991172959"><ele>764.0</ele><time>2026-03-28T13:09:44Z</time></trkpt><trkpt lat="43.44291926487162" lon="5.797961751313197"><ele>764.0</ele><time>2026-03-28T13:09:45.999Z</time></trkpt><trkpt lat="43.44298333770721" lon="5.797875055727433"><ele>764.0</ele><time>2026-03-28T13:09:48.999Z</time></trkpt><trkpt lat="43.44301524370199" lon="5.797796990722017"><ele>764.0</ele><time>2026-03-28T13:09:51.999Z</time></trkpt><trkpt lat="43.443094933095324" lon="5.79774565806934"><ele>764.0</ele><time>2026-03-28T13:09:55.999Z</time></trkpt><trkpt lat="43.4431723691109" lon="5.797748975132979"><ele>764.0</ele><time>2026-03-28T13:09:57.999Z</time></trkpt><trkpt lat="43.44327291299143" lon="5.797767976118884"><ele>764.1666666666666</ele><time>2026-03-28T13:10:00.999Z</time></trkpt><trkpt lat="43.443332553275596" lon="5.79780954444763"><ele>764.3333333333333</ele><time>2026-03-28T13:10:02.999Z</time></trkpt><trkpt lat="43.44342338340736" lon="5.797790466892869"><ele>764.5</ele><time>2026-03-28T13:10:04.999Z</time></trkpt><trkpt lat="43.4434681256234" lon="5.7976536737266215"><ele>764.6666666666666</ele><time>2026-03-28T13:10:06.999Z</time></trkpt><trkpt lat="43.44350256019662" lon="5.797501238742895"><ele>764.8333333333334</ele><time>2026-03-28T13:10:08.999Z</time></trkpt><trkpt lat="43.4435304209992" lon="5.79741941487673"><ele>765.0</ele><time>2026-03-28T13:10:09.999Z</time></trkpt><trkpt lat="43.443583404473955" lon="5.797326533662671"><ele>767.3333333333334</ele><time>2026-03-28T13:10:11.999Z</time></trkpt><trkpt lat="43.44362735409541" lon="5.797261318705468"><ele>769.6666666666667</ele><time>2026-03-28T13:11:32Z</time></trkpt><trkpt lat="43.443601230877796" lon="5.797174370193835"><ele>772.0</ele><time>2026-03-28T13:11:41Z</time></trkpt><trkpt lat="43.44362976267863" lon="5.797257686938294"><ele>774.3333333333334</ele><time>2026-03-28T13:12:57Z</time></trkpt><trkpt lat="43.443662440938276" lon="5.797109907821881"><ele>776.6666666666667</ele><time>2026-03-28T13:21:10Z</time></trkpt><trkpt lat="43.44369896461789" lon="5.79702959190077"><ele>779.0</ele><time>2026-03-28T13:21:11Z</time></trkpt><trkpt lat="43.44373804577096" lon="5.796929320427385"><ele>779.0000000000001</ele><time>2026-03-28T13:21:12Z</time></trkpt><trkpt lat="43.44376549952948" lon="5.796840530633308"><ele>779.0</ele><time>2026-03-28T13:21:13Z</time></trkpt><trkpt lat="43.443794191201924" lon="5.796731552253854"><ele>779.0</ele><time>2026-03-28T13:21:15Z</time></trkpt><trkpt lat="43.44381628681353" lon="5.796625358462357"><ele>779.0</ele><time>2026-03-28T13:21:16.999Z</time></trkpt><trkpt lat="43.443880489312804" lon="5.796577122209988"><ele>779.0</ele><time>2026-03-28T13:21:18.999Z</time></trkpt><trkpt lat="43.4439056274567" lon="5.796497285831041"><ele>779.0000000000001</ele><time>2026-03-28T13:21:20.999Z</time></trkpt><trkpt lat="43.44393471322141" lon="5.796412774660085"><ele>779.0</ele><time>2026-03-28T13:21:22.999Z</time></trkpt><trkpt lat="43.443904788990324" lon="5.79633034461216"><ele>778.3333333333334</ele><time>2026-03-28T13:21:25.999Z</time></trkpt><trkpt lat="43.443908337219085" lon="5.796213326766877"><ele>777.6666666666667</ele><time>2026-03-28T13:21:27.999Z</time></trkpt><trkpt lat="43.44391850654358" lon="5.796116424485611"><ele>777.0</ele><time>2026-03-28T13:21:28.999Z</time></trkpt><trkpt lat="43.44391713342439" lon="5.796014869262871"><ele>776.3333333333333</ele><time>2026-03-28T13:21:29.999Z</time></trkpt><trkpt lat="43.44391769383046" lon="5.795917721336564"><ele>775.6666666666666</ele><time>2026-03-28T13:21:30.999Z</time></trkpt><trkpt lat="43.443920229385235" lon="5.795823282453302"><ele>775.0</ele><time>2026-03-28T13:21:31.999Z</time></trkpt><trkpt lat="43.44399006539736" lon="5.795684899893238"><ele>778.4999999999999</ele><time>2026-03-28T13:21:33.999Z</time></trkpt><trkpt lat="43.44403766401653" lon="5.795622868525337"><ele>782.0</ele><time>2026-03-28T13:21:34.999Z</time></trkpt><trkpt lat="43.44406953601323" lon="5.7955417425072735"><ele>785.5</ele><time>2026-03-28T13:21:35.999Z</time></trkpt><trkpt lat="43.44410205462428" lon="5.795447884216499"><ele>789.0</ele><time>2026-03-28T13:21:36.999Z</time></trkpt><trkpt lat="43.444138748310685" lon="5.7953394718207845"><ele>792.4999999999999</ele><time>2026-03-28T13:21:37.999Z</time></trkpt><trkpt lat="43.444185498839396" lon="5.795246355141421"><ele>796.0</ele><time>2026-03-28T13:21:38.999Z</time></trkpt><trkpt lat="43.44423843671248" lon="5.795174198102172"><ele>798.6666666666666</ele><time>2026-03-28T13:21:39.999Z</time></trkpt><trkpt lat="43.44430978427828" lon="5.7950872198480585"><ele>801.3333333333333</ele><time>2026-03-28T13:21:40.999Z</time></trkpt><trkpt lat="43.44438291296569" lon="5.794984216351159"><ele>804.0</ele><time>2026-03-28T13:21:41.999Z</time></trkpt><trkpt lat="43.444436619455985" lon="5.79491151819811"><ele>806.6666666666667</ele><time>2026-03-28T13:21:42.999Z</time></trkpt><trkpt lat="43.44448764138262" lon="5.794840385630656"><ele>809.3333333333334</ele><time>2026-03-28T13:21:43.999Z</time></trkpt><trkpt lat="43.44453992682343" lon="5.7947411431850515"><ele>812.0</ele><time>2026-03-28T13:21:44.999Z</time></trkpt><trkpt lat="43.44459825067634" lon="5.794621674149873"><ele>812.8333333333334</ele><time>2026-03-28T13:21:45.999Z</time></trkpt><trkpt lat="43.44465416015996" lon="5.79451725168289"><ele>813.6666666666667</ele><time>2026-03-28T13:21:46.999Z</time></trkpt><trkpt lat="43.44470451431963" lon="5.794415358595575"><ele>814.5</ele><time>2026-03-28T13:21:47.999Z</time></trkpt><trkpt lat="43.4447541548117" lon="5.794344330843527"><ele>815.3333333333333</ele><time>2026-03-28T13:21:48.999Z</time></trkpt><trkpt lat="43.444803890517946" lon="5.794226915288129"><ele>816.1666666666666</ele><time>2026-03-28T13:21:50.999Z</time></trkpt><trkpt lat="43.44481751411236" lon="5.794133211865149"><ele>817.0</ele><time>2026-03-28T13:21:51.999Z</time></trkpt><trkpt lat="43.44483432247263" lon="5.7940044386268905"><ele>816.9999999999999</ele><time>2026-03-28T13:21:52.999Z</time></trkpt><trkpt lat="43.44485455856446" lon="5.793894447531997"><ele>817.0</ele><time>2026-03-28T13:21:53.999Z</time></trkpt><trkpt lat="43.44487804107362" lon="5.793805529178057"><ele>817.0</ele><time>2026-03-28T13:21:54.999Z</time></trkpt><trkpt lat="43.44490536855145" lon="5.793727338566231"><ele>817.0</ele><time>2026-03-28T13:21:55.999Z</time></trkpt><trkpt lat="43.444912422985986" lon="5.793631143977052"><ele>816.9999999999999</ele><time>2026-03-28T13:21:58Z</time></trkpt><trkpt lat="43.444843313335575" lon="5.793548699588464"><ele>817.0</ele><time>2026-03-28T13:22:00Z</time></trkpt><trkpt lat="43.44474455124162" lon="5.793454437857587"><ele>819.4000000000001</ele><time>2026-03-28T13:22:02Z</time></trkpt><trkpt lat="43.44469810015061" lon="5.7932978546404374"><ele>821.8000000000001</ele><time>2026-03-28T13:22:04Z</time></trkpt><trkpt lat="43.444655886060566" lon="5.793129672178185"><ele>824.2</ele><time>2026-03-28T13:22:06Z</time></trkpt><trkpt lat="43.44463331205674" lon="5.793048608052003"><ele>826.6</ele><time>2026-03-28T13:22:07Z</time></trkpt><trkpt lat="43.444616421096825" lon="5.792943216097167"><ele>829.0</ele><time>2026-03-28T13:22:08Z</time></trkpt><trkpt lat="43.44461785284137" lon="5.792844069633163"><ele>828.9999999999999</ele><time>2026-03-28T13:22:09Z</time></trkpt><trkpt lat="43.44464020585877" lon="5.792736894506255"><ele>829.0</ele><time>2026-03-28T13:22:10Z</time></trkpt><trkpt lat="43.44466484331549" lon="5.7926112752239725"><ele>829.0</ele><time>2026-03-28T13:22:11Z</time></trkpt><trkpt lat="43.44468297828491" lon="5.7925112067657825"><ele>829.0</ele><time>2026-03-28T13:22:12Z</time></trkpt><trkpt lat="43.44471885329495" lon="5.792414153438152"><ele>828.9999999999999</ele><time>2026-03-28T13:22:13Z</time></trkpt><trkpt lat="43.444758130041116" lon="5.792301526680849"><ele>829.0</ele><time>2026-03-28T13:22:14Z</time></trkpt><trkpt lat="43.44478177692551" lon="5.792207912221162"><ele>830.2</ele><time>2026-03-28T13:22:15Z</time></trkpt><trkpt lat="43.44475495452963" lon="5.792067176148217"><ele>831.4000000000001</ele><time>2026-03-28T13:22:17Z</time></trkpt><trkpt lat="43.444671077585646" lon="5.79194694954589"><ele>832.6</ele><time>2026-03-28T13:22:19Z</time></trkpt><trkpt lat="43.4446031281973" lon="5.7918327573430375"><ele>833.8</ele><time>2026-03-28T13:22:21Z</time></trkpt><trkpt lat="43.44466258296116" lon="5.791722454625319"><ele>835.0</ele><time>2026-03-28T13:22:23Z</time></trkpt><trkpt lat="43.444707054178146" lon="5.791647554213298"><ele>835.4999999999999</ele><time>2026-03-28T13:22:24Z</time></trkpt><trkpt lat="43.44473291960724" lon="5.791562595291141"><ele>836.0</ele><time>2026-03-28T13:22:25Z</time></trkpt><trkpt lat="43.4447197107761" lon="5.791424168937854"><ele>836.5</ele><time>2026-03-28T13:22:27Z</time></trkpt><trkpt lat="43.44463855713265" lon="5.79131022381999"><ele>837.0</ele><time>2026-03-28T13:22:29Z</time></trkpt><trkpt lat="43.444582960005825" lon="5.79124191110563"><ele>837.4999999999999</ele><time>2026-03-28T13:22:30Z</time></trkpt><trkpt lat="43.44452897895071" lon="5.791167556717572"><ele>838.0</ele><time>2026-03-28T13:22:31Z</time></trkpt><trkpt lat="43.44449367495647" lon="5.79109319574795"><ele>838.8</ele><time>2026-03-28T13:22:32Z</time></trkpt><trkpt lat="43.444481735977206" lon="5.79100602877936"><ele>839.5999999999999</ele><time>2026-03-28T13:22:33Z</time></trkpt><trkpt lat="43.44451488049307" lon="5.790842179058666"><ele>840.4000000000001</ele><time>2026-03-28T13:22:35Z</time></trkpt><trkpt lat="43.444597117850115" lon="5.790711645672202"><ele>841.2</ele><time>2026-03-28T13:22:37Z</time></trkpt><trkpt lat="43.444672414473544" lon="5.790651882598458"><ele>842.0</ele><time>2026-03-28T13:22:38Z</time></trkpt><trkpt lat="43.44475137421761" lon="5.790599055687691"><ele>842.0</ele><time>2026-03-28T13:22:39Z</time></trkpt><trkpt lat="43.444791762444524" lon="5.790474979441477"><ele>842.0</ele><time>2026-03-28T13:22:41Z</time></trkpt><trkpt lat="43.444728694911205" lon="5.790436689420064"><ele>842.0</ele><time>2026-03-28T13:22:44Z</time></trkpt><trkpt lat="43.44463326111509" lon="5.790360454703891"><ele>842.0</ele><time>2026-03-28T13:22:46Z</time></trkpt><trkpt lat="43.444580445209944" lon="5.790268413985552"><ele>842.0</ele><time>2026-03-28T13:22:47Z</time></trkpt><trkpt lat="43.44451583436396" lon="5.790154663265546"><ele>842.4000000000001</ele><time>2026-03-28T13:22:48Z</time></trkpt><trkpt lat="43.444454544326284" lon="5.790070255705894"><ele>842.8000000000001</ele><time>2026-03-28T13:22:49Z</time></trkpt><trkpt lat="43.44439691494289" lon="5.790028563076535"><ele>843.2</ele><time>2026-03-28T13:22:50Z</time></trkpt><trkpt lat="43.444330029121026" lon="5.789917165908756"><ele>843.6</ele><time>2026-03-28T13:22:52Z</time></trkpt><trkpt lat="43.44433322980739" lon="5.789705322649339"><ele>844.0</ele><time>2026-03-28T13:22:54Z</time></trkpt><trkpt lat="43.44433933046368" lon="5.7895803386057905"><ele>844.0</ele><time>2026-03-28T13:22:55Z</time></trkpt><trkpt lat="43.4443531512773" lon="5.78947400377202"><ele>844.0</ele><time>2026-03-28T13:22:56Z</time></trkpt><trkpt lat="43.44439040703272" lon="5.789342222663605"><ele>844.0</ele><time>2026-03-28T13:22:58Z</time></trkpt><trkpt lat="43.44432764234478" lon="5.789311203200346"><ele>844.0</ele><time>2026-03-28T13:23:16.999Z</time></trkpt><trkpt lat="43.444185880621376" lon="5.789309780157572"><ele>844.0</ele><time>2026-03-28T13:23:18.999Z</time></trkpt><trkpt lat="43.444074230973406" lon="5.789328514540476"><ele>844.0</ele><time>2026-03-28T13:23:19.999Z</time></trkpt><trkpt lat="43.44396501586238" lon="5.789341807106866"><ele>844.0</ele><time>2026-03-28T13:23:20.999Z</time></trkpt><trkpt lat="43.443868672716484" lon="5.789360561143951"><ele>844.0</ele><time>2026-03-28T13:23:21.999Z</time></trkpt><trkpt lat="43.44377475806609" lon="5.789375738433311"><ele>844.0</ele><time>2026-03-28T13:23:22.999Z</time></trkpt><trkpt lat="43.44367659391133" lon="5.789380589817664"><ele>844.0</ele><time>2026-03-28T13:23:23.999Z</time></trkpt><trkpt lat="43.44359851611544" lon="5.789370320091656"><ele>842.3333333333333</ele><time>2026-03-28T13:23:24.999Z</time></trkpt><trkpt lat="43.443524951216865" lon="5.789351607321821"><ele>840.6666666666666</ele><time>2026-03-28T13:23:25.999Z</time></trkpt><trkpt lat="43.44345128855929" lon="5.78934052991542"><ele>839.0</ele><time>2026-03-28T13:23:26.999Z</time></trkpt><trkpt lat="43.44336743705389" lon="5.789329249803845"><ele>837.3333333333333</ele><time>2026-03-28T13:23:27.999Z</time></trkpt><trkpt lat="43.4432870361269" lon="5.789300805608141"><ele>835.6666666666666</ele><time>2026-03-28T13:23:28.999Z</time></trkpt><trkpt lat="43.44321384391123" lon="5.7892696395072365"><ele>834.0</ele><time>2026-03-28T13:23:29.999Z</time></trkpt><trkpt lat="43.44315244941459" lon="5.7892324351262285"><ele>833.1666666666666</ele><time>2026-03-28T13:23:30.999Z</time></trkpt><trkpt lat="43.44310496447038" lon="5.7891567268413056"><ele>832.3333333333333</ele><time>2026-03-28T13:23:31.999Z</time></trkpt><trkpt lat="43.44303615855421" lon="5.789091938421772"><ele>831.5</ele><time>2026-03-28T13:23:32.999Z</time></trkpt><trkpt lat="43.442973850233415" lon="5.789046641773232"><ele>830.6666666666666</ele><time>2026-03-28T13:23:33.999Z</time></trkpt><trkpt lat="43.44290912593177" lon="5.7890329090405706"><ele>829.8333333333333</ele><time>2026-03-28T13:23:34.999Z</time></trkpt><trkpt lat="43.4428259406343" lon="5.788925846111046"><ele>829.0</ele><time>2026-03-28T13:23:36.999Z</time></trkpt><trkpt lat="43.442821751311286" lon="5.788820602918669"><ele>826.6666666666666</ele><time>2026-03-28T13:23:37.999Z</time></trkpt><trkpt lat="43.442773825302076" lon="5.788672726427754"><ele>824.3333333333333</ele><time>2026-03-28T13:23:39.999Z</time></trkpt><trkpt lat="43.44269397056874" lon="5.788607962808607"><ele>822.0</ele><time>2026-03-28T13:23:41.999Z</time></trkpt><trkpt lat="43.44262887326025" lon="5.788605823726144"><ele>819.6666666666667</ele><time>2026-03-28T13:23:42.999Z</time></trkpt><trkpt lat="43.442561680937104" lon="5.788611331293416"><ele>817.3333333333334</ele><time>2026-03-28T13:23:43.999Z</time></trkpt><trkpt lat="43.44249522208913" lon="5.7886147698367765"><ele>815.0</ele><time>2026-03-28T13:23:44.999Z</time></trkpt><trkpt lat="43.44242609923578" lon="5.7886166440222"><ele>815.0000000000001</ele><time>2026-03-28T13:23:45.999Z</time></trkpt><trkpt lat="43.44236307160788" lon="5.788615042346824"><ele>815.0</ele><time>2026-03-28T13:23:46.999Z</time></trkpt><trkpt lat="43.44228536545078" lon="5.788605006941891"><ele>815.0</ele><time>2026-03-28T13:23:47.999Z</time></trkpt><trkpt lat="43.442222122511424" lon="5.788582594339219"><ele>815.0</ele><time>2026-03-28T13:23:48.999Z</time></trkpt><trkpt lat="43.44209826787047" lon="5.788533424987483"><ele>815.0000000000001</ele><time>2026-03-28T13:23:50.999Z</time></trkpt><trkpt lat="43.44202961259491" lon="5.788534832933821"><ele>815.0</ele><time>2026-03-28T13:23:51.999Z</time></trkpt><trkpt lat="43.441960488094324" lon="5.788534733095661"><ele>814.0</ele><time>2026-03-28T13:23:52.999Z</time></trkpt><trkpt lat="43.4418938941096" lon="5.788522996094554"><ele>813.0</ele><time>2026-03-28T13:23:53.999Z</time></trkpt><trkpt lat="43.44182965376924" lon="5.78848889290889"><ele>812.0</ele><time>2026-03-28T13:23:54.999Z</time></trkpt><trkpt lat="43.44175803444257" lon="5.788469409603197"><ele>811.0</ele><time>2026-03-28T13:23:55.999Z</time></trkpt><trkpt lat="43.441698237738635" lon="5.788441235535753"><ele>810.0</ele><time>2026-03-28T13:23:56.999Z</time></trkpt><trkpt lat="43.44163375785539" lon="5.788410732048285"><ele>809.0</ele><time>2026-03-28T13:23:57.999Z</time></trkpt><trkpt lat="43.44157190347474" lon="5.788389441066632"><ele>808.0</ele><time>2026-03-28T13:23:58.999Z</time></trkpt><trkpt lat="43.44150666589867" lon="5.788370164475378"><ele>805.6666666666666</ele><time>2026-03-28T13:23:59.999Z</time></trkpt><trkpt lat="43.44143286283133" lon="5.788375565335284"><ele>803.3333333333333</ele><time>2026-03-28T13:24:00.999Z</time></trkpt><trkpt lat="43.44131143160145" lon="5.788344756802645"><ele>801.0</ele><time>2026-03-28T13:24:03Z</time></trkpt><trkpt lat="43.44124623373897" lon="5.788300849333724"><ele>798.6666666666667</ele><time>2026-03-28T13:24:04Z</time></trkpt><trkpt lat="43.44118934288135" lon="5.788249205635388"><ele>796.3333333333334</ele><time>2026-03-28T13:24:05Z</time></trkpt><trkpt lat="43.441129886092895" lon="5.788192142756531"><ele>794.0</ele><time>2026-03-28T13:24:06Z</time></trkpt><trkpt lat="43.44108109760144" lon="5.788130812481402"><ele>793.0000000000001</ele><time>2026-03-28T13:24:07Z</time></trkpt><trkpt lat="43.4410322807476" lon="5.788060279484341"><ele>792.0</ele><time>2026-03-28T13:24:08Z</time></trkpt><trkpt lat="43.440930814315855" lon="5.787958818127932"><ele>791.0</ele><time>2026-03-28T13:24:10Z</time></trkpt><trkpt lat="43.44087520493533" lon="5.787896855385014"><ele>790.0</ele><time>2026-03-28T13:24:11Z</time></trkpt><trkpt lat="43.44081610443069" lon="5.78784276314895"><ele>789.0000000000001</ele><time>2026-03-28T13:24:12Z</time></trkpt><trkpt lat="43.44075067230586" lon="5.78779200613244"><ele>788.0</ele><time>2026-03-28T13:24:13Z</time></trkpt><trkpt lat="43.440668233173206" lon="5.787755988478583"><ele>788.0</ele><time>2026-03-28T13:24:14Z</time></trkpt><trkpt lat="43.44057546578771" lon="5.787695281866516"><ele>788.0</ele><time>2026-03-28T13:24:15Z</time></trkpt><trkpt lat="43.440497504651674" lon="5.7876308231361975"><ele>788.0</ele><time>2026-03-28T13:24:16Z</time></trkpt><trkpt lat="43.44042603365127" lon="5.787563060655299"><ele>788.0</ele><time>2026-03-28T13:24:17Z</time></trkpt><trkpt lat="43.440362686925546" lon="5.787488063616157"><ele>788.0</ele><time>2026-03-28T13:24:18Z</time></trkpt><trkpt lat="43.44028377851552" lon="5.787424463354325"><ele>784.8333333333334</ele><time>2026-03-28T13:24:19Z</time></trkpt><trkpt lat="43.4401991179356" lon="5.787369379743741"><ele>781.6666666666667</ele><time>2026-03-28T13:24:20Z</time></trkpt><trkpt lat="43.440123347605606" lon="5.787303084856072"><ele>778.5</ele><time>2026-03-28T13:24:21Z</time></trkpt><trkpt lat="43.4400541647033" lon="5.78723970882112"><ele>775.3333333333333</ele><time>2026-03-28T13:24:22Z</time></trkpt><trkpt lat="43.439984617009955" lon="5.787170377635303"><ele>772.1666666666666</ele><time>2026-03-28T13:24:23Z</time></trkpt><trkpt lat="43.439904648111984" lon="5.78710742177161"><ele>769.0</ele><time>2026-03-28T13:24:24Z</time></trkpt><trkpt lat="43.43983245960162" lon="5.787039984353223"><ele>768.9999999999999</ele><time>2026-03-28T13:24:25Z</time></trkpt><trkpt lat="43.43977314572493" lon="5.786950065175108"><ele>769.0</ele><time>2026-03-28T13:24:26Z</time></trkpt><trkpt lat="43.43970354371144" lon="5.786887713446415"><ele>769.0</ele><time>2026-03-28T13:24:27Z</time></trkpt><trkpt lat="43.43962830063027" lon="5.786859170632608"><ele>769.0</ele><time>2026-03-28T13:24:28Z</time></trkpt><trkpt lat="43.439533551654684" lon="5.786823198794999"><ele>768.9999999999999</ele><time>2026-03-28T13:24:29Z</time></trkpt><trkpt lat="43.43946048330451" lon="5.786779331455096"><ele>769.0</ele><time>2026-03-28T13:24:30Z</time></trkpt><trkpt lat="43.43938794627586" lon="5.786726447116787"><ele>766.1666666666666</ele><time>2026-03-28T13:24:31Z</time></trkpt><trkpt lat="43.4393096393566" lon="5.786692721793451"><ele>763.3333333333333</ele><time>2026-03-28T13:24:32Z</time></trkpt><trkpt lat="43.43922743518429" lon="5.78669344233088"><ele>760.5</ele><time>2026-03-28T13:24:33Z</time></trkpt><trkpt lat="43.43915271589798" lon="5.78669307920312"><ele>757.6666666666666</ele><time>2026-03-28T13:24:34Z</time></trkpt><trkpt lat="43.43907765734744" lon="5.786675761237264"><ele>754.8333333333333</ele><time>2026-03-28T13:24:35Z</time></trkpt><trkpt lat="43.43898994103985" lon="5.786650217315737"><ele>752.0</ele><time>2026-03-28T13:24:36Z</time></trkpt><trkpt lat="43.43890834153461" lon="5.786636922750361"><ele>752.0</ele><time>2026-03-28T13:24:37Z</time></trkpt><trkpt lat="43.43882353158894" lon="5.786616474217811"><ele>752.0</ele><time>2026-03-28T13:24:38Z</time></trkpt><trkpt lat="43.43874751063928" lon="5.786606422479581"><ele>752.0</ele><time>2026-03-28T13:24:39Z</time></trkpt><trkpt lat="43.43866765041969" lon="5.786596428612207"><ele>752.0</ele><time>2026-03-28T13:24:40Z</time></trkpt><trkpt lat="43.43859859348178" lon="5.786562056009003"><ele>752.0</ele><time>2026-03-28T13:24:41Z</time></trkpt><trkpt lat="43.438541295288694" lon="5.786503629954917"><ele>752.0</ele><time>2026-03-28T13:24:42Z</time></trkpt><trkpt lat="43.438486683495206" lon="5.786422396422146"><ele>750.8333333333333</ele><time>2026-03-28T13:24:43Z</time></trkpt><trkpt lat="43.43842808889154" lon="5.786372607535204"><ele>749.6666666666666</ele><time>2026-03-28T13:24:44Z</time></trkpt><trkpt lat="43.43834397116838" lon="5.786334511661901"><ele>748.5</ele><time>2026-03-28T13:24:45Z</time></trkpt><trkpt lat="43.438269548457676" lon="5.786258355923885"><ele>747.3333333333334</ele><time>2026-03-28T13:24:46Z</time></trkpt><trkpt lat="43.438210826364745" lon="5.786181917281804"><ele>746.1666666666667</ele><time>2026-03-28T13:24:47Z</time></trkpt><trkpt lat="43.43815300766697" lon="5.786116230663816"><ele>745.0</ele><time>2026-03-28T13:24:48Z</time></trkpt><trkpt lat="43.4381028972849" lon="5.786038649751436"><ele>744.0</ele><time>2026-03-28T13:24:49Z</time></trkpt><trkpt lat="43.43808420708405" lon="5.785937821106247"><ele>743.0</ele><time>2026-03-28T13:24:50Z</time></trkpt><trkpt lat="43.43805002613644" lon="5.785846438535548"><ele>742.0</ele><time>2026-03-28T13:24:51Z</time></trkpt><trkpt lat="43.43800131744419" lon="5.785737133306637"><ele>741.0</ele><time>2026-03-28T13:24:52Z</time></trkpt><trkpt lat="43.43795595553344" lon="5.785599392724338"><ele>740.0</ele><time>2026-03-28T13:24:53Z</time></trkpt><trkpt lat="43.437921016146845" lon="5.785470497605222"><ele>740.0</ele><time>2026-03-28T13:24:54Z</time></trkpt><trkpt lat="43.43788306078177" lon="5.785374595871073"><ele>740.0</ele><time>2026-03-28T13:24:55Z</time></trkpt><trkpt lat="43.437822805436625" lon="5.785339932757719"><ele>740.0</ele><time>2026-03-28T13:24:56Z</time></trkpt><trkpt lat="43.437750404151764" lon="5.785322893040317"><ele>740.0</ele><time>2026-03-28T13:24:57Z</time></trkpt><trkpt lat="43.43767773880855" lon="5.785315133185344"><ele>740.0</ele><time>2026-03-28T13:24:58Z</time></trkpt><trkpt lat="43.4376308634953" lon="5.785254372622476"><ele>740.0</ele><time>2026-03-28T13:24:59Z</time></trkpt><trkpt lat="43.4375878017001" lon="5.785129049832736"><ele>739.25</ele><time>2026-03-28T13:25:00Z</time></trkpt><trkpt lat="43.43756851593159" lon="5.784962373804825"><ele>738.5</ele><time>2026-03-28T13:25:01Z</time></trkpt><trkpt lat="43.437557696465284" lon="5.784782692605523"><ele>737.75</ele><time>2026-03-28T13:25:02Z</time></trkpt><trkpt lat="43.437540802690926" lon="5.784627786151904"><ele>737.0</ele><time>2026-03-28T13:25:03Z</time></trkpt><trkpt lat="43.43753012248467" lon="5.784483980810338"><ele>736.5</ele><time>2026-03-28T13:25:04Z</time></trkpt><trkpt lat="43.43751108674638" lon="5.784333315804015"><ele>736.0</ele><time>2026-03-28T13:25:05Z</time></trkpt><trkpt lat="43.437489678125765" lon="5.784155078321661"><ele>735.5</ele><time>2026-03-28T13:25:06Z</time></trkpt><trkpt lat="43.4374632571297" lon="5.783983201673688"><ele>735.0</ele><time>2026-03-28T13:25:07Z</time></trkpt><trkpt lat="43.43742358388076" lon="5.78383628053865"><ele>735.0</ele><time>2026-03-28T13:25:08Z</time></trkpt><trkpt lat="43.43737070638774" lon="5.783715831373285"><ele>735.0</ele><time>2026-03-28T13:25:09Z</time></trkpt><trkpt lat="43.43732280730417" lon="5.783605133429138"><ele>735.0</ele><time>2026-03-28T13:25:10Z</time></trkpt><trkpt lat="43.43728161694969" lon="5.783505047943001"><ele>735.0</ele><time>2026-03-28T13:25:11Z</time></trkpt><trkpt lat="43.43722453171163" lon="5.7834263430859245"><ele>735.0</ele><time>2026-03-28T13:25:11.999Z</time></trkpt><trkpt lat="43.43714599925728" lon="5.783388061084915"><ele>735.0</ele><time>2026-03-28T13:25:12.999Z</time></trkpt><trkpt lat="43.43703168736" lon="5.783350694055381"><ele>734.3333333333334</ele><time>2026-03-28T13:25:13.999Z</time></trkpt><trkpt lat="43.436931629458044" lon="5.783291203146317"><ele>733.6666666666666</ele><time>2026-03-28T13:25:14.999Z</time></trkpt><trkpt lat="43.436855951308324" lon="5.783244274801065"><ele>733.0</ele><time>2026-03-28T13:25:15.999Z</time></trkpt><trkpt lat="43.436779663744964" lon="5.783238614154168"><ele>732.3333333333333</ele><time>2026-03-28T13:25:16.999Z</time></trkpt><trkpt lat="43.43670096540794" lon="5.78324474026975"><ele>731.6666666666666</ele><time>2026-03-28T13:25:17.999Z</time></trkpt><trkpt lat="43.43661184691894" lon="5.783264668160565"><ele>731.0</ele><time>2026-03-28T13:25:18.999Z</time></trkpt><trkpt lat="43.43652228005405" lon="5.783311533848047"><ele>731.0</ele><time>2026-03-28T13:25:19.999Z</time></trkpt><trkpt lat="43.43644090473431" lon="5.783365972496401"><ele>731.0</ele><time>2026-03-28T13:25:20.999Z</time></trkpt><trkpt lat="43.43638010117687" lon="5.783440513203899"><ele>731.0</ele><time>2026-03-28T13:25:21.999Z</time></trkpt><trkpt lat="43.43632864129125" lon="5.783520736048663"><ele>731.0</ele><time>2026-03-28T13:25:22.999Z</time></trkpt><trkpt lat="43.436274886301355" lon="5.783624820815905"><ele>731.0</ele><time>2026-03-28T13:25:23.999Z</time></trkpt><trkpt lat="43.4362228035636" lon="5.783729047507671"><ele>731.0</ele><time>2026-03-28T13:25:24.999Z</time></trkpt><trkpt lat="43.43617622574871" lon="5.783788390132678"><ele>730.1666666666666</ele><time>2026-03-28T13:25:25.999Z</time></trkpt><trkpt lat="43.43611517839113" lon="5.783814582878585"><ele>729.3333333333333</ele><time>2026-03-28T13:25:26.999Z</time></trkpt><trkpt lat="43.43605157200572" lon="5.783830912593978"><ele>728.5</ele><time>2026-03-28T13:25:27.999Z</time></trkpt><trkpt lat="43.43594649341915" lon="5.783881604871887"><ele>727.6666666666666</ele><time>2026-03-28T13:25:29.999Z</time></trkpt><trkpt lat="43.43582945793633" lon="5.783929566702533"><ele>726.8333333333334</ele><time>2026-03-28T13:25:31.999Z</time></trkpt><trkpt lat="43.435763590101345" lon="5.783948696437401"><ele>726.0</ele><time>2026-03-28T13:25:32.999Z</time></trkpt><trkpt lat="43.435692698975856" lon="5.783939827908727"><ele>726.0</ele><time>2026-03-28T13:25:33.999Z</time></trkpt><trkpt lat="43.43562635181896" lon="5.7838956817699545"><ele>726.0</ele><time>2026-03-28T13:25:34.999Z</time></trkpt><trkpt lat="43.43556129932183" lon="5.783804026164466"><ele>726.0</ele><time>2026-03-28T13:25:35.999Z</time></trkpt><trkpt lat="43.435480920839446" lon="5.783695604371788"><ele>726.0</ele><time>2026-03-28T13:25:36.999Z</time></trkpt><trkpt lat="43.43539900908268" lon="5.783595900979258"><ele>726.0</ele><time>2026-03-28T13:25:37.999Z</time></trkpt><trkpt lat="43.43534356540964" lon="5.783509272986571"><ele>722.0</ele><time>2026-03-28T13:25:38.999Z</time></trkpt><trkpt lat="43.43525151845348" lon="5.783449405516416"><ele>718.0</ele><time>2026-03-28T13:25:39.999Z</time></trkpt><trkpt lat="43.43513112801894" lon="5.783372774748498"><ele>714.0</ele><time>2026-03-28T13:25:40.999Z</time></trkpt><trkpt lat="43.43501800685387" lon="5.783316999203776"><ele>710.0</ele><time>2026-03-28T13:25:41.999Z</time></trkpt><trkpt lat="43.43492014120101" lon="5.783282372267201"><ele>710.0</ele><time>2026-03-28T13:25:42.999Z</time></trkpt><trkpt lat="43.43482417902962" lon="5.783278443183092"><ele>710.0</ele><time>2026-03-28T13:25:43.999Z</time></trkpt><trkpt lat="43.43473151436048" lon="5.783288138058313"><ele>710.0</ele><time>2026-03-28T13:25:44.999Z</time></trkpt><trkpt lat="43.43464881531108" lon="5.783304553121372"><ele>710.0</ele><time>2026-03-28T13:25:45.999Z</time></trkpt><trkpt lat="43.43456266151431" lon="5.783341270813102"><ele>710.0</ele><time>2026-03-28T13:25:46.999Z</time></trkpt><trkpt lat="43.434489824610935" lon="5.783389925621866"><ele>710.0</ele><time>2026-03-28T13:25:47.999Z</time></trkpt><trkpt lat="43.434424863720395" lon="5.783455966034906"><ele>710.25</ele><time>2026-03-28T13:25:48.999Z</time></trkpt><trkpt lat="43.43436261872425" lon="5.783545965008519"><ele>710.5</ele><time>2026-03-28T13:25:49.999Z</time></trkpt><trkpt lat="43.43427674899264" lon="5.783690759561273"><ele>710.75</ele><time>2026-03-28T13:25:50.999Z</time></trkpt><trkpt lat="43.43419236848051" lon="5.783824525707648"><ele>711.0</ele><time>2026-03-28T13:25:51.999Z</time></trkpt><trkpt lat="43.43412484012229" lon="5.783935887264682"><ele>711.0</ele><time>2026-03-28T13:25:52.999Z</time></trkpt><trkpt lat="43.43406994177489" lon="5.784027655068403"><ele>711.0</ele><time>2026-03-28T13:25:53.999Z</time></trkpt><trkpt lat="43.434018585071726" lon="5.784128565979978"><ele>711.0</ele><time>2026-03-28T13:25:54.999Z</time></trkpt><trkpt lat="43.43398430557172" lon="5.78424188282811"><ele>711.0</ele><time>2026-03-28T13:25:55.999Z</time></trkpt><trkpt lat="43.433965060335034" lon="5.784353613593586"><ele>711.0</ele><time>2026-03-28T13:25:56.999Z</time></trkpt><trkpt lat="43.433953659624265" lon="5.784454250999433"><ele>711.0</ele><time>2026-03-28T13:25:57.999Z</time></trkpt><trkpt lat="43.433949864265365" lon="5.7845528988762425"><ele>710.4</ele><time>2026-03-28T13:25:58.999Z</time></trkpt><trkpt lat="43.43395531907969" lon="5.784658948373169"><ele>709.8</ele><time>2026-03-28T13:25:59.999Z</time></trkpt><trkpt lat="43.43397565226579" lon="5.784794332510558"><ele>709.1999999999999</ele><time>2026-03-28T13:26:00.999Z</time></trkpt><trkpt lat="43.43399999327162" lon="5.784934553518557"><ele>708.5999999999999</ele><time>2026-03-28T13:26:01.999Z</time></trkpt><trkpt lat="43.43402374555531" lon="5.785070597249157"><ele>708.0</ele><time>2026-03-28T13:26:02.999Z</time></trkpt><trkpt lat="43.43404647747393" lon="5.7851810003107"><ele>705.4</ele><time>2026-03-28T13:26:03.999Z</time></trkpt><trkpt lat="43.434072325435366" lon="5.785300043618545"><ele>702.8</ele><time>2026-03-28T13:26:04.999Z</time></trkpt><trkpt lat="43.434117666675355" lon="5.785420726522187"><ele>700.2</ele><time>2026-03-28T13:26:05.999Z</time></trkpt><trkpt lat="43.43417722986158" lon="5.785567232741579"><ele>697.6</ele><time>2026-03-28T13:26:06.999Z</time></trkpt><trkpt lat="43.434238965945234" lon="5.785693384559114"><ele>695.0</ele><time>2026-03-28T13:26:08Z</time></trkpt><trkpt lat="43.434301691517376" lon="5.785787876608138"><ele>695.0000000000001</ele><time>2026-03-28T13:26:09Z</time></trkpt><trkpt lat="43.43435436955002" lon="5.785863507087542"><ele>695.0</ele><time>2026-03-28T13:26:10Z</time></trkpt><trkpt lat="43.43438992850258" lon="5.78595170714988"><ele>695.0</ele><time>2026-03-28T13:26:11Z</time></trkpt><trkpt lat="43.43438741766997" lon="5.786043229637949"><ele>695.0</ele><time>2026-03-28T13:26:12Z</time></trkpt><trkpt lat="43.43436577671266" lon="5.786154681043045"><ele>695.0</ele><time>2026-03-28T13:26:13Z</time></trkpt><trkpt lat="43.43435425072039" lon="5.786260537315649"><ele>695.0000000000001</ele><time>2026-03-28T13:26:14Z</time></trkpt><trkpt lat="43.43436966441104" lon="5.786349785384136"><ele>695.0</ele><time>2026-03-28T13:26:15Z</time></trkpt><trkpt lat="43.434401329571934" lon="5.786439093862275"><ele>694.6666666666666</ele><time>2026-03-28T13:26:16Z</time></trkpt><trkpt lat="43.43443216489084" lon="5.78654088908875"><ele>694.3333333333333</ele><time>2026-03-28T13:26:17Z</time></trkpt><trkpt lat="43.43442804056719" lon="5.786627867121313"><ele>694.0</ele><time>2026-03-28T13:26:18Z</time></trkpt><trkpt lat="43.434384252032096" lon="5.786690889063831"><ele>693.6666666666666</ele><time>2026-03-28T13:26:19Z</time></trkpt><trkpt lat="43.43431422503297" lon="5.786741767996417"><ele>693.3333333333334</ele><time>2026-03-28T13:26:20Z</time></trkpt><trkpt lat="43.43422151583703" lon="5.786835688321298"><ele>693.0</ele><time>2026-03-28T13:26:21Z</time></trkpt><trkpt lat="43.434142391821865" lon="5.786940086158238"><ele>694.6666666666666</ele><time>2026-03-28T13:26:22Z</time></trkpt><trkpt lat="43.43408843373826" lon="5.787045652717055"><ele>696.3333333333334</ele><time>2026-03-28T13:26:23Z</time></trkpt><trkpt lat="43.43404009912165" lon="5.787130563657156"><ele>698.0</ele><time>2026-03-28T13:26:24Z</time></trkpt><trkpt lat="43.43399649829392" lon="5.787208236457092"><ele>699.6666666666667</ele><time>2026-03-28T13:26:25Z</time></trkpt><trkpt lat="43.43397430360117" lon="5.7873070894817955"><ele>701.3333333333334</ele><time>2026-03-28T13:26:26Z</time></trkpt><trkpt lat="43.43395410735321" lon="5.787432012704586"><ele>703.0</ele><time>2026-03-28T13:26:27Z</time></trkpt><trkpt lat="43.433925430858366" lon="5.787527608230881"><ele>703.0</ele><time>2026-03-28T13:26:28Z</time></trkpt><trkpt lat="43.433821343102856" lon="5.787598993532499"><ele>703.0</ele><time>2026-03-28T13:26:30Z</time></trkpt><trkpt lat="43.43372558898828" lon="5.787619458963992"><ele>703.0</ele><time>2026-03-28T13:26:31Z</time></trkpt><trkpt lat="43.43360556262054" lon="5.787675819408927"><ele>703.0</ele><time>2026-03-28T13:26:32Z</time></trkpt><trkpt lat="43.43350062524236" lon="5.7877225007946205"><ele>703.5999999999999</ele><time>2026-03-28T13:26:33Z</time></trkpt><trkpt lat="43.43339658968905" lon="5.787761792696783"><ele>704.1999999999999</ele><time>2026-03-28T13:26:34Z</time></trkpt><trkpt lat="43.43329394712117" lon="5.7878061622621795"><ele>704.8</ele><time>2026-03-28T13:26:35Z</time></trkpt><trkpt lat="43.43320397197453" lon="5.787832780170747"><ele>705.4</ele><time>2026-03-28T13:26:36Z</time></trkpt><trkpt lat="43.43309120511869" lon="5.7878522256347855"><ele>706.0</ele><time>2026-03-28T13:26:37Z</time></trkpt><trkpt lat="43.432981414796096" lon="5.787862935616905"><ele>703.8333333333334</ele><time>2026-03-28T13:26:38Z</time></trkpt><trkpt lat="43.432882867581405" lon="5.7878693680411875"><ele>701.6666666666667</ele><time>2026-03-28T13:26:39Z</time></trkpt><trkpt lat="43.43279643369327" lon="5.787864354740103"><ele>699.5</ele><time>2026-03-28T13:26:40Z</time></trkpt><trkpt lat="43.43271566023055" lon="5.787847542458024"><ele>697.3333333333334</ele><time>2026-03-28T13:26:41Z</time></trkpt><trkpt lat="43.43264090387947" lon="5.787825200995604"><ele>695.1666666666666</ele><time>2026-03-28T13:26:42Z</time></trkpt><trkpt lat="43.432566994201316" lon="5.787809018782755"><ele>693.0</ele><time>2026-03-28T13:26:43Z</time></trkpt><trkpt lat="43.43245334277899" lon="5.787815792231668"><ele>693.0</ele><time>2026-03-28T13:26:45Z</time></trkpt><trkpt lat="43.432358464049585" lon="5.787920375508825"><ele>693.0</ele><time>2026-03-28T13:26:47Z</time></trkpt><trkpt lat="43.43230027869126" lon="5.788018435645926"><ele>693.0</ele><time>2026-03-28T13:26:48Z</time></trkpt><trkpt lat="43.43223724053178" lon="5.788126157554996"><ele>693.0</ele><time>2026-03-28T13:26:49Z</time></trkpt><trkpt lat="43.432189567311646" lon="5.788215000791131"><ele>693.0</ele><time>2026-03-28T13:26:50Z</time></trkpt><trkpt lat="43.43215220611285" lon="5.788298023932057"><ele>693.0</ele><time>2026-03-28T13:26:51Z</time></trkpt><trkpt lat="43.43212634886063" lon="5.7883937623208315"><ele>693.0</ele><time>2026-03-28T13:26:52Z</time></trkpt><trkpt lat="43.43212211925435" lon="5.788506742726853"><ele>693.0</ele><time>2026-03-28T13:26:53Z</time></trkpt><trkpt lat="43.43214037048986" lon="5.788624194159258"><ele>693.0</ele><time>2026-03-28T13:26:54Z</time></trkpt><trkpt lat="43.432158834063266" lon="5.788723131721156"><ele>693.0</ele><time>2026-03-28T13:26:55Z</time></trkpt><trkpt lat="43.432136790724044" lon="5.788868213618827"><ele>693.0</ele><time>2026-03-28T13:26:57Z</time></trkpt><trkpt lat="43.43211171881785" lon="5.788970121994937"><ele>688.0</ele><time>2026-03-28T13:26:58Z</time></trkpt><trkpt lat="43.432091901454264" lon="5.789069503968609"><ele>683.0</ele><time>2026-03-28T13:26:59Z</time></trkpt><trkpt lat="43.432068599117024" lon="5.789180690439548"><ele>678.0</ele><time>2026-03-28T13:27:00Z</time></trkpt><trkpt lat="43.432046195783215" lon="5.789291937984278"><ele>673.0</ele><time>2026-03-28T13:27:01Z</time></trkpt><trkpt lat="43.43203343648792" lon="5.789385574208107"><ele>668.0</ele><time>2026-03-28T13:27:02Z</time></trkpt><trkpt lat="43.43202049007117" lon="5.789482566487563"><ele>663.0</ele><time>2026-03-28T13:27:04Z</time></trkpt><trkpt lat="43.431956968455495" lon="5.789454152363772"><ele>663.0</ele><time>2026-03-28T13:27:06.999Z</time></trkpt><trkpt lat="43.43193307449948" lon="5.789339263517103"><ele>663.0</ele><time>2026-03-28T13:27:08.999Z</time></trkpt><trkpt lat="43.43191623856385" lon="5.789254645330204"><ele>663.0</ele><time>2026-03-28T13:27:09.999Z</time></trkpt><trkpt lat="43.43183812423731" lon="5.78911676357286"><ele>663.0</ele><time>2026-03-28T13:27:11.999Z</time></trkpt><trkpt lat="43.431763047216" lon="5.788990616293482"><ele>663.0</ele><time>2026-03-28T13:27:13.999Z</time></trkpt><trkpt lat="43.43172725077736" lon="5.788915381886745"><ele>663.0</ele><time>2026-03-28T13:27:14.999Z</time></trkpt><trkpt lat="43.43170579238881" lon="5.788833436135299"><ele>663.0</ele><time>2026-03-28T13:27:15.999Z</time></trkpt><trkpt lat="43.4316435582624" lon="5.7887589899619964"><ele>663.0</ele><time>2026-03-28T13:27:18.999Z</time></trkpt><trkpt lat="43.4315936017145" lon="5.788828017075631"><ele>663.0</ele><time>2026-03-28T13:27:20.999Z</time></trkpt><trkpt lat="43.43157527859525" lon="5.7889787068840555"><ele>663.0</ele><time>2026-03-28T13:27:22.999Z</time></trkpt><trkpt lat="43.431562454178305" lon="5.789083780258439"><ele>663.0</ele><time>2026-03-28T13:27:23.999Z</time></trkpt><trkpt lat="43.43155087517795" lon="5.789182288848837"><ele>663.0</ele><time>2026-03-28T13:27:24.999Z</time></trkpt><trkpt lat="43.43148976071778" lon="5.789315294999573"><ele>663.0</ele><time>2026-03-28T13:27:26.999Z</time></trkpt><trkpt lat="43.43141958189876" lon="5.7893551537296934"><ele>663.0</ele><time>2026-03-28T13:27:27.999Z</time></trkpt><trkpt lat="43.43135140620964" lon="5.789398229727588"><ele>663.0</ele><time>2026-03-28T13:27:28.999Z</time></trkpt><trkpt lat="43.43129391440311" lon="5.789455761303039"><ele>663.0</ele><time>2026-03-28T13:27:29.999Z</time></trkpt><trkpt lat="43.4312664244234" lon="5.7895378829797775"><ele>663.0</ele><time>2026-03-28T13:27:30.999Z</time></trkpt><trkpt lat="43.431253935740216" lon="5.789642098165523"><ele>659.5</ele><time>2026-03-28T13:27:31.999Z</time></trkpt><trkpt lat="43.43124228021723" lon="5.7897557938229705"><ele>656.0</ele><time>2026-03-28T13:27:32.999Z</time></trkpt><trkpt lat="43.43123725474631" lon="5.78987301451507"><ele>652.5</ele><time>2026-03-28T13:27:33.999Z</time></trkpt><trkpt lat="43.43121169659103" lon="5.7899764903586854"><ele>649.0</ele><time>2026-03-28T13:27:34.999Z</time></trkpt><trkpt lat="43.431172353643056" lon="5.790063443343267"><ele>645.5</ele><time>2026-03-28T13:27:35.999Z</time></trkpt><trkpt lat="43.431086900383434" lon="5.790130839606768"><ele>642.0</ele><time>2026-03-28T13:27:37.999Z</time></trkpt><trkpt lat="43.43102063797037" lon="5.790098584516182"><ele>642.0</ele><time>2026-03-28T13:27:39.999Z</time></trkpt><trkpt lat="43.430948749028694" lon="5.7901034551327495"><ele>642.0</ele><time>2026-03-28T13:27:41.999Z</time></trkpt><trkpt lat="43.430912379246465" lon="5.7901965164912825"><ele>642.0</ele><time>2026-03-28T13:27:44.999Z</time></trkpt><trkpt lat="43.430834204217724" lon="5.790369793200478"><ele>642.0</ele><time>2026-03-28T13:27:46.999Z</time></trkpt><trkpt lat="43.43071423463522" lon="5.790379639660555"><ele>642.0</ele><time>2026-03-28T13:27:48.999Z</time></trkpt><trkpt lat="43.4305782242005" lon="5.790325912453385"><ele>641.3333333333334</ele><time>2026-03-28T13:27:50.999Z</time></trkpt><trkpt lat="43.430496900790835" lon="5.790270219477714"><ele>640.6666666666666</ele><time>2026-03-28T13:27:51.999Z</time></trkpt><trkpt lat="43.4304411183939" lon="5.790196607692654"><ele>640.0</ele><time>2026-03-28T13:27:52.999Z</time></trkpt><trkpt lat="43.43039183456193" lon="5.790121851194304"><ele>639.3333333333333</ele><time>2026-03-28T13:27:53.999Z</time></trkpt><trkpt lat="43.43035990080052" lon="5.7900386702575695"><ele>638.6666666666666</ele><time>2026-03-28T13:27:54.999Z</time></trkpt><trkpt lat="43.430329157121115" lon="5.789935404714667"><ele>638.0</ele><time>2026-03-28T13:27:55.999Z</time></trkpt><trkpt lat="43.43030990450225" lon="5.789821602639976"><ele>637.1666666666666</ele><time>2026-03-28T13:27:56.999Z</time></trkpt><trkpt lat="43.43029678957936" lon="5.789702672869215"><ele>636.3333333333333</ele><time>2026-03-28T13:27:57.999Z</time></trkpt><trkpt lat="43.43027121793121" lon="5.789597159276419"><ele>635.5</ele><time>2026-03-28T13:27:58.999Z</time></trkpt><trkpt lat="43.430238798190985" lon="5.7894914439535565"><ele>634.6666666666666</ele><time>2026-03-28T13:27:59.999Z</time></trkpt><trkpt lat="43.43018871642914" lon="5.78940002665463"><ele>633.8333333333334</ele><time>2026-03-28T13:28:00.999Z</time></trkpt><trkpt lat="43.430146801411844" lon="5.78929839041223"><ele>633.0</ele><time>2026-03-28T13:28:01.999Z</time></trkpt><trkpt lat="43.430110417360375" lon="5.789196689906014"><ele>631.3333333333334</ele><time>2026-03-28T13:28:02.999Z</time></trkpt><trkpt lat="43.43007922394875" lon="5.789094916134923"><ele>629.6666666666666</ele><time>2026-03-28T13:28:03.999Z</time></trkpt><trkpt lat="43.43006361975555" lon="5.78897465592678"><ele>628.0</ele><time>2026-03-28T13:28:04.999Z</time></trkpt><trkpt lat="43.43006485592536" lon="5.78886019603786"><ele>626.3333333333333</ele><time>2026-03-28T13:28:05.999Z</time></trkpt><trkpt lat="43.43008923525882" lon="5.78872704515877"><ele>624.6666666666666</ele><time>2026-03-28T13:28:06.999Z</time></trkpt><trkpt lat="43.4301075122247" lon="5.788616034491883"><ele>623.0</ele><time>2026-03-28T13:28:07.999Z</time></trkpt><trkpt lat="43.43008566205694" lon="5.788451515104326"><ele>622.0</ele><time>2026-03-28T13:28:09.999Z</time></trkpt><trkpt lat="43.430063306859125" lon="5.788369442408858"><ele>621.0</ele><time>2026-03-28T13:28:10.999Z</time></trkpt><trkpt lat="43.43002359587775" lon="5.788294292405319"><ele>620.0</ele><time>2026-03-28T13:28:11.999Z</time></trkpt><trkpt lat="43.4299880219125" lon="5.788222060697208"><ele>619.0</ele><time>2026-03-28T13:28:12.999Z</time></trkpt><trkpt lat="43.42994650061954" lon="5.788141981509494"><ele>618.0</ele><time>2026-03-28T13:28:14Z</time></trkpt><trkpt lat="43.42988994489267" lon="5.788084411941271"><ele>617.0</ele><time>2026-03-28T13:28:15Z</time></trkpt><trkpt lat="43.429812858372486" lon="5.788035657198977"><ele>616.0</ele><time>2026-03-28T13:28:16Z</time></trkpt><trkpt lat="43.429751391117165" lon="5.78799960573472"><ele>616.0</ele><time>2026-03-28T13:28:17Z</time></trkpt><trkpt lat="43.42965054494195" lon="5.787927181036976"><ele>616.0</ele><time>2026-03-28T13:28:19Z</time></trkpt><trkpt lat="43.429612447622496" lon="5.78781241924992"><ele>616.0</ele><time>2026-03-28T13:28:21Z</time></trkpt><trkpt lat="43.42957194394649" lon="5.787710892740188"><ele>616.0</ele><time>2026-03-28T13:28:23Z</time></trkpt><trkpt lat="43.42953693466089" lon="5.787624377182749"><ele>616.0</ele><time>2026-03-28T13:28:24Z</time></trkpt><trkpt lat="43.429501722858966" lon="5.787500034120167"><ele>613.8</ele><time>2026-03-28T13:28:25Z</time></trkpt><trkpt lat="43.429470626459576" lon="5.787383401534044"><ele>611.6</ele><time>2026-03-28T13:28:26Z</time></trkpt><trkpt lat="43.42945228992526" lon="5.787275046693262"><ele>609.4</ele><time>2026-03-28T13:28:27Z</time></trkpt><trkpt lat="43.42944928967079" lon="5.787159122994775"><ele>607.2</ele><time>2026-03-28T13:28:28Z</time></trkpt><trkpt lat="43.42943466968066" lon="5.78698054053844"><ele>605.0</ele><time>2026-03-28T13:28:30Z</time></trkpt><trkpt lat="43.4294171867742" lon="5.786862853645582"><ele>603.0</ele><time>2026-03-28T13:28:31Z</time></trkpt><trkpt lat="43.42937628453904" lon="5.786738716355698"><ele>601.0</ele><time>2026-03-28T13:28:32Z</time></trkpt><trkpt lat="43.42934001479128" lon="5.786633952079669"><ele>599.0</ele><time>2026-03-28T13:28:33Z</time></trkpt><trkpt lat="43.42928917990188" lon="5.786554076253658"><ele>597.0</ele><time>2026-03-28T13:28:34Z</time></trkpt><trkpt lat="43.42920275335538" lon="5.786419295433016"><ele>595.0</ele><time>2026-03-28T13:28:36Z</time></trkpt><trkpt lat="43.42915743852455" lon="5.786347793845895"><ele>595.0</ele><time>2026-03-28T13:28:37Z</time></trkpt><trkpt lat="43.42911009835601" lon="5.786288375133851"><ele>595.0</ele><time>2026-03-28T13:28:38Z</time></trkpt><trkpt lat="43.42905147120456" lon="5.786232197721067"><ele>595.0</ele><time>2026-03-28T13:28:39Z</time></trkpt><trkpt lat="43.42899189432724" lon="5.786182111217983"><ele>595.0</ele><time>2026-03-28T13:28:40Z</time></trkpt><trkpt lat="43.428927929813085" lon="5.786169549486425"><ele>595.0</ele><time>2026-03-28T13:28:41Z</time></trkpt><trkpt lat="43.42884049054819" lon="5.786165851088821"><ele>595.0</ele><time>2026-03-28T13:28:42Z</time></trkpt><trkpt lat="43.428738725531204" lon="5.786204967841308"><ele>593.6666666666667</ele><time>2026-03-28T13:28:43Z</time></trkpt><trkpt lat="43.42865803365878" lon="5.786232069957096"><ele>592.3333333333334</ele><time>2026-03-28T13:28:44Z</time></trkpt><trkpt lat="43.42857582588507" lon="5.786235258659616"><ele>591.0</ele><time>2026-03-28T13:28:45Z</time></trkpt><trkpt lat="43.42850186992374" lon="5.786191137202538"><ele>589.6666666666666</ele><time>2026-03-28T13:28:46Z</time></trkpt><trkpt lat="43.428404171735764" lon="5.786137375018169"><ele>588.3333333333333</ele><time>2026-03-28T13:28:47Z</time></trkpt><trkpt lat="43.42832522894315" lon="5.786093893227044"><ele>587.0</ele><time>2026-03-28T13:28:48Z</time></trkpt><trkpt lat="43.42825712802502" lon="5.786068275105817"><ele>587.0</ele><time>2026-03-28T13:28:49Z</time></trkpt><trkpt lat="43.42816890226779" lon="5.786055329708052"><ele>587.0</ele><time>2026-03-28T13:28:50Z</time></trkpt><trkpt lat="43.42810504518697" lon="5.786016150201537"><ele>587.0</ele><time>2026-03-28T13:28:51Z</time></trkpt><trkpt lat="43.42806296070725" lon="5.785951628107065"><ele>587.0</ele><time>2026-03-28T13:28:52Z</time></trkpt><trkpt lat="43.42802889828717" lon="5.78587762762799"><ele>587.0</ele><time>2026-03-28T13:28:53Z</time></trkpt><trkpt lat="43.42792345940112" lon="5.785830286246133"><ele>587.0</ele><time>2026-03-28T13:28:55Z</time></trkpt><trkpt lat="43.427855629397726" lon="5.785844288356402"><ele>584.4</ele><time>2026-03-28T13:28:56Z</time></trkpt><trkpt lat="43.42778557331406" lon="5.785873351987155"><ele>581.8000000000001</ele><time>2026-03-28T13:28:57Z</time></trkpt><trkpt lat="43.42767110052562" lon="5.785824280081332"><ele>579.2</ele><time>2026-03-28T13:28:58.999Z</time></trkpt><trkpt lat="43.427638589161425" lon="5.785739591381926"><ele>576.6</ele><time>2026-03-28T13:28:59.999Z</time></trkpt><trkpt lat="43.42761119043509" lon="5.785661304514616"><ele>574.0</ele><time>2026-03-28T13:29:00.999Z</time></trkpt><trkpt lat="43.427511305308364" lon="5.78554114930125"><ele>574.0</ele><time>2026-03-28T13:29:02.999Z</time></trkpt><trkpt lat="43.427458033333046" lon="5.785434117670965"><ele>574.0</ele><time>2026-03-28T13:29:03.999Z</time></trkpt><trkpt lat="43.42745261897052" lon="5.78530097804482"><ele>574.0</ele><time>2026-03-28T13:29:04.999Z</time></trkpt><trkpt lat="43.42748204144789" lon="5.785194511222518"><ele>574.0</ele><time>2026-03-28T13:29:05.999Z</time></trkpt><trkpt lat="43.4275034825332" lon="5.785083927131846"><ele>574.0</ele><time>2026-03-28T13:29:06.999Z</time></trkpt><trkpt lat="43.42752889812363" lon="5.784984244195803"><ele>574.0</ele><time>2026-03-28T13:29:07.999Z</time></trkpt><trkpt lat="43.42754631349698" lon="5.784876075395881"><ele>573.1666666666667</ele><time>2026-03-28T13:29:08.999Z</time></trkpt><trkpt lat="43.427563850950996" lon="5.784786187305332"><ele>572.3333333333334</ele><time>2026-03-28T13:29:09.999Z</time></trkpt><trkpt lat="43.42758407707556" lon="5.784688011528311"><ele>571.5</ele><time>2026-03-28T13:29:10.999Z</time></trkpt><trkpt lat="43.42758598866887" lon="5.784586820847329"><ele>570.6666666666666</ele><time>2026-03-28T13:29:11.999Z</time></trkpt><trkpt lat="43.427600289689245" lon="5.784464692846418"><ele>569.8333333333333</ele><time>2026-03-28T13:29:12.999Z</time></trkpt><trkpt lat="43.427633567405124" lon="5.7843441516676455"><ele>569.0</ele><time>2026-03-28T13:29:13.999Z</time></trkpt><trkpt lat="43.42767531418035" lon="5.78423717717236"><ele>568.0</ele><time>2026-03-28T13:29:14.999Z</time></trkpt><trkpt lat="43.42771377303587" lon="5.7841372731395815"><ele>567.0</ele><time>2026-03-28T13:29:15.999Z</time></trkpt><trkpt lat="43.427740924850085" lon="5.7840529902425235"><ele>566.0</ele><time>2026-03-28T13:29:16.999Z</time></trkpt><trkpt lat="43.42772322059316" lon="5.78395350811785"><ele>565.0</ele><time>2026-03-28T13:29:17.999Z</time></trkpt><trkpt lat="43.4276805703943" lon="5.783845698155944"><ele>564.0</ele><time>2026-03-28T13:29:18.999Z</time></trkpt><trkpt lat="43.42762712296538" lon="5.783737795270531"><ele>563.0</ele><time>2026-03-28T13:29:19.999Z</time></trkpt><trkpt lat="43.427563037150904" lon="5.783636020566106"><ele>563.0</ele><time>2026-03-28T13:29:20.999Z</time></trkpt><trkpt lat="43.427479219297815" lon="5.78355344145369"><ele>563.0</ele><time>2026-03-28T13:29:21.999Z</time></trkpt><trkpt lat="43.42738432467543" lon="5.783479056436489"><ele>563.0</ele><time>2026-03-28T13:29:22.999Z</time></trkpt><trkpt lat="43.427298190548804" lon="5.783405015435269"><ele>563.0</ele><time>2026-03-28T13:29:23.999Z</time></trkpt><trkpt lat="43.42723214921948" lon="5.78332596459834"><ele>563.0</ele><time>2026-03-28T13:29:24.999Z</time></trkpt><trkpt lat="43.427170330809" lon="5.783254294848357"><ele>562.1666666666666</ele><time>2026-03-28T13:29:25.999Z</time></trkpt><trkpt lat="43.4271083486953" lon="5.783169902662893"><ele>561.3333333333333</ele><time>2026-03-28T13:29:26.999Z</time></trkpt><trkpt lat="43.42705880620354" lon="5.7830802640152585"><ele>560.5</ele><time>2026-03-28T13:29:27.999Z</time></trkpt><trkpt lat="43.42703740098419" lon="5.7829938530352925"><ele>559.6666666666666</ele><time>2026-03-28T13:29:28.999Z</time></trkpt><trkpt lat="43.42704403473431" lon="5.7828772760379294"><ele>558.8333333333334</ele><time>2026-03-28T13:29:29.999Z</time></trkpt><trkpt lat="43.427069963903165" lon="5.782710374023352"><ele>558.0</ele><time>2026-03-28T13:29:30.999Z</time></trkpt><trkpt lat="43.42705889615305" lon="5.782558834335911"><ele>556.2857142857142</ele><time>2026-03-28T13:29:31.999Z</time></trkpt><trkpt lat="43.42705153723231" lon="5.782444025942321"><ele>554.5714285714286</ele><time>2026-03-28T13:29:32.999Z</time></trkpt><trkpt lat="43.42704171257181" lon="5.782348791997611"><ele>552.8571428571429</ele><time>2026-03-28T13:29:33.999Z</time></trkpt><trkpt lat="43.427017722375275" lon="5.782264892580714"><ele>551.1428571428571</ele><time>2026-03-28T13:29:34.999Z</time></trkpt><trkpt lat="43.42698555081355" lon="5.782172118050774"><ele>549.4285714285714</ele><time>2026-03-28T13:29:35.999Z</time></trkpt><trkpt lat="43.426947738121534" lon="5.782090281711956"><ele>547.7142857142857</ele><time>2026-03-28T13:29:36.999Z</time></trkpt><trkpt lat="43.426899073579776" lon="5.782021697591275"><ele>546.0</ele><time>2026-03-28T13:29:37.999Z</time></trkpt><trkpt lat="43.426825689227606" lon="5.781986471506432"><ele>546.0</ele><time>2026-03-28T13:29:38.999Z</time></trkpt><trkpt lat="43.42673989518535" lon="5.7819871809292644"><ele>546.0</ele><time>2026-03-28T13:29:39.999Z</time></trkpt><trkpt lat="43.426660939033205" lon="5.782006065695434"><ele>546.0</ele><time>2026-03-28T13:29:40.999Z</time></trkpt><trkpt lat="43.42656933763435" lon="5.7820413647858455"><ele>546.0</ele><time>2026-03-28T13:29:41.999Z</time></trkpt><trkpt lat="43.42649454268132" lon="5.78207389452643"><ele>546.0</ele><time>2026-03-28T13:29:42.999Z</time></trkpt><trkpt lat="43.42643373713461" lon="5.782103656164016"><ele>546.0</ele><time>2026-03-28T13:29:43.999Z</time></trkpt><trkpt lat="43.42637588374321" lon="5.782151009316215"><ele>544.5</ele><time>2026-03-28T13:29:44.999Z</time></trkpt><trkpt lat="43.426296975749004" lon="5.782277891151844"><ele>543.0</ele><time>2026-03-28T13:29:46.999Z</time></trkpt><trkpt lat="43.42617420090638" lon="5.782376660409592"><ele>541.5</ele><time>2026-03-28T13:29:48.999Z</time></trkpt><trkpt lat="43.42607478415088" lon="5.782410535516292"><ele>540.0</ele><time>2026-03-28T13:29:49.999Z</time></trkpt><trkpt lat="43.42598755383086" lon="5.7824388518522305"><ele>540.0</ele><time>2026-03-28T13:29:50.999Z</time></trkpt><trkpt lat="43.42591473795936" lon="5.782470253622931"><ele>540.0</ele><time>2026-03-28T13:29:51.999Z</time></trkpt><trkpt lat="43.425846259608264" lon="5.782533525643832"><ele>540.0</ele><time>2026-03-28T13:29:52.999Z</time></trkpt><trkpt lat="43.425775021733564" lon="5.7825907723213295"><ele>540.0</ele><time>2026-03-28T13:29:53.999Z</time></trkpt><trkpt lat="43.42570292445084" lon="5.782636424994014"><ele>540.0</ele><time>2026-03-28T13:29:54.999Z</time></trkpt><trkpt lat="43.4256174483064" lon="5.7826652950096635"><ele>540.0</ele><time>2026-03-28T13:29:55.999Z</time></trkpt><trkpt lat="43.42551433909793" lon="5.782669137081768"><ele>538.8333333333334</ele><time>2026-03-28T13:29:56.999Z</time></trkpt><trkpt lat="43.42542577153316" lon="5.782663015608092"><ele>537.6666666666666</ele><time>2026-03-28T13:29:57.999Z</time></trkpt><trkpt lat="43.42534754049563" lon="5.782653336601526"><ele>536.5</ele><time>2026-03-28T13:29:58.999Z</time></trkpt><trkpt lat="43.425280672744094" lon="5.782617608578118"><ele>535.3333333333333</ele><time>2026-03-28T13:29:59.999Z</time></trkpt><trkpt lat="43.42519629513349" lon="5.782573399509708"><ele>534.1666666666666</ele><time>2026-03-28T13:30:01.999Z</time></trkpt><trkpt lat="43.42513300171806" lon="5.782572065816804"><ele>533.0</ele><time>2026-03-28T13:30:02.999Z</time></trkpt><trkpt lat="43.42506612578801" lon="5.782582740436519"><ele>533.0</ele><time>2026-03-28T13:30:03.999Z</time></trkpt><trkpt lat="43.42498467083716" lon="5.782595738370001"><ele>533.0</ele><time>2026-03-28T13:30:04.999Z</time></trkpt><trkpt lat="43.424910309776344" lon="5.782602405330013"><ele>533.0</ele><time>2026-03-28T13:30:05.999Z</time></trkpt><trkpt lat="43.424837968101336" lon="5.782594223856074"><ele>533.0</ele><time>2026-03-28T13:30:06.999Z</time></trkpt><trkpt lat="43.42476985031427" lon="5.7825548308920185"><ele>533.0</ele><time>2026-03-28T13:30:07.999Z</time></trkpt><trkpt lat="43.42470335367223" lon="5.782495752622969"><ele>533.0</ele><time>2026-03-28T13:30:08.999Z</time></trkpt><trkpt lat="43.42462404089296" lon="5.782466458160965"><ele>531.1999999999999</ele><time>2026-03-28T13:30:09.999Z</time></trkpt><trkpt lat="43.42455322112007" lon="5.782484423874789"><ele>529.4</ele><time>2026-03-28T13:30:10.999Z</time></trkpt><trkpt lat="43.424451535131666" lon="5.782533610179279"><ele>527.5999999999999</ele><time>2026-03-28T13:30:12.999Z</time></trkpt><trkpt lat="43.42433861361457" lon="5.782554440129915"><ele>525.8</ele><time>2026-03-28T13:30:14.999Z</time></trkpt><trkpt lat="43.4242262657063" lon="5.782546534368122"><ele>524.0</ele><time>2026-03-28T13:30:16.999Z</time></trkpt><trkpt lat="43.424129032499266" lon="5.782600284727513"><ele>524.0</ele><time>2026-03-28T13:30:19Z</time></trkpt><trkpt lat="43.42400276143156" lon="5.782620510209323"><ele>524.0</ele><time>2026-03-28T13:30:21Z</time></trkpt><trkpt lat="43.423885424520954" lon="5.78266494342312"><ele>524.0</ele><time>2026-03-28T13:30:23Z</time></trkpt><trkpt lat="43.42377043967445" lon="5.782755670641962"><ele>524.0</ele><time>2026-03-28T13:30:24.999Z</time></trkpt><trkpt lat="43.42367564138459" lon="5.782866287521213"><ele>521.2</ele><time>2026-03-28T13:30:26Z</time></trkpt><trkpt lat="43.42358277588111" lon="5.7829878972394075"><ele>518.4</ele><time>2026-03-28T13:30:27Z</time></trkpt><trkpt lat="43.42350602502872" lon="5.783104406368109"><ele>515.6</ele><time>2026-03-28T13:30:28Z</time></trkpt><trkpt lat="43.423448563597276" lon="5.783184523672493"><ele>512.8</ele><time>2026-03-28T13:30:29Z</time></trkpt><trkpt lat="43.42336564378966" lon="5.783213699926504"><ele>510.0</ele><time>2026-03-28T13:30:30Z</time></trkpt><trkpt lat="43.42329840725612" lon="5.7832166701752294"><ele>510.0</ele><time>2026-03-28T13:30:31Z</time></trkpt><trkpt lat="43.4232334246493" lon="5.783246569850813"><ele>510.0</ele><time>2026-03-28T13:30:32Z</time></trkpt><trkpt lat="43.423200057889545" lon="5.783361841483061"><ele>510.0</ele><time>2026-03-28T13:30:34Z</time></trkpt><trkpt lat="43.42319513938316" lon="5.78348346206003"><ele>510.0</ele><time>2026-03-28T13:30:35Z</time></trkpt><trkpt lat="43.42318006505502" lon="5.783634746452769"><ele>510.0</ele><time>2026-03-28T13:30:36Z</time></trkpt><trkpt lat="43.42314753810229" lon="5.783758011363283"><ele>510.6666666666667</ele><time>2026-03-28T13:30:37Z</time></trkpt><trkpt lat="43.423132467379254" lon="5.783869684455587"><ele>511.33333333333337</ele><time>2026-03-28T13:30:38Z</time></trkpt><trkpt lat="43.42312850577675" lon="5.783971135443506"><ele>512.0</ele><time>2026-03-28T13:30:39Z</time></trkpt><trkpt lat="43.42312197146752" lon="5.784058767475004"><ele>512.6666666666667</ele><time>2026-03-28T13:30:40Z</time></trkpt><trkpt lat="43.423037424724356" lon="5.78416736897792"><ele>513.3333333333334</ele><time>2026-03-28T13:30:42Z</time></trkpt><trkpt lat="43.42297290864898" lon="5.784178333735142"><ele>514.0</ele><time>2026-03-28T13:30:43Z</time></trkpt><trkpt lat="43.422846236526674" lon="5.78419803369939"><ele>510.79999999999995</ele><time>2026-03-28T13:30:45Z</time></trkpt><trkpt lat="43.42274125715394" lon="5.784184896605494"><ele>507.59999999999997</ele><time>2026-03-28T13:30:46Z</time></trkpt><trkpt lat="43.4226537839178" lon="5.784169312708428"><ele>504.4</ele><time>2026-03-28T13:30:47Z</time></trkpt><trkpt lat="43.42257828413223" lon="5.784194164588002"><ele>501.2</ele><time>2026-03-28T13:30:48Z</time></trkpt><trkpt lat="43.42245930084635" lon="5.784262838844769"><ele>498.0</ele><time>2026-03-28T13:30:49Z</time></trkpt><trkpt lat="43.42233819215259" lon="5.784324042451053"><ele>499.2</ele><time>2026-03-28T13:30:50Z</time></trkpt><trkpt lat="43.4222430472918" lon="5.78435300690365"><ele>500.4</ele><time>2026-03-28T13:30:51Z</time></trkpt><trkpt lat="43.422174147295515" lon="5.784376303283042"><ele>501.59999999999997</ele><time>2026-03-28T13:30:52Z</time></trkpt><trkpt lat="43.42209323136504" lon="5.784400552228668"><ele>502.79999999999995</ele><time>2026-03-28T13:30:53Z</time></trkpt><trkpt lat="43.422013708795085" lon="5.7844467765291405"><ele>504.0</ele><time>2026-03-28T13:30:54Z</time></trkpt><trkpt lat="43.42191221648539" lon="5.784539574945459"><ele>500.6</ele><time>2026-03-28T13:30:55Z</time></trkpt><trkpt lat="43.421810142247516" lon="5.784642083558445"><ele>497.2</ele><time>2026-03-28T13:30:56Z</time></trkpt><trkpt lat="43.42171892538325" lon="5.784723244306806"><ele>493.80000000000007</ele><time>2026-03-28T13:30:57Z</time></trkpt><trkpt lat="43.42164133157756" lon="5.784788655016111"><ele>490.40000000000003</ele><time>2026-03-28T13:30:58Z</time></trkpt><trkpt lat="43.42157792389627" lon="5.7848405905262075"><ele>487.0</ele><time>2026-03-28T13:30:59Z</time></trkpt><trkpt lat="43.421517210409114" lon="5.784905322460811"><ele>487.0</ele><time>2026-03-28T13:31:00Z</time></trkpt><trkpt lat="43.42145480258774" lon="5.784945719358573"><ele>487.00000000000006</ele><time>2026-03-28T13:31:00.999Z</time></trkpt><trkpt lat="43.42136417914235" lon="5.785041419236153"><ele>487.00000000000006</ele><time>2026-03-28T13:31:02.999Z</time></trkpt><trkpt lat="43.421357843386716" lon="5.785130602662907"><ele>487.0</ele><time>2026-03-28T13:31:03.999Z</time></trkpt><trkpt lat="43.421435051629345" lon="5.785250712824797"><ele>487.0</ele><time>2026-03-28T13:31:04.999Z</time></trkpt><trkpt lat="43.42150179898655" lon="5.785367745313223"><ele>486.50000000000006</ele><time>2026-03-28T13:31:05.999Z</time></trkpt><trkpt lat="43.421525294295016" lon="5.785522723618564"><ele>486.0</ele><time>2026-03-28T13:31:06.999Z</time></trkpt><trkpt lat="43.421598547056185" lon="5.785624634322264"><ele>485.5</ele><time>2026-03-28T13:31:07.999Z</time></trkpt><trkpt lat="43.42162966249896" lon="5.785720086767664"><ele>485.0</ele><time>2026-03-28T13:31:08.999Z</time></trkpt><trkpt lat="43.42164105156685" lon="5.785820631259026"><ele>484.50000000000006</ele><time>2026-03-28T13:31:09.999Z</time></trkpt><trkpt lat="43.42164013170737" lon="5.785912664489176"><ele>484.0</ele><time>2026-03-28T13:31:10.999Z</time></trkpt><trkpt lat="43.42158826377695" lon="5.786086603174798"><ele>484.00000000000006</ele><time>2026-03-28T13:31:12.999Z</time></trkpt><trkpt lat="43.42153730820282" lon="5.786179761830657"><ele>484.0</ele><time>2026-03-28T13:31:13.999Z</time></trkpt><trkpt lat="43.421490335473706" lon="5.786250616038712"><ele>484.0</ele><time>2026-03-28T13:31:14.999Z</time></trkpt><trkpt lat="43.42143195487876" lon="5.786313961139397"><ele>484.0</ele><time>2026-03-28T13:31:15.999Z</time></trkpt><trkpt lat="43.42134435664287" lon="5.786375384338658"><ele>484.00000000000006</ele><time>2026-03-28T13:31:16.999Z</time></trkpt><trkpt lat="43.42126887445009" lon="5.7864101123519065"><ele>484.0</ele><time>2026-03-28T13:31:17.999Z</time></trkpt><trkpt lat="43.421231079675245" lon="5.78648594942821"><ele>478.75</ele><time>2026-03-28T13:31:18.999Z</time></trkpt><trkpt lat="43.42122310113591" lon="5.786601882310841"><ele>473.5</ele><time>2026-03-28T13:31:19.999Z</time></trkpt><trkpt lat="43.421242905496904" lon="5.786793462598254"><ele>468.25</ele><time>2026-03-28T13:31:20.999Z</time></trkpt><trkpt lat="43.42126611772525" lon="5.786985073175084"><ele>463.0</ele><time>2026-03-28T13:31:21.999Z</time></trkpt><trkpt lat="43.421296269927694" lon="5.787151686993315"><ele>463.0</ele><time>2026-03-28T13:31:22.999Z</time></trkpt><trkpt lat="43.42131431658307" lon="5.787288084369553"><ele>462.99999999999994</ele><time>2026-03-28T13:31:23.999Z</time></trkpt><trkpt lat="43.421352292661574" lon="5.787418739061848"><ele>462.99999999999994</ele><time>2026-03-28T13:31:24.999Z</time></trkpt><trkpt lat="43.42141110527941" lon="5.787512073716392"><ele>463.0</ele><time>2026-03-28T13:31:25.999Z</time></trkpt><trkpt lat="43.42150461547287" lon="5.7875905053074606"><ele>463.0</ele><time>2026-03-28T13:31:26.999Z</time></trkpt><trkpt lat="43.421595796615684" lon="5.7876726614801575"><ele>464.50000000000006</ele><time>2026-03-28T13:31:27.999Z</time></trkpt><trkpt lat="43.42164855530444" lon="5.787758804385363"><ele>466.0</ele><time>2026-03-28T13:31:28.999Z</time></trkpt><trkpt lat="43.421695485277326" lon="5.7878191151206355"><ele>467.5</ele><time>2026-03-28T13:31:29.999Z</time></trkpt><trkpt lat="43.42170623074" lon="5.787935604943397"><ele>469.0</ele><time>2026-03-28T13:31:30.999Z</time></trkpt><trkpt lat="43.421709862505395" lon="5.788055190746313"><ele>470.50000000000006</ele><time>2026-03-28T13:31:31.999Z</time></trkpt><trkpt lat="43.4216841087273" lon="5.788167519899449"><ele>472.0</ele><time>2026-03-28T13:31:32.999Z</time></trkpt><trkpt lat="43.42164987275231" lon="5.788279914087745"><ele>472.00000000000006</ele><time>2026-03-28T13:31:33.999Z</time></trkpt><trkpt lat="43.421612430669306" lon="5.788382382875324"><ele>472.0</ele><time>2026-03-28T13:31:34.999Z</time></trkpt><trkpt lat="43.42158644485269" lon="5.788495868194683"><ele>472.0</ele><time>2026-03-28T13:31:35.999Z</time></trkpt><trkpt lat="43.42153635672885" lon="5.7885772396832165"><ele>472.0</ele><time>2026-03-28T13:31:36.999Z</time></trkpt><trkpt lat="43.421451933370726" lon="5.788627347810572"><ele>472.00000000000006</ele><time>2026-03-28T13:31:37.999Z</time></trkpt><trkpt lat="43.42136313357023" lon="5.788635042206687"><ele>472.0</ele><time>2026-03-28T13:31:38.999Z</time></trkpt><trkpt lat="43.421282682017" lon="5.788616902602624"><ele>469.8</ele><time>2026-03-28T13:31:39.999Z</time></trkpt><trkpt lat="43.42117216405559" lon="5.788610681140413"><ele>467.6</ele><time>2026-03-28T13:31:41.999Z</time></trkpt><trkpt lat="43.42112207070447" lon="5.788684027715821"><ele>465.40000000000003</ele><time>2026-03-28T13:31:42.999Z</time></trkpt><trkpt lat="43.42108804665877" lon="5.788758048166375"><ele>463.20000000000005</ele><time>2026-03-28T13:31:43.999Z</time></trkpt><trkpt lat="43.42099649477433" lon="5.788876185702746"><ele>461.0</ele><time>2026-03-28T13:31:45.999Z</time></trkpt><trkpt lat="43.42088500126484" lon="5.788915804868889"><ele>461.0</ele><time>2026-03-28T13:31:47.999Z</time></trkpt><trkpt lat="43.42082756432063" lon="5.788978892310672"><ele>461.00000000000006</ele><time>2026-03-28T13:31:48.999Z</time></trkpt><trkpt lat="43.42077952474546" lon="5.789048054451747"><ele>461.0</ele><time>2026-03-28T13:31:49.999Z</time></trkpt><trkpt lat="43.42074187894448" lon="5.789135651128783"><ele>461.0</ele><time>2026-03-28T13:31:50.999Z</time></trkpt><trkpt lat="43.420700298058385" lon="5.789220159594"><ele>461.00000000000006</ele><time>2026-03-28T13:31:51.999Z</time></trkpt><trkpt lat="43.42066647611732" lon="5.789299498936325"><ele>461.0</ele><time>2026-03-28T13:31:52.999Z</time></trkpt><trkpt lat="43.420591489421476" lon="5.789360123936874"><ele>461.0</ele><time>2026-03-28T13:31:53.999Z</time></trkpt><trkpt lat="43.42052043595836" lon="5.789374547012542"><ele>460.3333333333333</ele><time>2026-03-28T13:31:54.999Z</time></trkpt><trkpt lat="43.42039221761903" lon="5.789368964851593"><ele>459.66666666666663</ele><time>2026-03-28T13:31:56.999Z</time></trkpt><trkpt lat="43.420328322421184" lon="5.789343345462817"><ele>459.0</ele><time>2026-03-28T13:31:57.999Z</time></trkpt><trkpt lat="43.420252835200685" lon="5.789332416397783"><ele>458.33333333333337</ele><time>2026-03-28T13:31:58.999Z</time></trkpt><trkpt lat="43.420192161589796" lon="5.789285817266606"><ele>457.6666666666667</ele><time>2026-03-28T13:31:59.999Z</time></trkpt><trkpt lat="43.42015149245099" lon="5.78921310701666"><ele>457.0</ele><time>2026-03-28T13:32:00.999Z</time></trkpt><trkpt lat="43.42009991424382" lon="5.789086050460593"><ele>455.6</ele><time>2026-03-28T13:32:02.999Z</time></trkpt><trkpt lat="43.42002887273813" lon="5.789122254230184"><ele>454.20000000000005</ele><time>2026-03-28T13:32:04.999Z</time></trkpt><trkpt lat="43.41997730536433" lon="5.789051718023585"><ele>452.8</ele><time>2026-03-28T13:32:12.999Z</time></trkpt><trkpt lat="43.41990343513597" lon="5.7890427971986975"><ele>451.4</ele><time>2026-03-28T13:32:18.999Z</time></trkpt><trkpt lat="43.41977633265909" lon="5.789179206201415"><ele>450.0</ele><time>2026-03-28T13:32:29Z</time></trkpt><trkpt lat="43.419727334758775" lon="5.789259997484008"><ele>450.0</ele><time>2026-03-28T13:32:30Z</time></trkpt><trkpt lat="43.41968428857601" lon="5.789339983123205"><ele>450.0</ele><time>2026-03-28T13:32:31Z</time></trkpt><trkpt lat="43.41962367209229" lon="5.78944547524777"><ele>450.0</ele><time>2026-03-28T13:32:32Z</time></trkpt><trkpt lat="43.41956889061231" lon="5.789564763171544"><ele>450.0</ele><time>2026-03-28T13:32:33Z</time></trkpt><trkpt lat="43.41951530548464" lon="5.7897059201347245"><ele>450.0</ele><time>2026-03-28T13:32:34Z</time></trkpt><trkpt lat="43.41948508441334" lon="5.789863404619193"><ele>451.0</ele><time>2026-03-28T13:32:35Z</time></trkpt><trkpt lat="43.4194683730355" lon="5.790046073733846"><ele>452.0</ele><time>2026-03-28T13:32:36Z</time></trkpt><trkpt lat="43.419439980868724" lon="5.790273477710425"><ele>453.0</ele><time>2026-03-28T13:32:37Z</time></trkpt><trkpt lat="43.41941128594593" lon="5.7905105941188255"><ele>453.0</ele><time>2026-03-28T13:32:38Z</time></trkpt><trkpt lat="43.41937911626485" lon="5.790716775478056"><ele>453.0</ele><time>2026-03-28T13:32:39Z</time></trkpt><trkpt lat="43.41934360675585" lon="5.790900473048203"><ele>453.0</ele><time>2026-03-28T13:32:40Z</time></trkpt><trkpt lat="43.41932593401367" lon="5.791091669756361"><ele>453.0</ele><time>2026-03-28T13:32:41Z</time></trkpt><trkpt lat="43.41930621878993" lon="5.791267793362618"><ele>452.2</ele><time>2026-03-28T13:32:42Z</time></trkpt><trkpt lat="43.41925958831095" lon="5.791425252537249"><ele>451.4</ele><time>2026-03-28T13:32:43Z</time></trkpt><trkpt lat="43.41919674115859" lon="5.7915705549896375"><ele>450.59999999999997</ele><time>2026-03-28T13:32:44Z</time></trkpt><trkpt lat="43.41914090706812" lon="5.791693283183135"><ele>449.79999999999995</ele><time>2026-03-28T13:32:45Z</time></trkpt><trkpt lat="43.41912880534803" lon="5.791811589279958"><ele>449.0</ele><time>2026-03-28T13:32:46Z</time></trkpt><trkpt lat="43.419159959774184" lon="5.7919122040883035"><ele>448.6</ele><time>2026-03-28T13:32:47Z</time></trkpt><trkpt lat="43.41921852753752" lon="5.792009422413898"><ele>448.2</ele><time>2026-03-28T13:32:48Z</time></trkpt><trkpt lat="43.419277555539274" lon="5.792123322083436"><ele>447.80000000000007</ele><time>2026-03-28T13:32:49Z</time></trkpt><trkpt lat="43.41930646738548" lon="5.792253269821796"><ele>447.40000000000003</ele><time>2026-03-28T13:32:50Z</time></trkpt><trkpt lat="43.419313576663406" lon="5.792405024607233"><ele>447.0</ele><time>2026-03-28T13:32:51Z</time></trkpt><trkpt lat="43.419293205910584" lon="5.792568501744926"><ele>447.75</ele><time>2026-03-28T13:32:52Z</time></trkpt><trkpt lat="43.41926151786264" lon="5.792741177855221"><ele>448.5</ele><time>2026-03-28T13:32:53Z</time></trkpt><trkpt lat="43.41921626387478" lon="5.792891891996397"><ele>449.25</ele><time>2026-03-28T13:32:54Z</time></trkpt><trkpt lat="43.41915655968596" lon="5.793016466942985"><ele>450.0</ele><time>2026-03-28T13:32:55Z</time></trkpt><trkpt lat="43.41908019024068" lon="5.793120572450171"><ele>450.0</ele><time>2026-03-28T13:32:56Z</time></trkpt><trkpt lat="43.418981482135784" lon="5.79324380535313"><ele>450.0</ele><time>2026-03-28T13:32:57Z</time></trkpt><trkpt lat="43.41887531035697" lon="5.793375325641752"><ele>450.0</ele><time>2026-03-28T13:32:57.999Z</time></trkpt><trkpt lat="43.41878359795626" lon="5.793486193709741"><ele>450.0</ele><time>2026-03-28T13:32:58.999Z</time></trkpt><trkpt lat="43.418723386357996" lon="5.79357365694014"><ele>450.0</ele><time>2026-03-28T13:32:59.999Z</time></trkpt><trkpt lat="43.418682292352635" lon="5.793658615487114"><ele>450.0</ele><time>2026-03-28T13:33:00.999Z</time></trkpt><trkpt lat="43.418667863933216" lon="5.793752095732598"><ele>450.0</ele><time>2026-03-28T13:33:01.999Z</time></trkpt><trkpt lat="43.41869529036264" lon="5.793858689641764"><ele>450.0</ele><time>2026-03-28T13:33:02.999Z</time></trkpt><trkpt lat="43.41877027124861" lon="5.793992866271183"><ele>450.0</ele><time>2026-03-28T13:33:03.999Z</time></trkpt><trkpt lat="43.41885801537002" lon="5.794125164561863"><ele>450.0</ele><time>2026-03-28T13:33:04.999Z</time></trkpt><trkpt lat="43.41891455004057" lon="5.79425754268152"><ele>450.0</ele><time>2026-03-28T13:33:05.999Z</time></trkpt><trkpt lat="43.418937524034575" lon="5.794404434110568"><ele>450.0</ele><time>2026-03-28T13:33:06.999Z</time></trkpt><trkpt lat="43.41894412205824" lon="5.7945294201169775"><ele>450.0</ele><time>2026-03-28T13:33:07.999Z</time></trkpt><trkpt lat="43.418922124304046" lon="5.794629901333278"><ele>450.0</ele><time>2026-03-28T13:33:08.999Z</time></trkpt><trkpt lat="43.41887384747212" lon="5.794720302821599"><ele>450.2</ele><time>2026-03-28T13:33:09.999Z</time></trkpt><trkpt lat="43.418790411405574" lon="5.794810032082778"><ele>450.4</ele><time>2026-03-28T13:33:10.999Z</time></trkpt><trkpt lat="43.41870417206979" lon="5.7949194178717605"><ele>450.6</ele><time>2026-03-28T13:33:11.999Z</time></trkpt><trkpt lat="43.418655880877495" lon="5.795025774703919"><ele>450.8</ele><time>2026-03-28T13:33:12.999Z</time></trkpt><trkpt lat="43.418645896756054" lon="5.795154091945599"><ele>451.0</ele><time>2026-03-28T13:33:13.999Z</time></trkpt><trkpt lat="43.41866636190403" lon="5.7952910673760245"><ele>451.0</ele><time>2026-03-28T13:33:14.999Z</time></trkpt><trkpt lat="43.418697660208046" lon="5.795415021501606"><ele>451.0</ele><time>2026-03-28T13:33:15.999Z</time></trkpt><trkpt lat="43.41875435705686" lon="5.795519838231553"><ele>451.0</ele><time>2026-03-28T13:33:16.999Z</time></trkpt><trkpt lat="43.41883451055444" lon="5.795632045681889"><ele>451.0</ele><time>2026-03-28T13:33:17.999Z</time></trkpt><trkpt lat="43.4189361643358" lon="5.795770422609186"><ele>451.0</ele><time>2026-03-28T13:33:18.999Z</time></trkpt><trkpt lat="43.41903295029728" lon="5.7959179062189286"><ele>448.20000000000005</ele><time>2026-03-28T13:33:19.999Z</time></trkpt><trkpt lat="43.419102417490336" lon="5.796071102130309"><ele>445.40000000000003</ele><time>2026-03-28T13:33:20.999Z</time></trkpt><trkpt lat="43.41914065416946" lon="5.796226500107371"><ele>442.6</ele><time>2026-03-28T13:33:21.999Z</time></trkpt><trkpt lat="43.419153168909276" lon="5.796348277712399"><ele>439.8</ele><time>2026-03-28T13:33:22.999Z</time></trkpt><trkpt lat="43.419101113656545" lon="5.7964582956692245"><ele>437.0</ele><time>2026-03-28T13:33:23.999Z</time></trkpt><trkpt lat="43.41906565485523" lon="5.796550945927625"><ele>437.0</ele><time>2026-03-28T13:33:24.999Z</time></trkpt><trkpt lat="43.419013536182355" lon="5.79669857384028"><ele>437.0</ele><time>2026-03-28T13:33:25.999Z</time></trkpt><trkpt lat="43.41895213713969" lon="5.796872247728094"><ele>437.0</ele><time>2026-03-28T13:33:26.999Z</time></trkpt><trkpt lat="43.41889392386196" lon="5.79705923727988"><ele>437.0</ele><time>2026-03-28T13:33:27.999Z</time></trkpt><trkpt lat="43.41888312723373" lon="5.797188662818179"><ele>436.0</ele><time>2026-03-28T13:33:28.999Z</time></trkpt><trkpt lat="43.418895906029725" lon="5.797327964770576"><ele>435.0</ele><time>2026-03-28T13:33:29.999Z</time></trkpt><trkpt lat="43.41889766002462" lon="5.797476114000169"><ele>434.0</ele><time>2026-03-28T13:33:30.999Z</time></trkpt><trkpt lat="43.41892580775857" lon="5.797649838777262"><ele>433.0</ele><time>2026-03-28T13:33:31.999Z</time></trkpt><trkpt lat="43.41894106404474" lon="5.797810649794766"><ele>432.25</ele><time>2026-03-28T13:33:32.999Z</time></trkpt><trkpt lat="43.41894774698376" lon="5.797964111043951"><ele>431.5</ele><time>2026-03-28T13:33:33.999Z</time></trkpt><trkpt lat="43.41893166125433" lon="5.798122233545342"><ele>430.75</ele><time>2026-03-28T13:33:34.999Z</time></trkpt><trkpt lat="43.418900967320695" lon="5.798282053073252"><ele>430.0</ele><time>2026-03-28T13:33:35.999Z</time></trkpt><trkpt lat="43.418850959255614" lon="5.79847534501324"><ele>433.5</ele><time>2026-03-28T13:33:36.999Z</time></trkpt><trkpt lat="43.418805011776456" lon="5.798700922086781"><ele>437.0</ele><time>2026-03-28T13:33:37.999Z</time></trkpt><trkpt lat="43.418787419105094" lon="5.798897480277031"><ele>440.5</ele><time>2026-03-28T13:33:38.999Z</time></trkpt><trkpt lat="43.41873201236252" lon="5.799055229628149"><ele>444.0</ele><time>2026-03-28T13:33:39.999Z</time></trkpt><trkpt lat="43.4186839893143" lon="5.799214280125097"><ele>443.75</ele><time>2026-03-28T13:33:40.999Z</time></trkpt><trkpt lat="43.418647678339234" lon="5.799381450951002"><ele>443.5</ele><time>2026-03-28T13:33:41.999Z</time></trkpt><trkpt lat="43.41859405730879" lon="5.799527585901854"><ele>443.25</ele><time>2026-03-28T13:33:42.999Z</time></trkpt><trkpt lat="43.41856775310968" lon="5.799676483245406"><ele>443.0</ele><time>2026-03-28T13:33:43.999Z</time></trkpt><trkpt lat="43.41856836334934" lon="5.79983927361241"><ele>443.0</ele><time>2026-03-28T13:33:44.999Z</time></trkpt><trkpt lat="43.418591499866224" lon="5.80003150968501"><ele>443.0</ele><time>2026-03-28T13:33:45.999Z</time></trkpt><trkpt lat="43.418627935385786" lon="5.800201169846341"><ele>443.0</ele><time>2026-03-28T13:33:46.999Z</time></trkpt><trkpt lat="43.41865019914118" lon="5.800348270683232"><ele>443.0</ele><time>2026-03-28T13:33:47.999Z</time></trkpt><trkpt lat="43.41861292477601" lon="5.800481539631171"><ele>442.75</ele><time>2026-03-28T13:33:48.999Z</time></trkpt><trkpt lat="43.41860283083626" lon="5.800630960142546"><ele>442.5</ele><time>2026-03-28T13:33:49.999Z</time></trkpt><trkpt lat="43.41861366937017" lon="5.800804338976388"><ele>442.25</ele><time>2026-03-28T13:33:50.999Z</time></trkpt><trkpt lat="43.41862949070491" lon="5.801013366438201"><ele>442.0</ele><time>2026-03-28T13:33:51.999Z</time></trkpt><trkpt lat="43.4186484789998" lon="5.801244465317441"><ele>442.0</ele><time>2026-03-28T13:33:52.999Z</time></trkpt><trkpt lat="43.418670944461255" lon="5.801437528061634"><ele>442.00000000000006</ele><time>2026-03-28T13:33:53.999Z</time></trkpt><trkpt lat="43.418660849620345" lon="5.801599356520848"><ele>442.00000000000006</ele><time>2026-03-28T13:33:54.999Z</time></trkpt><trkpt lat="43.41865030256315" lon="5.801720476652049"><ele>442.0</ele><time>2026-03-28T13:33:55.999Z</time></trkpt><trkpt lat="43.418619760890735" lon="5.801822791304194"><ele>442.0</ele><time>2026-03-28T13:33:56.999Z</time></trkpt><trkpt lat="43.4185805593367" lon="5.80194151433788"><ele>440.75</ele><time>2026-03-28T13:33:57.999Z</time></trkpt><trkpt lat="43.41852581362415" lon="5.8021023213777765"><ele>439.5</ele><time>2026-03-28T13:33:58.999Z</time></trkpt><trkpt lat="43.41845927143108" lon="5.802289608662646"><ele>438.25</ele><time>2026-03-28T13:33:59.999Z</time></trkpt><trkpt lat="43.41839496536348" lon="5.802465517929647"><ele>437.0</ele><time>2026-03-28T13:34:00.999Z</time></trkpt><trkpt lat="43.41834421764696" lon="5.8026043383235"><ele>436.20000000000005</ele><time>2026-03-28T13:34:01.999Z</time></trkpt><trkpt lat="43.418305564686456" lon="5.80270319519426"><ele>435.40000000000003</ele><time>2026-03-28T13:34:02.999Z</time></trkpt><trkpt lat="43.41827306151358" lon="5.8028288213732315"><ele>434.59999999999997</ele><time>2026-03-28T13:34:04.999Z</time></trkpt><trkpt lat="43.41827167944685" lon="5.802971643732423"><ele>433.79999999999995</ele><time>2026-03-28T13:34:07.999Z</time></trkpt><trkpt lat="43.41825308422527" lon="5.80314691019045"><ele>433.0</ele><time>2026-03-28T13:34:09.999Z</time></trkpt><trkpt lat="43.41823270164444" lon="5.803229277163879"><ele>433.0</ele><time>2026-03-28T13:34:10.999Z</time></trkpt><trkpt lat="43.41812606518705" lon="5.803340349517588"><ele>432.99999999999994</ele><time>2026-03-28T13:34:12.999Z</time></trkpt><trkpt lat="43.4180540223992" lon="5.8034332735328995"><ele>432.99999999999994</ele><time>2026-03-28T13:34:13.999Z</time></trkpt><trkpt lat="43.417966744875734" lon="5.803523842777785"><ele>433.0</ele><time>2026-03-28T13:34:14.999Z</time></trkpt><trkpt lat="43.41790734217791" lon="5.803586882154765"><ele>433.0</ele><time>2026-03-28T13:34:15.999Z</time></trkpt><trkpt lat="43.41785600217569" lon="5.803645677987944"><ele>434.59999999999997</ele><time>2026-03-28T13:34:18.999Z</time></trkpt><trkpt lat="43.41777911131947" lon="5.803514251530967"><ele>436.19999999999993</ele><time>2026-03-28T13:34:20.999Z</time></trkpt><trkpt lat="43.417750070378105" lon="5.803404709545207"><ele>437.8</ele><time>2026-03-28T13:34:21.999Z</time></trkpt><trkpt lat="43.41770340875179" lon="5.803313229492111"><ele>439.4</ele><time>2026-03-28T13:34:22.999Z</time></trkpt><trkpt lat="43.41762661562498" lon="5.80325755388595"><ele>441.0</ele><time>2026-03-28T13:34:23.999Z</time></trkpt><trkpt lat="43.41752905205564" lon="5.8031871076262105"><ele>441.0</ele><time>2026-03-28T13:34:24.999Z</time></trkpt><trkpt lat="43.417453789383025" lon="5.8031148933258585"><ele>441.0</ele><time>2026-03-28T13:34:25.999Z</time></trkpt><trkpt lat="43.41740010011974" lon="5.803039330757425"><ele>441.0</ele><time>2026-03-28T13:34:26.999Z</time></trkpt><trkpt lat="43.41733419993941" lon="5.802993991161782"><ele>441.0</ele><time>2026-03-28T13:34:27.999Z</time></trkpt><trkpt lat="43.41728714604519" lon="5.80293413822818"><ele>441.0</ele><time>2026-03-28T13:34:28.999Z</time></trkpt><trkpt lat="43.41727531567584" lon="5.802747883315956"><ele>441.0</ele><time>2026-03-28T13:34:31Z</time></trkpt><trkpt lat="43.41728570737812" lon="5.802609880052429"><ele>441.8</ele><time>2026-03-28T13:34:32Z</time></trkpt><trkpt lat="43.41730533907869" lon="5.802473416157971"><ele>442.6</ele><time>2026-03-28T13:34:33Z</time></trkpt><trkpt lat="43.417296617503666" lon="5.802318034908469"><ele>443.4</ele><time>2026-03-28T13:34:35Z</time></trkpt><trkpt lat="43.41722620590335" lon="5.802197816069281"><ele>444.2</ele><time>2026-03-28T13:34:37Z</time></trkpt><trkpt lat="43.41719067423951" lon="5.802105946223907"><ele>445.0</ele><time>2026-03-28T13:34:38Z</time></trkpt><trkpt lat="43.41719440722706" lon="5.80199357291373"><ele>445.0</ele><time>2026-03-28T13:34:39Z</time></trkpt><trkpt lat="43.41722642628827" lon="5.801855368807317"><ele>445.0</ele><time>2026-03-28T13:34:40Z</time></trkpt><trkpt lat="43.41722317692408" lon="5.801725635106809"><ele>445.0</ele><time>2026-03-28T13:34:41Z</time></trkpt><trkpt lat="43.417188339629355" lon="5.801622002617794"><ele>445.0</ele><time>2026-03-28T13:34:42Z</time></trkpt><trkpt lat="43.417140564324136" lon="5.801513845020316"><ele>445.0</ele><time>2026-03-28T13:34:43Z</time></trkpt><trkpt lat="43.417098224576776" lon="5.8014124693645135"><ele>447.83333333333337</ele><time>2026-03-28T13:34:44Z</time></trkpt><trkpt lat="43.41706793388086" lon="5.8013246211205285"><ele>450.6666666666667</ele><time>2026-03-28T13:34:45Z</time></trkpt><trkpt lat="43.41705888702851" lon="5.8012216341012195"><ele>453.5</ele><time>2026-03-28T13:34:46Z</time></trkpt><trkpt lat="43.41706921145362" lon="5.801097651503407"><ele>456.33333333333337</ele><time>2026-03-28T13:34:47Z</time></trkpt><trkpt lat="43.41706621839739" lon="5.800970016959436"><ele>459.1666666666667</ele><time>2026-03-28T13:34:48Z</time></trkpt><trkpt lat="43.41704525691604" lon="5.800876121136631"><ele>462.0</ele><time>2026-03-28T13:34:49Z</time></trkpt><trkpt lat="43.41701123247717" lon="5.800789831038421"><ele>462.8333333333333</ele><time>2026-03-28T13:34:50Z</time></trkpt><trkpt lat="43.41697150811068" lon="5.800676400123331"><ele>463.66666666666663</ele><time>2026-03-28T13:34:51Z</time></trkpt><trkpt lat="43.41693811634187" lon="5.800553243331602"><ele>464.5</ele><time>2026-03-28T13:34:52Z</time></trkpt><trkpt lat="43.416863202853335" lon="5.800442414125446"><ele>465.3333333333333</ele><time>2026-03-28T13:34:54Z</time></trkpt><trkpt lat="43.41679754410899" lon="5.800425300292385"><ele>466.16666666666663</ele><time>2026-03-28T13:34:54.999Z</time></trkpt><trkpt lat="43.41672455122475" lon="5.800405092554656"><ele>467.0</ele><time>2026-03-28T13:34:55.999Z</time></trkpt><trkpt lat="43.41668399583427" lon="5.800335210824699"><ele>466.99999999999994</ele><time>2026-03-28T13:34:56.999Z</time></trkpt><trkpt lat="43.416666529482264" lon="5.8002286290173775"><ele>467.0</ele><time>2026-03-28T13:34:57.999Z</time></trkpt><trkpt lat="43.41663220912268" lon="5.800097503501114"><ele>467.0</ele><time>2026-03-28T13:34:58.999Z</time></trkpt><trkpt lat="43.416583374925494" lon="5.7999986478250065"><ele>467.0</ele><time>2026-03-28T13:34:59.999Z</time></trkpt><trkpt lat="43.416521043193896" lon="5.799915944202751"><ele>466.99999999999994</ele><time>2026-03-28T13:35:00.999Z</time></trkpt><trkpt lat="43.416485556871606" lon="5.799835012680201"><ele>467.0</ele><time>2026-03-28T13:35:01.999Z</time></trkpt><trkpt lat="43.41647046698551" lon="5.79974329780402"><ele>468.16666666666663</ele><time>2026-03-28T13:35:02.999Z</time></trkpt><trkpt lat="43.41645620562354" lon="5.799632458550346"><ele>469.3333333333333</ele><time>2026-03-28T13:35:03.999Z</time></trkpt><trkpt lat="43.41641637988439" lon="5.799537532308253"><ele>470.5</ele><time>2026-03-28T13:35:04.999Z</time></trkpt><trkpt lat="43.41634889927133" lon="5.7994303816855"><ele>471.66666666666663</ele><time>2026-03-28T13:35:06.999Z</time></trkpt><trkpt lat="43.41625191336018" lon="5.7994073928661845"><ele>472.8333333333333</ele><time>2026-03-28T13:35:08.999Z</time></trkpt><trkpt lat="43.416189266962235" lon="5.7994248125732275"><ele>474.0</ele><time>2026-03-28T13:35:09.999Z</time></trkpt><trkpt lat="43.416002576882356" lon="5.799401878088673"><ele>475.79999999999995</ele><time>2026-03-28T13:35:11.999Z</time></trkpt><trkpt lat="43.41589957501446" lon="5.799401024424599"><ele>477.59999999999997</ele><time>2026-03-28T13:35:12.999Z</time></trkpt><trkpt lat="43.415772056294195" lon="5.799392844205957"><ele>479.4</ele><time>2026-03-28T13:35:13.999Z</time></trkpt><trkpt lat="43.41566799393103" lon="5.7994024404306455"><ele>481.2</ele><time>2026-03-28T13:35:14.999Z</time></trkpt><trkpt lat="43.415648606995234" lon="5.799490702200779"><ele>483.0</ele><time>2026-03-28T13:35:16.999Z</time></trkpt><trkpt lat="43.41561551962946" lon="5.799410785586704"><ele>483.6666666666667</ele><time>2026-03-28T13:35:21.999Z</time></trkpt><trkpt lat="43.4155652649744" lon="5.799333823674496"><ele>484.33333333333337</ele><time>2026-03-28T13:35:39.999Z</time></trkpt><trkpt lat="43.415544008132606" lon="5.79923687456118"><ele>485.0</ele><time>2026-03-28T13:35:40.999Z</time></trkpt><trkpt lat="43.415523554913285" lon="5.799130645462823"><ele>485.6666666666667</ele><time>2026-03-28T13:35:41.999Z</time></trkpt><trkpt lat="43.41551335993247" lon="5.799039677351742"><ele>486.33333333333337</ele><time>2026-03-28T13:35:42.999Z</time></trkpt><trkpt lat="43.4154186103892" lon="5.798903650983322"><ele>487.0</ele><time>2026-03-28T13:35:44.999Z</time></trkpt><trkpt lat="43.41534439229476" lon="5.798803000342477"><ele>487.0</ele><time>2026-03-28T13:35:45.999Z</time></trkpt><trkpt lat="43.415298284910584" lon="5.79869879490601"><ele>487.00000000000006</ele><time>2026-03-28T13:35:46.999Z</time></trkpt><trkpt lat="43.41526441176416" lon="5.798565885828282"><ele>487.00000000000006</ele><time>2026-03-28T13:35:47.999Z</time></trkpt><trkpt lat="43.41522792750838" lon="5.798418237801864"><ele>487.0</ele><time>2026-03-28T13:35:48.999Z</time></trkpt><trkpt lat="43.415197276170204" lon="5.7982683212666855"><ele>487.0</ele><time>2026-03-28T13:35:49.999Z</time></trkpt><trkpt lat="43.415160975816335" lon="5.798150036527638"><ele>488.0</ele><time>2026-03-28T13:35:50.999Z</time></trkpt><trkpt lat="43.41511973994419" lon="5.797992289685848"><ele>489.00000000000006</ele><time>2026-03-28T13:35:51.999Z</time></trkpt><trkpt lat="43.415087127372324" lon="5.797854945637165"><ele>490.00000000000006</ele><time>2026-03-28T13:35:52.999Z</time></trkpt><trkpt lat="43.415046060660465" lon="5.797744031828696"><ele>491.0</ele><time>2026-03-28T13:35:53.999Z</time></trkpt><trkpt lat="43.4149871954815" lon="5.797647539809055"><ele>492.0</ele><time>2026-03-28T13:35:54.999Z</time></trkpt><trkpt lat="43.414923403170484" lon="5.797526082518925"><ele>493.20000000000005</ele><time>2026-03-28T13:35:55.999Z</time></trkpt><trkpt lat="43.41486493289753" lon="5.797391737300011"><ele>494.40000000000003</ele><time>2026-03-28T13:35:56.999Z</time></trkpt><trkpt lat="43.41483202787469" lon="5.797279090693407"><ele>495.59999999999997</ele><time>2026-03-28T13:35:57.999Z</time></trkpt><trkpt lat="43.41480920246998" lon="5.797193693282624"><ele>496.79999999999995</ele><time>2026-03-28T13:35:58.999Z</time></trkpt><trkpt lat="43.4147869705676" lon="5.797059543208668"><ele>498.0</ele><time>2026-03-28T13:36:00.999Z</time></trkpt><trkpt lat="43.414840774874556" lon="5.796934310142441"><ele>498.0</ele><time>2026-03-28T13:36:02.999Z</time></trkpt><trkpt lat="43.414911005928374" lon="5.796861802989328"><ele>497.99999999999994</ele><time>2026-03-28T13:36:03.999Z</time></trkpt><trkpt lat="43.41497041021797" lon="5.796796231010974"><ele>497.99999999999994</ele><time>2026-03-28T13:36:04.999Z</time></trkpt><trkpt lat="43.41500485194599" lon="5.7966929483835905"><ele>498.0</ele><time>2026-03-28T13:36:05.999Z</time></trkpt><trkpt lat="43.41502146052017" lon="5.796541716978358"><ele>498.0</ele><time>2026-03-28T13:36:06.999Z</time></trkpt><trkpt lat="43.415062990472364" lon="5.796342531765344"><ele>499.5</ele><time>2026-03-28T13:36:07.999Z</time></trkpt><trkpt lat="43.41512216229053" lon="5.796149374559549"><ele>501.0</ele><time>2026-03-28T13:36:08.999Z</time></trkpt><trkpt lat="43.41514953049695" lon="5.795992748006167"><ele>502.5</ele><time>2026-03-28T13:36:09.999Z</time></trkpt><trkpt lat="43.415156815351" lon="5.795845879972114"><ele>504.0</ele><time>2026-03-28T13:36:10.999Z</time></trkpt><trkpt lat="43.41517278934815" lon="5.795714074989816"><ele>504.0</ele><time>2026-03-28T13:36:11.999Z</time></trkpt><trkpt lat="43.41516275580991" lon="5.795587220688891"><ele>504.0</ele><time>2026-03-28T13:36:12.999Z</time></trkpt><trkpt lat="43.4151230228102" lon="5.795479150798393"><ele>504.0</ele><time>2026-03-28T13:36:13.999Z</time></trkpt><trkpt lat="43.41508910927854" lon="5.795396851753308"><ele>504.0</ele><time>2026-03-28T13:36:14.999Z</time></trkpt><trkpt lat="43.41509995645828" lon="5.795309025105934"><ele>504.0</ele><time>2026-03-28T13:36:15.999Z</time></trkpt><trkpt lat="43.41514081712193" lon="5.7952270923292195"><ele>504.0</ele><time>2026-03-28T13:36:16.999Z</time></trkpt><trkpt lat="43.415196879546414" lon="5.795115864613174"><ele>503.4</ele><time>2026-03-28T13:36:17.999Z</time></trkpt><trkpt lat="43.41522888961524" lon="5.794993055293434"><ele>502.79999999999995</ele><time>2026-03-28T13:36:18.999Z</time></trkpt><trkpt lat="43.415230503765024" lon="5.794892039294504"><ele>502.20000000000005</ele><time>2026-03-28T13:36:19.999Z</time></trkpt><trkpt lat="43.41523031758302" lon="5.794784345633361"><ele>501.6</ele><time>2026-03-28T13:36:20.999Z</time></trkpt><trkpt lat="43.41522185009396" lon="5.794615596413019"><ele>501.0</ele><time>2026-03-28T13:36:21.999Z</time></trkpt><trkpt lat="43.41521115983999" lon="5.794420120336149"><ele>501.20000000000005</ele><time>2026-03-28T13:36:22.999Z</time></trkpt><trkpt lat="43.41521423835703" lon="5.7942869980353855"><ele>501.40000000000003</ele><time>2026-03-28T13:36:23.999Z</time></trkpt><trkpt lat="43.415201875753795" lon="5.794195016702289"><ele>501.6</ele><time>2026-03-28T13:36:24.999Z</time></trkpt><trkpt lat="43.41517737858799" lon="5.794107983350165"><ele>501.8</ele><time>2026-03-28T13:36:25.999Z</time></trkpt><trkpt lat="43.41513450560102" lon="5.793984520006603"><ele>502.0</ele><time>2026-03-28T13:36:26.999Z</time></trkpt><trkpt lat="43.41508575809616" lon="5.793834202139183"><ele>502.00000000000006</ele><time>2026-03-28T13:36:27.999Z</time></trkpt><trkpt lat="43.41503720809539" lon="5.793678893967531"><ele>502.0</ele><time>2026-03-28T13:36:28.999Z</time></trkpt><trkpt lat="43.41500701881266" lon="5.793592064461675"><ele>502.0</ele><time>2026-03-28T13:36:29.999Z</time></trkpt><trkpt lat="43.41500478275889" lon="5.793500818531801"><ele>502.0</ele><time>2026-03-28T13:36:30.999Z</time></trkpt><trkpt lat="43.41504601395787" lon="5.793393635343734"><ele>502.00000000000006</ele><time>2026-03-28T13:36:31.999Z</time></trkpt><trkpt lat="43.41508096192934" lon="5.793279187168568"><ele>502.0</ele><time>2026-03-28T13:36:32.999Z</time></trkpt><trkpt lat="43.415087053715474" lon="5.793135973650049"><ele>502.8</ele><time>2026-03-28T13:36:33.999Z</time></trkpt><trkpt lat="43.415082510956275" lon="5.792988190619409"><ele>503.6</ele><time>2026-03-28T13:36:35Z</time></trkpt><trkpt lat="43.415090819351256" lon="5.7928668844393165"><ele>504.40000000000003</ele><time>2026-03-28T13:36:36Z</time></trkpt><trkpt lat="43.4150919227424" lon="5.792777064874284"><ele>505.20000000000005</ele><time>2026-03-28T13:36:37Z</time></trkpt><trkpt lat="43.4151486350945" lon="5.792652516464996"><ele>506.0</ele><time>2026-03-28T13:36:39Z</time></trkpt><trkpt lat="43.41522446376864" lon="5.79255840614805"><ele>506.66666666666663</ele><time>2026-03-28T13:36:41.001Z</time></trkpt><trkpt lat="43.415206235273594" lon="5.7924410385253235"><ele>507.3333333333333</ele><time>2026-03-28T13:36:43Z</time></trkpt><trkpt lat="43.415194773066766" lon="5.7923514195229515"><ele>508.0</ele><time>2026-03-28T13:36:44Z</time></trkpt><trkpt lat="43.41518858673086" lon="5.792241830346796"><ele>508.66666666666663</ele><time>2026-03-28T13:36:45Z</time></trkpt><trkpt lat="43.41518566275419" lon="5.792125912751502"><ele>509.3333333333333</ele><time>2026-03-28T13:36:46Z</time></trkpt><trkpt lat="43.415197838376265" lon="5.792013081838792"><ele>510.0</ele><time>2026-03-28T13:36:47Z</time></trkpt><trkpt lat="43.41524220696611" lon="5.791907452524734"><ele>510.8333333333333</ele><time>2026-03-28T13:36:48Z</time></trkpt><trkpt lat="43.415303424945606" lon="5.7918038610727045"><ele>511.66666666666663</ele><time>2026-03-28T13:36:49Z</time></trkpt><trkpt lat="43.41534671396459" lon="5.791719714305276"><ele>512.5</ele><time>2026-03-28T13:36:50Z</time></trkpt><trkpt lat="43.415371391290854" lon="5.791639340860655"><ele>513.3333333333333</ele><time>2026-03-28T13:36:51Z</time></trkpt><trkpt lat="43.415362338442975" lon="5.791472309457677"><ele>514.1666666666666</ele><time>2026-03-28T13:36:53Z</time></trkpt><trkpt lat="43.41533389942087" lon="5.791372100910661"><ele>515.0</ele><time>2026-03-28T13:36:54Z</time></trkpt><trkpt lat="43.41529623150242" lon="5.791271185697673"><ele>515.0</ele><time>2026-03-28T13:36:55Z</time></trkpt><trkpt lat="43.415244370939526" lon="5.7912005964644395"><ele>515.0</ele><time>2026-03-28T13:36:56Z</time></trkpt><trkpt lat="43.41515971394338" lon="5.791114150515483"><ele>515.0</ele><time>2026-03-28T13:36:58Z</time></trkpt><trkpt lat="43.41518894554676" lon="5.790916753129412"><ele>515.0</ele><time>2026-03-28T13:37:00Z</time></trkpt><trkpt lat="43.41520413043577" lon="5.790791420919583"><ele>515.0</ele><time>2026-03-28T13:37:01Z</time></trkpt><trkpt lat="43.415213185953874" lon="5.7906655317718965"><ele>516.0</ele><time>2026-03-28T13:37:02Z</time></trkpt><trkpt lat="43.41522584351025" lon="5.790563116716347"><ele>517.0</ele><time>2026-03-28T13:37:03Z</time></trkpt><trkpt lat="43.415245963923944" lon="5.790460719395929"><ele>518.0</ele><time>2026-03-28T13:37:04Z</time></trkpt><trkpt lat="43.41526827310911" lon="5.790362639538181"><ele>519.0</ele><time>2026-03-28T13:37:05Z</time></trkpt><trkpt lat="43.4152869147686" lon="5.79026058239368"><ele>520.0</ele><time>2026-03-28T13:37:06Z</time></trkpt><trkpt lat="43.415285302628604" lon="5.790106752695321"><ele>521.0</ele><time>2026-03-28T13:37:08Z</time></trkpt><trkpt lat="43.41524889671741" lon="5.790021221317997"><ele>522.6</ele><time>2026-03-28T13:37:09Z</time></trkpt><trkpt lat="43.41521306826304" lon="5.789907409305728"><ele>524.2</ele><time>2026-03-28T13:37:10Z</time></trkpt><trkpt lat="43.41518698811433" lon="5.789762508137704"><ele>525.8</ele><time>2026-03-28T13:37:11Z</time></trkpt><trkpt lat="43.41516291935429" lon="5.789604352118557"><ele>527.4</ele><time>2026-03-28T13:37:12Z</time></trkpt><trkpt lat="43.415135629557696" lon="5.789439445459872"><ele>529.0</ele><time>2026-03-28T13:37:13Z</time></trkpt><trkpt lat="43.41510962092191" lon="5.789315675733651"><ele>530.8333333333334</ele><time>2026-03-28T13:37:14Z</time></trkpt><trkpt lat="43.415090672736355" lon="5.789204068645316"><ele>532.6666666666667</ele><time>2026-03-28T13:37:15Z</time></trkpt><trkpt lat="43.41507475887231" lon="5.789114773663231"><ele>534.5</ele><time>2026-03-28T13:37:16Z</time></trkpt><trkpt lat="43.41504197129057" lon="5.789021317091995"><ele>536.3333333333334</ele><time>2026-03-28T13:37:17Z</time></trkpt><trkpt lat="43.41500808775945" lon="5.788928680560734"><ele>538.1666666666666</ele><time>2026-03-28T13:37:18Z</time></trkpt><trkpt lat="43.4149315976264" lon="5.7888305955617545"><ele>540.0</ele><time>2026-03-28T13:37:20Z</time></trkpt><trkpt lat="43.41486746258218" lon="5.788809642848267"><ele>540.0</ele><time>2026-03-28T13:37:21Z</time></trkpt><trkpt lat="43.414798715555875" lon="5.788771242899117"><ele>540.0</ele><time>2026-03-28T13:37:22Z</time></trkpt><trkpt lat="43.41469980026313" lon="5.788662488526184"><ele>540.0</ele><time>2026-03-28T13:37:24Z</time></trkpt><trkpt lat="43.41465234672934" lon="5.788600460153567"><ele>540.0</ele><time>2026-03-28T13:37:25Z</time></trkpt><trkpt lat="43.414595538766925" lon="5.788448057957154"><ele>540.0</ele><time>2026-03-28T13:37:27Z</time></trkpt><trkpt lat="43.414564576818385" lon="5.788361257178861"><ele>543.1666666666666</ele><time>2026-03-28T13:37:28Z</time></trkpt><trkpt lat="43.41451823816933" lon="5.788291043638387"><ele>546.3333333333334</ele><time>2026-03-28T13:37:29Z</time></trkpt><trkpt lat="43.414461283183435" lon="5.788232728317235"><ele>549.5</ele><time>2026-03-28T13:37:30Z</time></trkpt><trkpt lat="43.41440653955528" lon="5.788173419719854"><ele>552.6666666666667</ele><time>2026-03-28T13:37:31Z</time></trkpt><trkpt lat="43.41434803318024" lon="5.788070496726471"><ele>555.8333333333334</ele><time>2026-03-28T13:37:32Z</time></trkpt><trkpt lat="43.414287777784054" lon="5.7879455111136195"><ele>559.0</ele><time>2026-03-28T13:37:33Z</time></trkpt><trkpt lat="43.414215142071725" lon="5.78786027906374"><ele>559.0</ele><time>2026-03-28T13:37:34Z</time></trkpt><trkpt lat="43.41415226742958" lon="5.787806542101202"><ele>559.0</ele><time>2026-03-28T13:37:35Z</time></trkpt><trkpt lat="43.41407199009738" lon="5.787760813510224"><ele>559.0</ele><time>2026-03-28T13:37:36Z</time></trkpt><trkpt lat="43.413987808657744" lon="5.787713593265383"><ele>559.0</ele><time>2026-03-28T13:37:37Z</time></trkpt><trkpt lat="43.41392230790795" lon="5.7876859176036985"><ele>559.0</ele><time>2026-03-28T13:37:38Z</time></trkpt><trkpt lat="43.4137985955702" lon="5.787694281836873"><ele>559.0</ele><time>2026-03-28T13:37:40Z</time></trkpt><trkpt lat="43.413731277478306" lon="5.787692671247205"><ele>561.0</ele><time>2026-03-28T13:37:41Z</time></trkpt><trkpt lat="43.41364417288478" lon="5.787620573257328"><ele>563.0</ele><time>2026-03-28T13:37:43Z</time></trkpt><trkpt lat="43.41361025726385" lon="5.7874850689176"><ele>565.0</ele><time>2026-03-28T13:37:45Z</time></trkpt><trkpt lat="43.413627557812035" lon="5.787303200842753"><ele>567.0</ele><time>2026-03-28T13:37:47Z</time></trkpt><trkpt lat="43.413621056843304" lon="5.787189738759473"><ele>569.0</ele><time>2026-03-28T13:37:48Z</time></trkpt><trkpt lat="43.413608036854484" lon="5.787074240389315"><ele>569.0</ele><time>2026-03-28T13:37:49Z</time></trkpt><trkpt lat="43.413563550218" lon="5.786925417610909"><ele>569.0</ele><time>2026-03-28T13:37:51Z</time></trkpt><trkpt lat="43.413516017031924" lon="5.786861863714334"><ele>569.0</ele><time>2026-03-28T13:37:52Z</time></trkpt><trkpt lat="43.41349705194245" lon="5.78670494365772"><ele>569.0</ele><time>2026-03-28T13:37:54Z</time></trkpt><trkpt lat="43.41353014031112" lon="5.786590936352873"><ele>569.0</ele><time>2026-03-28T13:37:55Z</time></trkpt><trkpt lat="43.41356748635126" lon="5.78648274813632"><ele>570.8</ele><time>2026-03-28T13:37:56Z</time></trkpt><trkpt lat="43.41360838508625" lon="5.786358423087604"><ele>572.5999999999999</ele><time>2026-03-28T13:37:57Z</time></trkpt><trkpt lat="43.413631350952855" lon="5.7862196601483"><ele>574.4</ele><time>2026-03-28T13:37:58Z</time></trkpt><trkpt lat="43.41365862613805" lon="5.786116705373447"><ele>576.1999999999999</ele><time>2026-03-28T13:37:59Z</time></trkpt><trkpt lat="43.41373010086891" lon="5.785998775150687"><ele>578.0</ele><time>2026-03-28T13:38:01Z</time></trkpt><trkpt lat="43.41372659903268" lon="5.785840051948108"><ele>579.0</ele><time>2026-03-28T13:38:03Z</time></trkpt><trkpt lat="43.41372672458104" lon="5.785750346996252"><ele>580.0</ele><time>2026-03-28T13:38:04Z</time></trkpt><trkpt lat="43.41373509575301" lon="5.7856156031269546"><ele>581.0</ele><time>2026-03-28T13:38:05Z</time></trkpt><trkpt lat="43.41372677967194" lon="5.785492153680319"><ele>582.0</ele><time>2026-03-28T13:38:06Z</time></trkpt><trkpt lat="43.41369442484244" lon="5.785386251079456"><ele>583.0</ele><time>2026-03-28T13:38:07Z</time></trkpt><trkpt lat="43.413647091678975" lon="5.785249342411049"><ele>584.0</ele><time>2026-03-28T13:38:08Z</time></trkpt><trkpt lat="43.41358205286436" lon="5.7850757989124615"><ele>585.6</ele><time>2026-03-28T13:38:09Z</time></trkpt><trkpt lat="43.41351986190379" lon="5.784911517713287"><ele>587.2</ele><time>2026-03-28T13:38:10Z</time></trkpt><trkpt lat="43.413478334844285" lon="5.784779888325217"><ele>588.8000000000001</ele><time>2026-03-28T13:38:11Z</time></trkpt><trkpt lat="43.41343576746132" lon="5.784679821929104"><ele>590.4</ele><time>2026-03-28T13:38:12Z</time></trkpt><trkpt lat="43.413396434037566" lon="5.78459404338834"><ele>592.0</ele><time>2026-03-28T13:38:13Z</time></trkpt><trkpt lat="43.41337083333099" lon="5.784438419867695"><ele>592.0</ele><time>2026-03-28T13:38:15Z</time></trkpt><trkpt lat="43.413335374130696" lon="5.784357057633181"><ele>592.0</ele><time>2026-03-28T13:38:16Z</time></trkpt><trkpt lat="43.41328057537166" lon="5.784256854985703"><ele>592.0</ele><time>2026-03-28T13:38:17Z</time></trkpt><trkpt lat="43.413211187774785" lon="5.7841510768231705"><ele>592.0</ele><time>2026-03-28T13:38:18Z</time></trkpt><trkpt lat="43.413157087102206" lon="5.784062158487354"><ele>592.0</ele><time>2026-03-28T13:38:19Z</time></trkpt><trkpt lat="43.41312960005133" lon="5.783968279765345"><ele>592.0</ele><time>2026-03-28T13:38:20Z</time></trkpt><trkpt lat="43.413111486926375" lon="5.783858783338519"><ele>593.4</ele><time>2026-03-28T13:38:21Z</time></trkpt><trkpt lat="43.413112265425" lon="5.783741388954751"><ele>594.8000000000001</ele><time>2026-03-28T13:38:22Z</time></trkpt><trkpt lat="43.41310292163715" lon="5.783623015715052"><ele>596.2</ele><time>2026-03-28T13:38:23Z</time></trkpt><trkpt lat="43.41307156754896" lon="5.78352423356292"><ele>597.6</ele><time>2026-03-28T13:38:24Z</time></trkpt><trkpt lat="43.41301123113974" lon="5.7834052273897205"><ele>599.0</ele><time>2026-03-28T13:38:25Z</time></trkpt><trkpt lat="43.41296970181053" lon="5.783282740905522"><ele>599.6666666666666</ele><time>2026-03-28T13:38:26Z</time></trkpt><trkpt lat="43.41297017533915" lon="5.783188082527339"><ele>600.3333333333333</ele><time>2026-03-28T13:38:27Z</time></trkpt><trkpt lat="43.41301711172832" lon="5.7830226119088275"><ele>601.0</ele><time>2026-03-28T13:38:29Z</time></trkpt><trkpt lat="43.41303545419769" lon="5.782919432105014"><ele>601.6666666666666</ele><time>2026-03-28T13:38:30Z</time></trkpt><trkpt lat="43.41300554686049" lon="5.782836433212462"><ele>602.3333333333334</ele><time>2026-03-28T13:38:31Z</time></trkpt><trkpt lat="43.41294873464162" lon="5.782760493567684"><ele>603.0</ele><time>2026-03-28T13:38:32Z</time></trkpt><trkpt lat="43.41289166320369" lon="5.782679609997414"><ele>603.8</ele><time>2026-03-28T13:38:33Z</time></trkpt><trkpt lat="43.41288091753578" lon="5.782587202940169"><ele>604.5999999999999</ele><time>2026-03-28T13:38:34Z</time></trkpt><trkpt lat="43.412908684586895" lon="5.782478537998047"><ele>605.4000000000001</ele><time>2026-03-28T13:38:35Z</time></trkpt><trkpt lat="43.412947359699395" lon="5.782359026770801"><ele>606.2</ele><time>2026-03-28T13:38:36Z</time></trkpt><trkpt lat="43.41295908728593" lon="5.782215349288141"><ele>607.0</ele><time>2026-03-28T13:38:37Z</time></trkpt><trkpt lat="43.41295397717957" lon="5.782049197051216"><ele>607.0</ele><time>2026-03-28T13:38:38Z</time></trkpt><trkpt lat="43.41293075257359" lon="5.781913992069976"><ele>607.0</ele><time>2026-03-28T13:38:39Z</time></trkpt><trkpt lat="43.41289312646577" lon="5.781766133128258"><ele>607.0</ele><time>2026-03-28T13:38:40Z</time></trkpt><trkpt lat="43.412853877820204" lon="5.781614805522562"><ele>607.0</ele><time>2026-03-28T13:38:41Z</time></trkpt><trkpt lat="43.41280915990636" lon="5.7814706117553465"><ele>607.0</ele><time>2026-03-28T13:38:41.999Z</time></trkpt><trkpt lat="43.41274360768355" lon="5.781333976214863"><ele>607.0</ele><time>2026-03-28T13:38:43Z</time></trkpt><trkpt lat="43.412656204818205" lon="5.78118656614297"><ele>607.0</ele><time>2026-03-28T13:38:44Z</time></trkpt><trkpt lat="43.41258385016457" lon="5.78106081497931"><ele>607.0</ele><time>2026-03-28T13:38:45Z</time></trkpt><trkpt lat="43.41253476737522" lon="5.780952292858851"><ele>607.0</ele><time>2026-03-28T13:38:46Z</time></trkpt><trkpt lat="43.412510961044056" lon="5.780793952089685"><ele>607.0</ele><time>2026-03-28T13:38:48Z</time></trkpt><trkpt lat="43.41253363049619" lon="5.780703908109822"><ele>607.0</ele><time>2026-03-28T13:38:49Z</time></trkpt><trkpt lat="43.4125723255115" lon="5.780577097588563"><ele>607.0</ele><time>2026-03-28T13:38:50Z</time></trkpt><trkpt lat="43.41261204614197" lon="5.780408782591259"><ele>607.0</ele><time>2026-03-28T13:38:51Z</time></trkpt><trkpt lat="43.412641241824815" lon="5.7802661122581975"><ele>607.0</ele><time>2026-03-28T13:38:52Z</time></trkpt><trkpt lat="43.41267408298083" lon="5.780144381125121"><ele>606.8000000000001</ele><time>2026-03-28T13:38:53Z</time></trkpt><trkpt lat="43.41271375696721" lon="5.780041468443003"><ele>606.6</ele><time>2026-03-28T13:38:54Z</time></trkpt><trkpt lat="43.41276667412166" lon="5.77996186301686"><ele>606.4000000000001</ele><time>2026-03-28T13:38:55Z</time></trkpt><trkpt lat="43.41283607164138" lon="5.77990785313606"><ele>606.2</ele><time>2026-03-28T13:38:56Z</time></trkpt><trkpt lat="43.412936803307986" lon="5.779854108376968"><ele>606.0</ele><time>2026-03-28T13:38:57Z</time></trkpt><trkpt lat="43.4130502434411" lon="5.779783813730037"><ele>605.0</ele><time>2026-03-28T13:38:58Z</time></trkpt><trkpt lat="43.41314503406341" lon="5.779687451907674"><ele>604.0</ele><time>2026-03-28T13:38:59Z</time></trkpt><trkpt lat="43.41322280153676" lon="5.779599994468322"><ele>603.0</ele><time>2026-03-28T13:39:00Z</time></trkpt><trkpt lat="43.413308455975866" lon="5.77950911895797"><ele>602.0</ele><time>2026-03-28T13:39:01Z</time></trkpt><trkpt lat="43.413382465157405" lon="5.779423211633193"><ele>601.0</ele><time>2026-03-28T13:39:02Z</time></trkpt><trkpt lat="43.413450674327976" lon="5.779327143287322"><ele>600.3333333333334</ele><time>2026-03-28T13:39:03Z</time></trkpt><trkpt lat="43.41351432932222" lon="5.779242170515499"><ele>599.6666666666667</ele><time>2026-03-28T13:39:04Z</time></trkpt><trkpt lat="43.41356581050553" lon="5.779169245652981"><ele>599.0</ele><time>2026-03-28T13:39:05Z</time></trkpt><trkpt lat="43.41360187830431" lon="5.7790975577247075"><ele>598.3333333333334</ele><time>2026-03-28T13:39:06Z</time></trkpt><trkpt lat="43.413630275130004" lon="5.778936324807467"><ele>597.6666666666666</ele><time>2026-03-28T13:39:08Z</time></trkpt><trkpt lat="43.41360942249394" lon="5.778832150641136"><ele>597.0</ele><time>2026-03-28T13:39:09Z</time></trkpt><trkpt lat="43.41358526726266" lon="5.778742688541909"><ele>597.0</ele><time>2026-03-28T13:39:10Z</time></trkpt><trkpt lat="43.41354781612516" lon="5.778585335816394"><ele>597.0</ele><time>2026-03-28T13:39:12Z</time></trkpt><trkpt lat="43.41358401434937" lon="5.778497962842685"><ele>597.0</ele><time>2026-03-28T13:39:15Z</time></trkpt><trkpt lat="43.41364548771243" lon="5.778437789884496"><ele>597.0</ele><time>2026-03-28T13:39:17Z</time></trkpt><trkpt lat="43.41376780027262" lon="5.7782861856542755"><ele>597.0</ele><time>2026-03-28T13:39:19Z</time></trkpt><trkpt lat="43.41383654869103" lon="5.778206527619188"><ele>595.6666666666666</ele><time>2026-03-28T13:39:20Z</time></trkpt><trkpt lat="43.41389456683767" lon="5.77816731934268"><ele>594.3333333333334</ele><time>2026-03-28T13:39:21Z</time></trkpt><trkpt lat="43.4139555219167" lon="5.778129304389462"><ele>593.0</ele><time>2026-03-28T13:39:22Z</time></trkpt><trkpt lat="43.414023691712686" lon="5.778106372890519"><ele>591.6666666666667</ele><time>2026-03-28T13:39:23Z</time></trkpt><trkpt lat="43.41411623642675" lon="5.778096417926918"><ele>590.3333333333334</ele><time>2026-03-28T13:39:24Z</time></trkpt><trkpt lat="43.41422750037704" lon="5.778086648386437"><ele>589.0</ele><time>2026-03-28T13:39:25Z</time></trkpt><trkpt lat="43.414347718742725" lon="5.778061068699762"><ele>589.0</ele><time>2026-03-28T13:39:26Z</time></trkpt><trkpt lat="43.414449418822706" lon="5.778046140876132"><ele>589.0</ele><time>2026-03-28T13:39:27Z</time></trkpt><trkpt lat="43.41453678237436" lon="5.778029710186736"><ele>589.0</ele><time>2026-03-28T13:39:28Z</time></trkpt><trkpt lat="43.41462117459561" lon="5.7780139586640304"><ele>589.0</ele><time>2026-03-28T13:39:29Z</time></trkpt><trkpt lat="43.414699765122975" lon="5.777990324205939"><ele>589.0</ele><time>2026-03-28T13:39:30Z</time></trkpt><trkpt lat="43.41474886868569" lon="5.777929463557594"><ele>589.0</ele><time>2026-03-28T13:39:31Z</time></trkpt><trkpt lat="43.414810379969474" lon="5.777851890672022"><ele>588.4</ele><time>2026-03-28T13:39:32Z</time></trkpt><trkpt lat="43.4148223453028" lon="5.777752771792034"><ele>587.8</ele><time>2026-03-28T13:39:33Z</time></trkpt><trkpt lat="43.414793650437524" lon="5.777661313160113"><ele>587.2</ele><time>2026-03-28T13:39:34Z</time></trkpt><trkpt lat="43.41473838949951" lon="5.777578034485583"><ele>586.6</ele><time>2026-03-28T13:39:35Z</time></trkpt><trkpt lat="43.414664950906165" lon="5.777424446697347"><ele>586.0</ele><time>2026-03-28T13:39:36Z</time></trkpt><trkpt lat="43.414594250005784" lon="5.777277037202867"><ele>586.0</ele><time>2026-03-28T13:39:37Z</time></trkpt><trkpt lat="43.414571676193795" lon="5.777165709905771"><ele>586.0</ele><time>2026-03-28T13:39:38Z</time></trkpt><trkpt lat="43.414608961094764" lon="5.777033590285943"><ele>586.0</ele><time>2026-03-28T13:39:40Z</time></trkpt><trkpt lat="43.41466725716121" lon="5.776950674537318"><ele>586.0</ele><time>2026-03-28T13:39:41Z</time></trkpt><trkpt lat="43.4147158324797" lon="5.776826049916773"><ele>586.0</ele><time>2026-03-28T13:39:42Z</time></trkpt><trkpt lat="43.41475915844127" lon="5.776703827607206"><ele>584.6666666666667</ele><time>2026-03-28T13:39:43Z</time></trkpt><trkpt lat="43.414788484956766" lon="5.776596303153904"><ele>583.3333333333334</ele><time>2026-03-28T13:39:44Z</time></trkpt><trkpt lat="43.414807633845584" lon="5.776485584589636"><ele>582.0</ele><time>2026-03-28T13:39:45Z</time></trkpt><trkpt lat="43.414808202587444" lon="5.776383539512872"><ele>580.6666666666666</ele><time>2026-03-28T13:39:46Z</time></trkpt><trkpt lat="43.414793273676416" lon="5.776254721836813"><ele>579.3333333333333</ele><time>2026-03-28T13:39:47Z</time></trkpt><trkpt lat="43.414768742912685" lon="5.776139011868392"><ele>578.0</ele><time>2026-03-28T13:39:48Z</time></trkpt><trkpt lat="43.41474726646397" lon="5.776027932165342"><ele>576.8</ele><time>2026-03-28T13:39:49Z</time></trkpt><trkpt lat="43.414737432724856" lon="5.775909445431795"><ele>575.5999999999999</ele><time>2026-03-28T13:39:50Z</time></trkpt><trkpt lat="43.41473705101571" lon="5.775787486905068"><ele>574.4000000000001</ele><time>2026-03-28T13:39:51Z</time></trkpt><trkpt lat="43.41472958513834" lon="5.775665030568891"><ele>573.2</ele><time>2026-03-28T13:39:52Z</time></trkpt><trkpt lat="43.414717938201846" lon="5.775527146914516"><ele>572.0</ele><time>2026-03-28T13:39:53Z</time></trkpt><trkpt lat="43.41473613301998" lon="5.775351910037859"><ele>570.0</ele><time>2026-03-28T13:39:54Z</time></trkpt><trkpt lat="43.41476167851011" lon="5.775173458137867"><ele>568.0</ele><time>2026-03-28T13:39:55Z</time></trkpt><trkpt lat="43.41478943262337" lon="5.775019697299385"><ele>566.0</ele><time>2026-03-28T13:39:56Z</time></trkpt><trkpt lat="43.41480115468374" lon="5.774875216184548"><ele>564.0</ele><time>2026-03-28T13:39:57Z</time></trkpt><trkpt lat="43.414804891102094" lon="5.77473039638474"><ele>564.0</ele><time>2026-03-28T13:39:58Z</time></trkpt><trkpt lat="43.414801023585724" lon="5.774584894554652"><ele>564.0</ele><time>2026-03-28T13:39:59Z</time></trkpt><trkpt lat="43.414794193141226" lon="5.774425921180438"><ele>564.0</ele><time>2026-03-28T13:40:00Z</time></trkpt><trkpt lat="43.41479063310588" lon="5.7742801176626415"><ele>564.0</ele><time>2026-03-28T13:40:01Z</time></trkpt><trkpt lat="43.414805390933864" lon="5.7741443251613696"><ele>564.0</ele><time>2026-03-28T13:40:02Z</time></trkpt><trkpt lat="43.41480822458198" lon="5.77400951087714"><ele>562.75</ele><time>2026-03-28T13:40:03Z</time></trkpt><trkpt lat="43.41479830577365" lon="5.7738858066898455"><ele>561.5</ele><time>2026-03-28T13:40:04Z</time></trkpt><trkpt lat="43.414764228719285" lon="5.7737737330116365"><ele>560.25</ele><time>2026-03-28T13:40:05Z</time></trkpt><trkpt lat="43.41469924613074" lon="5.773614966673468"><ele>559.0</ele><time>2026-03-28T13:40:06Z</time></trkpt><trkpt lat="43.41462427170887" lon="5.773401457165345"><ele>559.6</ele><time>2026-03-28T13:40:07Z</time></trkpt><trkpt lat="43.414581025385154" lon="5.773230376945324"><ele>560.2</ele><time>2026-03-28T13:40:08Z</time></trkpt><trkpt lat="43.41454496238218" lon="5.773113551266307"><ele>560.8000000000001</ele><time>2026-03-28T13:40:09Z</time></trkpt><trkpt lat="43.41451273343005" lon="5.772983940449312"><ele>561.4</ele><time>2026-03-28T13:40:10Z</time></trkpt><trkpt lat="43.41446320599206" lon="5.772827147392462"><ele>562.0</ele><time>2026-03-28T13:40:11Z</time></trkpt><trkpt lat="43.41439448367158" lon="5.7726311272939865"><ele>562.0</ele><time>2026-03-28T13:40:12Z</time></trkpt><trkpt lat="43.4143420505722" lon="5.772436003724111"><ele>562.0</ele><time>2026-03-28T13:40:13Z</time></trkpt><trkpt lat="43.414308839868774" lon="5.772278300222119"><ele>562.0</ele><time>2026-03-28T13:40:14Z</time></trkpt><trkpt lat="43.414279352690805" lon="5.772115697400422"><ele>562.0</ele><time>2026-03-28T13:40:15Z</time></trkpt><trkpt lat="43.41425264881997" lon="5.77198408876784"><ele>560.8000000000001</ele><time>2026-03-28T13:40:16Z</time></trkpt><trkpt lat="43.41421729608413" lon="5.771841857324666"><ele>559.6</ele><time>2026-03-28T13:40:17Z</time></trkpt><trkpt lat="43.41416116726225" lon="5.771692944101901"><ele>558.4000000000001</ele><time>2026-03-28T13:40:18Z</time></trkpt><trkpt lat="43.41411807348597" lon="5.771553601819788"><ele>557.2</ele><time>2026-03-28T13:40:19Z</time></trkpt><trkpt lat="43.41408614895647" lon="5.771427254993137"><ele>556.0</ele><time>2026-03-28T13:40:20Z</time></trkpt><trkpt lat="43.41405851960264" lon="5.771316534487687"><ele>556.0</ele><time>2026-03-28T13:40:21Z</time></trkpt><trkpt lat="43.41405138180139" lon="5.771203970652456"><ele>556.0</ele><time>2026-03-28T13:40:22Z</time></trkpt><trkpt lat="43.41406380269673" lon="5.7710873599491705"><ele>556.0</ele><time>2026-03-28T13:40:23Z</time></trkpt><trkpt lat="43.41409798581977" lon="5.7709656562717795"><ele>556.0</ele><time>2026-03-28T13:40:24Z</time></trkpt><trkpt lat="43.41414223737485" lon="5.770842004409206"><ele>556.0</ele><time>2026-03-28T13:40:25Z</time></trkpt><trkpt lat="43.414195608203485" lon="5.770702846403523"><ele>555.2</ele><time>2026-03-28T13:40:26Z</time></trkpt><trkpt lat="43.414250739306915" lon="5.770569455813029"><ele>554.4000000000001</ele><time>2026-03-28T13:40:27Z</time></trkpt><trkpt lat="43.41431383812456" lon="5.770452621342968"><ele>553.6</ele><time>2026-03-28T13:40:28Z</time></trkpt><trkpt lat="43.41437536076309" lon="5.770341926350509"><ele>552.8000000000001</ele><time>2026-03-28T13:40:29Z</time></trkpt><trkpt lat="43.41444034158619" lon="5.770232971045161"><ele>552.0</ele><time>2026-03-28T13:40:30Z</time></trkpt><trkpt lat="43.41452189455814" lon="5.770106577052236"><ele>551.0</ele><time>2026-03-28T13:40:31Z</time></trkpt><trkpt lat="43.41460027402416" lon="5.769975466737095"><ele>550.0</ele><time>2026-03-28T13:40:32Z</time></trkpt><trkpt lat="43.41468481217853" lon="5.7698652030873205"><ele>549.0</ele><time>2026-03-28T13:40:33Z</time></trkpt><trkpt lat="43.414776605959396" lon="5.769755983260539"><ele>548.0</ele><time>2026-03-28T13:40:34Z</time></trkpt><trkpt lat="43.41484994492921" lon="5.769634873229343"><ele>547.1999999999999</ele><time>2026-03-28T13:40:35Z</time></trkpt><trkpt lat="43.41491108458067" lon="5.769521729116236"><ele>546.4</ele><time>2026-03-28T13:40:36Z</time></trkpt><trkpt lat="43.414973356487835" lon="5.769414322245125"><ele>545.5999999999999</ele><time>2026-03-28T13:40:37Z</time></trkpt><trkpt lat="43.41503899895868" lon="5.769311256295442"><ele>544.8</ele><time>2026-03-28T13:40:38Z</time></trkpt><trkpt lat="43.415099869550524" lon="5.7692133617504195"><ele>544.0</ele><time>2026-03-28T13:40:39Z</time></trkpt><trkpt lat="43.41516784995338" lon="5.769121431952386"><ele>543.0</ele><time>2026-03-28T13:40:40Z</time></trkpt><trkpt lat="43.41523645907638" lon="5.769026291828643"><ele>542.0</ele><time>2026-03-28T13:40:40.999Z</time></trkpt><trkpt lat="43.415303567670605" lon="5.768924935106594"><ele>541.0</ele><time>2026-03-28T13:40:41.999Z</time></trkpt><trkpt lat="43.41537856934189" lon="5.768825260429752"><ele>540.0</ele><time>2026-03-28T13:40:42.999Z</time></trkpt><trkpt lat="43.415471849596386" lon="5.768721803575617"><ele>539.0</ele><time>2026-03-28T13:40:43.999Z</time></trkpt><trkpt lat="43.41556925678446" lon="5.768617231234572"><ele>536.75</ele><time>2026-03-28T13:40:44.999Z</time></trkpt><trkpt lat="43.41565208397534" lon="5.768514947749475"><ele>534.5</ele><time>2026-03-28T13:40:45.999Z</time></trkpt><trkpt lat="43.41573305534843" lon="5.768411347186658"><ele>532.25</ele><time>2026-03-28T13:40:46.999Z</time></trkpt><trkpt lat="43.41581326923469" lon="5.768307878121818"><ele>530.0</ele><time>2026-03-28T13:40:47.999Z</time></trkpt><trkpt lat="43.415918093996254" lon="5.768174266256599"><ele>530.0</ele><time>2026-03-28T13:40:49Z</time></trkpt><trkpt lat="43.4160054448546" lon="5.768044911241689"><ele>530.0</ele><time>2026-03-28T13:40:50Z</time></trkpt><trkpt lat="43.41608543589977" lon="5.767922434633202"><ele>530.0</ele><time>2026-03-28T13:40:51Z</time></trkpt><trkpt lat="43.41617242868787" lon="5.767817738492"><ele>530.0</ele><time>2026-03-28T13:40:52Z</time></trkpt><trkpt lat="43.41625227101802" lon="5.7677254863126315"><ele>528.0</ele><time>2026-03-28T13:40:53Z</time></trkpt><trkpt lat="43.4163539357075" lon="5.767644098268342"><ele>526.0</ele><time>2026-03-28T13:40:54Z</time></trkpt><trkpt lat="43.416472835075204" lon="5.767583835310019"><ele>524.0</ele><time>2026-03-28T13:40:55Z</time></trkpt><trkpt lat="43.4165742554686" lon="5.767512201712372"><ele>522.0</ele><time>2026-03-28T13:40:56Z</time></trkpt><trkpt lat="43.41667149701851" lon="5.767440888574245"><ele>522.0</ele><time>2026-03-28T13:40:57Z</time></trkpt><trkpt lat="43.41677275957297" lon="5.76738665313625"><ele>522.0</ele><time>2026-03-28T13:40:58Z</time></trkpt><trkpt lat="43.416888778430135" lon="5.767327755312137"><ele>522.0</ele><time>2026-03-28T13:40:59Z</time></trkpt><trkpt lat="43.41700238746231" lon="5.767261084402264"><ele>522.0</ele><time>2026-03-28T13:41:00Z</time></trkpt><trkpt lat="43.41709779970271" lon="5.767191587202975"><ele>520.4</ele><time>2026-03-28T13:41:01Z</time></trkpt><trkpt lat="43.41719475931659" lon="5.7671334459661425"><ele>518.8000000000001</ele><time>2026-03-28T13:41:02Z</time></trkpt><trkpt lat="43.41729528816566" lon="5.767077629263222"><ele>517.2</ele><time>2026-03-28T13:41:03Z</time></trkpt><trkpt lat="43.417401199713105" lon="5.767025586846805"><ele>515.6</ele><time>2026-03-28T13:41:04Z</time></trkpt><trkpt lat="43.41750245247646" lon="5.766983328859888"><ele>514.0</ele><time>2026-03-28T13:41:05Z</time></trkpt><trkpt lat="43.41760240407185" lon="5.766934744177028"><ele>514.0</ele><time>2026-03-28T13:41:06Z</time></trkpt><trkpt lat="43.41768682695881" lon="5.766885261622605"><ele>514.0</ele><time>2026-03-28T13:41:07Z</time></trkpt><trkpt lat="43.417749431567024" lon="5.766831081030177"><ele>514.0</ele><time>2026-03-28T13:41:08Z</time></trkpt><trkpt lat="43.41780488768511" lon="5.7667550380084505"><ele>514.0</ele><time>2026-03-28T13:41:09Z</time></trkpt><trkpt lat="43.41787319444949" lon="5.766697600494329"><ele>514.0</ele><time>2026-03-28T13:41:10Z</time></trkpt><trkpt lat="43.41795542233336" lon="5.766681211384285"><ele>514.0</ele><time>2026-03-28T13:41:11Z</time></trkpt><trkpt lat="43.418022005368826" lon="5.766680390353497"><ele>513.6</ele><time>2026-03-28T13:41:12Z</time></trkpt><trkpt lat="43.41806829158946" lon="5.766618106912825"><ele>513.2</ele><time>2026-03-28T13:41:13Z</time></trkpt><trkpt lat="43.41809630302008" lon="5.766507628729707"><ele>512.8000000000001</ele><time>2026-03-28T13:41:14Z</time></trkpt><trkpt lat="43.41811607281428" lon="5.766383998195554"><ele>512.4</ele><time>2026-03-28T13:41:15Z</time></trkpt><trkpt lat="43.418140625336704" lon="5.766232288003509"><ele>512.0</ele><time>2026-03-28T13:41:16Z</time></trkpt><trkpt lat="43.418200083942516" lon="5.766062734199597"><ele>511.40000000000003</ele><time>2026-03-28T13:41:17Z</time></trkpt><trkpt lat="43.41824836185375" lon="5.765922633395938"><ele>510.80000000000007</ele><time>2026-03-28T13:41:18Z</time></trkpt><trkpt lat="43.41828022958976" lon="5.765804825407947"><ele>510.2</ele><time>2026-03-28T13:41:19Z</time></trkpt><trkpt lat="43.41831012559682" lon="5.765721998007974"><ele>509.6</ele><time>2026-03-28T13:41:20Z</time></trkpt><trkpt lat="43.41835464860188" lon="5.765653129959648"><ele>509.0</ele><time>2026-03-28T13:41:21Z</time></trkpt><trkpt lat="43.4184037445793" lon="5.765482958689012"><ele>509.0</ele><time>2026-03-28T13:41:23Z</time></trkpt><trkpt lat="43.418441652734906" lon="5.765364402808473"><ele>509.0</ele><time>2026-03-28T13:41:24Z</time></trkpt><trkpt lat="43.4184922879456" lon="5.765218157488563"><ele>509.0</ele><time>2026-03-28T13:41:25Z</time></trkpt><trkpt lat="43.41855923543092" lon="5.7650318759119115"><ele>509.0</ele><time>2026-03-28T13:41:26Z</time></trkpt><trkpt lat="43.418652008798674" lon="5.7648215207765405"><ele>508.5</ele><time>2026-03-28T13:41:27Z</time></trkpt><trkpt lat="43.418737704755856" lon="5.7646474436053134"><ele>508.0</ele><time>2026-03-28T13:41:28Z</time></trkpt><trkpt lat="43.41880954019295" lon="5.764499628253208"><ele>507.5</ele><time>2026-03-28T13:41:29Z</time></trkpt><trkpt lat="43.41886771987341" lon="5.764378745166262"><ele>507.0</ele><time>2026-03-28T13:41:30Z</time></trkpt><trkpt lat="43.41891917821024" lon="5.764266586004497"><ele>506.5</ele><time>2026-03-28T13:41:31Z</time></trkpt><trkpt lat="43.41895858931053" lon="5.764126068297583"><ele>506.0</ele><time>2026-03-28T13:41:32Z</time></trkpt><trkpt lat="43.41900524992921" lon="5.763947047738885"><ele>505.5</ele><time>2026-03-28T13:41:33Z</time></trkpt><trkpt lat="43.41905487929367" lon="5.76374178810181"><ele>505.0</ele><time>2026-03-28T13:41:34Z</time></trkpt><trkpt lat="43.4190959968629" lon="5.763567392001235"><ele>504.33333333333337</ele><time>2026-03-28T13:41:35Z</time></trkpt><trkpt lat="43.419125770991336" lon="5.763419191378799"><ele>503.6666666666667</ele><time>2026-03-28T13:41:36Z</time></trkpt><trkpt lat="43.41914875328511" lon="5.763291237175935"><ele>503.0</ele><time>2026-03-28T13:41:37Z</time></trkpt><trkpt lat="43.41915240506403" lon="5.763176623029612"><ele>502.33333333333337</ele><time>2026-03-28T13:41:38Z</time></trkpt><trkpt lat="43.41912927452945" lon="5.763070413722672"><ele>501.6666666666667</ele><time>2026-03-28T13:41:39Z</time></trkpt><trkpt lat="43.41907910898005" lon="5.7629921186414315"><ele>501.0</ele><time>2026-03-28T13:41:40Z</time></trkpt><trkpt lat="43.41902918663227" lon="5.762925739725689"><ele>501.0</ele><time>2026-03-28T13:41:41Z</time></trkpt><trkpt lat="43.418971996178925" lon="5.762792302559296"><ele>501.0</ele><time>2026-03-28T13:41:43Z</time></trkpt><trkpt lat="43.41888687005453" lon="5.7627069052246105"><ele>501.0</ele><time>2026-03-28T13:41:45Z</time></trkpt><trkpt lat="43.418806085359606" lon="5.762678833748789"><ele>501.0</ele><time>2026-03-28T13:41:46Z</time></trkpt><trkpt lat="43.41868486916194" lon="5.76261366244403"><ele>501.0</ele><time>2026-03-28T13:41:47Z</time></trkpt><trkpt lat="43.41855776891618" lon="5.762532006753949"><ele>500.75</ele><time>2026-03-28T13:41:48Z</time></trkpt><trkpt lat="43.41844789400447" lon="5.762455562293206"><ele>500.5</ele><time>2026-03-28T13:41:49Z</time></trkpt><trkpt lat="43.41834636059106" lon="5.762361915564804"><ele>500.25</ele><time>2026-03-28T13:41:50Z</time></trkpt><trkpt lat="43.418221988435974" lon="5.762223989915521"><ele>500.0</ele><time>2026-03-28T13:41:51Z</time></trkpt><trkpt lat="43.4180865596993" lon="5.76208883080951"><ele>501.0</ele><time>2026-03-28T13:41:52Z</time></trkpt><trkpt lat="43.41795981118257" lon="5.761997507218463"><ele>502.0</ele><time>2026-03-28T13:41:53Z</time></trkpt><trkpt lat="43.41785592273413" lon="5.761911719813611"><ele>503.0</ele><time>2026-03-28T13:41:54Z</time></trkpt><trkpt lat="43.41777947627736" lon="5.761840874401009"><ele>504.0</ele><time>2026-03-28T13:41:55Z</time></trkpt><trkpt lat="43.417728807500666" lon="5.761787433539666"><ele>505.0</ele><time>2026-03-28T13:41:56Z</time></trkpt><trkpt lat="43.41772682093739" lon="5.761648740118701"><ele>505.00000000000006</ele><time>2026-03-28T13:41:58Z</time></trkpt><trkpt lat="43.4177499286351" lon="5.761564665406613"><ele>505.0</ele><time>2026-03-28T13:41:59Z</time></trkpt><trkpt lat="43.417784125430465" lon="5.761470530604844"><ele>505.0</ele><time>2026-03-28T13:42:00Z</time></trkpt><trkpt lat="43.41782978512659" lon="5.761329360511611"><ele>505.0</ele><time>2026-03-28T13:42:01Z</time></trkpt><trkpt lat="43.41783958547963" lon="5.761194753108046"><ele>505.00000000000006</ele><time>2026-03-28T13:42:02Z</time></trkpt><trkpt lat="43.4178160247182" lon="5.761088431063875"><ele>505.0</ele><time>2026-03-28T13:42:03Z</time></trkpt><trkpt lat="43.41778826245592" lon="5.7609983101702875"><ele>505.00000000000006</ele><time>2026-03-28T13:42:04Z</time></trkpt><trkpt lat="43.41776606920949" lon="5.760915792375627"><ele>505.0</ele><time>2026-03-28T13:42:05Z</time></trkpt><trkpt lat="43.417745254065935" lon="5.76075486352404"><ele>505.0</ele><time>2026-03-28T13:42:07Z</time></trkpt><trkpt lat="43.41775888706357" lon="5.760668388282286"><ele>505.0</ele><time>2026-03-28T13:42:08Z</time></trkpt><trkpt lat="43.41777146689168" lon="5.76055798445492"><ele>505.00000000000006</ele><time>2026-03-28T13:42:09Z</time></trkpt><trkpt lat="43.41777366033894" lon="5.760447365667219"><ele>505.0</ele><time>2026-03-28T13:42:10Z</time></trkpt><trkpt lat="43.41776599191297" lon="5.76035282548732"><ele>505.0</ele><time>2026-03-28T13:42:11Z</time></trkpt><trkpt lat="43.41781868574712" lon="5.760201009019143"><ele>505.0</ele><time>2026-03-28T13:42:13Z</time></trkpt><trkpt lat="43.41789270321887" lon="5.760127906812938"><ele>505.0</ele><time>2026-03-28T13:42:14Z</time></trkpt><trkpt lat="43.41792485144584" lon="5.760047797416095"><ele>505.0</ele><time>2026-03-28T13:42:15Z</time></trkpt><trkpt lat="43.41794665144993" lon="5.759965137611256"><ele>505.0</ele><time>2026-03-28T13:42:16Z</time></trkpt><trkpt lat="43.417987008687426" lon="5.7598291186702735"><ele>504.0</ele><time>2026-03-28T13:42:18Z</time></trkpt><trkpt lat="43.41810648507929" lon="5.759786473195913"><ele>503.0</ele><time>2026-03-28T13:42:20Z</time></trkpt><trkpt lat="43.418215396430234" lon="5.7597527445596075"><ele>502.0</ele><time>2026-03-28T13:42:22Z</time></trkpt><trkpt lat="43.418300952161225" lon="5.759734076917711"><ele>501.0</ele><time>2026-03-28T13:42:25Z</time></trkpt><trkpt lat="43.41836507870494" lon="5.759704975606106"><ele>500.0</ele><time>2026-03-28T13:42:26Z</time></trkpt><trkpt lat="43.418463808138426" lon="5.759685796016286"><ele>499.99999999999994</ele><time>2026-03-28T13:42:27Z</time></trkpt><trkpt lat="43.418571660150725" lon="5.759666880488147"><ele>500.0</ele><time>2026-03-28T13:42:28Z</time></trkpt><trkpt lat="43.41864859750605" lon="5.75964599248381"><ele>500.0</ele><time>2026-03-28T13:42:29Z</time></trkpt><trkpt lat="43.41870616730208" lon="5.759601939713226"><ele>500.0</ele><time>2026-03-28T13:42:30Z</time></trkpt><trkpt lat="43.41875557126267" lon="5.759543825814474"><ele>499.99999999999994</ele><time>2026-03-28T13:42:31Z</time></trkpt><trkpt lat="43.41879876177057" lon="5.759472494248538"><ele>500.0</ele><time>2026-03-28T13:42:32Z</time></trkpt><trkpt lat="43.4188520941478" lon="5.759403146124757"><ele>498.8</ele><time>2026-03-28T13:42:33Z</time></trkpt><trkpt lat="43.41891215445151" lon="5.759326367270411"><ele>497.6</ele><time>2026-03-28T13:42:34Z</time></trkpt><trkpt lat="43.41897478474022" lon="5.759211718662501"><ele>496.4</ele><time>2026-03-28T13:42:35Z</time></trkpt><trkpt lat="43.41902768072802" lon="5.759052552607568"><ele>495.2</ele><time>2026-03-28T13:42:36Z</time></trkpt><trkpt lat="43.419079955970496" lon="5.758930373133668"><ele>494.0</ele><time>2026-03-28T13:42:37Z</time></trkpt><trkpt lat="43.41913011651045" lon="5.758838403942928"><ele>494.0</ele><time>2026-03-28T13:42:38Z</time></trkpt><trkpt lat="43.41917969578809" lon="5.758744612317898"><ele>494.0</ele><time>2026-03-28T13:42:38.999Z</time></trkpt><trkpt lat="43.41923574966728" lon="5.758634180186861"><ele>494.0</ele><time>2026-03-28T13:42:39.999Z</time></trkpt><trkpt lat="43.41929742904868" lon="5.758499386416545"><ele>494.0</ele><time>2026-03-28T13:42:40.999Z</time></trkpt><trkpt lat="43.419349114401854" lon="5.758371600588764"><ele>494.0</ele><time>2026-03-28T13:42:41.999Z</time></trkpt><trkpt lat="43.41939014418568" lon="5.758271590599968"><ele>493.99999999999994</ele><time>2026-03-28T13:42:42.999Z</time></trkpt><trkpt lat="43.41942386999199" lon="5.758190777770855"><ele>494.0</ele><time>2026-03-28T13:42:43.999Z</time></trkpt><trkpt lat="43.419448244453854" lon="5.758076909096146"><ele>494.0</ele><time>2026-03-28T13:42:48.999Z</time></trkpt><trkpt lat="43.419536988563834" lon="5.7579825627783245"><ele>494.0</ele><time>2026-03-28T13:42:50.999Z</time></trkpt><trkpt lat="43.41956739856229" lon="5.757875452481879"><ele>493.99999999999994</ele><time>2026-03-28T13:42:52.999Z</time></trkpt><trkpt lat="43.41955672356567" lon="5.757772202465172"><ele>494.0</ele><time>2026-03-28T13:42:53.999Z</time></trkpt><trkpt lat="43.41954653550801" lon="5.757637518746913"><ele>494.2</ele><time>2026-03-28T13:42:55Z</time></trkpt><trkpt lat="43.41954269269927" lon="5.757491493205246"><ele>494.4</ele><time>2026-03-28T13:42:56Z</time></trkpt><trkpt lat="43.419534393432905" lon="5.75735628414267"><ele>494.6</ele><time>2026-03-28T13:42:57Z</time></trkpt><trkpt lat="43.41952527221414" lon="5.757225357280204"><ele>494.8</ele><time>2026-03-28T13:42:58Z</time></trkpt><trkpt lat="43.419522365298135" lon="5.7571233667539525"><ele>495.0</ele><time>2026-03-28T13:42:59Z</time></trkpt><trkpt lat="43.41955267586453" lon="5.757022808140357"><ele>495.0</ele><time>2026-03-28T13:43:02Z</time></trkpt><trkpt lat="43.41964693887841" lon="5.756957538367308"><ele>495.0</ele><time>2026-03-28T13:43:05Z</time></trkpt><trkpt lat="43.4197268414935" lon="5.756849575287522"><ele>495.0</ele><time>2026-03-28T13:43:07Z</time></trkpt><trkpt lat="43.41980643829361" lon="5.756791107421867"><ele>495.0</ele><time>2026-03-28T13:43:08Z</time></trkpt><trkpt lat="43.419900748769706" lon="5.756780175510675"><ele>495.0</ele><time>2026-03-28T13:43:10Z</time></trkpt><trkpt lat="43.419929489842715" lon="5.756694081301221"><ele>494.25</ele><time>2026-03-28T13:43:13Z</time></trkpt><trkpt lat="43.42009637724389" lon="5.756514146232628"><ele>493.5</ele><time>2026-03-28T13:43:15Z</time></trkpt><trkpt lat="43.4201718114025" lon="5.756474410477629"><ele>492.75</ele><time>2026-03-28T13:43:16Z</time></trkpt><trkpt lat="43.4202679993617" lon="5.756460249461004"><ele>492.0</ele><time>2026-03-28T13:43:17Z</time></trkpt><trkpt lat="43.42035332622689" lon="5.756461775233318"><ele>492.0</ele><time>2026-03-28T13:43:18Z</time></trkpt><trkpt lat="43.420425789564696" lon="5.756491481173212"><ele>492.00000000000006</ele><time>2026-03-28T13:43:19Z</time></trkpt><trkpt lat="43.420485007606466" lon="5.756621956520866"><ele>492.00000000000006</ele><time>2026-03-28T13:43:21Z</time></trkpt><trkpt lat="43.420486023311895" lon="5.756736729571216"><ele>492.0</ele><time>2026-03-28T13:43:22Z</time></trkpt><trkpt lat="43.42052079295064" lon="5.75684246529615"><ele>492.0</ele><time>2026-03-28T13:43:23Z</time></trkpt><trkpt lat="43.42058169579652" lon="5.756976563461157"><ele>493.40000000000003</ele><time>2026-03-28T13:43:24Z</time></trkpt><trkpt lat="43.42063609394291" lon="5.757120880604528"><ele>494.80000000000007</ele><time>2026-03-28T13:43:25Z</time></trkpt><trkpt lat="43.420703915620656" lon="5.757278990932357"><ele>496.2</ele><time>2026-03-28T13:43:26Z</time></trkpt><trkpt lat="43.42075333745517" lon="5.757424233535341"><ele>497.6</ele><time>2026-03-28T13:43:27Z</time></trkpt><trkpt lat="43.420784674681244" lon="5.757526511552095"><ele>499.0</ele><time>2026-03-28T13:43:28Z</time></trkpt><trkpt lat="43.42082489853304" lon="5.757645432821245"><ele>498.79999999999995</ele><time>2026-03-28T13:43:29Z</time></trkpt><trkpt lat="43.420853350074616" lon="5.757759761691567"><ele>498.59999999999997</ele><time>2026-03-28T13:43:30Z</time></trkpt><trkpt lat="43.42090680907107" lon="5.7578604253694134"><ele>498.4</ele><time>2026-03-28T13:43:31Z</time></trkpt><trkpt lat="43.42096317021547" lon="5.757972911000862"><ele>498.2</ele><time>2026-03-28T13:43:32Z</time></trkpt><trkpt lat="43.42103117474249" lon="5.758076727076374"><ele>498.0</ele><time>2026-03-28T13:43:33Z</time></trkpt><trkpt lat="43.42110351948735" lon="5.758164098605907"><ele>498.0</ele><time>2026-03-28T13:43:35Z</time></trkpt><trkpt lat="43.421167626663994" lon="5.758277189426483"><ele>497.99999999999994</ele><time>2026-03-28T13:43:37Z</time></trkpt><trkpt lat="43.42122671633863" lon="5.758363359118559"><ele>497.99999999999994</ele><time>2026-03-28T13:43:38Z</time></trkpt><trkpt lat="43.42130659296321" lon="5.75850165883382"><ele>498.0</ele><time>2026-03-28T13:43:39Z</time></trkpt><trkpt lat="43.42135908383766" lon="5.758664640432111"><ele>498.0</ele><time>2026-03-28T13:43:40Z</time></trkpt><trkpt lat="43.421392990673404" lon="5.7587972797947815"><ele>499.4</ele><time>2026-03-28T13:43:41Z</time></trkpt><trkpt lat="43.421419975376814" lon="5.758915380781282"><ele>500.79999999999995</ele><time>2026-03-28T13:43:42Z</time></trkpt><trkpt lat="43.42144518108217" lon="5.759021049631766"><ele>502.2</ele><time>2026-03-28T13:43:43Z</time></trkpt><trkpt lat="43.421478170701626" lon="5.759145144769878"><ele>503.6</ele><time>2026-03-28T13:43:44Z</time></trkpt><trkpt lat="43.42151826321864" lon="5.759270273514484"><ele>505.0</ele><time>2026-03-28T13:43:45Z</time></trkpt><trkpt lat="43.42156037347447" lon="5.759402676742588"><ele>505.33333333333337</ele><time>2026-03-28T13:43:46Z</time></trkpt><trkpt lat="43.42160675119865" lon="5.759506529205369"><ele>505.6666666666667</ele><time>2026-03-28T13:43:47Z</time></trkpt><trkpt lat="43.421649859549944" lon="5.759619086078473"><ele>506.0</ele><time>2026-03-28T13:43:48Z</time></trkpt><trkpt lat="43.42168456806639" lon="5.759738335935865"><ele>506.33333333333337</ele><time>2026-03-28T13:43:49Z</time></trkpt><trkpt lat="43.421717570856316" lon="5.759854683486453"><ele>506.6666666666667</ele><time>2026-03-28T13:43:50Z</time></trkpt><trkpt lat="43.4217576084258" lon="5.759945023696292"><ele>507.0</ele><time>2026-03-28T13:43:51Z</time></trkpt><trkpt lat="43.421806370364436" lon="5.760067475025396"><ele>507.0</ele><time>2026-03-28T13:43:52Z</time></trkpt><trkpt lat="43.421848074126274" lon="5.760196261906113"><ele>507.00000000000006</ele><time>2026-03-28T13:43:53Z</time></trkpt><trkpt lat="43.42189776367725" lon="5.7603014002147646"><ele>507.00000000000006</ele><time>2026-03-28T13:43:54Z</time></trkpt><trkpt lat="43.421964536241816" lon="5.760400545207296"><ele>507.0</ele><time>2026-03-28T13:43:55Z</time></trkpt><trkpt lat="43.42204139049081" lon="5.760517508604644"><ele>507.0</ele><time>2026-03-28T13:43:56Z</time></trkpt><trkpt lat="43.42210871105028" lon="5.760620055329907"><ele>508.40000000000003</ele><time>2026-03-28T13:43:57Z</time></trkpt><trkpt lat="43.422160069993694" lon="5.760731975059932"><ele>509.80000000000007</ele><time>2026-03-28T13:43:58Z</time></trkpt><trkpt lat="43.42220780869087" lon="5.760863428546309"><ele>511.2</ele><time>2026-03-28T13:43:59Z</time></trkpt><trkpt lat="43.42224730704929" lon="5.760975619458209"><ele>512.6</ele><time>2026-03-28T13:44:00Z</time></trkpt><trkpt lat="43.422300268503804" lon="5.761066581539166"><ele>514.0</ele><time>2026-03-28T13:44:01Z</time></trkpt><trkpt lat="43.42236928702567" lon="5.761123956024791"><ele>514.6</ele><time>2026-03-28T13:44:02Z</time></trkpt><trkpt lat="43.42244510042852" lon="5.761182786777718"><ele>515.2</ele><time>2026-03-28T13:44:03Z</time></trkpt><trkpt lat="43.42252672608141" lon="5.761271952728229"><ele>515.8000000000001</ele><time>2026-03-28T13:44:04Z</time></trkpt><trkpt lat="43.42260371366751" lon="5.7613687024964255"><ele>516.4</ele><time>2026-03-28T13:44:05Z</time></trkpt><trkpt lat="43.42267766967945" lon="5.761453583927421"><ele>517.0</ele><time>2026-03-28T13:44:06Z</time></trkpt><trkpt lat="43.422741369602946" lon="5.7615338717270586"><ele>517.0</ele><time>2026-03-28T13:44:07Z</time></trkpt><trkpt lat="43.42279822108088" lon="5.761625195211557"><ele>517.0</ele><time>2026-03-28T13:44:08Z</time></trkpt><trkpt lat="43.42284726860251" lon="5.76175558679139"><ele>517.0</ele><time>2026-03-28T13:44:09Z</time></trkpt><trkpt lat="43.42290361989459" lon="5.761893847623668"><ele>517.0</ele><time>2026-03-28T13:44:10Z</time></trkpt><trkpt lat="43.42294597346696" lon="5.7620149424599045"><ele>517.0</ele><time>2026-03-28T13:44:11Z</time></trkpt><trkpt lat="43.42297810341773" lon="5.76212457999022"><ele>518.1666666666667</ele><time>2026-03-28T13:44:12Z</time></trkpt><trkpt lat="43.42301257588907" lon="5.762216785557177"><ele>519.3333333333334</ele><time>2026-03-28T13:44:13Z</time></trkpt><trkpt lat="43.423054181054184" lon="5.762295045010911"><ele>520.5</ele><time>2026-03-28T13:44:14Z</time></trkpt><trkpt lat="43.423105757085345" lon="5.762362595879031"><ele>521.6666666666666</ele><time>2026-03-28T13:44:15Z</time></trkpt><trkpt lat="43.42318105549501" lon="5.7624165906181295"><ele>522.8333333333333</ele><time>2026-03-28T13:44:16Z</time></trkpt><trkpt lat="43.42327669705988" lon="5.762471370539768"><ele>524.0</ele><time>2026-03-28T13:44:17Z</time></trkpt><trkpt lat="43.42337212195821" lon="5.76254434961343"><ele>524.0</ele><time>2026-03-28T13:44:18Z</time></trkpt><trkpt lat="43.42347244338658" lon="5.762622782467932"><ele>524.0</ele><time>2026-03-28T13:44:19Z</time></trkpt><trkpt lat="43.42355998811999" lon="5.762673935282947"><ele>524.0</ele><time>2026-03-28T13:44:20Z</time></trkpt><trkpt lat="43.4236426673928" lon="5.7627173585750135"><ele>524.0</ele><time>2026-03-28T13:44:21Z</time></trkpt><trkpt lat="43.423716809657094" lon="5.762770552999123"><ele>524.0</ele><time>2026-03-28T13:44:22Z</time></trkpt><trkpt lat="43.42376995119069" lon="5.762825944589705"><ele>524.0</ele><time>2026-03-28T13:44:23Z</time></trkpt><trkpt lat="43.42390818601244" lon="5.762855158205606"><ele>525.4</ele><time>2026-03-28T13:44:25Z</time></trkpt><trkpt lat="43.424002154460815" lon="5.762857418351063"><ele>526.8</ele><time>2026-03-28T13:44:26Z</time></trkpt><trkpt lat="43.42410641688058" lon="5.762871248361548"><ele>528.2</ele><time>2026-03-28T13:44:27Z</time></trkpt><trkpt lat="43.42419208943875" lon="5.762879558569911"><ele>529.6</ele><time>2026-03-28T13:44:28Z</time></trkpt><trkpt lat="43.424300080501986" lon="5.762829329804375"><ele>531.0</ele><time>2026-03-28T13:44:30Z</time></trkpt><trkpt lat="43.42435443242364" lon="5.762754340362843"><ele>531.0</ele><time>2026-03-28T13:44:31Z</time></trkpt><trkpt lat="43.42442706048722" lon="5.762720785258359"><ele>531.0</ele><time>2026-03-28T13:44:32Z</time></trkpt><trkpt lat="43.42450632148993" lon="5.762734461914749"><ele>531.0</ele><time>2026-03-28T13:44:32.999Z</time></trkpt><trkpt lat="43.42459891325093" lon="5.762778583469055"><ele>531.0</ele><time>2026-03-28T13:44:33.999Z</time></trkpt><trkpt lat="43.42471242976976" lon="5.762808666616623"><ele>531.0</ele><time>2026-03-28T13:44:34.999Z</time></trkpt><trkpt lat="43.424832249639195" lon="5.7628237570643925"><ele>532.6666666666666</ele><time>2026-03-28T13:44:35.999Z</time></trkpt><trkpt lat="43.42494247444491" lon="5.762827555794134"><ele>534.3333333333334</ele><time>2026-03-28T13:44:36.999Z</time></trkpt><trkpt lat="43.425022871371745" lon="5.762857050618059"><ele>536.0</ele><time>2026-03-28T13:44:37.999Z</time></trkpt><trkpt lat="43.42508748404285" lon="5.76290994181551"><ele>537.6666666666667</ele><time>2026-03-28T13:44:38.999Z</time></trkpt><trkpt lat="43.425142987934144" lon="5.762997845957572"><ele>539.3333333333334</ele><time>2026-03-28T13:44:39.999Z</time></trkpt><trkpt lat="43.42519753359953" lon="5.7630937832859805"><ele>541.0</ele><time>2026-03-28T13:44:40.999Z</time></trkpt><trkpt lat="43.425222852420774" lon="5.763256014201733"><ele>541.0</ele><time>2026-03-28T13:44:42.999Z</time></trkpt><trkpt lat="43.42520526327453" lon="5.763362542014373"><ele>541.0</ele><time>2026-03-28T13:44:43.999Z</time></trkpt><trkpt lat="43.425179693365145" lon="5.763449150516045"><ele>541.0</ele><time>2026-03-28T13:44:44.999Z</time></trkpt><trkpt lat="43.425164770447864" lon="5.76355528242468"><ele>541.0</ele><time>2026-03-28T13:44:46.999Z</time></trkpt><trkpt lat="43.425218699380935" lon="5.763780673615582"><ele>541.0</ele><time>2026-03-28T13:44:48.999Z</time></trkpt><trkpt lat="43.42522857662298" lon="5.763957621401372"><ele>541.2</ele><time>2026-03-28T13:44:49.999Z</time></trkpt><trkpt lat="43.42522639133252" lon="5.764100595216086"><ele>541.4000000000001</ele><time>2026-03-28T13:44:50.999Z</time></trkpt><trkpt lat="43.42523464695813" lon="5.764214505716011"><ele>541.6</ele><time>2026-03-28T13:44:51.999Z</time></trkpt><trkpt lat="43.42528097630266" lon="5.764301059931628"><ele>541.8000000000001</ele><time>2026-03-28T13:44:52.999Z</time></trkpt><trkpt lat="43.42537301888094" lon="5.764397650499305"><ele>542.0</ele><time>2026-03-28T13:44:53.999Z</time></trkpt><trkpt lat="43.425451306806885" lon="5.764494943422651"><ele>543.0</ele><time>2026-03-28T13:44:54.999Z</time></trkpt><trkpt lat="43.42551581561303" lon="5.764592085713614"><ele>544.0</ele><time>2026-03-28T13:44:55.999Z</time></trkpt><trkpt lat="43.4255738626108" lon="5.764683145116293"><ele>545.0</ele><time>2026-03-28T13:44:56.999Z</time></trkpt><trkpt lat="43.425629680314806" lon="5.764770093377229"><ele>546.0</ele><time>2026-03-28T13:44:57.999Z</time></trkpt><trkpt lat="43.42567087897333" lon="5.764840710635197"><ele>547.0</ele><time>2026-03-28T13:44:58.999Z</time></trkpt><trkpt lat="43.42573061044344" lon="5.764898047577712"><ele>548.0</ele><time>2026-03-28T13:44:59.999Z</time></trkpt><trkpt lat="43.4258044373794" lon="5.764948393047131"><ele>548.0</ele><time>2026-03-28T13:45:01Z</time></trkpt><trkpt lat="43.4258786619862" lon="5.7650123507021585"><ele>548.0</ele><time>2026-03-28T13:45:02Z</time></trkpt><trkpt lat="43.425932804939336" lon="5.765093274999412"><ele>548.0</ele><time>2026-03-28T13:45:03Z</time></trkpt><trkpt lat="43.42597491785123" lon="5.765164351046454"><ele>548.0</ele><time>2026-03-28T13:45:04Z</time></trkpt><trkpt lat="43.426096110684256" lon="5.7651865622234295"><ele>548.0</ele><time>2026-03-28T13:45:06Z</time></trkpt><trkpt lat="43.426166088534195" lon="5.765146958156117"><ele>548.0</ele><time>2026-03-28T13:45:07Z</time></trkpt><trkpt lat="43.42627066044508" lon="5.765087275966324"><ele>546.5</ele><time>2026-03-28T13:45:08Z</time></trkpt><trkpt lat="43.426397408553484" lon="5.765027243204252"><ele>545.0</ele><time>2026-03-28T13:45:09Z</time></trkpt><trkpt lat="43.42651245272945" lon="5.7649890525445775"><ele>543.5</ele><time>2026-03-28T13:45:10Z</time></trkpt><trkpt lat="43.4266140768664" lon="5.764971778115374"><ele>542.0</ele><time>2026-03-28T13:45:11Z</time></trkpt><trkpt lat="43.42671053624866" lon="5.764956450860035"><ele>542.0</ele><time>2026-03-28T13:45:12Z</time></trkpt><trkpt lat="43.42678946652723" lon="5.764946299160256"><ele>542.0</ele><time>2026-03-28T13:45:13Z</time></trkpt><trkpt lat="43.42690010558245" lon="5.76486696853929"><ele>542.0</ele><time>2026-03-28T13:45:15Z</time></trkpt><trkpt lat="43.42696156016719" lon="5.764798818007458"><ele>542.0</ele><time>2026-03-28T13:45:16Z</time></trkpt><trkpt lat="43.427025338003716" lon="5.7646919337578035"><ele>542.0</ele><time>2026-03-28T13:45:17Z</time></trkpt><trkpt lat="43.42709855113136" lon="5.76458010667024"><ele>542.5</ele><time>2026-03-28T13:45:18Z</time></trkpt><trkpt lat="43.42715899410389" lon="5.764516185189323"><ele>543.0</ele><time>2026-03-28T13:45:19Z</time></trkpt><trkpt lat="43.427290657014574" lon="5.764514066386078"><ele>543.5</ele><time>2026-03-28T13:45:21Z</time></trkpt><trkpt lat="43.42735542158795" lon="5.764503381736449"><ele>544.0</ele><time>2026-03-28T13:45:22Z</time></trkpt><trkpt lat="43.42742508829667" lon="5.764473424221417"><ele>544.5</ele><time>2026-03-28T13:45:23Z</time></trkpt><trkpt lat="43.42749691324582" lon="5.764458859030422"><ele>545.0</ele><time>2026-03-28T13:45:25Z</time></trkpt><trkpt lat="43.42756327226486" lon="5.764491523877528"><ele>545.0</ele><time>2026-03-28T13:45:28Z</time></trkpt><trkpt lat="43.427590994969115" lon="5.764570588286107"><ele>545.0</ele><time>2026-03-28T13:48:08Z</time></trkpt><trkpt lat="43.42755455199453" lon="5.764712721186121"><ele>545.0</ele><time>2026-03-28T13:48:42.999Z</time></trkpt><trkpt lat="43.427533149375456" lon="5.764846067594081"><ele>545.0</ele><time>2026-03-28T13:48:44.999Z</time></trkpt><trkpt lat="43.42749470856576" lon="5.764927902644695"><ele>545.0</ele><time>2026-03-28T13:48:45.999Z</time></trkpt><trkpt lat="43.427440934897376" lon="5.765014665591619"><ele>545.0</ele><time>2026-03-28T13:48:46.999Z</time></trkpt><trkpt lat="43.427417930719045" lon="5.7651052190550365"><ele>545.0</ele><time>2026-03-28T13:48:47.999Z</time></trkpt><trkpt lat="43.4274054056952" lon="5.765191295718839"><ele>545.0</ele><time>2026-03-28T13:48:48.999Z</time></trkpt><trkpt lat="43.4273996954413" lon="5.765303052704269"><ele>545.0</ele><time>2026-03-28T13:48:49.999Z</time></trkpt><trkpt lat="43.42736710624736" lon="5.7654200572263905"><ele>545.0</ele><time>2026-03-28T13:48:50.999Z</time></trkpt><trkpt lat="43.42732224557249" lon="5.765539459572302"><ele>545.0</ele><time>2026-03-28T13:48:51.999Z</time></trkpt><trkpt lat="43.427269281698244" lon="5.765672800337056"><ele>545.0</ele><time>2026-03-28T13:48:52.999Z</time></trkpt><trkpt lat="43.427226447040326" lon="5.765784776135202"><ele>545.2</ele><time>2026-03-28T13:48:53.999Z</time></trkpt><trkpt lat="43.42718621910088" lon="5.765896291870261"><ele>545.4</ele><time>2026-03-28T13:48:54.999Z</time></trkpt><trkpt lat="43.42714479539724" lon="5.765987523802671"><ele>545.6</ele><time>2026-03-28T13:48:55.999Z</time></trkpt><trkpt lat="43.42710274498507" lon="5.766154373337112"><ele>545.8</ele><time>2026-03-28T13:48:57.999Z</time></trkpt><trkpt lat="43.42709908374066" lon="5.766252785467647"><ele>546.0</ele><time>2026-03-28T13:48:58.999Z</time></trkpt><trkpt lat="43.42715081519907" lon="5.766375929958154"><ele>547.8</ele><time>2026-03-28T13:49:00.999Z</time></trkpt><trkpt lat="43.427286069710526" lon="5.766419484608529"><ele>549.6</ele><time>2026-03-28T13:49:02.999Z</time></trkpt><trkpt lat="43.42737154891114" lon="5.766441080712304"><ele>551.4</ele><time>2026-03-28T13:49:03.999Z</time></trkpt><trkpt lat="43.42745524349251" lon="5.766475755753909"><ele>553.2</ele><time>2026-03-28T13:49:04.999Z</time></trkpt><trkpt lat="43.42753191457943" lon="5.766535885241355"><ele>555.0</ele><time>2026-03-28T13:49:05.999Z</time></trkpt><trkpt lat="43.427615760710516" lon="5.7666229079694356"><ele>555.0</ele><time>2026-03-28T13:49:06.999Z</time></trkpt><trkpt lat="43.42770362944711" lon="5.766703105710965"><ele>555.0</ele><time>2026-03-28T13:49:07.999Z</time></trkpt><trkpt lat="43.427792233962926" lon="5.766794863877185"><ele>555.0</ele><time>2026-03-28T13:49:08.999Z</time></trkpt><trkpt lat="43.427868593684025" lon="5.766903168066539"><ele>555.0</ele><time>2026-03-28T13:49:09.999Z</time></trkpt><trkpt lat="43.427939762502675" lon="5.767002190612196"><ele>555.0</ele><time>2026-03-28T13:49:10.999Z</time></trkpt><trkpt lat="43.428003826737395" lon="5.7671046948627325"><ele>555.6</ele><time>2026-03-28T13:49:11.999Z</time></trkpt><trkpt lat="43.428060224136246" lon="5.767216097368161"><ele>556.2</ele><time>2026-03-28T13:49:13Z</time></trkpt><trkpt lat="43.42813024355708" lon="5.767329391561348"><ele>556.8</ele><time>2026-03-28T13:49:14Z</time></trkpt><trkpt lat="43.42819377114559" lon="5.76746719050461"><ele>557.4</ele><time>2026-03-28T13:49:15Z</time></trkpt><trkpt lat="43.42823631017955" lon="5.76758381608896"><ele>558.0</ele><time>2026-03-28T13:49:16Z</time></trkpt><trkpt lat="43.42828459840796" lon="5.767679051271901"><ele>558.1666666666666</ele><time>2026-03-28T13:49:17Z</time></trkpt><trkpt lat="43.42830466151902" lon="5.767786702859996"><ele>558.3333333333334</ele><time>2026-03-28T13:49:18Z</time></trkpt><trkpt lat="43.42829979521187" lon="5.767876371758573"><ele>558.5</ele><time>2026-03-28T13:49:19Z</time></trkpt><trkpt lat="43.42826115555973" lon="5.7680450595218264"><ele>558.6666666666667</ele><time>2026-03-28T13:49:21Z</time></trkpt><trkpt lat="43.42826679038632" lon="5.768152301983016"><ele>558.8333333333334</ele><time>2026-03-28T13:49:22Z</time></trkpt><trkpt lat="43.428277357842354" lon="5.768264629320496"><ele>559.0</ele><time>2026-03-28T13:49:23Z</time></trkpt><trkpt lat="43.428296066620554" lon="5.7683492417384015"><ele>559.0</ele><time>2026-03-28T13:49:24Z</time></trkpt><trkpt lat="43.428385629856606" lon="5.768444218608444"><ele>559.0</ele><time>2026-03-28T13:49:26Z</time></trkpt><trkpt lat="43.42845517590148" lon="5.768464633522892"><ele>559.0</ele><time>2026-03-28T13:49:27Z</time></trkpt><trkpt lat="43.42854156073822" lon="5.76848176000903"><ele>559.0</ele><time>2026-03-28T13:49:28Z</time></trkpt><trkpt lat="43.42863177846745" lon="5.768514141911709"><ele>559.0</ele><time>2026-03-28T13:49:29Z</time></trkpt><trkpt lat="43.4287165254058" lon="5.768540837495538"><ele>558.8</ele><time>2026-03-28T13:49:30Z</time></trkpt><trkpt lat="43.42879751022058" lon="5.7685976119344895"><ele>558.5999999999999</ele><time>2026-03-28T13:49:31Z</time></trkpt><trkpt lat="43.4288746350938" lon="5.768670575111948"><ele>558.4</ele><time>2026-03-28T13:49:32Z</time></trkpt><trkpt lat="43.42895735524944" lon="5.768762613708478"><ele>558.1999999999999</ele><time>2026-03-28T13:49:33Z</time></trkpt><trkpt lat="43.42904976553235" lon="5.768863206813731"><ele>558.0</ele><time>2026-03-28T13:49:34Z</time></trkpt><trkpt lat="43.42914084059674" lon="5.7689627426576475"><ele>558.0</ele><time>2026-03-28T13:49:35Z</time></trkpt><trkpt lat="43.42922658017027" lon="5.7690654567171125"><ele>558.0</ele><time>2026-03-28T13:49:36Z</time></trkpt><trkpt lat="43.42930879844992" lon="5.769177738982185"><ele>558.0</ele><time>2026-03-28T13:49:37Z</time></trkpt><trkpt lat="43.429389680106475" lon="5.769275402422196"><ele>558.0</ele><time>2026-03-28T13:49:38Z</time></trkpt><trkpt lat="43.429481360792856" lon="5.769373184831216"><ele>558.0</ele><time>2026-03-28T13:49:39Z</time></trkpt><trkpt lat="43.42957714948932" lon="5.7694907067307195"><ele>558.0</ele><time>2026-03-28T13:49:40Z</time></trkpt><trkpt lat="43.42966192453353" lon="5.769595823747041"><ele>558.0</ele><time>2026-03-28T13:49:41Z</time></trkpt><trkpt lat="43.42974255789292" lon="5.769692927484366"><ele>558.0</ele><time>2026-03-28T13:49:42Z</time></trkpt><trkpt lat="43.429817887939336" lon="5.769761549068536"><ele>558.0</ele><time>2026-03-28T13:49:43Z</time></trkpt><trkpt lat="43.42988377113726" lon="5.769809847245831"><ele>558.0</ele><time>2026-03-28T13:49:44Z</time></trkpt><trkpt lat="43.429940862264814" lon="5.769737449455255"><ele>558.0</ele><time>2026-03-28T13:49:48Z</time></trkpt><trkpt lat="43.430065513516574" lon="5.769671796897823"><ele>558.0</ele><time>2026-03-28T13:49:50Z</time></trkpt><trkpt lat="43.43013110508894" lon="5.769616078457401"><ele>558.0</ele><time>2026-03-28T13:49:51Z</time></trkpt><trkpt lat="43.430203152333426" lon="5.769557318861733"><ele>558.0</ele><time>2026-03-28T13:49:52Z</time></trkpt><trkpt lat="43.430249059127014" lon="5.76949308080549"><ele>558.0</ele><time>2026-03-28T13:49:53Z</time></trkpt><trkpt lat="43.43029844036177" lon="5.769423022568584"><ele>558.6666666666666</ele><time>2026-03-28T13:49:54Z</time></trkpt><trkpt lat="43.43033687264283" lon="5.769342342369223"><ele>559.3333333333334</ele><time>2026-03-28T13:49:55Z</time></trkpt><trkpt lat="43.43038817563152" lon="5.769253721218496"><ele>560.0</ele><time>2026-03-28T13:49:56Z</time></trkpt><trkpt lat="43.430437573504314" lon="5.769161907805473"><ele>560.6666666666667</ele><time>2026-03-28T13:49:57Z</time></trkpt><trkpt lat="43.430469172040745" lon="5.76906121168357"><ele>561.3333333333334</ele><time>2026-03-28T13:49:58Z</time></trkpt><trkpt lat="43.43050253199067" lon="5.7689592288814255"><ele>562.0</ele><time>2026-03-28T13:49:59Z</time></trkpt><trkpt lat="43.430534931550156" lon="5.768857740575126"><ele>562.0</ele><time>2026-03-28T13:50:00Z</time></trkpt><trkpt lat="43.430570425643175" lon="5.768757777604305"><ele>562.0</ele><time>2026-03-28T13:50:01Z</time></trkpt><trkpt lat="43.43062863548996" lon="5.7686519737095265"><ele>562.0</ele><time>2026-03-28T13:50:02Z</time></trkpt><trkpt lat="43.430693576235" lon="5.768559112529042"><ele>562.0</ele><time>2026-03-28T13:50:03Z</time></trkpt><trkpt lat="43.430742865997054" lon="5.768490684692178"><ele>562.0</ele><time>2026-03-28T13:50:04Z</time></trkpt><trkpt lat="43.430780318228955" lon="5.768414854325032"><ele>562.0</ele><time>2026-03-28T13:50:05Z</time></trkpt><trkpt lat="43.43080750568914" lon="5.768334629035534"><ele>563.1666666666667</ele><time>2026-03-28T13:50:06Z</time></trkpt><trkpt lat="43.43081764612023" lon="5.768248171261811"><ele>564.3333333333334</ele><time>2026-03-28T13:50:07Z</time></trkpt><trkpt lat="43.43089885763552" lon="5.768126278908612"><ele>565.5</ele><time>2026-03-28T13:50:09Z</time></trkpt><trkpt lat="43.43096626639185" lon="5.768112196881441"><ele>566.6666666666666</ele><time>2026-03-28T13:50:10Z</time></trkpt><trkpt lat="43.431042365297614" lon="5.768056042914738"><ele>567.8333333333333</ele><time>2026-03-28T13:50:11Z</time></trkpt><trkpt lat="43.431113346620315" lon="5.76796848875694"><ele>569.0</ele><time>2026-03-28T13:50:12Z</time></trkpt><trkpt lat="43.43118415462189" lon="5.767856002944948"><ele>569.0</ele><time>2026-03-28T13:50:13Z</time></trkpt><trkpt lat="43.431261664012865" lon="5.767764841529153"><ele>569.0</ele><time>2026-03-28T13:50:14Z</time></trkpt><trkpt lat="43.43134335225533" lon="5.76769048542191"><ele>569.0</ele><time>2026-03-28T13:50:15Z</time></trkpt><trkpt lat="43.43141375399342" lon="5.7676060597164165"><ele>569.0</ele><time>2026-03-28T13:50:16Z</time></trkpt><trkpt lat="43.431482292780025" lon="5.767513912995509"><ele>569.0</ele><time>2026-03-28T13:50:17Z</time></trkpt><trkpt lat="43.431564296712764" lon="5.767436898204825"><ele>570.0</ele><time>2026-03-28T13:50:18Z</time></trkpt><trkpt lat="43.43164491267164" lon="5.767382373503293"><ele>571.0</ele><time>2026-03-28T13:50:19Z</time></trkpt><trkpt lat="43.43173744963026" lon="5.767339259245377"><ele>572.0</ele><time>2026-03-28T13:50:20Z</time></trkpt><trkpt lat="43.4318091797484" lon="5.767318373060703"><ele>573.0</ele><time>2026-03-28T13:50:21Z</time></trkpt><trkpt lat="43.431865023366754" lon="5.767247952251795"><ele>574.0</ele><time>2026-03-28T13:50:23Z</time></trkpt><trkpt lat="43.43180773833134" lon="5.767180487263603"><ele>575.0</ele><time>2026-03-28T13:50:25Z</time></trkpt><trkpt lat="43.43172467773711" lon="5.767139199930444"><ele>575.0</ele><time>2026-03-28T13:50:26.999Z</time></trkpt><trkpt lat="43.43163701373603" lon="5.767041154750394"><ele>575.0</ele><time>2026-03-28T13:50:28.999Z</time></trkpt><trkpt lat="43.4316215274329" lon="5.7668952757675775"><ele>575.0</ele><time>2026-03-28T13:50:30.999Z</time></trkpt><trkpt lat="43.431597368449694" lon="5.766792719373825"><ele>575.0</ele><time>2026-03-28T13:50:31.999Z</time></trkpt><trkpt lat="43.43156565541458" lon="5.766696666813704"><ele>575.0</ele><time>2026-03-28T13:50:32.999Z</time></trkpt><trkpt lat="43.43153346237477" lon="5.766603052314212"><ele>576.6</ele><time>2026-03-28T13:50:33.999Z</time></trkpt><trkpt lat="43.431532572905006" lon="5.766459963831817"><ele>578.2</ele><time>2026-03-28T13:50:35.999Z</time></trkpt><trkpt lat="43.431590840598496" lon="5.766291022502944"><ele>579.8</ele><time>2026-03-28T13:50:37.999Z</time></trkpt><trkpt lat="43.43166869887449" lon="5.766187997703616"><ele>581.4</ele><time>2026-03-28T13:50:39.999Z</time></trkpt><trkpt lat="43.43172785323469" lon="5.766130589472187"><ele>583.0</ele><time>2026-03-28T13:50:40.999Z</time></trkpt><trkpt lat="43.43178141623482" lon="5.766070893856464"><ele>584.6666666666667</ele><time>2026-03-28T13:50:41.999Z</time></trkpt><trkpt lat="43.43182714397054" lon="5.765989269676835"><ele>586.3333333333334</ele><time>2026-03-28T13:50:42.999Z</time></trkpt><trkpt lat="43.431871600840616" lon="5.76589450352633"><ele>588.0</ele><time>2026-03-28T13:50:43.999Z</time></trkpt><trkpt lat="43.43192703593713" lon="5.765782498966172"><ele>589.6666666666666</ele><time>2026-03-28T13:50:44.999Z</time></trkpt><trkpt lat="43.43198888034044" lon="5.765697043158003"><ele>591.3333333333333</ele><time>2026-03-28T13:50:45.999Z</time></trkpt><trkpt lat="43.43205794363091" lon="5.765607728904589"><ele>593.0</ele><time>2026-03-28T13:50:46.999Z</time></trkpt><trkpt lat="43.43210419256227" lon="5.765535887191678"><ele>594.0</ele><time>2026-03-28T13:50:47.999Z</time></trkpt><trkpt lat="43.43215670777728" lon="5.765480303338168"><ele>595.0</ele><time>2026-03-28T13:50:48.999Z</time></trkpt><trkpt lat="43.43223173506055" lon="5.7654523414002075"><ele>596.0</ele><time>2026-03-28T13:50:49.999Z</time></trkpt><trkpt lat="43.432321804257235" lon="5.765404867381963"><ele>597.0</ele><time>2026-03-28T13:50:50.999Z</time></trkpt><trkpt lat="43.43240490557584" lon="5.765350516993501"><ele>598.0</ele><time>2026-03-28T13:50:51.999Z</time></trkpt><trkpt lat="43.43247957478818" lon="5.765290440566617"><ele>599.0</ele><time>2026-03-28T13:50:52.999Z</time></trkpt><trkpt lat="43.432554835859214" lon="5.765239963032115"><ele>599.0</ele><time>2026-03-28T13:50:53.999Z</time></trkpt><trkpt lat="43.4326375670374" lon="5.765206565251906"><ele>599.0</ele><time>2026-03-28T13:50:54.999Z</time></trkpt><trkpt lat="43.43274412392053" lon="5.765190642859784"><ele>599.0</ele><time>2026-03-28T13:50:55.999Z</time></trkpt><trkpt lat="43.43284636687322" lon="5.765171664982571"><ele>599.0</ele><time>2026-03-28T13:50:56.999Z</time></trkpt><trkpt lat="43.43291937559032" lon="5.765128158026681"><ele>599.0</ele><time>2026-03-28T13:50:57.999Z</time></trkpt><trkpt lat="43.43297249620408" lon="5.765066889532911"><ele>599.0</ele><time>2026-03-28T13:50:58.999Z</time></trkpt><trkpt lat="43.433039059498235" lon="5.764927292595831"><ele>600.1666666666666</ele><time>2026-03-28T13:51:00.999Z</time></trkpt><trkpt lat="43.43305181357847" lon="5.764840019490289"><ele>601.3333333333333</ele><time>2026-03-28T13:51:01.999Z</time></trkpt><trkpt lat="43.433046215171466" lon="5.764741381964322"><ele>602.5</ele><time>2026-03-28T13:51:02.999Z</time></trkpt><trkpt lat="43.43305674885986" lon="5.764640114929062"><ele>603.6666666666666</ele><time>2026-03-28T13:51:03.999Z</time></trkpt><trkpt lat="43.43307779551596" lon="5.764523546959125"><ele>604.8333333333334</ele><time>2026-03-28T13:51:04.999Z</time></trkpt><trkpt lat="43.43311752646691" lon="5.764404087107139"><ele>606.0</ele><time>2026-03-28T13:51:05.999Z</time></trkpt><trkpt lat="43.433159335873334" lon="5.764290560340695"><ele>608.2</ele><time>2026-03-28T13:51:06.999Z</time></trkpt><trkpt lat="43.43320382159913" lon="5.764188980357241"><ele>610.4000000000001</ele><time>2026-03-28T13:51:07.999Z</time></trkpt><trkpt lat="43.433264427679475" lon="5.7640865616952315"><ele>612.6</ele><time>2026-03-28T13:51:08.999Z</time></trkpt><trkpt lat="43.433324115159365" lon="5.7639681745870135"><ele>614.8000000000001</ele><time>2026-03-28T13:51:09.999Z</time></trkpt><trkpt lat="43.43337314980566" lon="5.7638435714060305"><ele>617.0</ele><time>2026-03-28T13:51:10.999Z</time></trkpt><trkpt lat="43.43342039711432" lon="5.76374409311751"><ele>617.0</ele><time>2026-03-28T13:51:11.999Z</time></trkpt><trkpt lat="43.43345720861014" lon="5.763644299718233"><ele>617.0</ele><time>2026-03-28T13:51:12.999Z</time></trkpt><trkpt lat="43.4334770398769" lon="5.763535896757594"><ele>617.0</ele><time>2026-03-28T13:51:13.999Z</time></trkpt><trkpt lat="43.433483042713135" lon="5.763415340128368"><ele>617.0</ele><time>2026-03-28T13:51:14.999Z</time></trkpt><trkpt lat="43.43349574183952" lon="5.7632843868074675"><ele>617.0</ele><time>2026-03-28T13:51:15.999Z</time></trkpt><trkpt lat="43.433513806168385" lon="5.7631322400115845"><ele>618.6</ele><time>2026-03-28T13:51:16.999Z</time></trkpt><trkpt lat="43.43352913662469" lon="5.762992120735835"><ele>620.2</ele><time>2026-03-28T13:51:17.999Z</time></trkpt><trkpt lat="43.43354763512334" lon="5.76286486315231"><ele>621.8</ele><time>2026-03-28T13:51:19Z</time></trkpt><trkpt lat="43.43357092205787" lon="5.762723737334501"><ele>623.4</ele><time>2026-03-28T13:51:20Z</time></trkpt><trkpt lat="43.43359545097671" lon="5.762607326153914"><ele>625.0</ele><time>2026-03-28T13:51:21Z</time></trkpt><trkpt lat="43.433611847239376" lon="5.762521075575924"><ele>626.0</ele><time>2026-03-28T13:51:22Z</time></trkpt><trkpt lat="43.433698585759835" lon="5.762410232379574"><ele>627.0</ele><time>2026-03-28T13:51:24Z</time></trkpt><trkpt lat="43.43376507739965" lon="5.762378719990934"><ele>628.0</ele><time>2026-03-28T13:51:25Z</time></trkpt><trkpt lat="43.43384160769977" lon="5.762323730756676"><ele>629.0</ele><time>2026-03-28T13:51:26Z</time></trkpt><trkpt lat="43.43392146669642" lon="5.762256585006952"><ele>630.0</ele><time>2026-03-28T13:51:27Z</time></trkpt><trkpt lat="43.434001340085636" lon="5.762176276004107"><ele>630.1666666666666</ele><time>2026-03-28T13:51:28Z</time></trkpt><trkpt lat="43.434077240382926" lon="5.762108308512072"><ele>630.3333333333334</ele><time>2026-03-28T13:51:29Z</time></trkpt><trkpt lat="43.43413321272021" lon="5.761951089228323"><ele>630.5</ele><time>2026-03-28T13:51:31Z</time></trkpt><trkpt lat="43.434155057814635" lon="5.761852801584669"><ele>630.6666666666667</ele><time>2026-03-28T13:51:32Z</time></trkpt><trkpt lat="43.434191195815565" lon="5.761759300291857"><ele>630.8333333333334</ele><time>2026-03-28T13:51:33Z</time></trkpt><trkpt lat="43.43424304773306" lon="5.7617079270776985"><ele>631.0</ele><time>2026-03-28T13:51:34Z</time></trkpt><trkpt lat="43.43430238717198" lon="5.761671185626144"><ele>632.8333333333334</ele><time>2026-03-28T13:51:35Z</time></trkpt><trkpt lat="43.43436146567877" lon="5.761572717973672"><ele>634.6666666666667</ele><time>2026-03-28T13:51:37Z</time></trkpt><trkpt lat="43.43437823020538" lon="5.76148669668716"><ele>636.5</ele><time>2026-03-28T13:51:38Z</time></trkpt><trkpt lat="43.43439057138244" lon="5.7613573450820565"><ele>638.3333333333334</ele><time>2026-03-28T13:51:39Z</time></trkpt><trkpt lat="43.434413121482" lon="5.761262583926475"><ele>640.1666666666666</ele><time>2026-03-28T13:51:40Z</time></trkpt><trkpt lat="43.43449267261629" lon="5.76120125265193"><ele>642.0</ele><time>2026-03-28T13:51:42Z</time></trkpt><trkpt lat="43.43461357202669" lon="5.761210894109098"><ele>642.0</ele><time>2026-03-28T13:51:44Z</time></trkpt><trkpt lat="43.43472078271656" lon="5.761145165887441"><ele>642.0</ele><time>2026-03-28T13:51:46Z</time></trkpt><trkpt lat="43.43480386060635" lon="5.761002714605583"><ele>642.0</ele><time>2026-03-28T13:51:48Z</time></trkpt><trkpt lat="43.43485468595899" lon="5.76092865639278"><ele>642.0</ele><time>2026-03-28T13:51:49Z</time></trkpt><trkpt lat="43.434885545120814" lon="5.760849813322051"><ele>642.0</ele><time>2026-03-28T13:51:50Z</time></trkpt><trkpt lat="43.43490882093747" lon="5.760677781289966"><ele>645.2</ele><time>2026-03-28T13:51:52Z</time></trkpt><trkpt lat="43.43495511298404" lon="5.760553276229998"><ele>648.4000000000001</ele><time>2026-03-28T13:51:54Z</time></trkpt><trkpt lat="43.435070548981514" lon="5.760547012790846"><ele>651.5999999999999</ele><time>2026-03-28T13:51:56Z</time></trkpt><trkpt lat="43.435136033144644" lon="5.7605435737130115"><ele>654.8</ele><time>2026-03-28T13:51:57Z</time></trkpt><trkpt lat="43.43521208545579" lon="5.760451083009301"><ele>658.0</ele><time>2026-03-28T13:51:59Z</time></trkpt><trkpt lat="43.435249559627145" lon="5.760302823382744"><ele>658.0</ele><time>2026-03-28T13:52:01Z</time></trkpt><trkpt lat="43.43528111148802" lon="5.760216644240617"><ele>658.0</ele><time>2026-03-28T13:52:02Z</time></trkpt><trkpt lat="43.435324116801795" lon="5.760120979020358"><ele>658.0</ele><time>2026-03-28T13:52:03Z</time></trkpt><trkpt lat="43.435363937957234" lon="5.760009797632951"><ele>658.0</ele><time>2026-03-28T13:52:04Z</time></trkpt><trkpt lat="43.43538184631298" lon="5.759914514060816"><ele>658.0</ele><time>2026-03-28T13:52:05Z</time></trkpt><trkpt lat="43.4353866581941" lon="5.7598189970349045"><ele>658.0</ele><time>2026-03-28T13:52:06Z</time></trkpt><trkpt lat="43.43543917020464" lon="5.759666302244305"><ele>662.8</ele><time>2026-03-28T13:52:08Z</time></trkpt><trkpt lat="43.43549205584057" lon="5.7596007829049665"><ele>667.5999999999999</ele><time>2026-03-28T13:52:09Z</time></trkpt><trkpt lat="43.43554542523552" lon="5.759547794821586"><ele>672.4000000000001</ele><time>2026-03-28T13:52:10Z</time></trkpt><trkpt lat="43.43566260402086" lon="5.759476458424262"><ele>677.2</ele><time>2026-03-28T13:52:12Z</time></trkpt><trkpt lat="43.435731795561665" lon="5.75936281232883"><ele>682.0</ele><time>2026-03-28T13:52:14Z</time></trkpt><trkpt lat="43.435795685103365" lon="5.7592537849791166"><ele>683.8</ele><time>2026-03-28T13:52:16Z</time></trkpt><trkpt lat="43.43589367817247" lon="5.759289607519623"><ele>685.6</ele><time>2026-03-28T13:52:18Z</time></trkpt><trkpt lat="43.435974986093974" lon="5.75929435086861"><ele>687.4</ele><time>2026-03-28T13:52:20Z</time></trkpt><trkpt lat="43.43605712491673" lon="5.75930808920406"><ele>689.1999999999999</ele><time>2026-03-28T13:52:24Z</time></trkpt><trkpt lat="43.43618016116701" lon="5.75932497316107"><ele>691.0</ele><time>2026-03-28T13:52:24.999Z</time></trkpt><trkpt lat="43.436271457677826" lon="5.759267615541315"><ele>693.5999999999999</ele><time>2026-03-28T13:52:26.999Z</time></trkpt><trkpt lat="43.43630682830375" lon="5.759141276548535"><ele>696.2</ele><time>2026-03-28T13:52:28.999Z</time></trkpt><trkpt lat="43.436340076173806" lon="5.75903078491661"><ele>698.8</ele><time>2026-03-28T13:52:29.999Z</time></trkpt><trkpt lat="43.43636737527616" lon="5.758927551663925"><ele>701.4000000000001</ele><time>2026-03-28T13:52:30.999Z</time></trkpt><trkpt lat="43.436375873641076" lon="5.7588272680665495"><ele>704.0</ele><time>2026-03-28T13:52:31.999Z</time></trkpt><trkpt lat="43.43630802144351" lon="5.758687436204954"><ele>703.0</ele><time>2026-03-28T13:52:33.999Z</time></trkpt><trkpt lat="43.436266657216414" lon="5.758571966801463"><ele>702.0</ele><time>2026-03-28T13:52:34.999Z</time></trkpt><trkpt lat="43.43629096409348" lon="5.758414654182064"><ele>701.0</ele><time>2026-03-28T13:52:36.999Z</time></trkpt><trkpt lat="43.43633856558812" lon="5.758342609420437"><ele>700.0</ele><time>2026-03-28T13:52:37.999Z</time></trkpt><trkpt lat="43.43644403795094" lon="5.758214972316351"><ele>699.0</ele><time>2026-03-28T13:52:39.999Z</time></trkpt><trkpt lat="43.43652043188529" lon="5.758197958305631"><ele>702.0</ele><time>2026-03-28T13:52:40.999Z</time></trkpt><trkpt lat="43.4365992266367" lon="5.758211278295688"><ele>705.0</ele><time>2026-03-28T13:52:41.999Z</time></trkpt><trkpt lat="43.436680601235835" lon="5.758198680657496"><ele>708.0</ele><time>2026-03-28T13:52:43.999Z</time></trkpt><trkpt lat="43.43667186108624" lon="5.758090777848449"><ele>711.0</ele><time>2026-03-28T13:52:45.999Z</time></trkpt><trkpt lat="43.43664155858755" lon="5.7580033620784805"><ele>714.0</ele><time>2026-03-28T13:52:46.999Z</time></trkpt><trkpt lat="43.436616391956505" lon="5.757884792145874"><ele>717.0</ele><time>2026-03-28T13:52:47.999Z</time></trkpt><trkpt lat="43.43663020217065" lon="5.7577999352286815"><ele>717.0</ele><time>2026-03-28T13:52:48.999Z</time></trkpt><trkpt lat="43.436749639241704" lon="5.757709490030329"><ele>717.0</ele><time>2026-03-28T13:52:50.999Z</time></trkpt><trkpt lat="43.436830827086766" lon="5.757650473570073"><ele>717.0</ele><time>2026-03-28T13:52:51.999Z</time></trkpt><trkpt lat="43.436896027674955" lon="5.7576061242226535"><ele>717.0</ele><time>2026-03-28T13:52:52.999Z</time></trkpt><trkpt lat="43.43694596589236" lon="5.757468607616949"><ele>717.0</ele><time>2026-03-28T13:52:54.999Z</time></trkpt><trkpt lat="43.436981371715476" lon="5.7573747309981"><ele>717.6</ele><time>2026-03-28T13:52:55.999Z</time></trkpt><trkpt lat="43.43703801518196" lon="5.757296954231208"><ele>718.2</ele><time>2026-03-28T13:52:56.999Z</time></trkpt><trkpt lat="43.43711386786211" lon="5.757224255816991"><ele>718.8</ele><time>2026-03-28T13:52:57.999Z</time></trkpt><trkpt lat="43.43719460758291" lon="5.757153831635097"><ele>719.4</ele><time>2026-03-28T13:52:58.999Z</time></trkpt><trkpt lat="43.43726178802798" lon="5.757094237901192"><ele>720.0</ele><time>2026-03-28T13:52:59.999Z</time></trkpt><trkpt lat="43.437326271513854" lon="5.756917606209839"><ele>722.5</ele><time>2026-03-28T13:53:01.999Z</time></trkpt><trkpt lat="43.43736656215508" lon="5.756784750255578"><ele>725.0</ele><time>2026-03-28T13:53:02.999Z</time></trkpt><trkpt lat="43.437419801537885" lon="5.756689655209926"><ele>727.5</ele><time>2026-03-28T13:53:03.999Z</time></trkpt><trkpt lat="43.43748317114874" lon="5.756597671886598"><ele>730.0</ele><time>2026-03-28T13:53:04.999Z</time></trkpt><trkpt lat="43.43753819546318" lon="5.756524596321446"><ele>732.5</ele><time>2026-03-28T13:53:05.999Z</time></trkpt><trkpt lat="43.43759719682597" lon="5.756478360128828"><ele>735.0</ele><time>2026-03-28T13:53:06.999Z</time></trkpt><trkpt lat="43.43766087298877" lon="5.756458397099628"><ele>735.0</ele><time>2026-03-28T13:53:07.999Z</time></trkpt><trkpt lat="43.437753995269055" lon="5.75642593072177"><ele>735.0</ele><time>2026-03-28T13:53:08.999Z</time></trkpt><trkpt lat="43.43785901601214" lon="5.756399122800905"><ele>735.0</ele><time>2026-03-28T13:53:09.999Z</time></trkpt><trkpt lat="43.43794947360031" lon="5.756357826393509"><ele>735.0</ele><time>2026-03-28T13:53:10.999Z</time></trkpt><trkpt lat="43.438017764815115" lon="5.756341326205712"><ele>735.0</ele><time>2026-03-28T13:53:11.999Z</time></trkpt><trkpt lat="43.438137888253785" lon="5.756380572040778"><ele>736.8</ele><time>2026-03-28T13:53:13.999Z</time></trkpt><trkpt lat="43.4382388349254" lon="5.7563325349035335"><ele>738.6</ele><time>2026-03-28T13:53:15.999Z</time></trkpt><trkpt lat="43.43830502794841" lon="5.756276428579188"><ele>740.4000000000001</ele><time>2026-03-28T13:53:16.999Z</time></trkpt><trkpt lat="43.43841507009386" lon="5.756270979514277"><ele>742.2</ele><time>2026-03-28T13:53:18.999Z</time></trkpt><trkpt lat="43.438495725710666" lon="5.7563790801297605"><ele>744.0</ele><time>2026-03-28T13:53:20.999Z</time></trkpt><trkpt lat="43.438541773429904" lon="5.756471477124932"><ele>744.0</ele><time>2026-03-28T13:53:21.999Z</time></trkpt><trkpt lat="43.43858713123867" lon="5.756574286463506"><ele>744.0</ele><time>2026-03-28T13:53:22.999Z</time></trkpt><trkpt lat="43.43862102951604" lon="5.756713347405591"><ele>744.0</ele><time>2026-03-28T13:53:23.999Z</time></trkpt><trkpt lat="43.43861207558318" lon="5.7568127028517475"><ele>744.0</ele><time>2026-03-28T13:53:25Z</time></trkpt><trkpt lat="43.438559726954395" lon="5.756967409851772"><ele>744.0</ele><time>2026-03-28T13:53:27Z</time></trkpt><trkpt lat="43.43851149693006" lon="5.757056491823631"><ele>743.3333333333334</ele><time>2026-03-28T13:53:28Z</time></trkpt><trkpt lat="43.43845712280233" lon="5.757154815456404"><ele>742.6666666666666</ele><time>2026-03-28T13:53:29Z</time></trkpt><trkpt lat="43.43841132850474" lon="5.75723513950854"><ele>742.0</ele><time>2026-03-28T13:53:30Z</time></trkpt><trkpt lat="43.43836134389592" lon="5.757313583512136"><ele>741.3333333333333</ele><time>2026-03-28T13:53:31Z</time></trkpt><trkpt lat="43.438307488012974" lon="5.757368858834048"><ele>740.6666666666666</ele><time>2026-03-28T13:53:32Z</time></trkpt><trkpt lat="43.43823362321709" lon="5.757469557065256"><ele>740.0</ele><time>2026-03-28T13:53:34Z</time></trkpt><trkpt lat="43.43822744693535" lon="5.757584129194668"><ele>736.2</ele><time>2026-03-28T13:53:36Z</time></trkpt><trkpt lat="43.4381764628609" lon="5.757722955426713"><ele>732.4</ele><time>2026-03-28T13:53:38Z</time></trkpt><trkpt lat="43.43812286017007" lon="5.757837197574794"><ele>728.5999999999999</ele><time>2026-03-28T13:53:40Z</time></trkpt><trkpt lat="43.43810398980985" lon="5.757936107443377"><ele>724.8</ele><time>2026-03-28T13:53:42Z</time></trkpt><trkpt lat="43.43814911149874" lon="5.75805018242557"><ele>721.0</ele><time>2026-03-28T13:53:45Z</time></trkpt><trkpt lat="43.438218685947206" lon="5.758101873187091"><ele>721.0</ele><time>2026-03-28T13:53:47Z</time></trkpt><trkpt lat="43.43827514127952" lon="5.758142961122279"><ele>721.0</ele><time>2026-03-28T13:53:49Z</time></trkpt><trkpt lat="43.438306229555145" lon="5.758266779523703"><ele>721.0</ele><time>2026-03-28T13:53:52Z</time></trkpt><trkpt lat="43.43830098712329" lon="5.758416840735721"><ele>721.0</ele><time>2026-03-28T13:53:54Z</time></trkpt><trkpt lat="43.43823443788157" lon="5.758495880391298"><ele>721.0</ele><time>2026-03-28T13:53:56Z</time></trkpt><trkpt lat="43.43819398004298" lon="5.758597110348267"><ele>721.0</ele><time>2026-03-28T13:53:58Z</time></trkpt><trkpt lat="43.43816537313841" lon="5.7587127707954355"><ele>718.0</ele><time>2026-03-28T13:54:00Z</time></trkpt><trkpt lat="43.43817497287025" lon="5.758834252659671"><ele>715.0</ele><time>2026-03-28T13:54:02Z</time></trkpt><trkpt lat="43.43821147728206" lon="5.7589453758350295"><ele>712.0</ele><time>2026-03-28T13:54:04Z</time></trkpt><trkpt lat="43.438310107244966" lon="5.758971768738316"><ele>709.0</ele><time>2026-03-28T13:54:06Z</time></trkpt><trkpt lat="43.438376774278254" lon="5.758814631061163"><ele>706.0</ele><time>2026-03-28T13:54:08Z</time></trkpt><trkpt lat="43.43842633355989" lon="5.758656798747607"><ele>709.75</ele><time>2026-03-28T13:54:09Z</time></trkpt><trkpt lat="43.43848867704379" lon="5.758520241945978"><ele>713.5</ele><time>2026-03-28T13:54:10Z</time></trkpt><trkpt lat="43.43856906976326" lon="5.758375001931237"><ele>717.25</ele><time>2026-03-28T13:54:11Z</time></trkpt><trkpt lat="43.43865370941092" lon="5.7582463330946"><ele>721.0</ele><time>2026-03-28T13:54:12Z</time></trkpt><trkpt lat="43.43871563387014" lon="5.758142296752849"><ele>721.0</ele><time>2026-03-28T13:54:13Z</time></trkpt><trkpt lat="43.43875657279335" lon="5.758072779666238"><ele>721.0</ele><time>2026-03-28T13:54:14Z</time></trkpt><trkpt lat="43.438812265432006" lon="5.7580288465334055"><ele>721.0</ele><time>2026-03-28T13:54:15Z</time></trkpt><trkpt lat="43.438875404987634" lon="5.758032427231112"><ele>721.0</ele><time>2026-03-28T13:54:16Z</time></trkpt><trkpt lat="43.438979187603735" lon="5.758032559870977"><ele>721.0</ele><time>2026-03-28T13:54:17.999Z</time></trkpt><trkpt lat="43.43905252440745" lon="5.758009118403017"><ele>721.0</ele><time>2026-03-28T13:54:18.999Z</time></trkpt><trkpt lat="43.43911639052794" lon="5.757988694856972"><ele>721.0</ele><time>2026-03-28T13:54:19.999Z</time></trkpt><trkpt lat="43.43919150246966" lon="5.7579748707218625"><ele>719.8333333333334</ele><time>2026-03-28T13:54:25.999Z</time></trkpt><trkpt lat="43.43928463328409" lon="5.757941254396133"><ele>718.6666666666667</ele><time>2026-03-28T13:54:27.999Z</time></trkpt><trkpt lat="43.43936167156847" lon="5.7579476811589565"><ele>717.5</ele><time>2026-03-28T13:54:28.999Z</time></trkpt><trkpt lat="43.439438328175314" lon="5.757946795500689"><ele>716.3333333333334</ele><time>2026-03-28T13:54:29.999Z</time></trkpt><trkpt lat="43.43951248864969" lon="5.757976080227594"><ele>715.1666666666666</ele><time>2026-03-28T13:54:30.999Z</time></trkpt><trkpt lat="43.43960234652969" lon="5.758002031489075"><ele>714.0</ele><time>2026-03-28T13:54:32.999Z</time></trkpt><trkpt lat="43.43964888848224" lon="5.7578468534276075"><ele>714.0</ele><time>2026-03-28T13:54:34.999Z</time></trkpt><trkpt lat="43.43967751231922" lon="5.757755491233816"><ele>714.0</ele><time>2026-03-28T13:54:35.999Z</time></trkpt><trkpt lat="43.43977211373772" lon="5.757722937786239"><ele>714.0</ele><time>2026-03-28T13:54:37.999Z</time></trkpt><trkpt lat="43.439899433367316" lon="5.757616217070638"><ele>714.0</ele><time>2026-03-28T13:54:40.999Z</time></trkpt><trkpt lat="43.439833484069965" lon="5.757660375431081"><ele>714.0</ele><time>2026-03-28T13:55:05.999Z</time></trkpt><trkpt lat="43.43987782967927" lon="5.7575520466914645"><ele>715.2</ele><time>2026-03-28T14:05:00Z</time></trkpt><trkpt lat="43.43989604867142" lon="5.7574490400344915"><ele>716.4000000000001</ele><time>2026-03-28T14:05:01Z</time></trkpt><trkpt lat="43.43997134391637" lon="5.757325768391536"><ele>717.6</ele><time>2026-03-28T14:05:03Z</time></trkpt><trkpt lat="43.44007442796712" lon="5.7572323581835"><ele>718.8</ele><time>2026-03-28T14:05:05Z</time></trkpt><trkpt lat="43.44012607592399" lon="5.757182598638163"><ele>720.0</ele><time>2026-03-28T14:05:06Z</time></trkpt><trkpt lat="43.440224706879654" lon="5.757097545767338"><ele>720.0</ele><time>2026-03-28T14:05:08Z</time></trkpt><trkpt lat="43.44032443094232" lon="5.757031406316175"><ele>720.0</ele><time>2026-03-28T14:05:10Z</time></trkpt><trkpt lat="43.440413219505025" lon="5.756944523481815"><ele>720.0</ele><time>2026-03-28T14:05:12Z</time></trkpt><trkpt lat="43.440497382445834" lon="5.756892033518598"><ele>720.0</ele><time>2026-03-28T14:05:14Z</time></trkpt><trkpt lat="43.44059054921459" lon="5.756826751564681"><ele>720.0</ele><time>2026-03-28T14:05:16Z</time></trkpt><trkpt lat="43.4406737962828" lon="5.756763495105873"><ele>714.4</ele><time>2026-03-28T14:05:18Z</time></trkpt><trkpt lat="43.44075418171177" lon="5.756709126978901"><ele>708.8</ele><time>2026-03-28T14:05:20Z</time></trkpt><trkpt lat="43.44083133497125" lon="5.7566382559513505"><ele>703.2</ele><time>2026-03-28T14:05:22Z</time></trkpt><trkpt lat="43.440905907880634" lon="5.756584488954166"><ele>697.6</ele><time>2026-03-28T14:05:24Z</time></trkpt><trkpt lat="43.440993692695194" lon="5.756549865070416"><ele>692.0</ele><time>2026-03-28T14:05:26Z</time></trkpt><trkpt lat="43.441086073942905" lon="5.756554100831888"><ele>692.0</ele><time>2026-03-28T14:05:28Z</time></trkpt><trkpt lat="43.441172467687814" lon="5.75660528022585"><ele>692.0</ele><time>2026-03-28T14:05:30Z</time></trkpt><trkpt lat="43.44124408397907" lon="5.756649939780617"><ele>692.0</ele><time>2026-03-28T14:05:31Z</time></trkpt><trkpt lat="43.44135182471022" lon="5.756707256894703"><ele>692.0</ele><time>2026-03-28T14:05:32Z</time></trkpt><trkpt lat="43.441446673055246" lon="5.756751788758097"><ele>692.0</ele><time>2026-03-28T14:05:33Z</time></trkpt><trkpt lat="43.44151556927253" lon="5.7567888123144035"><ele>691.0</ele><time>2026-03-28T14:05:34Z</time></trkpt><trkpt lat="43.44158699654629" lon="5.756819462971145"><ele>690.0</ele><time>2026-03-28T14:05:35Z</time></trkpt><trkpt lat="43.441654801171" lon="5.756848397540273"><ele>689.0</ele><time>2026-03-28T14:05:36Z</time></trkpt><trkpt lat="43.441773470876875" lon="5.756807034120287"><ele>688.0</ele><time>2026-03-28T14:05:38Z</time></trkpt><trkpt lat="43.44182112115323" lon="5.75674560350298"><ele>687.0</ele><time>2026-03-28T14:05:39Z</time></trkpt><trkpt lat="43.44189907072913" lon="5.756671905081173"><ele>686.0</ele><time>2026-03-28T14:05:40Z</time></trkpt><trkpt lat="43.44198266654554" lon="5.756605523666131"><ele>686.0</ele><time>2026-03-28T14:05:41Z</time></trkpt><trkpt lat="43.442067317763026" lon="5.756534456891341"><ele>686.0</ele><time>2026-03-28T14:05:42Z</time></trkpt><trkpt lat="43.442131307202686" lon="5.756481726962655"><ele>686.0</ele><time>2026-03-28T14:05:43Z</time></trkpt><trkpt lat="43.442231096059004" lon="5.756450682571346"><ele>686.0</ele><time>2026-03-28T14:05:45Z</time></trkpt><trkpt lat="43.44232794365753" lon="5.756505632435702"><ele>686.0</ele><time>2026-03-28T14:05:47Z</time></trkpt><trkpt lat="43.442380132573064" lon="5.756568338844143"><ele>685.4285714285714</ele><time>2026-03-28T14:05:48Z</time></trkpt><trkpt lat="43.44243450167408" lon="5.756642576893875"><ele>684.8571428571429</ele><time>2026-03-28T14:05:49Z</time></trkpt><trkpt lat="43.442474856342905" lon="5.756718902645748"><ele>684.2857142857142</ele><time>2026-03-28T14:05:50Z</time></trkpt><trkpt lat="43.442515877429344" lon="5.7567961935619625"><ele>683.7142857142858</ele><time>2026-03-28T14:05:51Z</time></trkpt><trkpt lat="43.44254198763539" lon="5.7568846806119796"><ele>683.1428571428571</ele><time>2026-03-28T14:05:52Z</time></trkpt><trkpt lat="43.442567403465944" lon="5.756971520304825"><ele>682.5714285714286</ele><time>2026-03-28T14:05:53Z</time></trkpt><trkpt lat="43.44260635888762" lon="5.7570461273942195"><ele>682.0</ele><time>2026-03-28T14:05:54Z</time></trkpt><trkpt lat="43.4427260995228" lon="5.7570482966539025"><ele>678.4000000000001</ele><time>2026-03-28T14:05:56Z</time></trkpt><trkpt lat="43.44282129027938" lon="5.756958932017452"><ele>674.8000000000001</ele><time>2026-03-28T14:05:57.999Z</time></trkpt><trkpt lat="43.442880039689484" lon="5.756904874943947"><ele>671.2</ele><time>2026-03-28T14:05:58.999Z</time></trkpt><trkpt lat="43.44297137877449" lon="5.7568175573248155"><ele>667.6</ele><time>2026-03-28T14:06:01Z</time></trkpt><trkpt lat="43.44308615585291" lon="5.756781257954656"><ele>664.0</ele><time>2026-03-28T14:06:03Z</time></trkpt><trkpt lat="43.44315162029632" lon="5.756805206265448"><ele>664.0</ele><time>2026-03-28T14:06:04Z</time></trkpt><trkpt lat="43.44324409780612" lon="5.7568419168013785"><ele>664.0</ele><time>2026-03-28T14:06:05Z</time></trkpt><trkpt lat="43.44333450235827" lon="5.756876891076142"><ele>664.0</ele><time>2026-03-28T14:06:06Z</time></trkpt><trkpt lat="43.443405535705764" lon="5.756900370893918"><ele>664.0</ele><time>2026-03-28T14:06:07Z</time></trkpt><trkpt lat="43.44348788489796" lon="5.756891958139191"><ele>664.0</ele><time>2026-03-28T14:06:08Z</time></trkpt><trkpt lat="43.443549636006054" lon="5.7568464964875465"><ele>664.0</ele><time>2026-03-28T14:06:09Z</time></trkpt><trkpt lat="43.44358672389414" lon="5.756754937534407"><ele>664.0</ele><time>2026-03-28T14:06:10Z</time></trkpt><trkpt lat="43.44361852708803" lon="5.756677322446074"><ele>664.0</ele><time>2026-03-28T14:06:11Z</time></trkpt><trkpt lat="43.44366947009501" lon="5.756621836006934"><ele>664.0</ele><time>2026-03-28T14:06:12Z</time></trkpt><trkpt lat="43.44376400447056" lon="5.7565413861790224"><ele>664.0</ele><time>2026-03-28T14:06:14Z</time></trkpt><trkpt lat="43.443856245146414" lon="5.75647402870944"><ele>664.0</ele><time>2026-03-28T14:06:16Z</time></trkpt><trkpt lat="43.44394156747015" lon="5.756490568050021"><ele>664.0</ele><time>2026-03-28T14:06:18Z</time></trkpt><trkpt lat="43.44406170984069" lon="5.75652493753453"><ele>662.3333333333334</ele><time>2026-03-28T14:06:20Z</time></trkpt><trkpt lat="43.44413768716431" lon="5.756547065353212"><ele>660.6666666666667</ele><time>2026-03-28T14:06:21Z</time></trkpt><trkpt lat="43.44420081802857" lon="5.756576245961111"><ele>659.0</ele><time>2026-03-28T14:06:22Z</time></trkpt><trkpt lat="43.44426605578591" lon="5.756636569327859"><ele>657.3333333333334</ele><time>2026-03-28T14:06:24Z</time></trkpt><trkpt lat="43.44434475867315" lon="5.756699428016511"><ele>655.6666666666666</ele><time>2026-03-28T14:06:26Z</time></trkpt><trkpt lat="43.44440732742949" lon="5.756730353708696"><ele>654.0</ele><time>2026-03-28T14:06:27Z</time></trkpt><trkpt lat="43.44453590929287" lon="5.756789702047694"><ele>654.0</ele><time>2026-03-28T14:06:29Z</time></trkpt><trkpt lat="43.44460895753383" lon="5.7568085100886845"><ele>654.0</ele><time>2026-03-28T14:06:30Z</time></trkpt><trkpt lat="43.444678821142546" lon="5.756793130549627"><ele>654.0</ele><time>2026-03-28T14:06:31Z</time></trkpt><trkpt lat="43.444750629759746" lon="5.756748566375169"><ele>654.0</ele><time>2026-03-28T14:06:32Z</time></trkpt><trkpt lat="43.44483217085177" lon="5.756713997467271"><ele>654.0</ele><time>2026-03-28T14:06:33Z</time></trkpt><trkpt lat="43.44494650373106" lon="5.7567338056315585"><ele>654.0</ele><time>2026-03-28T14:06:35Z</time></trkpt><trkpt lat="43.4450155236268" lon="5.756763919603648"><ele>651.5</ele><time>2026-03-28T14:06:36Z</time></trkpt><trkpt lat="43.44508603289652" lon="5.7567721504252365"><ele>649.0</ele><time>2026-03-28T14:06:37Z</time></trkpt><trkpt lat="43.445153704096676" lon="5.756755210266966"><ele>646.5</ele><time>2026-03-28T14:06:38Z</time></trkpt><trkpt lat="43.445255796740476" lon="5.756743170923918"><ele>644.0</ele><time>2026-03-28T14:06:40Z</time></trkpt><trkpt lat="43.44537046856795" lon="5.75674912905981"><ele>641.5</ele><time>2026-03-28T14:06:42Z</time></trkpt><trkpt lat="43.4454379417333" lon="5.756729009515379"><ele>639.0</ele><time>2026-03-28T14:06:43Z</time></trkpt><trkpt lat="43.445504463580846" lon="5.756691491582603"><ele>638.4</ele><time>2026-03-28T14:06:44Z</time></trkpt><trkpt lat="43.44562447764549" lon="5.756622465084858"><ele>637.8</ele><time>2026-03-28T14:06:46Z</time></trkpt><trkpt lat="43.44570489848368" lon="5.756640919343649"><ele>637.2</ele><time>2026-03-28T14:06:47Z</time></trkpt><trkpt lat="43.44579152769298" lon="5.756693829326721"><ele>636.6</ele><time>2026-03-28T14:06:48Z</time></trkpt><trkpt lat="43.44589664688029" lon="5.756747410619104"><ele>636.0</ele><time>2026-03-28T14:06:49Z</time></trkpt><trkpt lat="43.445985210843794" lon="5.756782175533434"><ele>636.0</ele><time>2026-03-28T14:06:50Z</time></trkpt><trkpt lat="43.446022329931566" lon="5.756696881599875"><ele>636.0</ele><time>2026-03-28T14:06:57Z</time></trkpt><trkpt lat="43.44609504106611" lon="5.756617648938107"><ele>636.0</ele><time>2026-03-28T14:07:00Z</time></trkpt><trkpt lat="43.44618684011297" lon="5.75642051211996"><ele>636.0</ele><time>2026-03-28T14:07:02Z</time></trkpt><trkpt lat="43.44622988955234" lon="5.75633764195822"><ele>636.0</ele><time>2026-03-28T14:07:03Z</time></trkpt><trkpt lat="43.446299553183906" lon="5.756300585530124"><ele>637.1666666666666</ele><time>2026-03-28T14:07:04Z</time></trkpt><trkpt lat="43.446387819453555" lon="5.756285096856071"><ele>638.3333333333334</ele><time>2026-03-28T14:07:05Z</time></trkpt><trkpt lat="43.44647418032976" lon="5.756296851854262"><ele>639.5</ele><time>2026-03-28T14:07:06Z</time></trkpt><trkpt lat="43.44655823458651" lon="5.7563144682826355"><ele>640.6666666666667</ele><time>2026-03-28T14:07:07Z</time></trkpt><trkpt lat="43.44662895168864" lon="5.756278532397547"><ele>641.8333333333334</ele><time>2026-03-28T14:07:08Z</time></trkpt><trkpt lat="43.446671892620685" lon="5.756185648047412"><ele>643.0</ele><time>2026-03-28T14:07:09Z</time></trkpt><trkpt lat="43.446750197992706" lon="5.7561253441720535"><ele>643.0</ele><time>2026-03-28T14:07:10Z</time></trkpt><trkpt lat="43.446831858554134" lon="5.756079311229799"><ele>643.0</ele><time>2026-03-28T14:07:11Z</time></trkpt><trkpt lat="43.446914063144476" lon="5.756029168320156"><ele>643.0</ele><time>2026-03-28T14:07:12Z</time></trkpt><trkpt lat="43.44699194781357" lon="5.755984503562488"><ele>643.0</ele><time>2026-03-28T14:07:13Z</time></trkpt><trkpt lat="43.447067386291835" lon="5.755941542065544"><ele>643.0</ele><time>2026-03-28T14:07:14Z</time></trkpt><trkpt lat="43.447135965159376" lon="5.75591446916862"><ele>643.0</ele><time>2026-03-28T14:07:15Z</time></trkpt><trkpt lat="43.447265303552264" lon="5.755897648916375"><ele>640.1999999999999</ele><time>2026-03-28T14:07:17Z</time></trkpt><trkpt lat="43.44739057995201" lon="5.755895074725306"><ele>637.4</ele><time>2026-03-28T14:07:45Z</time></trkpt><trkpt lat="43.447483190254175" lon="5.755891626968695"><ele>634.5999999999999</ele><time>2026-03-28T14:07:46Z</time></trkpt><trkpt lat="43.44755986677517" lon="5.755892730034115"><ele>631.8</ele><time>2026-03-28T14:07:47Z</time></trkpt><trkpt lat="43.44763727852544" lon="5.7558913879360425"><ele>629.0</ele><time>2026-03-28T14:07:48Z</time></trkpt><trkpt lat="43.44774134749986" lon="5.75587686207341"><ele>629.0</ele><time>2026-03-28T14:07:49Z</time></trkpt><trkpt lat="43.44785652507004" lon="5.755861839735503"><ele>629.0</ele><time>2026-03-28T14:07:50Z</time></trkpt><trkpt lat="43.44796167824279" lon="5.755857881077804"><ele>629.0</ele><time>2026-03-28T14:07:51Z</time></trkpt><trkpt lat="43.448048316427666" lon="5.755847653883574"><ele>629.0</ele><time>2026-03-28T14:07:52Z</time></trkpt><trkpt lat="43.44812041440605" lon="5.755800911466749"><ele>629.0</ele><time>2026-03-28T14:07:53Z</time></trkpt><trkpt lat="43.4481846258372" lon="5.755742170765629"><ele>628.8333333333333</ele><time>2026-03-28T14:07:53.999Z</time></trkpt><trkpt lat="43.44824816996189" lon="5.755701011068852"><ele>628.6666666666666</ele><time>2026-03-28T14:07:54.999Z</time></trkpt><trkpt lat="43.4483225513508" lon="5.75568542124357"><ele>628.5</ele><time>2026-03-28T14:07:55.999Z</time></trkpt><trkpt lat="43.448400229579164" lon="5.755705872931977"><ele>628.3333333333334</ele><time>2026-03-28T14:07:56.999Z</time></trkpt><trkpt lat="43.4484703206205" lon="5.755766227628235"><ele>628.1666666666667</ele><time>2026-03-28T14:07:57.999Z</time></trkpt><trkpt lat="43.44855061198594" lon="5.755815657647093"><ele>628.0</ele><time>2026-03-28T14:07:58.999Z</time></trkpt><trkpt lat="43.44862922063577" lon="5.75582793388061"><ele>628.0</ele><time>2026-03-28T14:07:59.999Z</time></trkpt><trkpt lat="43.44872043875581" lon="5.755836902827596"><ele>628.0</ele><time>2026-03-28T14:08:00.999Z</time></trkpt><trkpt lat="43.448800000742644" lon="5.755872550753253"><ele>628.0</ele><time>2026-03-28T14:08:01.999Z</time></trkpt><trkpt lat="43.448876990847054" lon="5.7559288591208615"><ele>628.0</ele><time>2026-03-28T14:08:02.999Z</time></trkpt><trkpt lat="43.448948182038535" lon="5.756004051310835"><ele>628.0</ele><time>2026-03-28T14:08:03.999Z</time></trkpt><trkpt lat="43.44903084164538" lon="5.75607111347269"><ele>628.0</ele><time>2026-03-28T14:08:04.999Z</time></trkpt><trkpt lat="43.44910864742706" lon="5.7561250951434975"><ele>626.8333333333334</ele><time>2026-03-28T14:08:05.999Z</time></trkpt><trkpt lat="43.44917394151247" lon="5.756188118189475"><ele>625.6666666666667</ele><time>2026-03-28T14:08:07Z</time></trkpt><trkpt lat="43.44922477676119" lon="5.75625779630592"><ele>624.5</ele><time>2026-03-28T14:08:08Z</time></trkpt><trkpt lat="43.449269873929644" lon="5.756344049032555"><ele>623.3333333333334</ele><time>2026-03-28T14:08:09Z</time></trkpt><trkpt lat="43.44932955389426" lon="5.756445760563256"><ele>622.1666666666666</ele><time>2026-03-28T14:08:10Z</time></trkpt><trkpt lat="43.44940680536082" lon="5.756552768458798"><ele>621.0</ele><time>2026-03-28T14:08:11Z</time></trkpt><trkpt lat="43.44948431099254" lon="5.756645248739221"><ele>621.0</ele><time>2026-03-28T14:08:12Z</time></trkpt><trkpt lat="43.44955767644043" lon="5.756721615869963"><ele>621.0</ele><time>2026-03-28T14:08:13Z</time></trkpt><trkpt lat="43.44961541450668" lon="5.756810852188167"><ele>621.0</ele><time>2026-03-28T14:08:14Z</time></trkpt><trkpt lat="43.4496654027268" lon="5.756888499408794"><ele>621.0</ele><time>2026-03-28T14:08:15Z</time></trkpt><trkpt lat="43.44969724607894" lon="5.756971911881841"><ele>621.0</ele><time>2026-03-28T14:08:16Z</time></trkpt><trkpt lat="43.449715435799014" lon="5.757094997638164"><ele>621.0</ele><time>2026-03-28T14:08:17Z</time></trkpt><trkpt lat="43.44971862688103" lon="5.75721935006335"><ele>621.0</ele><time>2026-03-28T14:08:18Z</time></trkpt><trkpt lat="43.44972960082979" lon="5.757325480450745"><ele>621.0</ele><time>2026-03-28T14:08:19Z</time></trkpt><trkpt lat="43.449770533573776" lon="5.757431449351362"><ele>621.0</ele><time>2026-03-28T14:08:20Z</time></trkpt><trkpt lat="43.44982769021971" lon="5.757539710047235"><ele>621.0</ele><time>2026-03-28T14:08:21Z</time></trkpt><trkpt lat="43.44991546983104" lon="5.757643594495739"><ele>621.0</ele><time>2026-03-28T14:08:22Z</time></trkpt><trkpt lat="43.45001518070819" lon="5.75774306156193"><ele>621.0</ele><time>2026-03-28T14:08:23Z</time></trkpt><trkpt lat="43.45009939805776" lon="5.7578248250336515"><ele>621.0</ele><time>2026-03-28T14:08:24Z</time></trkpt><trkpt lat="43.4501646161965" lon="5.757892775943294"><ele>621.0</ele><time>2026-03-28T14:08:25Z</time></trkpt><trkpt lat="43.45022622499353" lon="5.75799899850327"><ele>621.0</ele><time>2026-03-28T14:08:26Z</time></trkpt><trkpt lat="43.45028733120633" lon="5.758122081383535"><ele>621.0</ele><time>2026-03-28T14:08:27Z</time></trkpt><trkpt lat="43.45033657666291" lon="5.75824041978973"><ele>621.0</ele><time>2026-03-28T14:08:28Z</time></trkpt><trkpt lat="43.45036643829275" lon="5.75835864899633"><ele>621.0</ele><time>2026-03-28T14:08:29Z</time></trkpt><trkpt lat="43.45036233452978" lon="5.758456922652054"><ele>621.0</ele><time>2026-03-28T14:08:30Z</time></trkpt><trkpt lat="43.45033929353701" lon="5.758550641166792"><ele>621.0</ele><time>2026-03-28T14:08:31Z</time></trkpt><trkpt lat="43.4503133827636" lon="5.758649738489529"><ele>621.0</ele><time>2026-03-28T14:08:32Z</time></trkpt><trkpt lat="43.450305183502294" lon="5.758760549055518"><ele>621.0</ele><time>2026-03-28T14:08:33Z</time></trkpt><trkpt lat="43.4503319953045" lon="5.758863647708865"><ele>622.4</ele><time>2026-03-28T14:08:34Z</time></trkpt><trkpt lat="43.45039029370288" lon="5.758971665135223"><ele>623.8</ele><time>2026-03-28T14:08:35Z</time></trkpt><trkpt lat="43.45047671084196" lon="5.759078896704184"><ele>625.1999999999999</ele><time>2026-03-28T14:08:36Z</time></trkpt><trkpt lat="43.450570579130954" lon="5.759143707222247"><ele>626.6</ele><time>2026-03-28T14:08:37Z</time></trkpt><trkpt lat="43.45068181798953" lon="5.759184715354118"><ele>628.0</ele><time>2026-03-28T14:08:38Z</time></trkpt><trkpt lat="43.450820151067205" lon="5.759226963451922"><ele>628.0</ele><time>2026-03-28T14:08:39Z</time></trkpt><trkpt lat="43.450945089433816" lon="5.759252579632663"><ele>628.0</ele><time>2026-03-28T14:08:40Z</time></trkpt><trkpt lat="43.45105294110635" lon="5.75927967723927"><ele>628.0</ele><time>2026-03-28T14:08:41Z</time></trkpt><trkpt lat="43.45112204448761" lon="5.7593332966455"><ele>628.0</ele><time>2026-03-28T14:08:42Z</time></trkpt><trkpt lat="43.45117154078584" lon="5.759415845843789"><ele>628.0</ele><time>2026-03-28T14:08:43Z</time></trkpt><trkpt lat="43.45120080558391" lon="5.759509895052411"><ele>628.0</ele><time>2026-03-28T14:08:44Z</time></trkpt><trkpt lat="43.451245946786415" lon="5.759615628380708"><ele>628.0</ele><time>2026-03-28T14:08:45Z</time></trkpt><trkpt lat="43.451306333273685" lon="5.759682422759931"><ele>628.0</ele><time>2026-03-28T14:08:46Z</time></trkpt><trkpt lat="43.451383357479344" lon="5.759712992240511"><ele>628.0</ele><time>2026-03-28T14:08:47Z</time></trkpt><trkpt lat="43.45147810525834" lon="5.75971606041528"><ele>628.0</ele><time>2026-03-28T14:08:48Z</time></trkpt><trkpt lat="43.451564316115345" lon="5.759726789269651"><ele>628.0</ele><time>2026-03-28T14:08:49Z</time></trkpt><trkpt lat="43.45162957099858" lon="5.75976772799565"><ele>625.2857142857142</ele><time>2026-03-28T14:08:50Z</time></trkpt><trkpt lat="43.45167190442348" lon="5.759846758868955"><ele>622.5714285714286</ele><time>2026-03-28T14:08:51Z</time></trkpt><trkpt lat="43.45168960180917" lon="5.759942695095864"><ele>619.8571428571429</ele><time>2026-03-28T14:08:52Z</time></trkpt><trkpt lat="43.45169248892062" lon="5.7600506911014415"><ele>617.1428571428571</ele><time>2026-03-28T14:08:53Z</time></trkpt><trkpt lat="43.45170179155631" lon="5.760151578106586"><ele>614.4285714285714</ele><time>2026-03-28T14:08:54Z</time></trkpt><trkpt lat="43.45171220185525" lon="5.760256470622417"><ele>611.7142857142857</ele><time>2026-03-28T14:08:55Z</time></trkpt><trkpt lat="43.45171117466544" lon="5.760354566195722"><ele>609.0</ele><time>2026-03-28T14:08:56Z</time></trkpt><trkpt lat="43.45170624401265" lon="5.760462132855384"><ele>609.0</ele><time>2026-03-28T14:08:57Z</time></trkpt><trkpt lat="43.4517099730805" lon="5.760568486114619"><ele>609.0</ele><time>2026-03-28T14:08:58Z</time></trkpt><trkpt lat="43.451713890393265" lon="5.760675095906952"><ele>609.0</ele><time>2026-03-28T14:08:59Z</time></trkpt><trkpt lat="43.451716797905235" lon="5.760789118490695"><ele>609.0</ele><time>2026-03-28T14:09:00Z</time></trkpt><trkpt lat="43.45173386253107" lon="5.760907619516182"><ele>609.0</ele><time>2026-03-28T14:09:01Z</time></trkpt><trkpt lat="43.45178406694433" lon="5.761017865262086"><ele>609.0</ele><time>2026-03-28T14:09:02Z</time></trkpt><trkpt lat="43.451860543458544" lon="5.761088794691308"><ele>606.0</ele><time>2026-03-28T14:09:03Z</time></trkpt><trkpt lat="43.451933512618886" lon="5.761118711863755"><ele>603.0</ele><time>2026-03-28T14:09:04Z</time></trkpt><trkpt lat="43.45202877666743" lon="5.761258008175499"><ele>600.0</ele><time>2026-03-28T14:09:06Z</time></trkpt><trkpt lat="43.45206271631028" lon="5.761376792992771"><ele>597.0</ele><time>2026-03-28T14:09:07Z</time></trkpt><trkpt lat="43.4521109054568" lon="5.761467392362176"><ele>594.0</ele><time>2026-03-28T14:09:08Z</time></trkpt><trkpt lat="43.45215524630306" lon="5.7615584541803715"><ele>594.0</ele><time>2026-03-28T14:09:09Z</time></trkpt><trkpt lat="43.45218294866105" lon="5.7616582612063905"><ele>594.0</ele><time>2026-03-28T14:09:10Z</time></trkpt><trkpt lat="43.45221983871041" lon="5.7617760968807765"><ele>594.0</ele><time>2026-03-28T14:09:11Z</time></trkpt><trkpt lat="43.45228708082205" lon="5.761867923081466"><ele>594.0</ele><time>2026-03-28T14:09:12Z</time></trkpt><trkpt lat="43.45236965027197" lon="5.761924077829238"><ele>594.0</ele><time>2026-03-28T14:09:13Z</time></trkpt><trkpt lat="43.452458113868225" lon="5.761965049800047"><ele>598.4</ele><time>2026-03-28T14:09:14Z</time></trkpt><trkpt lat="43.4525257608645" lon="5.762032758288921"><ele>602.8</ele><time>2026-03-28T14:09:15Z</time></trkpt><trkpt lat="43.452583040696986" lon="5.762092023584157"><ele>607.2</ele><time>2026-03-28T14:09:16Z</time></trkpt><trkpt lat="43.452710403596186" lon="5.762113951544848"><ele>611.6</ele><time>2026-03-28T14:09:18Z</time></trkpt><trkpt lat="43.45280104728386" lon="5.7622378651472115"><ele>616.0</ele><time>2026-03-28T14:09:20Z</time></trkpt><trkpt lat="43.45283383416979" lon="5.76233439501679"><ele>616.0</ele><time>2026-03-28T14:09:21Z</time></trkpt><trkpt lat="43.45284784642554" lon="5.762449008551141"><ele>616.0</ele><time>2026-03-28T14:09:22Z</time></trkpt><trkpt lat="43.45285378125638" lon="5.76255818587246"><ele>616.0</ele><time>2026-03-28T14:09:23Z</time></trkpt><trkpt lat="43.45285672215061" lon="5.7627060478514105"><ele>616.0</ele><time>2026-03-28T14:09:24Z</time></trkpt><trkpt lat="43.452877177266586" lon="5.762842469076931"><ele>616.0</ele><time>2026-03-28T14:09:25Z</time></trkpt><trkpt lat="43.452914419702815" lon="5.762942885404701"><ele>611.8333333333334</ele><time>2026-03-28T14:09:26Z</time></trkpt><trkpt lat="43.45297220223624" lon="5.763023529188966"><ele>607.6666666666667</ele><time>2026-03-28T14:09:27Z</time></trkpt><trkpt lat="43.453044776661066" lon="5.763083742717752"><ele>603.5</ele><time>2026-03-28T14:09:28Z</time></trkpt><trkpt lat="43.45311670134243" lon="5.763143700241636"><ele>599.3333333333334</ele><time>2026-03-28T14:09:29Z</time></trkpt><trkpt lat="43.453174292117616" lon="5.7632347788100455"><ele>595.1666666666666</ele><time>2026-03-28T14:09:30Z</time></trkpt><trkpt lat="43.453220537518256" lon="5.7633420085551235"><ele>591.0</ele><time>2026-03-28T14:09:31Z</time></trkpt><trkpt lat="43.45327803539639" lon="5.763470463692263"><ele>594.5</ele><time>2026-03-28T14:09:32Z</time></trkpt><trkpt lat="43.45333560884278" lon="5.763580044202611"><ele>598.0</ele><time>2026-03-28T14:09:33Z</time></trkpt><trkpt lat="43.45338907347473" lon="5.763709102282806"><ele>601.5</ele><time>2026-03-28T14:09:34Z</time></trkpt><trkpt lat="43.4534644608534" lon="5.763875345859058"><ele>605.0</ele><time>2026-03-28T14:09:35Z</time></trkpt><trkpt lat="43.45354429320018" lon="5.764023328220157"><ele>605.0</ele><time>2026-03-28T14:09:36Z</time></trkpt><trkpt lat="43.4536177964796" lon="5.764129280267146"><ele>605.0</ele><time>2026-03-28T14:09:37Z</time></trkpt><trkpt lat="43.45367419405447" lon="5.764192014976201"><ele>605.0</ele><time>2026-03-28T14:09:38Z</time></trkpt><trkpt lat="43.45378570496462" lon="5.764239801807203"><ele>605.0</ele><time>2026-03-28T14:09:40Z</time></trkpt><trkpt lat="43.45385932042181" lon="5.764275185404987"><ele>605.0</ele><time>2026-03-28T14:09:42Z</time></trkpt><trkpt lat="43.45384540415701" lon="5.764186143566102"><ele>605.0</ele><time>2026-03-28T14:09:55.999Z</time></trkpt><trkpt lat="43.45378674796495" lon="5.764097419088037"><ele>605.0</ele><time>2026-03-28T14:09:57.999Z</time></trkpt><trkpt lat="43.45376208986507" lon="5.7639744468514955"><ele>605.0</ele><time>2026-03-28T14:09:59.999Z</time></trkpt><trkpt lat="43.453775110718716" lon="5.7638832658025025"><ele>605.0</ele><time>2026-03-28T14:10:03.999Z</time></trkpt><trkpt lat="43.453728515626686" lon="5.763792180666635"><ele>605.0</ele><time>2026-03-28T14:10:07.999Z</time></trkpt><trkpt lat="43.4537269938113" lon="5.7636931775971005"><ele>605.0</ele><time>2026-03-28T14:10:10.999Z</time></trkpt><trkpt lat="43.4536911494015" lon="5.763584767672502"><ele>605.0</ele><time>2026-03-28T14:10:15Z</time></trkpt><trkpt lat="43.453695688905576" lon="5.763488664010832"><ele>602.6666666666666</ele><time>2026-03-28T14:10:18Z</time></trkpt><trkpt lat="43.45370968334835" lon="5.763403295764078"><ele>600.3333333333333</ele><time>2026-03-28T14:10:24Z</time></trkpt><trkpt lat="43.45369698807217" lon="5.76328962416658"><ele>598.0</ele><time>2026-03-28T14:10:27Z</time></trkpt><trkpt lat="43.45370878277242" lon="5.763183285801272"><ele>595.6666666666666</ele><time>2026-03-28T14:10:29Z</time></trkpt><trkpt lat="43.45368110524527" lon="5.763058194077266"><ele>593.3333333333334</ele><time>2026-03-28T14:10:31Z</time></trkpt><trkpt lat="43.45368632801755" lon="5.762925276170868"><ele>591.0</ele><time>2026-03-28T14:10:33Z</time></trkpt><trkpt lat="43.45367920596368" lon="5.762832698600398"><ele>591.0</ele><time>2026-03-28T14:10:35Z</time></trkpt><trkpt lat="43.45370929711166" lon="5.762746002993496"><ele>591.0</ele><time>2026-03-28T14:10:39Z</time></trkpt><trkpt lat="43.45385844437461" lon="5.7627678873306065"><ele>591.0</ele><time>2026-03-28T14:10:48Z</time></trkpt><trkpt lat="43.45391791406429" lon="5.762737296892848"><ele>591.0</ele><time>2026-03-28T14:10:51Z</time></trkpt><trkpt lat="43.45391635065393" lon="5.762642036378964"><ele>591.0</ele><time>2026-03-28T14:10:55Z</time></trkpt><trkpt lat="43.45392366736118" lon="5.762529084645798"><ele>591.0</ele><time>2026-03-28T14:10:58Z</time></trkpt><trkpt lat="43.45393488501177" lon="5.762433087485866"><ele>584.5714285714286</ele><time>2026-03-28T14:11:03Z</time></trkpt><trkpt lat="43.45397768585828" lon="5.762358381135457"><ele>578.1428571428571</ele><time>2026-03-28T14:11:08Z</time></trkpt><trkpt lat="43.45404318551815" lon="5.762320934805932"><ele>571.7142857142858</ele><time>2026-03-28T14:11:11Z</time></trkpt><trkpt lat="43.45411057621144" lon="5.762285476039663"><ele>565.2857142857142</ele><time>2026-03-28T14:11:15Z</time></trkpt><trkpt lat="43.45416634336052" lon="5.76221393346653"><ele>558.8571428571429</ele><time>2026-03-28T14:11:23Z</time></trkpt><trkpt lat="43.45422697486373" lon="5.76217659652321"><ele>552.4285714285714</ele><time>2026-03-28T14:11:27Z</time></trkpt><trkpt lat="43.454279273616166" lon="5.762128104006958"><ele>546.0</ele><time>2026-03-28T14:11:30Z</time></trkpt><trkpt lat="43.45433966579125" lon="5.762027733832856"><ele>546.0</ele><time>2026-03-28T14:11:33Z</time></trkpt><trkpt lat="43.45438732968704" lon="5.761912551777887"><ele>546.0</ele><time>2026-03-28T14:11:36Z</time></trkpt><trkpt lat="43.454447957190155" lon="5.761816691532112"><ele>546.0</ele><time>2026-03-28T14:11:38Z</time></trkpt><trkpt lat="43.45449617800494" lon="5.761729668661985"><ele>546.0</ele><time>2026-03-28T14:11:40Z</time></trkpt><trkpt lat="43.454523749769756" lon="5.761599018343104"><ele>546.0</ele><time>2026-03-28T14:11:42Z</time></trkpt><trkpt lat="43.45454225719818" lon="5.7614566999806955"><ele>541.0</ele><time>2026-03-28T14:11:44Z</time></trkpt><trkpt lat="43.45458900953122" lon="5.761202782001537"><ele>536.0</ele><time>2026-03-28T14:11:46.999Z</time></trkpt><trkpt lat="43.45460332339052" lon="5.761117585494262"><ele>531.0</ele><time>2026-03-28T14:11:47.999Z</time></trkpt><trkpt lat="43.45460567976936" lon="5.7609553587721996"><ele>526.0</ele><time>2026-03-28T14:11:49.999Z</time></trkpt><trkpt lat="43.454623303162634" lon="5.76078985805669"><ele>519.6666666666667</ele><time>2026-03-28T14:11:51.999Z</time></trkpt><trkpt lat="43.45462539140467" lon="5.760654677587863"><ele>513.3333333333334</ele><time>2026-03-28T14:11:53.999Z</time></trkpt><trkpt lat="43.45463318429831" lon="5.7605294485988034"><ele>507.0</ele><time>2026-03-28T14:11:55.999Z</time></trkpt><trkpt lat="43.454666545551305" lon="5.760455869111453"><ele>500.66666666666663</ele><time>2026-03-28T14:11:58.999Z</time></trkpt><trkpt lat="43.454727647301965" lon="5.7603966396793815"><ele>494.3333333333333</ele><time>2026-03-28T14:12:00.999Z</time></trkpt><trkpt lat="43.454779708201" lon="5.760340258233444"><ele>488.0</ele><time>2026-03-28T14:12:01.999Z</time></trkpt><trkpt lat="43.45482141981152" lon="5.760247821757903"><ele>486.16666666666663</ele><time>2026-03-28T14:12:03.999Z</time></trkpt><trkpt lat="43.45483682220604" lon="5.760143116104526"><ele>484.3333333333333</ele><time>2026-03-28T14:12:06.999Z</time></trkpt><trkpt lat="43.454899662107174" lon="5.7601129574485075"><ele>482.5</ele><time>2026-03-28T14:12:08.999Z</time></trkpt><trkpt lat="43.454979406283755" lon="5.760081276544156"><ele>480.66666666666663</ele><time>2026-03-28T14:12:10.999Z</time></trkpt><trkpt lat="43.455050413113334" lon="5.760033937461753"><ele>478.8333333333333</ele><time>2026-03-28T14:12:11.999Z</time></trkpt><trkpt lat="43.455114156544575" lon="5.760011215317769"><ele>477.0</ele><time>2026-03-28T14:12:12.999Z</time></trkpt><trkpt lat="43.45521913369043" lon="5.759916633567259"><ele>477.0</ele><time>2026-03-28T14:12:14.999Z</time></trkpt><trkpt lat="43.455288029679814" lon="5.759795041496015"><ele>477.00000000000006</ele><time>2026-03-28T14:12:16.999Z</time></trkpt><trkpt lat="43.45531879681334" lon="5.759680817354608"><ele>477.00000000000006</ele><time>2026-03-28T14:12:19Z</time></trkpt><trkpt lat="43.45534459786801" lon="5.759530029903212"><ele>477.0</ele><time>2026-03-28T14:12:21Z</time></trkpt><trkpt lat="43.45540577455462" lon="5.759419593348081"><ele>477.0</ele><time>2026-03-28T14:12:23Z</time></trkpt><trkpt lat="43.45550450867726" lon="5.759474418634062"><ele>473.8</ele><time>2026-03-28T14:12:25Z</time></trkpt><trkpt lat="43.45560160114984" lon="5.759501312442227"><ele>470.6</ele><time>2026-03-28T14:12:26Z</time></trkpt><trkpt lat="43.45568923875387" lon="5.759513896281637"><ele>467.40000000000003</ele><time>2026-03-28T14:12:28Z</time></trkpt><trkpt lat="43.455736882480636" lon="5.7594201375033345"><ele>464.20000000000005</ele><time>2026-03-28T14:12:30Z</time></trkpt><trkpt lat="43.45579894751497" lon="5.759289168290912"><ele>461.0</ele><time>2026-03-28T14:12:32Z</time></trkpt><trkpt lat="43.45585369434848" lon="5.759154217946857"><ele>459.66666666666663</ele><time>2026-03-28T14:12:34Z</time></trkpt><trkpt lat="43.455913629912004" lon="5.759007845797731"><ele>458.3333333333333</ele><time>2026-03-28T14:12:36Z</time></trkpt><trkpt lat="43.45594530276889" lon="5.7589280221339765"><ele>457.0</ele><time>2026-03-28T14:12:37Z</time></trkpt><trkpt lat="43.45604778771624" lon="5.758874286015508"><ele>455.66666666666663</ele><time>2026-03-28T14:12:39Z</time></trkpt><trkpt lat="43.456121016021534" lon="5.758905635004529"><ele>454.3333333333333</ele><time>2026-03-28T14:12:41Z</time></trkpt><trkpt lat="43.45618723592286" lon="5.758914919762611"><ele>453.0</ele><time>2026-03-28T14:12:42Z</time></trkpt><trkpt lat="43.4563099806183" lon="5.758934088388214"><ele>450.5</ele><time>2026-03-28T14:12:43Z</time></trkpt><trkpt lat="43.45639544004404" lon="5.758960601327537"><ele>448.0</ele><time>2026-03-28T14:12:44Z</time></trkpt><trkpt lat="43.45648269279124" lon="5.75898472384353"><ele>445.5</ele><time>2026-03-28T14:12:45Z</time></trkpt><trkpt lat="43.456564114730774" lon="5.759002615616278"><ele>443.0</ele><time>2026-03-28T14:12:46Z</time></trkpt><trkpt lat="43.45664877080071" lon="5.758989532039918"><ele>440.5</ele><time>2026-03-28T14:12:47Z</time></trkpt><trkpt lat="43.4567240558135" lon="5.758986301926865"><ele>438.0</ele><time>2026-03-28T14:12:48Z</time></trkpt><trkpt lat="43.45685784880059" lon="5.758947042383552"><ele>438.0</ele><time>2026-03-28T14:12:50Z</time></trkpt><trkpt lat="43.456941728882775" lon="5.75890227244746"><ele>437.99999999999994</ele><time>2026-03-28T14:12:51Z</time></trkpt><trkpt lat="43.45702041199085" lon="5.758856562874682"><ele>437.99999999999994</ele><time>2026-03-28T14:12:52Z</time></trkpt><trkpt lat="43.45710773233856" lon="5.758819863376128"><ele>438.0</ele><time>2026-03-28T14:12:53Z</time></trkpt><trkpt lat="43.457188886454304" lon="5.758771842994463"><ele>438.0</ele><time>2026-03-28T14:12:54Z</time></trkpt><trkpt lat="43.4572762937903" lon="5.758715095504312"><ele>435.5</ele><time>2026-03-28T14:12:55Z</time></trkpt><trkpt lat="43.45734152479006" lon="5.758684843246647"><ele>433.0</ele><time>2026-03-28T14:12:56Z</time></trkpt><trkpt lat="43.45744304022138" lon="5.758646145802437"><ele>430.5</ele><time>2026-03-28T14:12:58Z</time></trkpt><trkpt lat="43.457516906501006" lon="5.75864158044085"><ele>428.0</ele><time>2026-03-28T14:13:00Z</time></trkpt><trkpt lat="43.457555776223806" lon="5.758736237566203"><ele>425.5</ele><time>2026-03-28T14:14:07.999Z</time></trkpt><trkpt lat="43.45750435346833" lon="5.7588146816627805"><ele>423.0</ele><time>2026-03-28T14:14:11.999Z</time></trkpt><trkpt lat="43.457449596502705" lon="5.758965176919901"><ele>423.0</ele><time>2026-03-28T14:14:13.999Z</time></trkpt><trkpt lat="43.45740886682357" lon="5.759051093757613"><ele>423.0</ele><time>2026-03-28T14:14:14.999Z</time></trkpt><trkpt lat="43.45734225572606" lon="5.75919871515376"><ele>423.0</ele><time>2026-03-28T14:14:16.999Z</time></trkpt><trkpt lat="43.45730335380452" lon="5.759346200118723"><ele>423.0</ele><time>2026-03-28T14:14:18.999Z</time></trkpt><trkpt lat="43.45728842889407" lon="5.759460270844611"><ele>423.0</ele><time>2026-03-28T14:14:20.999Z</time></trkpt><trkpt lat="43.45730013176511" lon="5.759576932404929"><ele>423.5</ele><time>2026-03-28T14:14:22.999Z</time></trkpt><trkpt lat="43.45734426632252" lon="5.759662086379307"><ele>424.0</ele><time>2026-03-28T14:14:25Z</time></trkpt><trkpt lat="43.457388430731164" lon="5.7597336911187105"><ele>424.5</ele><time>2026-03-28T14:14:26Z</time></trkpt><trkpt lat="43.457440625791165" lon="5.759842865083891"><ele>425.0</ele><time>2026-03-28T14:14:27Z</time></trkpt><trkpt lat="43.4574994150329" lon="5.759957133804175"><ele>425.5</ele><time>2026-03-28T14:14:28Z</time></trkpt><trkpt lat="43.4575553397484" lon="5.760049732602183"><ele>426.0</ele><time>2026-03-28T14:14:29Z</time></trkpt><trkpt lat="43.45760004180539" lon="5.760139191131519"><ele>428.25</ele><time>2026-03-28T14:14:30Z</time></trkpt><trkpt lat="43.457636896577796" lon="5.760273118502499"><ele>430.5</ele><time>2026-03-28T14:14:31Z</time></trkpt><trkpt lat="43.45766382372669" lon="5.7603950670791875"><ele>432.75</ele><time>2026-03-28T14:14:32Z</time></trkpt><trkpt lat="43.457670611600534" lon="5.760548856954563"><ele>435.0</ele><time>2026-03-28T14:14:33Z</time></trkpt><trkpt lat="43.457663217461615" lon="5.760764143759809"><ele>435.0</ele><time>2026-03-28T14:14:34Z</time></trkpt><trkpt lat="43.45766819876799" lon="5.76098198817095"><ele>435.0</ele><time>2026-03-28T14:14:35Z</time></trkpt><trkpt lat="43.45771058568671" lon="5.761146802786735"><ele>435.0</ele><time>2026-03-28T14:14:36Z</time></trkpt><trkpt lat="43.45776390933779" lon="5.761266703513921"><ele>435.0</ele><time>2026-03-28T14:14:37Z</time></trkpt><trkpt lat="43.45782395798109" lon="5.761367346322901"><ele>434.3333333333333</ele><time>2026-03-28T14:14:38Z</time></trkpt><trkpt lat="43.457897838054826" lon="5.761443576124197"><ele>433.66666666666663</ele><time>2026-03-28T14:14:39Z</time></trkpt><trkpt lat="43.457981641423444" lon="5.761550579929463"><ele>433.0</ele><time>2026-03-28T14:14:40Z</time></trkpt><trkpt lat="43.45804365045439" lon="5.761659503599263"><ele>432.3333333333333</ele><time>2026-03-28T14:14:41Z</time></trkpt><trkpt lat="43.4580805566811" lon="5.761742794983879"><ele>431.66666666666663</ele><time>2026-03-28T14:14:42Z</time></trkpt><trkpt lat="43.45810790641717" lon="5.761823817356768"><ele>431.0</ele><time>2026-03-28T14:14:43Z</time></trkpt><trkpt lat="43.45812343361886" lon="5.761942813557742"><ele>430.99999999999994</ele><time>2026-03-28T14:14:44Z</time></trkpt><trkpt lat="43.45813933857351" lon="5.762080052916707"><ele>431.0</ele><time>2026-03-28T14:14:45Z</time></trkpt><trkpt lat="43.45817298602384" lon="5.762186056404711"><ele>431.0</ele><time>2026-03-28T14:14:46Z</time></trkpt><trkpt lat="43.45821678877052" lon="5.762268704934626"><ele>431.0</ele><time>2026-03-28T14:14:47Z</time></trkpt><trkpt lat="43.45825633864469" lon="5.762348099310179"><ele>430.99999999999994</ele><time>2026-03-28T14:14:48Z</time></trkpt><trkpt lat="43.45827062157115" lon="5.762443588495466"><ele>431.0</ele><time>2026-03-28T14:14:49Z</time></trkpt><trkpt lat="43.4582787668331" lon="5.762550255614052"><ele>431.0</ele><time>2026-03-28T14:14:50Z</time></trkpt><trkpt lat="43.45828822257183" lon="5.762689790799402"><ele>431.0</ele><time>2026-03-28T14:14:51Z</time></trkpt><trkpt lat="43.45830709544656" lon="5.7628349745300005"><ele>431.0</ele><time>2026-03-28T14:14:52Z</time></trkpt><trkpt lat="43.458332760320296" lon="5.762968202083873"><ele>431.0</ele><time>2026-03-28T14:14:53Z</time></trkpt><trkpt lat="43.45835791978271" lon="5.763088319744808"><ele>431.0</ele><time>2026-03-28T14:14:54Z</time></trkpt><trkpt lat="43.45839780178833" lon="5.763199428462603"><ele>430.8333333333333</ele><time>2026-03-28T14:14:55Z</time></trkpt><trkpt lat="43.45844649997818" lon="5.763301258133958"><ele>430.66666666666663</ele><time>2026-03-28T14:14:56Z</time></trkpt><trkpt lat="43.45849830596105" lon="5.7633951167946815"><ele>430.5</ele><time>2026-03-28T14:14:57Z</time></trkpt><trkpt lat="43.45852676795403" lon="5.7634998126878925"><ele>430.33333333333337</ele><time>2026-03-28T14:14:58Z</time></trkpt><trkpt lat="43.45852990339054" lon="5.763603955028199"><ele>430.1666666666667</ele><time>2026-03-28T14:14:59Z</time></trkpt><trkpt lat="43.45851714045983" lon="5.7637020280960325"><ele>430.0</ele><time>2026-03-28T14:15:00Z</time></trkpt><trkpt lat="43.45849089809775" lon="5.763786517784516"><ele>429.33333333333337</ele><time>2026-03-28T14:15:01Z</time></trkpt><trkpt lat="43.458453085102654" lon="5.763859612153739"><ele>428.6666666666667</ele><time>2026-03-28T14:15:02Z</time></trkpt><trkpt lat="43.458389095523664" lon="5.763913237581194"><ele>428.0</ele><time>2026-03-28T14:15:03Z</time></trkpt><trkpt lat="43.45830963501844" lon="5.763961849809362"><ele>427.33333333333337</ele><time>2026-03-28T14:15:04Z</time></trkpt><trkpt lat="43.458215596228726" lon="5.76401546678547"><ele>426.6666666666667</ele><time>2026-03-28T14:15:05Z</time></trkpt><trkpt lat="43.45811976190728" lon="5.764076516550017"><ele>426.0</ele><time>2026-03-28T14:15:06Z</time></trkpt><trkpt lat="43.45801703561817" lon="5.764136603891041"><ele>429.5</ele><time>2026-03-28T14:15:07Z</time></trkpt><trkpt lat="43.45791302501137" lon="5.764189636518517"><ele>433.0</ele><time>2026-03-28T14:15:08Z</time></trkpt><trkpt lat="43.45779157379522" lon="5.764204625865604"><ele>436.5</ele><time>2026-03-28T14:15:09Z</time></trkpt><trkpt lat="43.457662999625654" lon="5.764216432812184"><ele>440.0</ele><time>2026-03-28T14:15:10Z</time></trkpt><trkpt lat="43.457576267021565" lon="5.764246263184087"><ele>439.99999999999994</ele><time>2026-03-28T14:15:11Z</time></trkpt><trkpt lat="43.45751786265355" lon="5.764304042292897"><ele>440.0</ele><time>2026-03-28T14:15:12Z</time></trkpt><trkpt lat="43.45748402360861" lon="5.764385725373728"><ele>440.0</ele><time>2026-03-28T14:15:13Z</time></trkpt><trkpt lat="43.45748684718126" lon="5.76447383911546"><ele>440.0</ele><time>2026-03-28T14:15:14Z</time></trkpt><trkpt lat="43.45753557592211" lon="5.764547452206501"><ele>439.99999999999994</ele><time>2026-03-28T14:15:15Z</time></trkpt><trkpt lat="43.45761524204831" lon="5.76465750773787"><ele>440.0</ele><time>2026-03-28T14:15:16Z</time></trkpt><trkpt lat="43.45770690891029" lon="5.764782758841541"><ele>440.6</ele><time>2026-03-28T14:15:17Z</time></trkpt><trkpt lat="43.45776300769793" lon="5.764903234727214"><ele>441.2</ele><time>2026-03-28T14:15:18Z</time></trkpt><trkpt lat="43.457796952836006" lon="5.765001986603415"><ele>441.79999999999995</ele><time>2026-03-28T14:15:19Z</time></trkpt><trkpt lat="43.45782653341035" lon="5.765105570688357"><ele>442.4</ele><time>2026-03-28T14:15:20Z</time></trkpt><trkpt lat="43.457869704362146" lon="5.7652373020541186"><ele>443.0</ele><time>2026-03-28T14:15:21Z</time></trkpt><trkpt lat="43.457899126030775" lon="5.7653792933699135"><ele>445.5</ele><time>2026-03-28T14:15:22Z</time></trkpt><trkpt lat="43.45791099629333" lon="5.765509770325238"><ele>448.0</ele><time>2026-03-28T14:15:23Z</time></trkpt><trkpt lat="43.4579162670237" lon="5.765650714720171"><ele>450.5</ele><time>2026-03-28T14:15:24Z</time></trkpt><trkpt lat="43.45792929837236" lon="5.765834647625735"><ele>453.0</ele><time>2026-03-28T14:15:25Z</time></trkpt><trkpt lat="43.45794812394593" lon="5.766008009715173"><ele>445.5</ele><time>2026-03-28T14:15:26Z</time></trkpt><trkpt lat="43.45797305626" lon="5.76619035790146"><ele>438.0</ele><time>2026-03-28T14:15:27Z</time></trkpt><trkpt lat="43.45799124354413" lon="5.766374179220449"><ele>430.5</ele><time>2026-03-28T14:15:28Z</time></trkpt><trkpt lat="43.458003592073034" lon="5.766537360065089"><ele>423.0</ele><time>2026-03-28T14:15:29Z</time></trkpt><trkpt lat="43.458004746540695" lon="5.766695117681195"><ele>423.0</ele><time>2026-03-28T14:15:30Z</time></trkpt><trkpt lat="43.458008082760536" lon="5.766844622697147"><ele>423.0</ele><time>2026-03-28T14:15:31Z</time></trkpt><trkpt lat="43.45801617362583" lon="5.766988456782941"><ele>423.0</ele><time>2026-03-28T14:15:32Z</time></trkpt><trkpt lat="43.458010605984114" lon="5.767127254431966"><ele>423.0</ele><time>2026-03-28T14:15:33Z</time></trkpt><trkpt lat="43.457998540735666" lon="5.76725371848125"><ele>423.0</ele><time>2026-03-28T14:15:34Z</time></trkpt><trkpt lat="43.457989340311435" lon="5.767369314474742"><ele>425.0</ele><time>2026-03-28T14:15:35Z</time></trkpt><trkpt lat="43.45799224181076" lon="5.7674585912572045"><ele>427.0</ele><time>2026-03-28T14:15:36Z</time></trkpt><trkpt lat="43.458012372475864" lon="5.7675409728168345"><ele>429.0</ele><time>2026-03-28T14:15:36.999Z</time></trkpt><trkpt lat="43.458065842143554" lon="5.767663603329092"><ele>431.0</ele><time>2026-03-28T14:15:38.999Z</time></trkpt><trkpt lat="43.458149857395746" lon="5.767716744452722"><ele>433.0</ele><time>2026-03-28T14:15:40.999Z</time></trkpt><trkpt lat="43.45823211311977" lon="5.767723451221066"><ele>435.0</ele><time>2026-03-28T14:15:43.999Z</time></trkpt><trkpt lat="43.45818532988" lon="5.767664172494214"><ele>435.0</ele><time>2026-03-28T14:15:59.999Z</time></trkpt><trkpt lat="43.45808548481124" lon="5.7676609820078255"><ele>435.0</ele><time>2026-03-28T14:16:34Z</time></trkpt><trkpt lat="43.458006568978554" lon="5.767604954791669"><ele>435.0</ele><time>2026-03-28T14:16:36Z</time></trkpt><trkpt lat="43.457964353177665" lon="5.76746997704725"><ele>435.0</ele><time>2026-03-28T14:16:38Z</time></trkpt><trkpt lat="43.45795620846176" lon="5.76735814944556"><ele>435.0</ele><time>2026-03-28T14:16:39Z</time></trkpt><trkpt lat="43.457961108905174" lon="5.767220725834717"><ele>435.0</ele><time>2026-03-28T14:16:40Z</time></trkpt><trkpt lat="43.457963379329854" lon="5.767068969176529"><ele>435.0</ele><time>2026-03-28T14:16:41Z</time></trkpt><trkpt lat="43.45797626209209" lon="5.76690142710656"><ele>435.0</ele><time>2026-03-28T14:16:42Z</time></trkpt><trkpt lat="43.45797313001822" lon="5.766715102237218"><ele>435.0</ele><time>2026-03-28T14:16:43Z</time></trkpt><trkpt lat="43.45797064810128" lon="5.766536348688844"><ele>431.0</ele><time>2026-03-28T14:16:44Z</time></trkpt><trkpt lat="43.457962028559685" lon="5.766351731928588"><ele>427.0</ele><time>2026-03-28T14:16:45Z</time></trkpt><trkpt lat="43.457944902607274" lon="5.766108836281171"><ele>423.0</ele><time>2026-03-28T14:16:46Z</time></trkpt><trkpt lat="43.457918419234296" lon="5.76584621833458"><ele>428.0</ele><time>2026-03-28T14:16:47Z</time></trkpt><trkpt lat="43.45789381898227" lon="5.765597052062216"><ele>433.0</ele><time>2026-03-28T14:16:48Z</time></trkpt><trkpt lat="43.45788147756989" lon="5.765420741737074"><ele>438.0</ele><time>2026-03-28T14:16:49Z</time></trkpt><trkpt lat="43.457871389199695" lon="5.765299186693142"><ele>443.0</ele><time>2026-03-28T14:16:50Z</time></trkpt><trkpt lat="43.45783906207826" lon="5.765177788625382"><ele>443.0</ele><time>2026-03-28T14:16:51Z</time></trkpt><trkpt lat="43.45778376093372" lon="5.765025372111725"><ele>442.99999999999994</ele><time>2026-03-28T14:16:52Z</time></trkpt><trkpt lat="43.4577379110866" lon="5.764888962253439"><ele>442.99999999999994</ele><time>2026-03-28T14:16:53Z</time></trkpt><trkpt lat="43.457702523022135" lon="5.76480428917289"><ele>443.0</ele><time>2026-03-28T14:16:54Z</time></trkpt><trkpt lat="43.45763539520798" lon="5.764665381874097"><ele>443.0</ele><time>2026-03-28T14:16:56Z</time></trkpt><trkpt lat="43.457582660422126" lon="5.764579743746825"><ele>442.99999999999994</ele><time>2026-03-28T14:16:57Z</time></trkpt><trkpt lat="43.45752513829754" lon="5.764479668634044"><ele>443.0</ele><time>2026-03-28T14:16:58Z</time></trkpt><trkpt lat="43.45748286832772" lon="5.764403163527605"><ele>443.0</ele><time>2026-03-28T14:16:59Z</time></trkpt><trkpt lat="43.45748937940133" lon="5.76429937276999"><ele>443.0</ele><time>2026-03-28T14:17:00Z</time></trkpt><trkpt lat="43.45754413533659" lon="5.764215585010949"><ele>442.99999999999994</ele><time>2026-03-28T14:17:01Z</time></trkpt><trkpt lat="43.457629143835405" lon="5.764179705814578"><ele>443.0</ele><time>2026-03-28T14:17:02Z</time></trkpt><trkpt lat="43.45773555204841" lon="5.764163199615551"><ele>442.25</ele><time>2026-03-28T14:17:03Z</time></trkpt><trkpt lat="43.45788888373408" lon="5.764130948626139"><ele>441.5</ele><time>2026-03-28T14:17:04Z</time></trkpt><trkpt lat="43.45802791840867" lon="5.764076634698128"><ele>440.75</ele><time>2026-03-28T14:17:05Z</time></trkpt><trkpt lat="43.45813416371257" lon="5.764031264897246"><ele>440.0</ele><time>2026-03-28T14:17:06Z</time></trkpt><trkpt lat="43.45821952094337" lon="5.763974566855158"><ele>437.2</ele><time>2026-03-28T14:17:07Z</time></trkpt><trkpt lat="43.45830239480113" lon="5.763910124111331"><ele>434.4</ele><time>2026-03-28T14:17:08Z</time></trkpt><trkpt lat="43.45837734945581" lon="5.7638513970241485"><ele>431.6</ele><time>2026-03-28T14:17:09Z</time></trkpt><trkpt lat="43.458446109106944" lon="5.763791272708555"><ele>428.8</ele><time>2026-03-28T14:17:10Z</time></trkpt><trkpt lat="43.4585027097882" lon="5.76363949007352"><ele>426.0</ele><time>2026-03-28T14:17:12Z</time></trkpt><trkpt lat="43.45851024774469" lon="5.76353988431261"><ele>426.8</ele><time>2026-03-28T14:17:13Z</time></trkpt><trkpt lat="43.45851207037404" lon="5.763439776727675"><ele>427.6</ele><time>2026-03-28T14:17:14Z</time></trkpt><trkpt lat="43.45847051357545" lon="5.763285086163303"><ele>428.4</ele><time>2026-03-28T14:17:16Z</time></trkpt><trkpt lat="43.45843107416874" lon="5.763204209740341"><ele>429.2</ele><time>2026-03-28T14:17:17Z</time></trkpt><trkpt lat="43.45835964929882" lon="5.763054256543898"><ele>430.0</ele><time>2026-03-28T14:17:19Z</time></trkpt><trkpt lat="43.45833127596241" lon="5.762954197806381"><ele>430.0</ele><time>2026-03-28T14:17:20Z</time></trkpt><trkpt lat="43.45831047688352" lon="5.762828871223022"><ele>430.0</ele><time>2026-03-28T14:17:21Z</time></trkpt><trkpt lat="43.45829735352619" lon="5.762698857506284"><ele>430.0</ele><time>2026-03-28T14:17:22Z</time></trkpt><trkpt lat="43.4582817515563" lon="5.762567072943935"><ele>430.0</ele><time>2026-03-28T14:17:23Z</time></trkpt><trkpt lat="43.45827462807378" lon="5.762447785091136"><ele>430.0</ele><time>2026-03-28T14:17:24Z</time></trkpt><trkpt lat="43.458249872546" lon="5.76227949639385"><ele>430.2</ele><time>2026-03-28T14:17:26Z</time></trkpt><trkpt lat="43.4582124494631" lon="5.762193317624083"><ele>430.4</ele><time>2026-03-28T14:17:27Z</time></trkpt><trkpt lat="43.458176721040374" lon="5.762090111425996"><ele>430.6</ele><time>2026-03-28T14:17:28Z</time></trkpt><trkpt lat="43.45813298391216" lon="5.761954116865846"><ele>430.8</ele><time>2026-03-28T14:17:29Z</time></trkpt><trkpt lat="43.45810957713748" lon="5.761796233453702"><ele>431.0</ele><time>2026-03-28T14:17:30Z</time></trkpt><trkpt lat="43.458086086089956" lon="5.761654644548963"><ele>429.4</ele><time>2026-03-28T14:17:31Z</time></trkpt><trkpt lat="43.45803561315849" lon="5.761539420749767"><ele>427.8</ele><time>2026-03-28T14:17:31.999Z</time></trkpt><trkpt lat="43.4579699362342" lon="5.761448361334238"><ele>426.2</ele><time>2026-03-28T14:17:32.999Z</time></trkpt><trkpt lat="43.45787657488278" lon="5.761357572025303"><ele>424.59999999999997</ele><time>2026-03-28T14:17:33.999Z</time></trkpt><trkpt lat="43.457792116787246" lon="5.761259537356406"><ele>423.0</ele><time>2026-03-28T14:17:34.999Z</time></trkpt><trkpt lat="43.457732725582446" lon="5.761149710226197"><ele>425.4</ele><time>2026-03-28T14:17:35.999Z</time></trkpt><trkpt lat="43.4577020543119" lon="5.761032395559104"><ele>427.79999999999995</ele><time>2026-03-28T14:17:36.999Z</time></trkpt><trkpt lat="43.45768461816642" lon="5.760913843858127"><ele>430.2</ele><time>2026-03-28T14:17:37.999Z</time></trkpt><trkpt lat="43.45767118573659" lon="5.760777137663928"><ele>432.6</ele><time>2026-03-28T14:17:38.999Z</time></trkpt><trkpt lat="43.45766941918206" lon="5.760599761961965"><ele>435.0</ele><time>2026-03-28T14:17:39.999Z</time></trkpt><trkpt lat="43.45768053731096" lon="5.760421363585993"><ele>435.0</ele><time>2026-03-28T14:17:40.999Z</time></trkpt><trkpt lat="43.45767520440009" lon="5.7602687589630435"><ele>435.0</ele><time>2026-03-28T14:17:41.999Z</time></trkpt><trkpt lat="43.457645618879766" lon="5.760150929708574"><ele>435.0</ele><time>2026-03-28T14:17:42.999Z</time></trkpt><trkpt lat="43.45760508381542" lon="5.760039781670677"><ele>435.0</ele><time>2026-03-28T14:17:43.999Z</time></trkpt><trkpt lat="43.4575544028515" lon="5.7599416182733005"><ele>435.0</ele><time>2026-03-28T14:17:44.999Z</time></trkpt><trkpt lat="43.457494123683546" lon="5.759842215233368"><ele>433.2</ele><time>2026-03-28T14:17:45.999Z</time></trkpt><trkpt lat="43.45742517630497" lon="5.759745271459273"><ele>431.4</ele><time>2026-03-28T14:17:46.999Z</time></trkpt><trkpt lat="43.45736428594168" lon="5.759645906394145"><ele>429.6</ele><time>2026-03-28T14:17:47.999Z</time></trkpt><trkpt lat="43.45732063627694" lon="5.759546151332183"><ele>427.8</ele><time>2026-03-28T14:17:48.999Z</time></trkpt><trkpt lat="43.457299261221245" lon="5.7594409079757884"><ele>426.0</ele><time>2026-03-28T14:17:49.999Z</time></trkpt><trkpt lat="43.45731216847547" lon="5.759296408069924"><ele>425.4</ele><time>2026-03-28T14:17:51.999Z</time></trkpt><trkpt lat="43.457345451276254" lon="5.759220650616061"><ele>424.8</ele><time>2026-03-28T14:17:52.999Z</time></trkpt><trkpt lat="43.457396131524135" lon="5.759102369502814"><ele>424.2</ele><time>2026-03-28T14:17:53.999Z</time></trkpt><trkpt lat="43.45746980381183" lon="5.758953535353191"><ele>423.59999999999997</ele><time>2026-03-28T14:17:54.999Z</time></trkpt><trkpt lat="43.45753215147956" lon="5.758797455301763"><ele>423.0</ele><time>2026-03-28T14:17:55.999Z</time></trkpt><trkpt lat="43.45756405009571" lon="5.7587175167277325"><ele>423.0</ele><time>2026-03-28T14:17:56.999Z</time></trkpt><trkpt lat="43.45754935469023" lon="5.758612667175311"><ele>423.0</ele><time>2026-03-28T14:17:59.999Z</time></trkpt><trkpt lat="43.45761512245986" lon="5.758587131976147"><ele>423.0</ele><time>2026-03-28T14:18:16.999Z</time></trkpt><trkpt lat="43.45774228211284" lon="5.7585268785764665"><ele>423.0</ele><time>2026-03-28T14:18:18.999Z</time></trkpt><trkpt lat="43.45782410813725" lon="5.7584510502486035"><ele>423.0</ele><time>2026-03-28T14:18:19.999Z</time></trkpt><trkpt lat="43.457876666792586" lon="5.7583629716636695"><ele>422.6666666666667</ele><time>2026-03-28T14:18:20.999Z</time></trkpt><trkpt lat="43.4579210538763" lon="5.758274012158707"><ele>422.33333333333337</ele><time>2026-03-28T14:18:21.999Z</time></trkpt><trkpt lat="43.45796820668804" lon="5.758196312841108"><ele>422.0</ele><time>2026-03-28T14:18:22.999Z</time></trkpt><trkpt lat="43.45801452968201" lon="5.7581166450973225"><ele>421.6666666666667</ele><time>2026-03-28T14:18:23.999Z</time></trkpt><trkpt lat="43.458076141330324" lon="5.758094841858899"><ele>421.33333333333337</ele><time>2026-03-28T14:18:25.999Z</time></trkpt><trkpt lat="43.45817482582172" lon="5.758171051648039"><ele>421.0</ele><time>2026-03-28T14:18:28.999Z</time></trkpt><trkpt lat="43.45824523792325" lon="5.758165382668332"><ele>421.0</ele><time>2026-03-28T14:18:29.999Z</time></trkpt><trkpt lat="43.45831006261231" lon="5.7581465185062735"><ele>421.0</ele><time>2026-03-28T14:18:30.999Z</time></trkpt><trkpt lat="43.45839020410273" lon="5.758093860577962"><ele>421.0</ele><time>2026-03-28T14:18:32.999Z</time></trkpt><trkpt lat="43.45848908861357" lon="5.757983204484557"><ele>421.0</ele><time>2026-03-28T14:18:34.999Z</time></trkpt><trkpt lat="43.458573461321706" lon="5.757921327523645"><ele>421.0</ele><time>2026-03-28T14:18:35.999Z</time></trkpt><trkpt lat="43.45865375873264" lon="5.757845046078824"><ele>421.00000000000006</ele><time>2026-03-28T14:18:37Z</time></trkpt><trkpt lat="43.45873256386418" lon="5.757776995249991"><ele>421.0</ele><time>2026-03-28T14:18:38Z</time></trkpt><trkpt lat="43.45878969617582" lon="5.75772449473563"><ele>421.0</ele><time>2026-03-28T14:18:39Z</time></trkpt><trkpt lat="43.45885596011692" lon="5.757691161832113"><ele>421.0</ele><time>2026-03-28T14:18:40Z</time></trkpt><trkpt lat="43.458941742815185" lon="5.7576376700886"><ele>421.00000000000006</ele><time>2026-03-28T14:18:41Z</time></trkpt><trkpt lat="43.45903788666491" lon="5.757566509490848"><ele>421.0</ele><time>2026-03-28T14:18:42Z</time></trkpt><trkpt lat="43.45910973281487" lon="5.757494858967349"><ele>419.33333333333337</ele><time>2026-03-28T14:18:43Z</time></trkpt><trkpt lat="43.45919184448595" lon="5.757426654001556"><ele>417.6666666666667</ele><time>2026-03-28T14:18:44Z</time></trkpt><trkpt lat="43.45927079244215" lon="5.757368659805062"><ele>416.0</ele><time>2026-03-28T14:18:45Z</time></trkpt><trkpt lat="43.45933099711016" lon="5.757336375495449"><ele>414.33333333333337</ele><time>2026-03-28T14:18:46Z</time></trkpt><trkpt lat="43.459371268061346" lon="5.757267148857549"><ele>412.6666666666667</ele><time>2026-03-28T14:18:51Z</time></trkpt><trkpt lat="43.45926909788594" lon="5.757325187692788"><ele>411.0</ele><time>2026-03-28T14:19:08Z</time></trkpt><trkpt lat="43.45912167010419" lon="5.757427625612204"><ele>411.0</ele><time>2026-03-28T14:19:10Z</time></trkpt><trkpt lat="43.45900667137189" lon="5.757521842922617"><ele>411.0</ele><time>2026-03-28T14:19:11Z</time></trkpt><trkpt lat="43.4588840235901" lon="5.7576259365636195"><ele>411.0</ele><time>2026-03-28T14:19:12Z</time></trkpt><trkpt lat="43.458789497640254" lon="5.7577042621833545"><ele>411.0</ele><time>2026-03-28T14:19:13Z</time></trkpt><trkpt lat="43.45869202640483" lon="5.75777534511205"><ele>413.5</ele><time>2026-03-28T14:19:14Z</time></trkpt><trkpt lat="43.45857939658113" lon="5.757854262496554"><ele>416.0</ele><time>2026-03-28T14:19:15Z</time></trkpt><trkpt lat="43.45845847661438" lon="5.757995550175937"><ele>418.5</ele><time>2026-03-28T14:19:16Z</time></trkpt><trkpt lat="43.4583606130739" lon="5.758093461268858"><ele>421.0</ele><time>2026-03-28T14:19:17Z</time></trkpt><trkpt lat="43.45828556574096" lon="5.7581504688860035"><ele>421.00000000000006</ele><time>2026-03-28T14:19:18Z</time></trkpt><trkpt lat="43.45821627402705" lon="5.758178574721979"><ele>421.0</ele><time>2026-03-28T14:19:19Z</time></trkpt><trkpt lat="43.45814201279708" lon="5.758137609139377"><ele>421.0</ele><time>2026-03-28T14:19:20Z</time></trkpt><trkpt lat="43.458057555148805" lon="5.758083106034041"><ele>421.0</ele><time>2026-03-28T14:19:22Z</time></trkpt><trkpt lat="43.45798327726403" lon="5.75816350014669"><ele>421.00000000000006</ele><time>2026-03-28T14:19:24Z</time></trkpt><trkpt lat="43.45793290359567" lon="5.758282522689521"><ele>421.0</ele><time>2026-03-28T14:19:25Z</time></trkpt><trkpt lat="43.45787149714981" lon="5.758410365600508"><ele>421.4</ele><time>2026-03-28T14:19:26Z</time></trkpt><trkpt lat="43.457799020888665" lon="5.758523511889517"><ele>421.8</ele><time>2026-03-28T14:19:27Z</time></trkpt><trkpt lat="43.457678467530535" lon="5.75860233381505"><ele>422.2</ele><time>2026-03-28T14:19:27.999Z</time></trkpt><trkpt lat="43.45759992816401" lon="5.758627529793892"><ele>422.59999999999997</ele><time>2026-03-28T14:19:28.999Z</time></trkpt><trkpt lat="43.457515052975104" lon="5.758616284667874"><ele>423.0</ele><time>2026-03-28T14:19:30.999Z</time></trkpt><trkpt lat="43.457460767175995" lon="5.758570234294808"><ele>424.0</ele><time>2026-03-28T14:19:31.999Z</time></trkpt><trkpt lat="43.45739585135613" lon="5.758483497044825"><ele>425.0</ele><time>2026-03-28T14:19:32.999Z</time></trkpt><trkpt lat="43.45730177800936" lon="5.758348943305903"><ele>426.0</ele><time>2026-03-28T14:19:33.999Z</time></trkpt><trkpt lat="43.45720425697458" lon="5.7582380386920455"><ele>427.0</ele><time>2026-03-28T14:19:34.999Z</time></trkpt><trkpt lat="43.457100149335226" lon="5.758197912777054"><ele>428.0</ele><time>2026-03-28T14:19:35.999Z</time></trkpt><trkpt lat="43.45698604771866" lon="5.758159442217447"><ele>429.00000000000006</ele><time>2026-03-28T14:19:36.999Z</time></trkpt><trkpt lat="43.45689660308163" lon="5.758106036399528"><ele>430.00000000000006</ele><time>2026-03-28T14:19:37.999Z</time></trkpt><trkpt lat="43.45682752565336" lon="5.758031115297568"><ele>431.0</ele><time>2026-03-28T14:19:38.999Z</time></trkpt><trkpt lat="43.45677613589991" lon="5.757945456754159"><ele>432.0</ele><time>2026-03-28T14:19:39.999Z</time></trkpt><trkpt lat="43.456740547081" lon="5.7578288165019345"><ele>430.25</ele><time>2026-03-28T14:19:40.999Z</time></trkpt><trkpt lat="43.456736080609296" lon="5.7576922178501535"><ele>428.5</ele><time>2026-03-28T14:19:41.999Z</time></trkpt><trkpt lat="43.456754127374275" lon="5.757511445946116"><ele>426.75</ele><time>2026-03-28T14:19:42.999Z</time></trkpt><trkpt lat="43.45676628272495" lon="5.757318627697242"><ele>425.0</ele><time>2026-03-28T14:19:43.999Z</time></trkpt><trkpt lat="43.45678205583612" lon="5.757141400743952"><ele>425.0</ele><time>2026-03-28T14:19:44.999Z</time></trkpt><trkpt lat="43.456803163013845" lon="5.756978611307328"><ele>425.0</ele><time>2026-03-28T14:19:45.999Z</time></trkpt><trkpt lat="43.45683426485994" lon="5.756827203833522"><ele>425.0</ele><time>2026-03-28T14:19:46.999Z</time></trkpt><trkpt lat="43.45689306592177" lon="5.756691265080672"><ele>425.0</ele><time>2026-03-28T14:19:47.999Z</time></trkpt><trkpt lat="43.456937205835295" lon="5.756576684911675"><ele>425.0</ele><time>2026-03-28T14:19:48.999Z</time></trkpt><trkpt lat="43.456966112074035" lon="5.756451098130902"><ele>423.2</ele><time>2026-03-28T14:19:49.999Z</time></trkpt><trkpt lat="43.45697186565269" lon="5.756317094141448"><ele>421.4</ele><time>2026-03-28T14:19:50.999Z</time></trkpt><trkpt lat="43.456959748975976" lon="5.75616368466256"><ele>419.6</ele><time>2026-03-28T14:19:51.999Z</time></trkpt><trkpt lat="43.45695107374081" lon="5.756018734237362"><ele>417.8</ele><time>2026-03-28T14:19:52.999Z</time></trkpt><trkpt lat="43.4569823641163" lon="5.755851277822455"><ele>416.0</ele><time>2026-03-28T14:19:53.999Z</time></trkpt><trkpt lat="43.45701196661231" lon="5.755657351993948"><ele>414.75</ele><time>2026-03-28T14:19:54.999Z</time></trkpt><trkpt lat="43.45703657216101" lon="5.7554636578092255"><ele>413.5</ele><time>2026-03-28T14:19:55.999Z</time></trkpt><trkpt lat="43.457062657802716" lon="5.75528283674435"><ele>412.25</ele><time>2026-03-28T14:19:56.999Z</time></trkpt><trkpt lat="43.457099584334664" lon="5.755107042980183"><ele>411.0</ele><time>2026-03-28T14:19:57.999Z</time></trkpt><trkpt lat="43.45712750214522" lon="5.754938342914411"><ele>408.0</ele><time>2026-03-28T14:19:58.999Z</time></trkpt><trkpt lat="43.45717713962036" lon="5.75478191725323"><ele>405.0</ele><time>2026-03-28T14:19:59.999Z</time></trkpt><trkpt lat="43.45723508169071" lon="5.7546290315869"><ele>402.0</ele><time>2026-03-28T14:20:00.999Z</time></trkpt><trkpt lat="43.457305631754465" lon="5.754471198834732"><ele>399.0</ele><time>2026-03-28T14:20:01.999Z</time></trkpt><trkpt lat="43.45736326391825" lon="5.75433492871801"><ele>397.5</ele><time>2026-03-28T14:20:02.999Z</time></trkpt><trkpt lat="43.45739972635556" lon="5.754230893042243"><ele>396.0</ele><time>2026-03-28T14:20:03.999Z</time></trkpt><trkpt lat="43.457424399125394" lon="5.754072734587994"><ele>394.5</ele><time>2026-03-28T14:20:05.999Z</time></trkpt><trkpt lat="43.45738587423542" lon="5.753997191596954"><ele>393.0</ele><time>2026-03-28T14:20:06.999Z</time></trkpt><trkpt lat="43.457318814171195" lon="5.753954198456429"><ele>391.5</ele><time>2026-03-28T14:20:07.999Z</time></trkpt><trkpt lat="43.457240216112496" lon="5.753933393449347"><ele>390.0</ele><time>2026-03-28T14:20:08.999Z</time></trkpt><trkpt lat="43.45713296587888" lon="5.753938717226578"><ele>392.4</ele><time>2026-03-28T14:20:09.999Z</time></trkpt><trkpt lat="43.45702142561774" lon="5.7539654062439896"><ele>394.8</ele><time>2026-03-28T14:20:10.999Z</time></trkpt><trkpt lat="43.456930175434366" lon="5.753990891852801"><ele>397.20000000000005</ele><time>2026-03-28T14:20:11.999Z</time></trkpt><trkpt lat="43.45682745142732" lon="5.753906983382306"><ele>399.6</ele><time>2026-03-28T14:20:13.999Z</time></trkpt><trkpt lat="43.45681337617732" lon="5.75382010532757"><ele>402.0</ele><time>2026-03-28T14:20:14.999Z</time></trkpt><trkpt lat="43.45683291197988" lon="5.753728510622352"><ele>402.0</ele><time>2026-03-28T14:20:15.999Z</time></trkpt><trkpt lat="43.45687151801127" lon="5.753633491277588"><ele>402.0</ele><time>2026-03-28T14:20:16.999Z</time></trkpt><trkpt lat="43.456939331176436" lon="5.753473003008681"><ele>402.0</ele><time>2026-03-28T14:20:17.999Z</time></trkpt><trkpt lat="43.45698797275551" lon="5.753365694690836"><ele>402.0</ele><time>2026-03-28T14:20:18.999Z</time></trkpt><trkpt lat="43.45706056894749" lon="5.7532731825623875"><ele>402.0</ele><time>2026-03-28T14:20:19.999Z</time></trkpt><trkpt lat="43.457158958319674" lon="5.7531624233068435"><ele>397.25</ele><time>2026-03-28T14:20:20.999Z</time></trkpt><trkpt lat="43.45724175244815" lon="5.753004605035007"><ele>392.5</ele><time>2026-03-28T14:20:21.999Z</time></trkpt><trkpt lat="43.4572973023393" lon="5.75283976606059"><ele>387.75</ele><time>2026-03-28T14:20:22.999Z</time></trkpt><trkpt lat="43.457347633892674" lon="5.75267144672229"><ele>383.0</ele><time>2026-03-28T14:20:23.999Z</time></trkpt><trkpt lat="43.45737352843768" lon="5.7525066813594306"><ele>383.0</ele><time>2026-03-28T14:20:24.999Z</time></trkpt><trkpt lat="43.45737475462002" lon="5.7523258746162185"><ele>383.0</ele><time>2026-03-28T14:20:25.999Z</time></trkpt><trkpt lat="43.45737023208548" lon="5.752167519718829"><ele>383.0</ele><time>2026-03-28T14:20:26.999Z</time></trkpt><trkpt lat="43.45737125240558" lon="5.752040533820137"><ele>383.0</ele><time>2026-03-28T14:20:27.999Z</time></trkpt><trkpt lat="43.45738947575575" lon="5.751914283230952"><ele>383.0</ele><time>2026-03-28T14:20:28.999Z</time></trkpt><trkpt lat="43.45743550753836" lon="5.751796744107491"><ele>382.5</ele><time>2026-03-28T14:20:29.999Z</time></trkpt><trkpt lat="43.457512952552435" lon="5.751715855304968"><ele>382.0</ele><time>2026-03-28T14:20:30.999Z</time></trkpt><trkpt lat="43.45759543891241" lon="5.751656924984696"><ele>381.5</ele><time>2026-03-28T14:20:31.999Z</time></trkpt><trkpt lat="43.45770345905073" lon="5.751618219908562"><ele>381.0</ele><time>2026-03-28T14:20:32.999Z</time></trkpt><trkpt lat="43.457847180376" lon="5.751531240539402"><ele>379.25</ele><time>2026-03-28T14:20:33.999Z</time></trkpt><trkpt lat="43.45799300988167" lon="5.751416631367213"><ele>377.5</ele><time>2026-03-28T14:20:34.999Z</time></trkpt><trkpt lat="43.45812240374383" lon="5.75132177853693"><ele>375.75</ele><time>2026-03-28T14:20:35.999Z</time></trkpt><trkpt lat="43.45822148248382" lon="5.751234178846379"><ele>374.0</ele><time>2026-03-28T14:20:36.999Z</time></trkpt><trkpt lat="43.4583018889094" lon="5.75113408579612"><ele>374.1666666666667</ele><time>2026-03-28T14:20:37.999Z</time></trkpt><trkpt lat="43.458361090974854" lon="5.751007664635651"><ele>374.33333333333337</ele><time>2026-03-28T14:20:38.999Z</time></trkpt><trkpt lat="43.4584045924428" lon="5.750910765898693"><ele>374.5</ele><time>2026-03-28T14:20:39.999Z</time></trkpt><trkpt lat="43.45844650405702" lon="5.750838596111412"><ele>374.6666666666667</ele><time>2026-03-28T14:20:40.999Z</time></trkpt><trkpt lat="43.458497813068966" lon="5.7507827993902225"><ele>374.8333333333333</ele><time>2026-03-28T14:20:41.999Z</time></trkpt><trkpt lat="43.45857267707097" lon="5.750720697462598"><ele>375.0</ele><time>2026-03-28T14:20:43Z</time></trkpt><trkpt lat="43.45865149591598" lon="5.7506774020882325"><ele>375.0</ele><time>2026-03-28T14:20:44Z</time></trkpt><trkpt lat="43.4587436454915" lon="5.750662220673845"><ele>375.0</ele><time>2026-03-28T14:20:45Z</time></trkpt><trkpt lat="43.45885448354884" lon="5.75065658351128"><ele>375.0</ele><time>2026-03-28T14:20:46Z</time></trkpt><trkpt lat="43.45894542024223" lon="5.750621807474975"><ele>375.0</ele><time>2026-03-28T14:20:47Z</time></trkpt><trkpt lat="43.45902570621471" lon="5.750574107115861"><ele>375.0</ele><time>2026-03-28T14:20:48Z</time></trkpt><trkpt lat="43.45911496007003" lon="5.750507496771504"><ele>372.75</ele><time>2026-03-28T14:20:49Z</time></trkpt><trkpt lat="43.45921984987149" lon="5.750403674177499"><ele>370.5</ele><time>2026-03-28T14:20:50Z</time></trkpt><trkpt lat="43.45933284290628" lon="5.750275619232443"><ele>368.25</ele><time>2026-03-28T14:20:51Z</time></trkpt><trkpt lat="43.45943992617684" lon="5.750188416906638"><ele>366.0</ele><time>2026-03-28T14:20:52Z</time></trkpt><trkpt lat="43.45954587855264" lon="5.750120773347308"><ele>364.0</ele><time>2026-03-28T14:20:53Z</time></trkpt><trkpt lat="43.459634191234095" lon="5.750063037194889"><ele>362.0</ele><time>2026-03-28T14:20:54Z</time></trkpt><trkpt lat="43.459719192006446" lon="5.750012552450229"><ele>360.0</ele><time>2026-03-28T14:20:55Z</time></trkpt><trkpt lat="43.45979064818791" lon="5.749976631044093"><ele>358.0</ele><time>2026-03-28T14:20:56Z</time></trkpt><trkpt lat="43.459909295783135" lon="5.749977733940839"><ele>356.0</ele><time>2026-03-28T14:20:58Z</time></trkpt><trkpt lat="43.45997416151034" lon="5.750028961815872"><ele>356.0</ele><time>2026-03-28T14:20:59Z</time></trkpt><trkpt lat="43.46001745675855" lon="5.750097372649509"><ele>356.0</ele><time>2026-03-28T14:21:00Z</time></trkpt><trkpt lat="43.46005777510187" lon="5.7502218292897025"><ele>356.0</ele><time>2026-03-28T14:21:01Z</time></trkpt><trkpt lat="43.460098410388724" lon="5.750377697887152"><ele>356.0</ele><time>2026-03-28T14:21:02Z</time></trkpt><trkpt lat="43.460145135582025" lon="5.750500985769832"><ele>356.0</ele><time>2026-03-28T14:21:03Z</time></trkpt><trkpt lat="43.4602120425147" lon="5.7505984844635005"><ele>356.0</ele><time>2026-03-28T14:21:04Z</time></trkpt><trkpt lat="43.460275338851105" lon="5.750667501005071"><ele>356.0</ele><time>2026-03-28T14:21:05Z</time></trkpt><trkpt lat="43.46034053348448" lon="5.750703733542424"><ele>356.0</ele><time>2026-03-28T14:21:06Z</time></trkpt><trkpt lat="43.46044048097118" lon="5.7506975220568215"><ele>356.0</ele><time>2026-03-28T14:21:08Z</time></trkpt><trkpt lat="43.46056206278444" lon="5.750620210698058"><ele>356.0</ele><time>2026-03-28T14:21:10Z</time></trkpt><trkpt lat="43.46065300514839" lon="5.750538325602315"><ele>354.20000000000005</ele><time>2026-03-28T14:21:11Z</time></trkpt><trkpt lat="43.46073077553659" lon="5.750453329484929"><ele>352.40000000000003</ele><time>2026-03-28T14:21:12Z</time></trkpt><trkpt lat="43.46078980721897" lon="5.750351152000936"><ele>350.6</ele><time>2026-03-28T14:21:13Z</time></trkpt><trkpt lat="43.46084104407156" lon="5.750251157086891"><ele>348.8</ele><time>2026-03-28T14:21:14Z</time></trkpt><trkpt lat="43.46091287435842" lon="5.750146504231333"><ele>347.0</ele><time>2026-03-28T14:21:15Z</time></trkpt><trkpt lat="43.461001869194874" lon="5.7500316785085595"><ele>347.0</ele><time>2026-03-28T14:21:16Z</time></trkpt><trkpt lat="43.46107637743823" lon="5.749926286704766"><ele>347.0</ele><time>2026-03-28T14:21:17Z</time></trkpt><trkpt lat="43.46113391260592" lon="5.749790304012018"><ele>347.0</ele><time>2026-03-28T14:21:18Z</time></trkpt><trkpt lat="43.46118267915182" lon="5.7496871542635235"><ele>347.0</ele><time>2026-03-28T14:21:19Z</time></trkpt><trkpt lat="43.46123651425362" lon="5.7495759293240125"><ele>347.0</ele><time>2026-03-28T14:21:20Z</time></trkpt><trkpt lat="43.46128225305408" lon="5.749471602925429"><ele>346.5</ele><time>2026-03-28T14:21:21Z</time></trkpt><trkpt lat="43.46131817620654" lon="5.749370789318975"><ele>346.0</ele><time>2026-03-28T14:21:22Z</time></trkpt><trkpt lat="43.46133840662779" lon="5.749261994542947"><ele>345.5</ele><time>2026-03-28T14:21:23.999Z</time></trkpt><trkpt lat="43.46126613009639" lon="5.749213674659908"><ele>345.0</ele><time>2026-03-28T14:21:31.999Z</time></trkpt><trkpt lat="43.461332936961426" lon="5.749135192502246"><ele>344.5</ele><time>2026-03-28T14:21:35.999Z</time></trkpt><trkpt lat="43.46139548863449" lon="5.749190858724728"><ele>344.0</ele><time>2026-03-28T14:21:37.999Z</time></trkpt><trkpt lat="43.461420213396245" lon="5.749384828191222"><ele>342.83333333333337</ele><time>2026-03-28T14:21:39.999Z</time></trkpt><trkpt lat="43.461439286012435" lon="5.749522851877358"><ele>341.6666666666667</ele><time>2026-03-28T14:21:40.999Z</time></trkpt><trkpt lat="43.46146859625773" lon="5.749648915237462"><ele>340.5</ele><time>2026-03-28T14:21:41.999Z</time></trkpt><trkpt lat="43.46151190603154" lon="5.749752609221756"><ele>339.3333333333333</ele><time>2026-03-28T14:21:42.999Z</time></trkpt><trkpt lat="43.46155402701041" lon="5.749829995144929"><ele>338.16666666666663</ele><time>2026-03-28T14:21:43.999Z</time></trkpt><trkpt lat="43.46161700708109" lon="5.749913812433221"><ele>337.0</ele><time>2026-03-28T14:21:45.999Z</time></trkpt><trkpt lat="43.461582493679174" lon="5.750028929741902"><ele>337.0</ele><time>2026-03-28T14:21:59.999Z</time></trkpt><trkpt lat="43.461500492135976" lon="5.750142519905642"><ele>337.0</ele><time>2026-03-28T14:22:01.999Z</time></trkpt><trkpt lat="43.46145248087756" lon="5.7502408353643375"><ele>337.0</ele><time>2026-03-28T14:22:03.999Z</time></trkpt><trkpt lat="43.46147662196117" lon="5.750341085746763"><ele>337.0</ele><time>2026-03-28T14:22:06.999Z</time></trkpt><trkpt lat="43.46156547005402" lon="5.750458405668321"><ele>337.0</ele><time>2026-03-28T14:22:08.999Z</time></trkpt><trkpt lat="43.46163682524521" lon="5.7505385092931895"><ele>337.40000000000003</ele><time>2026-03-28T14:22:09.999Z</time></trkpt><trkpt lat="43.46170592234178" lon="5.750627392052639"><ele>337.8</ele><time>2026-03-28T14:22:10.999Z</time></trkpt><trkpt lat="43.461745565765575" lon="5.750713316982146"><ele>338.2</ele><time>2026-03-28T14:22:11.999Z</time></trkpt><trkpt lat="43.46169149325404" lon="5.7509148622093536"><ele>338.6</ele><time>2026-03-28T14:22:13.999Z</time></trkpt><trkpt lat="43.46164512518369" lon="5.751019827107221"><ele>339.0</ele><time>2026-03-28T14:22:14.999Z</time></trkpt><trkpt lat="43.461569214789954" lon="5.751146085014702"><ele>340.0</ele><time>2026-03-28T14:22:15.999Z</time></trkpt><trkpt lat="43.461486625677274" lon="5.751248594369991"><ele>341.0</ele><time>2026-03-28T14:22:16.999Z</time></trkpt><trkpt lat="43.46142882899643" lon="5.7513378664901715"><ele>342.0</ele><time>2026-03-28T14:22:17.999Z</time></trkpt><trkpt lat="43.46139886679841" lon="5.751461622478616"><ele>343.0</ele><time>2026-03-28T14:22:19.999Z</time></trkpt><trkpt lat="43.46143756001172" lon="5.751617871463236"><ele>344.0</ele><time>2026-03-28T14:22:21.999Z</time></trkpt><trkpt lat="43.461574392914315" lon="5.751691924863985"><ele>344.0</ele><time>2026-03-28T14:22:23.999Z</time></trkpt><trkpt lat="43.4616749607243" lon="5.751727477124242"><ele>344.0</ele><time>2026-03-28T14:22:24.999Z</time></trkpt><trkpt lat="43.46178577216244" lon="5.7517961173244"><ele>344.0</ele><time>2026-03-28T14:22:25.999Z</time></trkpt><trkpt lat="43.461879157132664" lon="5.751865845586765"><ele>344.0</ele><time>2026-03-28T14:22:26.999Z</time></trkpt><trkpt lat="43.461943913236155" lon="5.751916013397263"><ele>344.0</ele><time>2026-03-28T14:22:27.999Z</time></trkpt><trkpt lat="43.46201455553199" lon="5.751933717664076"><ele>345.2</ele><time>2026-03-28T14:22:28.999Z</time></trkpt><trkpt lat="43.462094280331925" lon="5.751965144508106"><ele>346.4</ele><time>2026-03-28T14:22:29.999Z</time></trkpt><trkpt lat="43.46215625719947" lon="5.752024726977816"><ele>347.6</ele><time>2026-03-28T14:22:30.999Z</time></trkpt><trkpt lat="43.46221477996251" lon="5.752133585063888"><ele>348.8</ele><time>2026-03-28T14:22:31.999Z</time></trkpt><trkpt lat="43.46228239030155" lon="5.752273249659431"><ele>350.0</ele><time>2026-03-28T14:22:32.999Z</time></trkpt><trkpt lat="43.462348510332376" lon="5.752364934298037"><ele>350.0</ele><time>2026-03-28T14:22:33.999Z</time></trkpt><trkpt lat="43.46243159036618" lon="5.752496150346367"><ele>350.0</ele><time>2026-03-28T14:22:35.999Z</time></trkpt><trkpt lat="43.462518641163726" lon="5.752556782413534"><ele>350.0</ele><time>2026-03-28T14:22:36.999Z</time></trkpt><trkpt lat="43.46259987597562" lon="5.752619985111171"><ele>350.0</ele><time>2026-03-28T14:22:37.999Z</time></trkpt><trkpt lat="43.46267123162382" lon="5.752651602234767"><ele>350.0</ele><time>2026-03-28T14:22:38.999Z</time></trkpt><trkpt lat="43.462759362493244" lon="5.752655855839186"><ele>350.0</ele><time>2026-03-28T14:22:39.999Z</time></trkpt><trkpt lat="43.46286754973752" lon="5.752680482949815"><ele>350.0</ele><time>2026-03-28T14:22:40.999Z</time></trkpt><trkpt lat="43.46293978925749" lon="5.7527237926060035"><ele>350.0</ele><time>2026-03-28T14:22:41.999Z</time></trkpt><trkpt lat="43.46299910546844" lon="5.752766535932809"><ele>350.0</ele><time>2026-03-28T14:22:42.999Z</time></trkpt><trkpt lat="43.463054161935595" lon="5.7528115155977515"><ele>350.0</ele><time>2026-03-28T14:22:43.999Z</time></trkpt><trkpt lat="43.46313103495676" lon="5.752867201422483"><ele>350.0</ele><time>2026-03-28T14:22:44.999Z</time></trkpt><trkpt lat="43.46321783528567" lon="5.75292295416929"><ele>351.6666666666667</ele><time>2026-03-28T14:22:45.999Z</time></trkpt><trkpt lat="43.46330974289019" lon="5.752979183726717"><ele>353.33333333333337</ele><time>2026-03-28T14:22:46.999Z</time></trkpt><trkpt lat="43.463413780014726" lon="5.75304530384604"><ele>355.0</ele><time>2026-03-28T14:22:47.999Z</time></trkpt><trkpt lat="43.46348233312038" lon="5.7530874155907545"><ele>356.6666666666667</ele><time>2026-03-28T14:22:49Z</time></trkpt><trkpt lat="43.463536975494925" lon="5.753155359380793"><ele>358.3333333333333</ele><time>2026-03-28T14:22:50Z</time></trkpt><trkpt lat="43.46359564624234" lon="5.753237545249474"><ele>360.0</ele><time>2026-03-28T14:22:51Z</time></trkpt><trkpt lat="43.46367047982533" lon="5.753306004969203"><ele>360.0</ele><time>2026-03-28T14:22:52Z</time></trkpt><trkpt lat="43.46373781345369" lon="5.753344800392654"><ele>360.0</ele><time>2026-03-28T14:22:53Z</time></trkpt><trkpt lat="43.46379553365892" lon="5.753399252655167"><ele>360.0</ele><time>2026-03-28T14:22:54Z</time></trkpt><trkpt lat="43.46386178045871" lon="5.753529987069978"><ele>360.0</ele><time>2026-03-28T14:22:56Z</time></trkpt><trkpt lat="43.46391567273832" lon="5.7536180653311995"><ele>360.0</ele><time>2026-03-28T14:22:57Z</time></trkpt><trkpt lat="43.46395764979559" lon="5.753693891074892"><ele>360.0</ele><time>2026-03-28T14:22:58Z</time></trkpt><trkpt lat="43.46403300008135" lon="5.7537025341660275"><ele>359.85714285714283</ele><time>2026-03-28T14:23:01Z</time></trkpt><trkpt lat="43.46407892699703" lon="5.753784976627569"><ele>359.7142857142857</ele><time>2026-03-28T14:23:03Z</time></trkpt><trkpt lat="43.46405588738459" lon="5.753899604752667"><ele>359.57142857142856</ele><time>2026-03-28T14:23:05Z</time></trkpt><trkpt lat="43.464041306100675" lon="5.7539889883398105"><ele>359.42857142857144</ele><time>2026-03-28T14:24:16.999Z</time></trkpt><trkpt lat="43.46409677739934" lon="5.754036695777423"><ele>359.28571428571433</ele><time>2026-03-28T14:24:30.999Z</time></trkpt><trkpt lat="43.46414998913763" lon="5.754086480865054"><ele>359.14285714285717</ele><time>2026-03-28T14:24:35.999Z</time></trkpt><trkpt lat="43.46419233250521" lon="5.754162440732708"><ele>359.0</ele><time>2026-03-28T14:24:47.999Z</time></trkpt><trkpt lat="43.46415964182032" lon="5.754082555090827"><ele>359.0</ele><time>2026-03-28T14:26:09.999Z</time></trkpt><trkpt lat="43.464114448977426" lon="5.754010687545935"><ele>359.0</ele><time>2026-03-28T14:27:49Z</time></trkpt><trkpt lat="43.464035445743775" lon="5.753944667116404"><ele>359.0</ele><time>2026-03-28T14:28:13Z</time></trkpt><trkpt lat="43.46403739620597" lon="5.7538345008446035"><ele>359.0</ele><time>2026-03-28T14:30:15Z</time></trkpt><trkpt lat="43.46402458011102" lon="5.7537474671385604"><ele>359.0</ele><time>2026-03-28T14:30:19Z</time></trkpt><trkpt lat="43.463956569995624" lon="5.753707160616774"><ele>359.0</ele><time>2026-03-28T14:30:21Z</time></trkpt><trkpt lat="43.463862703346265" lon="5.753572247005286"><ele>359.1666666666667</ele><time>2026-03-28T14:30:23Z</time></trkpt><trkpt lat="43.46381148319416" lon="5.753456396116998"><ele>359.33333333333337</ele><time>2026-03-28T14:30:24Z</time></trkpt><trkpt lat="43.46374667490992" lon="5.753348782827536"><ele>359.5</ele><time>2026-03-28T14:30:25Z</time></trkpt><trkpt lat="43.46368854272014" lon="5.7532839907476045"><ele>359.6666666666667</ele><time>2026-03-28T14:30:26Z</time></trkpt><trkpt lat="43.463620568872976" lon="5.753225277292164"><ele>359.8333333333333</ele><time>2026-03-28T14:30:27Z</time></trkpt><trkpt lat="43.463537229927994" lon="5.753169108170633"><ele>360.0</ele><time>2026-03-28T14:30:28Z</time></trkpt><trkpt lat="43.46347702106951" lon="5.75311931670174"><ele>360.0</ele><time>2026-03-28T14:30:29Z</time></trkpt><trkpt lat="43.463412573938584" lon="5.753040069743397"><ele>360.0</ele><time>2026-03-28T14:30:30Z</time></trkpt><trkpt lat="43.46335970127164" lon="5.752954968868187"><ele>360.0</ele><time>2026-03-28T14:30:31Z</time></trkpt><trkpt lat="43.46328541401336" lon="5.752903708334783"><ele>360.0</ele><time>2026-03-28T14:30:32Z</time></trkpt><trkpt lat="43.4632075846493" lon="5.752867660960429"><ele>360.0</ele><time>2026-03-28T14:30:33Z</time></trkpt><trkpt lat="43.463118846965884" lon="5.752816974677155"><ele>360.0</ele><time>2026-03-28T14:30:34Z</time></trkpt><trkpt lat="43.46303422856086" lon="5.7527754621471825"><ele>360.0</ele><time>2026-03-28T14:30:35Z</time></trkpt><trkpt lat="43.46295273416771" lon="5.752737352657194"><ele>360.0</ele><time>2026-03-28T14:30:36Z</time></trkpt><trkpt lat="43.462889890732285" lon="5.752689814229081"><ele>360.0</ele><time>2026-03-28T14:30:37Z</time></trkpt><trkpt lat="43.46276607865586" lon="5.752618828832836"><ele>360.0</ele><time>2026-03-28T14:30:39Z</time></trkpt><trkpt lat="43.46263992969908" lon="5.752590594298455"><ele>360.0</ele><time>2026-03-28T14:30:41Z</time></trkpt><trkpt lat="43.46257101978334" lon="5.752579582343061"><ele>358.0</ele><time>2026-03-28T14:30:42Z</time></trkpt><trkpt lat="43.46244817711185" lon="5.752500824134134"><ele>356.0</ele><time>2026-03-28T14:30:44Z</time></trkpt><trkpt lat="43.46238846590464" lon="5.752408902290722"><ele>354.0</ele><time>2026-03-28T14:30:45Z</time></trkpt><trkpt lat="43.462307802414486" lon="5.7523509681355405"><ele>352.0</ele><time>2026-03-28T14:30:46Z</time></trkpt><trkpt lat="43.46226040166668" lon="5.752270983387606"><ele>350.0</ele><time>2026-03-28T14:30:47Z</time></trkpt><trkpt lat="43.46221942021331" lon="5.752188814819332"><ele>350.0</ele><time>2026-03-28T14:30:48Z</time></trkpt><trkpt lat="43.462167588391296" lon="5.7520997781026315"><ele>350.0</ele><time>2026-03-28T14:30:49Z</time></trkpt><trkpt lat="43.46211024797083" lon="5.7520377142728005"><ele>350.0</ele><time>2026-03-28T14:30:50Z</time></trkpt><trkpt lat="43.46205883957737" lon="5.751981501507769"><ele>350.0</ele><time>2026-03-28T14:30:51Z</time></trkpt><trkpt lat="43.461993723963126" lon="5.7519164575881145"><ele>350.0</ele><time>2026-03-28T14:30:52Z</time></trkpt><trkpt lat="43.46192184350273" lon="5.751869828313835"><ele>350.0</ele><time>2026-03-28T14:30:53Z</time></trkpt><trkpt lat="43.461845679732946" lon="5.751843175814083"><ele>349.0</ele><time>2026-03-28T14:30:54Z</time></trkpt><trkpt lat="43.46177146413789" lon="5.751802095822708"><ele>348.0</ele><time>2026-03-28T14:30:55Z</time></trkpt><trkpt lat="43.46169941874455" lon="5.751742703506166"><ele>347.0</ele><time>2026-03-28T14:30:56Z</time></trkpt><trkpt lat="43.46161910456547" lon="5.75167325210735"><ele>346.0</ele><time>2026-03-28T14:30:57Z</time></trkpt><trkpt lat="43.46153450160376" lon="5.7516301208570315"><ele>345.0</ele><time>2026-03-28T14:30:58Z</time></trkpt><trkpt lat="43.46146832515042" lon="5.75160179484167"><ele>344.0</ele><time>2026-03-28T14:30:59Z</time></trkpt><trkpt lat="43.461404445261586" lon="5.7515681113169"><ele>344.0</ele><time>2026-03-28T14:31:00Z</time></trkpt><trkpt lat="43.46139556945038" lon="5.751410847383747"><ele>344.0</ele><time>2026-03-28T14:31:02Z</time></trkpt><trkpt lat="43.461452272347515" lon="5.751265468304897"><ele>344.0</ele><time>2026-03-28T14:31:04Z</time></trkpt><trkpt lat="43.46150920231592" lon="5.751169993095697"><ele>344.0</ele><time>2026-03-28T14:31:05Z</time></trkpt><trkpt lat="43.46158159003469" lon="5.751038226490781"><ele>344.0</ele><time>2026-03-28T14:31:06Z</time></trkpt><trkpt lat="43.461654670415115" lon="5.750930858363584"><ele>343.1666666666667</ele><time>2026-03-28T14:31:07Z</time></trkpt><trkpt lat="43.461692514219365" lon="5.750849861708861"><ele>342.33333333333337</ele><time>2026-03-28T14:31:08Z</time></trkpt><trkpt lat="43.46171680954871" lon="5.7507617122947625"><ele>341.5</ele><time>2026-03-28T14:31:09Z</time></trkpt><trkpt lat="43.46169222530684" lon="5.750658312227597"><ele>340.6666666666667</ele><time>2026-03-28T14:31:10Z</time></trkpt><trkpt lat="43.46166506846299" lon="5.75056505272186"><ele>339.8333333333333</ele><time>2026-03-28T14:31:11Z</time></trkpt><trkpt lat="43.461602911080774" lon="5.7504482442817855"><ele>339.0</ele><time>2026-03-28T14:31:13Z</time></trkpt><trkpt lat="43.46150120538525" lon="5.750332670752471"><ele>339.0</ele><time>2026-03-28T14:31:15Z</time></trkpt><trkpt lat="43.461434397031454" lon="5.75022275437074"><ele>339.0</ele><time>2026-03-28T14:31:17Z</time></trkpt><trkpt lat="43.461435971268756" lon="5.75012147862989"><ele>339.0</ele><time>2026-03-28T14:31:19Z</time></trkpt><trkpt lat="43.461489894315456" lon="5.750034397628881"><ele>339.0</ele><time>2026-03-28T14:31:21Z</time></trkpt><trkpt lat="43.46154262384542" lon="5.749956519522378"><ele>339.0</ele><time>2026-03-28T14:31:22Z</time></trkpt><trkpt lat="43.46159900525137" lon="5.749864515063756"><ele>339.0</ele><time>2026-03-28T14:31:24Z</time></trkpt><trkpt lat="43.46156198962441" lon="5.749791285592292"><ele>338.6</ele><time>2026-03-28T14:31:34Z</time></trkpt><trkpt lat="43.4615292818412" lon="5.749705517853115"><ele>338.2</ele><time>2026-03-28T14:31:36Z</time></trkpt><trkpt lat="43.46142153584506" lon="5.749542955242233"><ele>337.8</ele><time>2026-03-28T14:31:37Z</time></trkpt><trkpt lat="43.46139377940466" lon="5.749427722349632"><ele>337.40000000000003</ele><time>2026-03-28T14:31:38Z</time></trkpt><trkpt lat="43.46138295938719" lon="5.749285565695742"><ele>337.0</ele><time>2026-03-28T14:31:39Z</time></trkpt><trkpt lat="43.461363232089816" lon="5.749138540235859"><ele>336.6</ele><time>2026-03-28T14:31:40Z</time></trkpt><trkpt lat="43.46133056855552" lon="5.749023427660192"><ele>336.20000000000005</ele><time>2026-03-28T14:31:41Z</time></trkpt><trkpt lat="43.46131013367636" lon="5.748919036301766"><ele>335.8</ele><time>2026-03-28T14:31:42Z</time></trkpt><trkpt lat="43.461301683968316" lon="5.748772674464663"><ele>335.4</ele><time>2026-03-28T14:31:43Z</time></trkpt><trkpt lat="43.46130444277039" lon="5.7485761124231525"><ele>335.0</ele><time>2026-03-28T14:31:44Z</time></trkpt><trkpt lat="43.46130466350348" lon="5.74834677685364"><ele>334.8</ele><time>2026-03-28T14:31:45Z</time></trkpt><trkpt lat="43.461309153040666" lon="5.7481782778158435"><ele>334.6</ele><time>2026-03-28T14:31:46Z</time></trkpt><trkpt lat="43.46131327999284" lon="5.748066537676035"><ele>334.4</ele><time>2026-03-28T14:31:47Z</time></trkpt><trkpt lat="43.46135518697582" lon="5.747950047804053"><ele>334.2</ele><time>2026-03-28T14:31:49Z</time></trkpt><trkpt lat="43.46143317575134" lon="5.747889126083386"><ele>334.0</ele><time>2026-03-28T14:31:51Z</time></trkpt><trkpt lat="43.46150010304711" lon="5.74789267592823"><ele>334.0</ele><time>2026-03-28T14:31:52Z</time></trkpt><trkpt lat="43.46157078781598" lon="5.747902758460021"><ele>334.0</ele><time>2026-03-28T14:31:53Z</time></trkpt><trkpt lat="43.461639669229044" lon="5.747899167835996"><ele>334.0</ele><time>2026-03-28T14:31:54Z</time></trkpt><trkpt lat="43.46170336065369" lon="5.7478904912871345"><ele>334.0</ele><time>2026-03-28T14:31:55Z</time></trkpt><trkpt lat="43.461819104165336" lon="5.747865539996658"><ele>334.0</ele><time>2026-03-28T14:31:57Z</time></trkpt><trkpt lat="43.46188542675894" lon="5.747831349790695"><ele>334.0</ele><time>2026-03-28T14:31:58Z</time></trkpt><trkpt lat="43.46194206169925" lon="5.747775617469662"><ele>334.2</ele><time>2026-03-28T14:31:59Z</time></trkpt><trkpt lat="43.461999094021515" lon="5.747707523104882"><ele>334.4</ele><time>2026-03-28T14:32:00Z</time></trkpt><trkpt lat="43.4620779084089" lon="5.7476442272975765"><ele>334.6</ele><time>2026-03-28T14:32:01Z</time></trkpt><trkpt lat="43.462181805724725" lon="5.747587775377678"><ele>334.8</ele><time>2026-03-28T14:32:02Z</time></trkpt><trkpt lat="43.46231150926821" lon="5.747537981385511"><ele>335.0</ele><time>2026-03-28T14:32:03Z</time></trkpt><trkpt lat="43.46243283358568" lon="5.74749126704331"><ele>333.25</ele><time>2026-03-28T14:32:04Z</time></trkpt><trkpt lat="43.462550896650235" lon="5.747445893972447"><ele>331.5</ele><time>2026-03-28T14:32:05Z</time></trkpt><trkpt lat="43.4626560913042" lon="5.747398384276935"><ele>329.75</ele><time>2026-03-28T14:32:06Z</time></trkpt><trkpt lat="43.46276420779602" lon="5.747353448729646"><ele>328.0</ele><time>2026-03-28T14:32:07Z</time></trkpt><trkpt lat="43.462869052291026" lon="5.747322922731049"><ele>327.59999999999997</ele><time>2026-03-28T14:32:08Z</time></trkpt><trkpt lat="43.46295666925263" lon="5.7472946260594195"><ele>327.2</ele><time>2026-03-28T14:32:09Z</time></trkpt><trkpt lat="43.46304222582963" lon="5.74724507242017"><ele>326.8</ele><time>2026-03-28T14:32:10Z</time></trkpt><trkpt lat="43.46313398046591" lon="5.747221188408946"><ele>326.4</ele><time>2026-03-28T14:32:11Z</time></trkpt><trkpt lat="43.46324028692257" lon="5.747195138873658"><ele>326.0</ele><time>2026-03-28T14:32:12Z</time></trkpt><trkpt lat="43.46332947364772" lon="5.74716886986313"><ele>326.0</ele><time>2026-03-28T14:32:13Z</time></trkpt><trkpt lat="43.463427902834106" lon="5.7471530689635"><ele>326.0</ele><time>2026-03-28T14:32:15Z</time></trkpt><trkpt lat="43.463535789515056" lon="5.747162347517383"><ele>326.0</ele><time>2026-03-28T14:32:20Z</time></trkpt><trkpt lat="43.46360826097724" lon="5.7471187135213215"><ele>326.0</ele><time>2026-03-28T14:32:21Z</time></trkpt><trkpt lat="43.463698914620096" lon="5.747076447677912"><ele>326.0</ele><time>2026-03-28T14:32:22Z</time></trkpt><trkpt lat="43.4638003496152" lon="5.747045472252947"><ele>325.33333333333337</ele><time>2026-03-28T14:32:23Z</time></trkpt><trkpt lat="43.463885468289504" lon="5.747007001733072"><ele>324.6666666666667</ele><time>2026-03-28T14:32:24Z</time></trkpt><trkpt lat="43.46398537870329" lon="5.746963639030036"><ele>324.0</ele><time>2026-03-28T14:32:26Z</time></trkpt><trkpt lat="43.46403817312835" lon="5.74702654193409"><ele>323.3333333333333</ele><time>2026-03-28T14:32:49Z</time></trkpt><trkpt lat="43.464085004519426" lon="5.747105845948896"><ele>322.66666666666663</ele><time>2026-03-28T14:32:51Z</time></trkpt><trkpt lat="43.46415404752764" lon="5.747137500302303"><ele>322.0</ele><time>2026-03-28T14:32:54Z</time></trkpt><trkpt lat="43.464177115659446" lon="5.747259521294485"><ele>322.0</ele><time>2026-03-28T14:32:56Z</time></trkpt><trkpt lat="43.464223410814796" lon="5.747409528618737"><ele>322.0</ele><time>2026-03-28T14:32:58Z</time></trkpt><trkpt lat="43.464285782240104" lon="5.747467269857194"><ele>322.0</ele><time>2026-03-28T14:33:00Z</time></trkpt><trkpt lat="43.46434998619647" lon="5.74747517553737"><ele>322.0</ele><time>2026-03-28T14:33:02Z</time></trkpt><trkpt lat="43.46429625406396" lon="5.747633982989776"><ele>322.0</ele><time>2026-03-28T14:33:04.999Z</time></trkpt><trkpt lat="43.46425240477436" lon="5.7477557435575015"><ele>321.66666666666663</ele><time>2026-03-28T14:33:05.999Z</time></trkpt><trkpt lat="43.46428109435214" lon="5.747890063173969"><ele>321.3333333333333</ele><time>2026-03-28T14:33:08.999Z</time></trkpt><trkpt lat="43.464358375011834" lon="5.747919016402213"><ele>321.0</ele><time>2026-03-28T14:33:11.999Z</time></trkpt><trkpt lat="43.46443064857822" lon="5.747897540019396"><ele>320.6666666666667</ele><time>2026-03-28T14:33:13.999Z</time></trkpt><trkpt lat="43.46449068059904" lon="5.7478664716545005"><ele>320.33333333333337</ele><time>2026-03-28T14:33:14.999Z</time></trkpt><trkpt lat="43.46458256640915" lon="5.747808518337221"><ele>320.0</ele><time>2026-03-28T14:33:17Z</time></trkpt><trkpt lat="43.46465688168027" lon="5.747805014824369"><ele>320.0</ele><time>2026-03-28T14:33:18Z</time></trkpt><trkpt lat="43.46472874883222" lon="5.7477979655675036"><ele>320.0</ele><time>2026-03-28T14:33:19Z</time></trkpt><trkpt lat="43.464837742415284" lon="5.747803512166085"><ele>320.0</ele><time>2026-03-28T14:33:21Z</time></trkpt><trkpt lat="43.46490960714268" lon="5.747791886460027"><ele>320.0</ele><time>2026-03-28T14:33:23Z</time></trkpt><trkpt lat="43.464975143879165" lon="5.747844311055477"><ele>320.0</ele><time>2026-03-28T14:33:25Z</time></trkpt><trkpt lat="43.46503305756384" lon="5.7479093184734795"><ele>320.0</ele><time>2026-03-28T14:33:28Z</time></trkpt><trkpt lat="43.46510732507131" lon="5.747897144932512"><ele>320.0</ele><time>2026-03-28T14:33:30Z</time></trkpt><trkpt lat="43.4651774766948" lon="5.747855262978794"><ele>320.0</ele><time>2026-03-28T14:33:32Z</time></trkpt><trkpt lat="43.465244191623945" lon="5.747762114366075"><ele>320.0</ele><time>2026-03-28T14:33:34Z</time></trkpt><trkpt lat="43.465281968173244" lon="5.747692118094654"><ele>320.0</ele><time>2026-03-28T14:33:35Z</time></trkpt><trkpt lat="43.465330912447385" lon="5.747622277936262"><ele>320.0</ele><time>2026-03-28T14:33:36Z</time></trkpt><trkpt lat="43.46539581939512" lon="5.747554885639481"><ele>320.0</ele><time>2026-03-28T14:33:37Z</time></trkpt><trkpt lat="43.46547893077676" lon="5.747543210751467"><ele>319.1666666666667</ele><time>2026-03-28T14:33:38Z</time></trkpt><trkpt lat="43.465579486962575" lon="5.747561685575869"><ele>318.33333333333337</ele><time>2026-03-28T14:33:40Z</time></trkpt><trkpt lat="43.46564050955232" lon="5.74759046298089"><ele>317.5</ele><time>2026-03-28T14:33:41Z</time></trkpt><trkpt lat="43.46571440139152" lon="5.747592246941614"><ele>316.6666666666667</ele><time>2026-03-28T14:33:42Z</time></trkpt><trkpt lat="43.46577328002935" lon="5.747554845657086"><ele>315.8333333333333</ele><time>2026-03-28T14:33:43Z</time></trkpt><trkpt lat="43.46586787031352" lon="5.747453031281065"><ele>315.0</ele><time>2026-03-28T14:33:45Z</time></trkpt><trkpt lat="43.46593167337511" lon="5.747336269446111"><ele>315.0</ele><time>2026-03-28T14:33:47Z</time></trkpt><trkpt lat="43.46600075843018" lon="5.747252008807616"><ele>315.0</ele><time>2026-03-28T14:33:49Z</time></trkpt><trkpt lat="43.466113087487656" lon="5.747165693434493"><ele>315.0</ele><time>2026-03-28T14:33:51Z</time></trkpt><trkpt lat="43.466199937584825" lon="5.747111407863442"><ele>315.0</ele><time>2026-03-28T14:33:53Z</time></trkpt><trkpt lat="43.466282979767975" lon="5.7470958367699705"><ele>315.0</ele><time>2026-03-28T14:33:56Z</time></trkpt><trkpt lat="43.466334714432364" lon="5.747002763614779"><ele>313.6</ele><time>2026-03-28T14:33:59Z</time></trkpt><trkpt lat="43.46646740272949" lon="5.7468293623448155"><ele>312.2</ele><time>2026-03-28T14:34:01Z</time></trkpt><trkpt lat="43.466511816422056" lon="5.746759164475945"><ele>310.8</ele><time>2026-03-28T14:34:02Z</time></trkpt><trkpt lat="43.4665650850064" lon="5.7466689698174145"><ele>309.4</ele><time>2026-03-28T14:34:03Z</time></trkpt><trkpt lat="43.46664225831494" lon="5.746612605157352"><ele>308.0</ele><time>2026-03-28T14:34:04Z</time></trkpt><trkpt lat="43.46671728244786" lon="5.746550675536842"><ele>308.0</ele><time>2026-03-28T14:34:05Z</time></trkpt><trkpt lat="43.46680616636506" lon="5.746519582756222"><ele>308.0</ele><time>2026-03-28T14:34:07Z</time></trkpt><trkpt lat="43.46687554667328" lon="5.74647346335416"><ele>308.0</ele><time>2026-03-28T14:34:09Z</time></trkpt><trkpt lat="43.4669125403169" lon="5.7463895665575535"><ele>308.0</ele><time>2026-03-28T14:34:11Z</time></trkpt><trkpt lat="43.46691175894258" lon="5.746259229793686"><ele>308.0</ele><time>2026-03-28T14:34:13Z</time></trkpt><trkpt lat="43.46691826880705" lon="5.746124666513499"><ele>308.0</ele><time>2026-03-28T14:34:15Z</time></trkpt><trkpt lat="43.46695107657322" lon="5.746031118773454"><ele>307.5</ele><time>2026-03-28T14:34:17Z</time></trkpt><trkpt lat="43.467012585246906" lon="5.745914433385443"><ele>307.0</ele><time>2026-03-28T14:34:19Z</time></trkpt><trkpt lat="43.467066417327175" lon="5.7457951493461445"><ele>306.5</ele><time>2026-03-28T14:34:20Z</time></trkpt><trkpt lat="43.467085148581646" lon="5.745655653827048"><ele>306.0</ele><time>2026-03-28T14:34:21Z</time></trkpt><trkpt lat="43.46711393885828" lon="5.745571906741898"><ele>305.5</ele><time>2026-03-28T14:34:22Z</time></trkpt><trkpt lat="43.46714908506102" lon="5.745489111529979"><ele>305.0</ele><time>2026-03-28T14:34:23Z</time></trkpt><trkpt lat="43.467191004644036" lon="5.74539866956562"><ele>304.33333333333337</ele><time>2026-03-28T14:34:24Z</time></trkpt><trkpt lat="43.4672396493983" lon="5.7452994993433375"><ele>303.6666666666667</ele><time>2026-03-28T14:34:25Z</time></trkpt><trkpt lat="43.467291942475605" lon="5.745216739287204"><ele>303.0</ele><time>2026-03-28T14:34:26Z</time></trkpt><trkpt lat="43.46733975921508" lon="5.745153783020238"><ele>302.3333333333333</ele><time>2026-03-28T14:34:27Z</time></trkpt><trkpt lat="43.467404021116494" lon="5.745035916882173"><ele>301.66666666666663</ele><time>2026-03-28T14:34:29Z</time></trkpt><trkpt lat="43.4674579406836" lon="5.74496472645794"><ele>301.0</ele><time>2026-03-28T14:34:31Z</time></trkpt><trkpt lat="43.467522619973344" lon="5.74491865708723"><ele>301.0</ele><time>2026-03-28T14:34:35Z</time></trkpt><trkpt lat="43.467598976671404" lon="5.744962232132358"><ele>301.0</ele><time>2026-03-28T14:34:49Z</time></trkpt><trkpt lat="43.467633429275274" lon="5.745036215071823"><ele>301.0</ele><time>2026-03-28T14:34:50Z</time></trkpt><trkpt lat="43.46765716904757" lon="5.745162671811917"><ele>301.0</ele><time>2026-03-28T14:34:51Z</time></trkpt><trkpt lat="43.46769551377223" lon="5.745325414003908"><ele>301.0</ele><time>2026-03-28T14:34:52Z</time></trkpt><trkpt lat="43.46775616795659" lon="5.745488748813722"><ele>301.0</ele><time>2026-03-28T14:34:53Z</time></trkpt><trkpt lat="43.467826993872386" lon="5.745660673911929"><ele>301.0</ele><time>2026-03-28T14:34:54Z</time></trkpt><trkpt lat="43.46790669430048" lon="5.74584851078679"><ele>301.0</ele><time>2026-03-28T14:34:55Z</time></trkpt><trkpt lat="43.467986399031204" lon="5.74601766358426"><ele>301.0</ele><time>2026-03-28T14:34:56Z</time></trkpt><trkpt lat="43.468080969956084" lon="5.746190994272861"><ele>300.66666666666663</ele><time>2026-03-28T14:34:57Z</time></trkpt><trkpt lat="43.46818843214706" lon="5.746382142628442"><ele>300.3333333333333</ele><time>2026-03-28T14:34:58Z</time></trkpt><trkpt lat="43.46829633327444" lon="5.746575609024391"><ele>300.0</ele><time>2026-03-28T14:34:58.999Z</time></trkpt><trkpt lat="43.468380753543514" lon="5.746721722495722"><ele>302.0</ele><time>2026-03-28T14:34:59.999Z</time></trkpt><trkpt lat="43.46848392079626" lon="5.746896959278765"><ele>304.0</ele><time>2026-03-28T14:35:00.999Z</time></trkpt><trkpt lat="43.46858840967064" lon="5.7470896137376775"><ele>306.0</ele><time>2026-03-28T14:35:01.999Z</time></trkpt><trkpt lat="43.46870540658315" lon="5.747292488846804"><ele>304.6666666666667</ele><time>2026-03-28T14:35:02.999Z</time></trkpt><trkpt lat="43.46882299088043" lon="5.747494165015071"><ele>303.33333333333337</ele><time>2026-03-28T14:35:03.999Z</time></trkpt><trkpt lat="43.468928433696576" lon="5.747668912013228"><ele>302.0</ele><time>2026-03-28T14:35:04.999Z</time></trkpt><trkpt lat="43.46902856359944" lon="5.747842061945894"><ele>304.6666666666667</ele><time>2026-03-28T14:35:05.999Z</time></trkpt><trkpt lat="43.46912997532143" lon="5.748021814203646"><ele>307.3333333333333</ele><time>2026-03-28T14:35:06.999Z</time></trkpt><trkpt lat="43.46923368235988" lon="5.7482030116662335"><ele>310.0</ele><time>2026-03-28T14:35:07.999Z</time></trkpt><trkpt lat="43.469333498019736" lon="5.748388326938488"><ele>308.3333333333333</ele><time>2026-03-28T14:35:08.999Z</time></trkpt><trkpt lat="43.46943325581181" lon="5.748572240170072"><ele>306.6666666666667</ele><time>2026-03-28T14:35:09.999Z</time></trkpt><trkpt lat="43.469536764654286" lon="5.748749538172806"><ele>305.0</ele><time>2026-03-28T14:35:10.999Z</time></trkpt><trkpt lat="43.46964184689106" lon="5.748946624831579"><ele>305.0</ele><time>2026-03-28T14:35:11.999Z</time></trkpt><trkpt lat="43.4697319151086" lon="5.7491221903076815"><ele>305.0</ele><time>2026-03-28T14:35:12.999Z</time></trkpt><trkpt lat="43.46976209202955" lon="5.74931061954149"><ele>305.0</ele><time>2026-03-28T14:35:13.999Z</time></trkpt><trkpt lat="43.469750204545356" lon="5.749472760163877"><ele>305.0</ele><time>2026-03-28T14:35:14.999Z</time></trkpt><trkpt lat="43.46972925713416" lon="5.749652011729272"><ele>307.33333333333337</ele><time>2026-03-28T14:35:15.999Z</time></trkpt><trkpt lat="43.46970934011836" lon="5.749863275171664"><ele>309.6666666666667</ele><time>2026-03-28T14:35:16.999Z</time></trkpt><trkpt lat="43.46971888337121" lon="5.750097481586266"><ele>312.0</ele><time>2026-03-28T14:35:17.999Z</time></trkpt><trkpt lat="43.46972537116053" lon="5.750337101084545"><ele>314.3333333333333</ele><time>2026-03-28T14:35:18.999Z</time></trkpt><trkpt lat="43.46973382203057" lon="5.750588002653865"><ele>316.66666666666663</ele><time>2026-03-28T14:35:19.999Z</time></trkpt><trkpt lat="43.469747959729126" lon="5.750825787258827"><ele>319.0</ele><time>2026-03-28T14:35:20.999Z</time></trkpt><trkpt lat="43.46976191431241" lon="5.751064638107053"><ele>320.0</ele><time>2026-03-28T14:35:22Z</time></trkpt><trkpt lat="43.469779601589025" lon="5.751312223648791"><ele>321.0</ele><time>2026-03-28T14:35:23Z</time></trkpt><trkpt lat="43.469795723876544" lon="5.751549865055191"><ele>322.0</ele><time>2026-03-28T14:35:24Z</time></trkpt><trkpt lat="43.469817459188995" lon="5.751754490411025"><ele>321.5</ele><time>2026-03-28T14:35:25Z</time></trkpt><trkpt lat="43.469843202220574" lon="5.751948398172966"><ele>321.0</ele><time>2026-03-28T14:35:26Z</time></trkpt><trkpt lat="43.469873472753484" lon="5.752124708806889"><ele>320.5</ele><time>2026-03-28T14:35:27Z</time></trkpt><trkpt lat="43.469922997654606" lon="5.752276084949817"><ele>320.0</ele><time>2026-03-28T14:35:28Z</time></trkpt><trkpt lat="43.4700058196454" lon="5.75241238299607"><ele>320.0</ele><time>2026-03-28T14:35:29Z</time></trkpt><trkpt lat="43.47011610257676" lon="5.752544078641888"><ele>320.0</ele><time>2026-03-28T14:35:30Z</time></trkpt><trkpt lat="43.470242505277255" lon="5.752671558215538"><ele>320.0</ele><time>2026-03-28T14:35:31Z</time></trkpt><trkpt lat="43.470380381454326" lon="5.752813248461028"><ele>319.0</ele><time>2026-03-28T14:35:32Z</time></trkpt><trkpt lat="43.470516559924185" lon="5.752969709537253"><ele>318.0</ele><time>2026-03-28T14:35:33Z</time></trkpt><trkpt lat="43.470656634972094" lon="5.7531338942121195"><ele>317.0</ele><time>2026-03-28T14:35:34Z</time></trkpt><trkpt lat="43.47080042836951" lon="5.753303207067574"><ele>317.0</ele><time>2026-03-28T14:35:35Z</time></trkpt><trkpt lat="43.47095761479587" lon="5.75349268008117"><ele>317.0</ele><time>2026-03-28T14:35:36Z</time></trkpt><trkpt lat="43.471115087100074" lon="5.753676809647924"><ele>317.0</ele><time>2026-03-28T14:35:37Z</time></trkpt><trkpt lat="43.4712548126817" lon="5.753849381322427"><ele>315.6666666666667</ele><time>2026-03-28T14:35:38Z</time></trkpt><trkpt lat="43.47139116189245" lon="5.754019304271819"><ele>314.3333333333333</ele><time>2026-03-28T14:35:39Z</time></trkpt><trkpt lat="43.471529637581945" lon="5.754185804323579"><ele>313.0</ele><time>2026-03-28T14:35:40Z</time></trkpt><trkpt lat="43.47168873425365" lon="5.754367419316443"><ele>313.0</ele><time>2026-03-28T14:35:41Z</time></trkpt><trkpt lat="43.47184316015861" lon="5.754546123890898"><ele>313.0</ele><time>2026-03-28T14:35:42Z</time></trkpt><trkpt lat="43.47198655737083" lon="5.754715054357829"><ele>313.0</ele><time>2026-03-28T14:35:43Z</time></trkpt><trkpt lat="43.47211994515657" lon="5.754874589964499"><ele>310.3333333333333</ele><time>2026-03-28T14:35:44Z</time></trkpt><trkpt lat="43.47224737812231" lon="5.755029138053592"><ele>307.6666666666667</ele><time>2026-03-28T14:35:45Z</time></trkpt><trkpt lat="43.472366510525724" lon="5.755182751906519"><ele>305.0</ele><time>2026-03-28T14:35:46Z</time></trkpt><trkpt lat="43.47247952507632" lon="5.755336880787343"><ele>304.6666666666667</ele><time>2026-03-28T14:35:47Z</time></trkpt><trkpt lat="43.47257930433436" lon="5.75549666905953"><ele>304.3333333333333</ele><time>2026-03-28T14:35:48Z</time></trkpt><trkpt lat="43.47266685942125" lon="5.755671066641231"><ele>304.0</ele><time>2026-03-28T14:35:49Z</time></trkpt><trkpt lat="43.4727553818255" lon="5.75586569345462"><ele>304.0</ele><time>2026-03-28T14:35:50Z</time></trkpt><trkpt lat="43.47284607768572" lon="5.756060608143482"><ele>304.0</ele><time>2026-03-28T14:35:51Z</time></trkpt><trkpt lat="43.47294115375247" lon="5.756257904771691"><ele>304.0</ele><time>2026-03-28T14:35:52Z</time></trkpt><trkpt lat="43.473040776040136" lon="5.756466105922027"><ele>304.0</ele><time>2026-03-28T14:35:53Z</time></trkpt><trkpt lat="43.47314248944628" lon="5.756683850389673"><ele>304.0</ele><time>2026-03-28T14:35:54Z</time></trkpt><trkpt lat="43.473245029177384" lon="5.756908395188283"><ele>304.0</ele><time>2026-03-28T14:35:55Z</time></trkpt><trkpt lat="43.47334394265465" lon="5.757132886753775"><ele>304.0</ele><time>2026-03-28T14:35:56Z</time></trkpt><trkpt lat="43.47344087545967" lon="5.757337810886149"><ele>304.0</ele><time>2026-03-28T14:35:57Z</time></trkpt><trkpt lat="43.47353135965527" lon="5.757526475846949"><ele>304.0</ele><time>2026-03-28T14:35:58Z</time></trkpt><trkpt lat="43.47361595127115" lon="5.757707557689774"><ele>304.3333333333333</ele><time>2026-03-28T14:35:59Z</time></trkpt><trkpt lat="43.473701269544726" lon="5.757890999790005"><ele>304.6666666666667</ele><time>2026-03-28T14:36:00Z</time></trkpt><trkpt lat="43.47379020015315" lon="5.75808172226786"><ele>305.0</ele><time>2026-03-28T14:36:01Z</time></trkpt><trkpt lat="43.47388619057935" lon="5.758275947594692"><ele>305.0</ele><time>2026-03-28T14:36:02Z</time></trkpt><trkpt lat="43.473996217934726" lon="5.758469365104086"><ele>305.0</ele><time>2026-03-28T14:36:03Z</time></trkpt><trkpt lat="43.47412733592895" lon="5.758661673120293"><ele>305.0</ele><time>2026-03-28T14:36:04Z</time></trkpt><trkpt lat="43.47427075535762" lon="5.758846455494949"><ele>305.0</ele><time>2026-03-28T14:36:05Z</time></trkpt><trkpt lat="43.474409178532696" lon="5.7590110096959"><ele>305.0</ele><time>2026-03-28T14:36:06Z</time></trkpt><trkpt lat="43.47453986979771" lon="5.759165459757683"><ele>305.0</ele><time>2026-03-28T14:36:07Z</time></trkpt><trkpt lat="43.474675584984794" lon="5.759326680849673"><ele>305.33333333333337</ele><time>2026-03-28T14:36:08Z</time></trkpt><trkpt lat="43.47481227952445" lon="5.759501053258766"><ele>305.6666666666667</ele><time>2026-03-28T14:36:09Z</time></trkpt><trkpt lat="43.47493849732554" lon="5.759658982244442"><ele>306.0</ele><time>2026-03-28T14:36:10Z</time></trkpt><trkpt lat="43.47505429535386" lon="5.759803575498458"><ele>306.0</ele><time>2026-03-28T14:36:11Z</time></trkpt><trkpt lat="43.47516375157078" lon="5.759938961144279"><ele>306.0</ele><time>2026-03-28T14:36:12Z</time></trkpt><trkpt lat="43.47526704408633" lon="5.760065189288161"><ele>306.0</ele><time>2026-03-28T14:36:13Z</time></trkpt><trkpt lat="43.47536352503943" lon="5.760186932766051"><ele>306.0</ele><time>2026-03-28T14:36:14Z</time></trkpt><trkpt lat="43.47545370483071" lon="5.7603015182986175"><ele>306.0</ele><time>2026-03-28T14:36:15Z</time></trkpt><trkpt lat="43.47553911752464" lon="5.760408670087391"><ele>306.0</ele><time>2026-03-28T14:36:16Z</time></trkpt><trkpt lat="43.47562093584454" lon="5.760506328987927"><ele>306.0</ele><time>2026-03-28T14:36:17Z</time></trkpt><trkpt lat="43.47569743471967" lon="5.7605975783628836"><ele>306.0</ele><time>2026-03-28T14:36:18Z</time></trkpt><trkpt lat="43.47576750744166" lon="5.760687249410779"><ele>306.0</ele><time>2026-03-28T14:36:19Z</time></trkpt><trkpt lat="43.47582432657022" lon="5.760780452834727"><ele>306.0</ele><time>2026-03-28T14:36:20Z</time></trkpt><trkpt lat="43.4758713625679" lon="5.76087841769276"><ele>306.0</ele><time>2026-03-28T14:36:21Z</time></trkpt><trkpt lat="43.47591629759222" lon="5.760967652354939"><ele>306.0</ele><time>2026-03-28T14:36:22Z</time></trkpt><trkpt lat="43.4759006263446" lon="5.761138307552719"><ele>306.0</ele><time>2026-03-28T14:36:23Z</time></trkpt><trkpt lat="43.47587811087913" lon="5.7613029523565915"><ele>306.0</ele><time>2026-03-28T14:36:24Z</time></trkpt><trkpt lat="43.475816481076954" lon="5.761456719390406"><ele>306.3333333333333</ele><time>2026-03-28T14:36:25Z</time></trkpt><trkpt lat="43.4757241199648" lon="5.761623398709064"><ele>306.66666666666663</ele><time>2026-03-28T14:36:26Z</time></trkpt><trkpt lat="43.47562505977178" lon="5.761813717591571"><ele>307.0</ele><time>2026-03-28T14:36:27Z</time></trkpt><trkpt lat="43.4755302991899" lon="5.762010478750795"><ele>307.66666666666663</ele><time>2026-03-28T14:36:28Z</time></trkpt><trkpt lat="43.475424428293444" lon="5.762228997100602"><ele>308.3333333333333</ele><time>2026-03-28T14:36:29Z</time></trkpt><trkpt lat="43.47532381620734" lon="5.7624330033467706"><ele>309.0</ele><time>2026-03-28T14:36:30Z</time></trkpt><trkpt lat="43.47522711602188" lon="5.762635801594629"><ele>309.6666666666667</ele><time>2026-03-28T14:36:31Z</time></trkpt><trkpt lat="43.475126574310934" lon="5.762860251756349"><ele>310.33333333333337</ele><time>2026-03-28T14:36:32Z</time></trkpt><trkpt lat="43.475017865153994" lon="5.763094526760447"><ele>311.0</ele><time>2026-03-28T14:36:33Z</time></trkpt><trkpt lat="43.474901772729226" lon="5.763334717881835"><ele>312.6666666666667</ele><time>2026-03-28T14:36:34Z</time></trkpt><trkpt lat="43.47479220575042" lon="5.763567926316938"><ele>314.3333333333333</ele><time>2026-03-28T14:36:35Z</time></trkpt><trkpt lat="43.474686980861875" lon="5.763794922591919"><ele>316.0</ele><time>2026-03-28T14:36:36Z</time></trkpt><trkpt lat="43.47457968741369" lon="5.764018133716069"><ele>316.0</ele><time>2026-03-28T14:36:37Z</time></trkpt><trkpt lat="43.47447213007399" lon="5.7642354292460425"><ele>316.0</ele><time>2026-03-28T14:36:38Z</time></trkpt><trkpt lat="43.47436701551228" lon="5.764451084154445"><ele>316.0</ele><time>2026-03-28T14:36:39Z</time></trkpt><trkpt lat="43.474263874346796" lon="5.764671865356655"><ele>317.66666666666663</ele><time>2026-03-28T14:36:40Z</time></trkpt><trkpt lat="43.47416024702394" lon="5.764895325174729"><ele>319.3333333333333</ele><time>2026-03-28T14:36:41Z</time></trkpt><trkpt lat="43.474058914140585" lon="5.765120288927841"><ele>321.0</ele><time>2026-03-28T14:36:42Z</time></trkpt><trkpt lat="43.47396005424354" lon="5.765350409850759"><ele>321.3333333333333</ele><time>2026-03-28T14:36:43Z</time></trkpt><trkpt lat="43.47386455216181" lon="5.765589304595819"><ele>321.66666666666663</ele><time>2026-03-28T14:36:44Z</time></trkpt><trkpt lat="43.47376951462959" lon="5.765828689212373"><ele>322.0</ele><time>2026-03-28T14:36:45Z</time></trkpt><trkpt lat="43.47367085362114" lon="5.766067735639337"><ele>322.0</ele><time>2026-03-28T14:36:46Z</time></trkpt><trkpt lat="43.473572955555476" lon="5.7663058666902325"><ele>322.0</ele><time>2026-03-28T14:36:47Z</time></trkpt><trkpt lat="43.473475247015706" lon="5.766541212651658"><ele>322.0</ele><time>2026-03-28T14:36:48Z</time></trkpt><trkpt lat="43.4733804413846" lon="5.766777516224599"><ele>322.3333333333333</ele><time>2026-03-28T14:36:49Z</time></trkpt><trkpt lat="43.47328837632017" lon="5.7670146403566696"><ele>322.6666666666667</ele><time>2026-03-28T14:36:50Z</time></trkpt><trkpt lat="43.473194708764424" lon="5.767253155233213"><ele>323.0</ele><time>2026-03-28T14:36:51Z</time></trkpt><trkpt lat="43.473099310064065" lon="5.767492462586928"><ele>323.33333333333337</ele><time>2026-03-28T14:36:52Z</time></trkpt><trkpt lat="43.473003488485816" lon="5.76773196238951"><ele>323.6666666666667</ele><time>2026-03-28T14:36:52.999Z</time></trkpt><trkpt lat="43.47290934666608" lon="5.76797216876727"><ele>324.0</ele><time>2026-03-28T14:36:53.999Z</time></trkpt><trkpt lat="43.472813758674775" lon="5.768210796756441"><ele>324.6666666666667</ele><time>2026-03-28T14:36:54.999Z</time></trkpt><trkpt lat="43.47271593915514" lon="5.768447093343927"><ele>325.33333333333337</ele><time>2026-03-28T14:36:55.999Z</time></trkpt><trkpt lat="43.47261856323688" lon="5.7686840552460925"><ele>326.0</ele><time>2026-03-28T14:36:56.999Z</time></trkpt><trkpt lat="43.472524784573224" lon="5.7689225754901745"><ele>327.0</ele><time>2026-03-28T14:36:57.999Z</time></trkpt><trkpt lat="43.47243163594854" lon="5.769155038566148"><ele>328.0</ele><time>2026-03-28T14:36:58.999Z</time></trkpt><trkpt lat="43.47233811351713" lon="5.76938793189099"><ele>329.0</ele><time>2026-03-28T14:36:59.999Z</time></trkpt><trkpt lat="43.472243325913105" lon="5.769625474250156"><ele>329.6666666666667</ele><time>2026-03-28T14:37:00.999Z</time></trkpt><trkpt lat="43.47215531761873" lon="5.769844466829532"><ele>330.3333333333333</ele><time>2026-03-28T14:37:01.999Z</time></trkpt><trkpt lat="43.472071145188025" lon="5.770057263850534"><ele>331.0</ele><time>2026-03-28T14:37:02.999Z</time></trkpt><trkpt lat="43.47198285890103" lon="5.770276246620292"><ele>333.0</ele><time>2026-03-28T14:37:03.999Z</time></trkpt><trkpt lat="43.471892591899056" lon="5.770498766031111"><ele>335.0</ele><time>2026-03-28T14:37:04.999Z</time></trkpt><trkpt lat="43.47180219329459" lon="5.770715745280534"><ele>337.0</ele><time>2026-03-28T14:37:05.999Z</time></trkpt><trkpt lat="43.471710007623926" lon="5.770947207439512"><ele>337.3333333333333</ele><time>2026-03-28T14:37:06.999Z</time></trkpt><trkpt lat="43.47161319786991" lon="5.771183436811296"><ele>337.6666666666667</ele><time>2026-03-28T14:37:07.999Z</time></trkpt><trkpt lat="43.47152057733648" lon="5.7714118055199535"><ele>338.0</ele><time>2026-03-28T14:37:08.999Z</time></trkpt><trkpt lat="43.47142832559389" lon="5.7716374101483705"><ele>338.0</ele><time>2026-03-28T14:37:09.999Z</time></trkpt><trkpt lat="43.471335137088325" lon="5.771874518998621"><ele>338.0</ele><time>2026-03-28T14:37:10.999Z</time></trkpt><trkpt lat="43.471255214310524" lon="5.772091431681998"><ele>338.0</ele><time>2026-03-28T14:37:11.999Z</time></trkpt><trkpt lat="43.47118660693107" lon="5.772291544616533"><ele>341.0</ele><time>2026-03-28T14:37:12.999Z</time></trkpt><trkpt lat="43.47112438098067" lon="5.772479926079857"><ele>344.0</ele><time>2026-03-28T14:37:13.999Z</time></trkpt><trkpt lat="43.471061933328556" lon="5.772669764382488"><ele>347.0</ele><time>2026-03-28T14:37:14.999Z</time></trkpt><trkpt lat="43.47099575782218" lon="5.77288206884065"><ele>348.0</ele><time>2026-03-28T14:37:15.999Z</time></trkpt><trkpt lat="43.47092337590445" lon="5.773112938717997"><ele>349.0</ele><time>2026-03-28T14:37:16.999Z</time></trkpt><trkpt lat="43.47085690120427" lon="5.773348247457842"><ele>350.0</ele><time>2026-03-28T14:37:17.999Z</time></trkpt><trkpt lat="43.47080131476387" lon="5.773557981693742"><ele>350.4</ele><time>2026-03-28T14:37:18.999Z</time></trkpt><trkpt lat="43.47075541907142" lon="5.773749663658707"><ele>350.8</ele><time>2026-03-28T14:37:19.999Z</time></trkpt><trkpt lat="43.470717100359025" lon="5.7739213598745485"><ele>351.20000000000005</ele><time>2026-03-28T14:37:20.999Z</time></trkpt><trkpt lat="43.4706877030524" lon="5.774044737176592"><ele>351.6</ele><time>2026-03-28T14:37:21.999Z</time></trkpt><trkpt lat="43.47065779790395" lon="5.774123286065582"><ele>352.0</ele><time>2026-03-28T14:37:22.999Z</time></trkpt><trkpt lat="43.470565658453125" lon="5.774044216540123"><ele>352.0</ele><time>2026-03-28T14:37:25.999Z</time></trkpt><trkpt lat="43.47049233627218" lon="5.773982842956076"><ele>352.0</ele><time>2026-03-28T14:37:34Z</time></trkpt><trkpt lat="43.470462720051636" lon="5.773896871985487"><ele>352.0</ele><time>2026-03-28T14:37:35Z</time></trkpt><trkpt lat="43.47039751210188" lon="5.773812184827074"><ele>352.0</ele><time>2026-03-28T14:37:36Z</time></trkpt><trkpt lat="43.4703107196135" lon="5.773743709383145"><ele>352.0</ele><time>2026-03-28T14:37:37Z</time></trkpt><trkpt lat="43.47022146992974" lon="5.773671536598288"><ele>352.0</ele><time>2026-03-28T14:37:38Z</time></trkpt><trkpt lat="43.47013758675784" lon="5.773600021952871"><ele>351.66666666666663</ele><time>2026-03-28T14:37:39Z</time></trkpt><trkpt lat="43.47008223012356" lon="5.773556042990919"><ele>351.3333333333333</ele><time>2026-03-28T14:37:40Z</time></trkpt><trkpt lat="43.47000346404097" lon="5.773517947648224"><ele>351.0</ele><time>2026-03-28T14:37:42Z</time></trkpt><trkpt lat="43.46999590761311" lon="5.773625103917923"><ele>350.6666666666667</ele><time>2026-03-28T14:37:48Z</time></trkpt><trkpt lat="43.469983053138044" lon="5.773710345063365"><ele>350.33333333333337</ele><time>2026-03-28T14:37:49Z</time></trkpt><trkpt lat="43.46994896745921" lon="5.773799524965785"><ele>350.0</ele><time>2026-03-28T14:37:50Z</time></trkpt><trkpt lat="43.469885100606426" lon="5.773891898468507"><ele>351.33333333333337</ele><time>2026-03-28T14:37:51Z</time></trkpt><trkpt lat="43.469839431586" lon="5.773955577346811"><ele>352.6666666666667</ele><time>2026-03-28T14:37:52Z</time></trkpt><trkpt lat="43.46974847581621" lon="5.774024225644876"><ele>354.0</ele><time>2026-03-28T14:37:54Z</time></trkpt><trkpt lat="43.469669920771146" lon="5.774067106942931"><ele>355.3333333333333</ele><time>2026-03-28T14:37:55Z</time></trkpt><trkpt lat="43.469583639940126" lon="5.774083339913249"><ele>356.66666666666663</ele><time>2026-03-28T14:37:56Z</time></trkpt><trkpt lat="43.469507631917935" lon="5.774109704064946"><ele>358.0</ele><time>2026-03-28T14:37:57Z</time></trkpt><trkpt lat="43.46940980319437" lon="5.774132013390592"><ele>360.75</ele><time>2026-03-28T14:37:58Z</time></trkpt><trkpt lat="43.46926396169104" lon="5.774100670299468"><ele>363.5</ele><time>2026-03-28T14:37:59Z</time></trkpt><trkpt lat="43.4691503347941" lon="5.774039056749217"><ele>366.25</ele><time>2026-03-28T14:38:00Z</time></trkpt><trkpt lat="43.46905906892518" lon="5.7739855676605965"><ele>369.0</ele><time>2026-03-28T14:38:01Z</time></trkpt><trkpt lat="43.46897666286077" lon="5.773907677068065"><ele>369.0</ele><time>2026-03-28T14:38:02Z</time></trkpt><trkpt lat="43.468886638223275" lon="5.773794105494405"><ele>369.0</ele><time>2026-03-28T14:38:03Z</time></trkpt><trkpt lat="43.46881230749053" lon="5.773706170195867"><ele>369.0</ele><time>2026-03-28T14:38:04Z</time></trkpt><trkpt lat="43.46875597262532" lon="5.77365652631325"><ele>369.0</ele><time>2026-03-28T14:38:05Z</time></trkpt><trkpt lat="43.468635934852216" lon="5.773668954166433"><ele>369.0</ele><time>2026-03-28T14:38:07Z</time></trkpt><trkpt lat="43.46858001686523" lon="5.773711301195641"><ele>370.6666666666667</ele><time>2026-03-28T14:38:08Z</time></trkpt><trkpt lat="43.46852829521361" lon="5.773762376921909"><ele>372.3333333333333</ele><time>2026-03-28T14:38:09Z</time></trkpt><trkpt lat="43.468486311484604" lon="5.773830599556371"><ele>374.0</ele><time>2026-03-28T14:38:10Z</time></trkpt><trkpt lat="43.468432931873195" lon="5.773907454950618"><ele>375.66666666666663</ele><time>2026-03-28T14:38:11Z</time></trkpt><trkpt lat="43.468365658188375" lon="5.7739858693265385"><ele>377.3333333333333</ele><time>2026-03-28T14:38:12Z</time></trkpt><trkpt lat="43.468256798574636" lon="5.7740390334729215"><ele>379.0</ele><time>2026-03-28T14:38:14Z</time></trkpt><trkpt lat="43.468192715532446" lon="5.774018207182304"><ele>379.0</ele><time>2026-03-28T14:38:15Z</time></trkpt><trkpt lat="43.46808297207281" lon="5.773983348262634"><ele>379.0</ele><time>2026-03-28T14:38:17Z</time></trkpt><trkpt lat="43.4679700561775" lon="5.773947481685212"><ele>379.0</ele><time>2026-03-28T14:38:19Z</time></trkpt><trkpt lat="43.46794224365529" lon="5.773703156763321"><ele>379.0</ele><time>2026-03-28T14:38:20Z</time></trkpt><trkpt lat="43.46787341721912" lon="5.773648209291305"><ele>379.66666666666663</ele><time>2026-03-28T14:38:21Z</time></trkpt><trkpt lat="43.467800454637306" lon="5.77357599411991"><ele>380.3333333333333</ele><time>2026-03-28T14:38:22Z</time></trkpt><trkpt lat="43.46772693604521" lon="5.773509854539679"><ele>381.0</ele><time>2026-03-28T14:38:23Z</time></trkpt><trkpt lat="43.46767223609448" lon="5.773453675349398"><ele>381.6666666666667</ele><time>2026-03-28T14:38:24Z</time></trkpt><trkpt lat="43.46761069550877" lon="5.773403500174757"><ele>382.33333333333337</ele><time>2026-03-28T14:38:26Z</time></trkpt><trkpt lat="43.467545508070764" lon="5.773444866577195"><ele>383.0</ele><time>2026-03-28T14:38:40Z</time></trkpt><trkpt lat="43.46749087871051" lon="5.773577437645216"><ele>383.0</ele><time>2026-03-28T14:38:44Z</time></trkpt><trkpt lat="43.46742085376968" lon="5.773703145554944"><ele>383.0</ele><time>2026-03-28T14:38:46Z</time></trkpt><trkpt lat="43.46736222094373" lon="5.773803099419508"><ele>383.0</ele><time>2026-03-28T14:38:47.999Z</time></trkpt><trkpt lat="43.46729488435812" lon="5.7738722513953045"><ele>383.0</ele><time>2026-03-28T14:38:49.999Z</time></trkpt><trkpt lat="43.46718347930057" lon="5.773872314421734"><ele>383.0</ele><time>2026-03-28T14:38:51.999Z</time></trkpt><trkpt lat="43.467121968396704" lon="5.773841607835289"><ele>385.83333333333337</ele><time>2026-03-28T14:38:52.999Z</time></trkpt><trkpt lat="43.46704783608617" lon="5.773802438509242"><ele>388.6666666666667</ele><time>2026-03-28T14:38:53.999Z</time></trkpt><trkpt lat="43.466970481158555" lon="5.773709561193357"><ele>391.5</ele><time>2026-03-28T14:38:55.999Z</time></trkpt><trkpt lat="43.46693646347745" lon="5.773596078044278"><ele>394.33333333333337</ele><time>2026-03-28T14:38:57.999Z</time></trkpt><trkpt lat="43.466967899246704" lon="5.7736908460054295"><ele>397.1666666666667</ele><time>2026-03-28T14:39:11.999Z</time></trkpt><trkpt lat="43.46701289848707" lon="5.773777337664087"><ele>400.0</ele><time>2026-03-28T14:39:13.999Z</time></trkpt><trkpt lat="43.46710420369326" lon="5.773866470394167"><ele>396.6</ele><time>2026-03-28T14:39:15.999Z</time></trkpt><trkpt lat="43.46720847616453" lon="5.77390111220461"><ele>393.2</ele><time>2026-03-28T14:39:17.999Z</time></trkpt><trkpt lat="43.4673041570452" lon="5.773893148277679"><ele>389.79999999999995</ele><time>2026-03-28T14:39:19.999Z</time></trkpt><trkpt lat="43.46737391981697" lon="5.773799873890328"><ele>386.4</ele><time>2026-03-28T14:39:21.999Z</time></trkpt><trkpt lat="43.46743173353575" lon="5.773655562998515"><ele>383.0</ele><time>2026-03-28T14:39:23.999Z</time></trkpt><trkpt lat="43.46747089846515" lon="5.773581677722146"><ele>383.0</ele><time>2026-03-28T14:39:24.999Z</time></trkpt><trkpt lat="43.46753729504109" lon="5.773498881958875"><ele>383.0</ele><time>2026-03-28T14:39:26.999Z</time></trkpt><trkpt lat="43.46764859804511" lon="5.773478869562956"><ele>383.0</ele><time>2026-03-28T14:39:31.999Z</time></trkpt><trkpt lat="43.46772933927764" lon="5.77355085614169"><ele>383.0</ele><time>2026-03-28T14:39:32.999Z</time></trkpt><trkpt lat="43.46779679483486" lon="5.773621362502489"><ele>383.0</ele><time>2026-03-28T14:39:34Z</time></trkpt><trkpt lat="43.46786132329525" lon="5.77368604554955"><ele>383.0</ele><time>2026-03-28T14:39:35Z</time></trkpt><trkpt lat="43.46792719994755" lon="5.77374577957041"><ele>383.0</ele><time>2026-03-28T14:39:36Z</time></trkpt><trkpt lat="43.46799181517481" lon="5.773813245426999"><ele>383.0</ele><time>2026-03-28T14:39:37Z</time></trkpt><trkpt lat="43.468048298153796" lon="5.773884201212457"><ele>383.0</ele><time>2026-03-28T14:39:38Z</time></trkpt><trkpt lat="43.468097823988" lon="5.773953174752511"><ele>383.0</ele><time>2026-03-28T14:39:39Z</time></trkpt><trkpt lat="43.4681442191626" lon="5.774015447072388"><ele>383.0</ele><time>2026-03-28T14:39:40Z</time></trkpt><trkpt lat="43.46820534443537" lon="5.774056153559391"><ele>383.0</ele><time>2026-03-28T14:39:41Z</time></trkpt><trkpt lat="43.46827309073063" lon="5.774068680676703"><ele>382.33333333333337</ele><time>2026-03-28T14:39:42Z</time></trkpt><trkpt lat="43.46838177483443" lon="5.77401414269693"><ele>381.6666666666667</ele><time>2026-03-28T14:39:44Z</time></trkpt><trkpt lat="43.46843172719705" lon="5.773941477356461"><ele>381.0</ele><time>2026-03-28T14:39:45Z</time></trkpt><trkpt lat="43.46849326110462" lon="5.773859997918856"><ele>380.3333333333333</ele><time>2026-03-28T14:39:46Z</time></trkpt><trkpt lat="43.46856373596986" lon="5.773776953082449"><ele>379.66666666666663</ele><time>2026-03-28T14:39:47Z</time></trkpt><trkpt lat="43.46862154086395" lon="5.773698686958763"><ele>379.0</ele><time>2026-03-28T14:39:48Z</time></trkpt><trkpt lat="43.46868501837364" lon="5.7736480666430445"><ele>379.0</ele><time>2026-03-28T14:39:49Z</time></trkpt><trkpt lat="43.468758743102796" lon="5.773651216258696"><ele>379.0</ele><time>2026-03-28T14:39:50Z</time></trkpt><trkpt lat="43.46883801647144" lon="5.77371936163875"><ele>379.0</ele><time>2026-03-28T14:39:51Z</time></trkpt><trkpt lat="43.46889996884406" lon="5.773824892769516"><ele>379.0</ele><time>2026-03-28T14:39:52Z</time></trkpt><trkpt lat="43.46896598582412" lon="5.7739246144021195"><ele>379.0</ele><time>2026-03-28T14:39:53Z</time></trkpt><trkpt lat="43.46903130878329" lon="5.77400103462952"><ele>379.0</ele><time>2026-03-28T14:39:54Z</time></trkpt><trkpt lat="43.469126457560286" lon="5.774052875683811"><ele>377.3333333333333</ele><time>2026-03-28T14:39:55Z</time></trkpt><trkpt lat="43.46919633409259" lon="5.774089960113008"><ele>375.66666666666663</ele><time>2026-03-28T14:39:56Z</time></trkpt><trkpt lat="43.469268064319614" lon="5.774113787681802"><ele>374.0</ele><time>2026-03-28T14:39:57Z</time></trkpt><trkpt lat="43.46934082949331" lon="5.774123402990883"><ele>372.3333333333333</ele><time>2026-03-28T14:39:58Z</time></trkpt><trkpt lat="43.46943576308463" lon="5.774126262232654"><ele>370.6666666666667</ele><time>2026-03-28T14:39:59Z</time></trkpt><trkpt lat="43.469536733786356" lon="5.77410735904715"><ele>369.0</ele><time>2026-03-28T14:40:00Z</time></trkpt><trkpt lat="43.46960971075272" lon="5.774114764626587"><ele>367.1666666666667</ele><time>2026-03-28T14:40:01Z</time></trkpt><trkpt lat="43.4697101306132" lon="5.774093155081629"><ele>365.3333333333333</ele><time>2026-03-28T14:40:02Z</time></trkpt><trkpt lat="43.46980211669926" lon="5.774036438704389"><ele>363.5</ele><time>2026-03-28T14:40:03Z</time></trkpt><trkpt lat="43.46986382824149" lon="5.7739515517505255"><ele>361.66666666666663</ele><time>2026-03-28T14:40:04Z</time></trkpt><trkpt lat="43.46991671346471" lon="5.773871928340956"><ele>359.8333333333333</ele><time>2026-03-28T14:40:05Z</time></trkpt><trkpt lat="43.46996620277259" lon="5.77378291420444"><ele>358.0</ele><time>2026-03-28T14:40:06Z</time></trkpt><trkpt lat="43.47001241947039" lon="5.773694291561741"><ele>358.0</ele><time>2026-03-28T14:40:07Z</time></trkpt><trkpt lat="43.47005454593996" lon="5.773590288506372"><ele>358.0</ele><time>2026-03-28T14:40:09Z</time></trkpt><trkpt lat="43.47014008752275" lon="5.7736542355594125"><ele>358.0</ele><time>2026-03-28T14:40:11Z</time></trkpt><trkpt lat="43.470217751371" lon="5.773697153958374"><ele>358.0</ele><time>2026-03-28T14:40:12Z</time></trkpt><trkpt lat="43.47030605693444" lon="5.773805071112727"><ele>358.0</ele><time>2026-03-28T14:40:13Z</time></trkpt><trkpt lat="43.47042180933616" lon="5.773913526011049"><ele>357.0</ele><time>2026-03-28T14:40:14Z</time></trkpt><trkpt lat="43.47049114403836" lon="5.774030122775136"><ele>356.0</ele><time>2026-03-28T14:40:15Z</time></trkpt><trkpt lat="43.47056419812711" lon="5.774095403503335"><ele>355.0</ele><time>2026-03-28T14:40:16Z</time></trkpt><trkpt lat="43.47062442979894" lon="5.774189766181538"><ele>354.0</ele><time>2026-03-28T14:40:18Z</time></trkpt><trkpt lat="43.47059578888344" lon="5.7743753884272655"><ele>353.0</ele><time>2026-03-28T14:40:21Z</time></trkpt><trkpt lat="43.47057807333169" lon="5.774475086013181"><ele>353.0</ele><time>2026-03-28T14:40:22Z</time></trkpt><trkpt lat="43.47055350287191" lon="5.774572130675704"><ele>353.0</ele><time>2026-03-28T14:40:23Z</time></trkpt><trkpt lat="43.47052907657352" lon="5.774683148828166"><ele>353.0</ele><time>2026-03-28T14:40:24Z</time></trkpt><trkpt lat="43.470490299923945" lon="5.774839574783395"><ele>353.0</ele><time>2026-03-28T14:40:25Z</time></trkpt><trkpt lat="43.47044547629107" lon="5.775031722486577"><ele>353.0</ele><time>2026-03-28T14:40:26Z</time></trkpt><trkpt lat="43.47039485482019" lon="5.7752373833395"><ele>358.0</ele><time>2026-03-28T14:40:27Z</time></trkpt><trkpt lat="43.47034286321786" lon="5.7754572310022025"><ele>363.0</ele><time>2026-03-28T14:40:28Z</time></trkpt><trkpt lat="43.47028553496117" lon="5.775689980097917"><ele>368.0</ele><time>2026-03-28T14:40:29Z</time></trkpt><trkpt lat="43.470224854196175" lon="5.775928192109222"><ele>368.0</ele><time>2026-03-28T14:40:30Z</time></trkpt><trkpt lat="43.47015974065509" lon="5.776172566672081"><ele>368.0</ele><time>2026-03-28T14:40:31Z</time></trkpt><trkpt lat="43.47008960046196" lon="5.7764325802428695"><ele>368.0</ele><time>2026-03-28T14:40:32Z</time></trkpt><trkpt lat="43.47002066643944" lon="5.776682787509125"><ele>367.33333333333337</ele><time>2026-03-28T14:40:33Z</time></trkpt><trkpt lat="43.469959125689904" lon="5.7769294802423765"><ele>366.6666666666667</ele><time>2026-03-28T14:40:34Z</time></trkpt><trkpt lat="43.46989543815501" lon="5.777184358599016"><ele>366.0</ele><time>2026-03-28T14:40:35Z</time></trkpt><trkpt lat="43.46982984992656" lon="5.777421691080651"><ele>366.0</ele><time>2026-03-28T14:40:36Z</time></trkpt><trkpt lat="43.46977253664202" lon="5.777641149397166"><ele>366.0</ele><time>2026-03-28T14:40:37Z</time></trkpt><trkpt lat="43.46972286439246" lon="5.777848475173597"><ele>366.0</ele><time>2026-03-28T14:40:38Z</time></trkpt><trkpt lat="43.46967527084292" lon="5.778041369922095"><ele>365.20000000000005</ele><time>2026-03-28T14:40:39Z</time></trkpt><trkpt lat="43.46962547141506" lon="5.778210404294507"><ele>364.40000000000003</ele><time>2026-03-28T14:40:40Z</time></trkpt><trkpt lat="43.46957565133375" lon="5.778333137420977"><ele>363.6</ele><time>2026-03-28T14:40:41Z</time></trkpt><trkpt lat="43.46952053118596" lon="5.77841172215213"><ele>362.8</ele><time>2026-03-28T14:40:41.999Z</time></trkpt><trkpt lat="43.469499821790016" lon="5.778496620522119"><ele>362.0</ele><time>2026-03-28T14:40:42.999Z</time></trkpt><trkpt lat="43.46935479089371" lon="5.778509903207114"><ele>363.0</ele><time>2026-03-28T14:40:43.999Z</time></trkpt><trkpt lat="43.46929151887924" lon="5.7785577999070465"><ele>364.0</ele><time>2026-03-28T14:40:45.999Z</time></trkpt><trkpt lat="43.469199858974754" lon="5.778494318027978"><ele>365.0</ele><time>2026-03-28T14:40:48.999Z</time></trkpt><trkpt lat="43.46914028943107" lon="5.778546075778252"><ele>366.0</ele><time>2026-03-28T14:40:50.999Z</time></trkpt><trkpt lat="43.46907015486811" lon="5.77860511376602"><ele>367.0</ele><time>2026-03-28T14:40:51.999Z</time></trkpt><trkpt lat="43.46901190249653" lon="5.778674130473152"><ele>368.0</ele><time>2026-03-28T14:40:52.999Z</time></trkpt><trkpt lat="43.4689956010251" lon="5.77876499922493"><ele>368.0</ele><time>2026-03-28T14:40:53.999Z</time></trkpt><trkpt lat="43.469011449528665" lon="5.778882051524897"><ele>368.0</ele><time>2026-03-28T14:40:54.999Z</time></trkpt><trkpt lat="43.46902254734281" lon="5.77903405115021"><ele>368.0</ele><time>2026-03-28T14:40:55.999Z</time></trkpt><trkpt lat="43.469028278034656" lon="5.77918011685183"><ele>368.0</ele><time>2026-03-28T14:40:56.999Z</time></trkpt><trkpt lat="43.469011931712515" lon="5.779316014142506"><ele>368.0</ele><time>2026-03-28T14:40:57.999Z</time></trkpt><trkpt lat="43.4689707207199" lon="5.779423547225049"><ele>367.25</ele><time>2026-03-28T14:40:58.999Z</time></trkpt><trkpt lat="43.46891476656538" lon="5.779515164480722"><ele>366.5</ele><time>2026-03-28T14:40:59.999Z</time></trkpt><trkpt lat="43.468827226597135" lon="5.779629977283544"><ele>365.75</ele><time>2026-03-28T14:41:00.999Z</time></trkpt><trkpt lat="43.46873013498829" lon="5.7797602676431925"><ele>365.0</ele><time>2026-03-28T14:41:01.999Z</time></trkpt><trkpt lat="43.46862476049551" lon="5.779915562638253"><ele>366.75</ele><time>2026-03-28T14:41:02.999Z</time></trkpt><trkpt lat="43.468522280372106" lon="5.7800780350380965"><ele>368.5</ele><time>2026-03-28T14:41:03.999Z</time></trkpt><trkpt lat="43.468420941429684" lon="5.780236490438101"><ele>370.25</ele><time>2026-03-28T14:41:04.999Z</time></trkpt><trkpt lat="43.46833518961711" lon="5.780379987555477"><ele>372.0</ele><time>2026-03-28T14:41:05.999Z</time></trkpt><trkpt lat="43.46825680293407" lon="5.7805063194915975"><ele>372.0</ele><time>2026-03-28T14:41:06.999Z</time></trkpt><trkpt lat="43.468176241792825" lon="5.7806040953158755"><ele>372.0</ele><time>2026-03-28T14:41:07.999Z</time></trkpt><trkpt lat="43.46808788947417" lon="5.780664938835524"><ele>372.0</ele><time>2026-03-28T14:41:08.999Z</time></trkpt><trkpt lat="43.46800076626379" lon="5.780682563892687"><ele>372.0</ele><time>2026-03-28T14:41:09.999Z</time></trkpt><trkpt lat="43.46790260510241" lon="5.780659933883376"><ele>372.0</ele><time>2026-03-28T14:41:10.999Z</time></trkpt><trkpt lat="43.467782473304275" lon="5.780613129084731"><ele>373.0</ele><time>2026-03-28T14:41:11.999Z</time></trkpt><trkpt lat="43.46764116387238" lon="5.780563236246968"><ele>374.0</ele><time>2026-03-28T14:41:12.999Z</time></trkpt><trkpt lat="43.46749355577471" lon="5.780522636873634"><ele>375.0</ele><time>2026-03-28T14:41:13.999Z</time></trkpt><trkpt lat="43.4673454499123" lon="5.780482822217241"><ele>376.0</ele><time>2026-03-28T14:41:14.999Z</time></trkpt><trkpt lat="43.467232981007754" lon="5.7804121570907885"><ele>376.0</ele><time>2026-03-28T14:41:15.999Z</time></trkpt><trkpt lat="43.46713560739143" lon="5.780351996989157"><ele>376.0</ele><time>2026-03-28T14:41:16.999Z</time></trkpt><trkpt lat="43.46704794698381" lon="5.780295050237261"><ele>376.0</ele><time>2026-03-28T14:41:17.999Z</time></trkpt><trkpt lat="43.466949666568254" lon="5.780230212983652"><ele>376.0</ele><time>2026-03-28T14:41:18.999Z</time></trkpt><trkpt lat="43.46684848302909" lon="5.7801924875901305"><ele>376.0</ele><time>2026-03-28T14:41:19.999Z</time></trkpt><trkpt lat="43.466774384331735" lon="5.780128143205418"><ele>377.8333333333333</ele><time>2026-03-28T14:41:20.999Z</time></trkpt><trkpt lat="43.46671197507081" lon="5.780085109157265"><ele>379.66666666666663</ele><time>2026-03-28T14:41:21.999Z</time></trkpt><trkpt lat="43.4666342803512" lon="5.780086073009577"><ele>381.5</ele><time>2026-03-28T14:41:22.999Z</time></trkpt><trkpt lat="43.46658296457873" lon="5.78017918237509"><ele>383.3333333333333</ele><time>2026-03-28T14:41:23.999Z</time></trkpt><trkpt lat="43.46659084821916" lon="5.780268352436323"><ele>385.1666666666667</ele><time>2026-03-28T14:41:24.999Z</time></trkpt><trkpt lat="43.46655924204949" lon="5.780369952122861"><ele>387.0</ele><time>2026-03-28T14:41:25.999Z</time></trkpt><trkpt lat="43.466545519719396" lon="5.780511630786112"><ele>387.0</ele><time>2026-03-28T14:41:26.999Z</time></trkpt><trkpt lat="43.46654476119297" lon="5.780652578909285"><ele>387.0</ele><time>2026-03-28T14:41:27.999Z</time></trkpt><trkpt lat="43.46655610744613" lon="5.780830296662999"><ele>387.0</ele><time>2026-03-28T14:41:28.999Z</time></trkpt><trkpt lat="43.466550593310224" lon="5.781027220000626"><ele>387.0</ele><time>2026-03-28T14:41:29.999Z</time></trkpt><trkpt lat="43.46654631657852" lon="5.78121782489006"><ele>386.5</ele><time>2026-03-28T14:41:30.999Z</time></trkpt><trkpt lat="43.46651478873995" lon="5.781406144361054"><ele>386.0</ele><time>2026-03-28T14:41:31.999Z</time></trkpt><trkpt lat="43.46649106911558" lon="5.781617597857082"><ele>385.5</ele><time>2026-03-28T14:41:32.999Z</time></trkpt><trkpt lat="43.46646124043161" lon="5.781797582476212"><ele>385.0</ele><time>2026-03-28T14:41:33.999Z</time></trkpt><trkpt lat="43.466430243225794" lon="5.781964829522477"><ele>384.4</ele><time>2026-03-28T14:41:34.999Z</time></trkpt><trkpt lat="43.466411341401916" lon="5.782113818342178"><ele>383.8</ele><time>2026-03-28T14:41:35.999Z</time></trkpt><trkpt lat="43.46641260347973" lon="5.7822412325425665"><ele>383.20000000000005</ele><time>2026-03-28T14:41:36.999Z</time></trkpt><trkpt lat="43.466310493876485" lon="5.782343796704517"><ele>382.6</ele><time>2026-03-28T14:41:37.999Z</time></trkpt><trkpt lat="43.46624848879544" lon="5.782472507755474"><ele>382.0</ele><time>2026-03-28T14:41:39Z</time></trkpt><trkpt lat="43.46618166883228" lon="5.782618653397511"><ele>385.0</ele><time>2026-03-28T14:41:40Z</time></trkpt><trkpt lat="43.466114463028795" lon="5.782767046770345"><ele>388.0</ele><time>2026-03-28T14:41:41Z</time></trkpt><trkpt lat="43.46606401976576" lon="5.7828940106939"><ele>391.0</ele><time>2026-03-28T14:41:42Z</time></trkpt><trkpt lat="43.466023904440235" lon="5.783008349047634"><ele>394.0</ele><time>2026-03-28T14:41:43Z</time></trkpt><trkpt lat="43.465996199322724" lon="5.783142751422426"><ele>397.0</ele><time>2026-03-28T14:41:44Z</time></trkpt><trkpt lat="43.46596531728365" lon="5.783270544911851"><ele>397.00000000000006</ele><time>2026-03-28T14:41:45Z</time></trkpt><trkpt lat="43.46593772863923" lon="5.783383847798872"><ele>397.0</ele><time>2026-03-28T14:41:46Z</time></trkpt><trkpt lat="43.4659090270669" lon="5.783473699804173"><ele>397.0</ele><time>2026-03-28T14:41:47Z</time></trkpt><trkpt lat="43.46584591573157" lon="5.783586281882353"><ele>397.0</ele><time>2026-03-28T14:41:49Z</time></trkpt><trkpt lat="43.46577455318236" lon="5.783612030778551"><ele>397.00000000000006</ele><time>2026-03-28T14:41:52Z</time></trkpt><trkpt lat="43.46570013485884" lon="5.783586459498561"><ele>397.0</ele><time>2026-03-28T14:41:54Z</time></trkpt><trkpt lat="43.46556239888061" lon="5.7835950908577045"><ele>396.0</ele><time>2026-03-28T14:41:56Z</time></trkpt><trkpt lat="43.46549364653657" lon="5.783604966102552"><ele>395.0</ele><time>2026-03-28T14:41:57Z</time></trkpt><trkpt lat="43.46541606526392" lon="5.783619931316659"><ele>394.0</ele><time>2026-03-28T14:41:58Z</time></trkpt><trkpt lat="43.46532221963314" lon="5.783623508578205"><ele>393.0</ele><time>2026-03-28T14:41:59Z</time></trkpt><trkpt lat="43.46521038312063" lon="5.783636757698567"><ele>392.0</ele><time>2026-03-28T14:42:00Z</time></trkpt><trkpt lat="43.46507762216888" lon="5.783689742099144"><ele>392.0</ele><time>2026-03-28T14:42:01Z</time></trkpt><trkpt lat="43.464945863537366" lon="5.783756755545042"><ele>392.0</ele><time>2026-03-28T14:42:02Z</time></trkpt><trkpt lat="43.46479501232461" lon="5.783825601161601"><ele>392.0</ele><time>2026-03-28T14:42:03Z</time></trkpt><trkpt lat="43.46465350439216" lon="5.783888247405391"><ele>392.0</ele><time>2026-03-28T14:42:04Z</time></trkpt><trkpt lat="43.464536398490154" lon="5.783956533998416"><ele>394.20000000000005</ele><time>2026-03-28T14:42:05Z</time></trkpt><trkpt lat="43.46443547658556" lon="5.78400229402765"><ele>396.4</ele><time>2026-03-28T14:42:06Z</time></trkpt><trkpt lat="43.464339842815605" lon="5.784036440174513"><ele>398.6</ele><time>2026-03-28T14:42:07Z</time></trkpt><trkpt lat="43.464242099285876" lon="5.784022625307446"><ele>400.79999999999995</ele><time>2026-03-28T14:42:08Z</time></trkpt><trkpt lat="43.46412625869965" lon="5.783978791340487"><ele>403.0</ele><time>2026-03-28T14:42:09Z</time></trkpt><trkpt lat="43.464017605582484" lon="5.783907688312985"><ele>403.0</ele><time>2026-03-28T14:42:10Z</time></trkpt><trkpt lat="43.46393048239429" lon="5.783852525663195"><ele>403.0</ele><time>2026-03-28T14:42:11Z</time></trkpt><trkpt lat="43.46383049712683" lon="5.783825256734184"><ele>403.0</ele><time>2026-03-28T14:42:12Z</time></trkpt><trkpt lat="43.46371846058083" lon="5.783829172527355"><ele>403.0</ele><time>2026-03-28T14:42:13Z</time></trkpt><trkpt lat="43.46361249240849" lon="5.7838614280438465"><ele>403.0</ele><time>2026-03-28T14:42:14Z</time></trkpt><trkpt lat="43.463525474994015" lon="5.783932954038527"><ele>404.4</ele><time>2026-03-28T14:42:15Z</time></trkpt><trkpt lat="43.46344096641706" lon="5.784036534838825"><ele>405.79999999999995</ele><time>2026-03-28T14:42:16Z</time></trkpt><trkpt lat="43.463364307127485" lon="5.784177688338868"><ele>407.2</ele><time>2026-03-28T14:42:17Z</time></trkpt><trkpt lat="43.46331360792871" lon="5.784310708295009"><ele>408.6</ele><time>2026-03-28T14:42:18Z</time></trkpt><trkpt lat="43.46325320363324" lon="5.784386060462025"><ele>410.0</ele><time>2026-03-28T14:42:19Z</time></trkpt><trkpt lat="43.463176739937" lon="5.784411307906361"><ele>410.0</ele><time>2026-03-28T14:42:20Z</time></trkpt><trkpt lat="43.46307797273134" lon="5.784429602603908"><ele>410.0</ele><time>2026-03-28T14:42:21Z</time></trkpt><trkpt lat="43.46298818419899" lon="5.784490343095409"><ele>410.0</ele><time>2026-03-28T14:42:22Z</time></trkpt><trkpt lat="43.462921985224746" lon="5.784580874214814"><ele>410.0</ele><time>2026-03-28T14:42:23Z</time></trkpt><trkpt lat="43.4628725558626" lon="5.784683365536158"><ele>410.0</ele><time>2026-03-28T14:42:24Z</time></trkpt><trkpt lat="43.462815979096376" lon="5.784784478518683"><ele>413.25</ele><time>2026-03-28T14:42:25Z</time></trkpt><trkpt lat="43.46273631013008" lon="5.784866825815481"><ele>416.5</ele><time>2026-03-28T14:42:26Z</time></trkpt><trkpt lat="43.462635597527324" lon="5.784923428179134"><ele>419.75</ele><time>2026-03-28T14:42:27Z</time></trkpt><trkpt lat="43.46250781657891" lon="5.7849632445325145"><ele>423.0</ele><time>2026-03-28T14:42:28Z</time></trkpt><trkpt lat="43.46234853329538" lon="5.7849811137665155"><ele>423.0</ele><time>2026-03-28T14:42:29Z</time></trkpt><trkpt lat="43.46217266555219" lon="5.784961739962866"><ele>423.0</ele><time>2026-03-28T14:42:30Z</time></trkpt><trkpt lat="43.46202813576807" lon="5.784917569613536"><ele>423.0</ele><time>2026-03-28T14:42:31Z</time></trkpt><trkpt lat="43.46191996856806" lon="5.784890524325046"><ele>423.0</ele><time>2026-03-28T14:42:32Z</time></trkpt><trkpt lat="43.461827156362084" lon="5.784910376593247"><ele>424.59999999999997</ele><time>2026-03-28T14:42:33Z</time></trkpt><trkpt lat="43.46174621423752" lon="5.784935605457333"><ele>426.2</ele><time>2026-03-28T14:42:34Z</time></trkpt><trkpt lat="43.46167247271449" lon="5.784989068195943"><ele>427.8</ele><time>2026-03-28T14:42:35Z</time></trkpt><trkpt lat="43.461585630200695" lon="5.785076174190685"><ele>429.4</ele><time>2026-03-28T14:42:36Z</time></trkpt><trkpt lat="43.461500544879186" lon="5.785150152771417"><ele>431.0</ele><time>2026-03-28T14:42:36.999Z</time></trkpt><trkpt lat="43.46140959527559" lon="5.78515907434716"><ele>430.99999999999994</ele><time>2026-03-28T14:42:37.999Z</time></trkpt><trkpt lat="43.46129810730352" lon="5.785154007878486"><ele>431.0</ele><time>2026-03-28T14:42:38.999Z</time></trkpt><trkpt lat="43.461210392744526" lon="5.785134051000114"><ele>431.0</ele><time>2026-03-28T14:42:39.999Z</time></trkpt><trkpt lat="43.46114409737009" lon="5.785149021317044"><ele>431.0</ele><time>2026-03-28T14:42:40.999Z</time></trkpt><trkpt lat="43.461089116221025" lon="5.785216701036083"><ele>430.99999999999994</ele><time>2026-03-28T14:42:41.999Z</time></trkpt><trkpt lat="43.461028626432615" lon="5.785308047471609"><ele>431.0</ele><time>2026-03-28T14:42:42.999Z</time></trkpt><trkpt lat="43.46096194721642" lon="5.78543359666633"><ele>433.25</ele><time>2026-03-28T14:42:43.999Z</time></trkpt><trkpt lat="43.4608862464926" lon="5.785554098116955"><ele>435.5</ele><time>2026-03-28T14:42:44.999Z</time></trkpt><trkpt lat="43.460800105046644" lon="5.785682940981804"><ele>437.75</ele><time>2026-03-28T14:42:45.999Z</time></trkpt><trkpt lat="43.460723042783336" lon="5.785803405391156"><ele>440.0</ele><time>2026-03-28T14:42:46.999Z</time></trkpt><trkpt lat="43.460675845433144" lon="5.785937088018474"><ele>440.75</ele><time>2026-03-28T14:42:47.999Z</time></trkpt><trkpt lat="43.46062536500484" lon="5.7860585910943945"><ele>441.5</ele><time>2026-03-28T14:42:48.999Z</time></trkpt><trkpt lat="43.46056309819283" lon="5.786183982540765"><ele>442.25</ele><time>2026-03-28T14:42:49.999Z</time></trkpt><trkpt lat="43.46045524875741" lon="5.786303193938111"><ele>443.0</ele><time>2026-03-28T14:42:50.999Z</time></trkpt><trkpt lat="43.46035350942966" lon="5.786407324159727"><ele>443.0</ele><time>2026-03-28T14:42:51.999Z</time></trkpt><trkpt lat="43.460267761729256" lon="5.786465876189725"><ele>442.99999999999994</ele><time>2026-03-28T14:42:52.999Z</time></trkpt><trkpt lat="43.46016970321776" lon="5.786500165077"><ele>442.99999999999994</ele><time>2026-03-28T14:42:53.999Z</time></trkpt><trkpt lat="43.46004952523843" lon="5.786527884142133"><ele>443.0</ele><time>2026-03-28T14:42:54.999Z</time></trkpt><trkpt lat="43.459924841161005" lon="5.786570296069527"><ele>443.0</ele><time>2026-03-28T14:42:55.999Z</time></trkpt><trkpt lat="43.45980742702966" lon="5.786658625306658"><ele>443.0</ele><time>2026-03-28T14:42:56.999Z</time></trkpt><trkpt lat="43.4596895285516" lon="5.786769623147627"><ele>443.0</ele><time>2026-03-28T14:42:57.999Z</time></trkpt><trkpt lat="43.45957978482327" lon="5.786850453761316"><ele>443.0</ele><time>2026-03-28T14:42:58.999Z</time></trkpt><trkpt lat="43.45948112269706" lon="5.786891040923816"><ele>443.0</ele><time>2026-03-28T14:42:59.999Z</time></trkpt><trkpt lat="43.45939993562883" lon="5.786954838619096"><ele>445.2</ele><time>2026-03-28T14:43:00.999Z</time></trkpt><trkpt lat="43.459351902590114" lon="5.787060971144583"><ele>447.4</ele><time>2026-03-28T14:43:01.999Z</time></trkpt><trkpt lat="43.45932209380437" lon="5.787194976040074"><ele>449.59999999999997</ele><time>2026-03-28T14:43:02.999Z</time></trkpt><trkpt lat="43.45931213549601" lon="5.78735306649662"><ele>451.79999999999995</ele><time>2026-03-28T14:43:03.999Z</time></trkpt><trkpt lat="43.459300396825476" lon="5.78751718602151"><ele>454.0</ele><time>2026-03-28T14:43:04.999Z</time></trkpt><trkpt lat="43.45926958170891" lon="5.787674347949307"><ele>452.6</ele><time>2026-03-28T14:43:05.999Z</time></trkpt><trkpt lat="43.45922365783721" lon="5.787829320434288"><ele>451.2</ele><time>2026-03-28T14:43:06.999Z</time></trkpt><trkpt lat="43.459166562863466" lon="5.787939130214587"><ele>449.80000000000007</ele><time>2026-03-28T14:43:07.999Z</time></trkpt><trkpt lat="43.45909803212068" lon="5.78800907231536"><ele>448.40000000000003</ele><time>2026-03-28T14:43:08.999Z</time></trkpt><trkpt lat="43.45902603980791" lon="5.788040694858625"><ele>447.0</ele><time>2026-03-28T14:43:09.999Z</time></trkpt><trkpt lat="43.4589507456561" lon="5.788056192339598"><ele>447.0</ele><time>2026-03-28T14:43:10.999Z</time></trkpt><trkpt lat="43.45884545107001" lon="5.788058723489251"><ele>447.0</ele><time>2026-03-28T14:43:11.999Z</time></trkpt><trkpt lat="43.458711311023535" lon="5.788048754493012"><ele>447.0</ele><time>2026-03-28T14:43:12.999Z</time></trkpt><trkpt lat="43.458561831674224" lon="5.788040663302941"><ele>447.0</ele><time>2026-03-28T14:43:13.999Z</time></trkpt><trkpt lat="43.45844388155793" lon="5.78801689730121"><ele>447.6</ele><time>2026-03-28T14:43:14.999Z</time></trkpt><trkpt lat="43.458357694408235" lon="5.787961157980639"><ele>448.20000000000005</ele><time>2026-03-28T14:43:15.999Z</time></trkpt><trkpt lat="43.45829703157761" lon="5.787879926507393"><ele>448.8</ele><time>2026-03-28T14:43:16.999Z</time></trkpt><trkpt lat="43.458264516717115" lon="5.7877952267965"><ele>449.4</ele><time>2026-03-28T14:43:17.999Z</time></trkpt><trkpt lat="43.458254943029864" lon="5.787603588316995"><ele>450.0</ele><time>2026-03-28T14:43:19.999Z</time></trkpt><trkpt lat="43.45821939535663" lon="5.787504111984561"><ele>452.8</ele><time>2026-03-28T14:43:20.999Z</time></trkpt><trkpt lat="43.45815126119814" lon="5.787450616768956"><ele>455.6</ele><time>2026-03-28T14:43:21.999Z</time></trkpt><trkpt lat="43.458063169715295" lon="5.787433534744644"><ele>458.4</ele><time>2026-03-28T14:43:22.999Z</time></trkpt><trkpt lat="43.45795268935789" lon="5.787439888585344"><ele>461.2</ele><time>2026-03-28T14:43:23.999Z</time></trkpt><trkpt lat="43.457828977271234" lon="5.7874631317306635"><ele>464.0</ele><time>2026-03-28T14:43:24.999Z</time></trkpt><trkpt lat="43.45773041915764" lon="5.7874755923463015"><ele>464.79999999999995</ele><time>2026-03-28T14:43:25.999Z</time></trkpt><trkpt lat="43.457641410075745" lon="5.787460245686843"><ele>465.59999999999997</ele><time>2026-03-28T14:43:26.999Z</time></trkpt><trkpt lat="43.45752573700805" lon="5.787441448825851"><ele>466.4</ele><time>2026-03-28T14:43:27.999Z</time></trkpt><trkpt lat="43.457400077021916" lon="5.787462392079703"><ele>467.2</ele><time>2026-03-28T14:43:28.999Z</time></trkpt><trkpt lat="43.45729708613771" lon="5.787512040439394"><ele>468.0</ele><time>2026-03-28T14:43:29.999Z</time></trkpt><trkpt lat="43.457202249118275" lon="5.787550522917104"><ele>468.0</ele><time>2026-03-28T14:43:30.999Z</time></trkpt><trkpt lat="43.457120033758194" lon="5.7875397185746005"><ele>468.0</ele><time>2026-03-28T14:43:31.999Z</time></trkpt><trkpt lat="43.457052727185065" lon="5.787479580144793"><ele>468.0</ele><time>2026-03-28T14:43:32.999Z</time></trkpt><trkpt lat="43.45697939667892" lon="5.7873795831465715"><ele>468.0</ele><time>2026-03-28T14:43:33.999Z</time></trkpt><trkpt lat="43.456911646213875" lon="5.787313545249776"><ele>468.0</ele><time>2026-03-28T14:43:34.999Z</time></trkpt><trkpt lat="43.456836096947676" lon="5.787285357066783"><ele>468.0</ele><time>2026-03-28T14:43:35.999Z</time></trkpt><trkpt lat="43.45674687678907" lon="5.7872891345642365"><ele>469.0</ele><time>2026-03-28T14:43:36.999Z</time></trkpt><trkpt lat="43.45663853765982" lon="5.787306123919942"><ele>469.99999999999994</ele><time>2026-03-28T14:43:37.999Z</time></trkpt><trkpt lat="43.45653568520862" lon="5.787305921960404"><ele>470.99999999999994</ele><time>2026-03-28T14:43:38.999Z</time></trkpt><trkpt lat="43.456448689652646" lon="5.7872715311688605"><ele>472.0</ele><time>2026-03-28T14:43:39.999Z</time></trkpt><trkpt lat="43.45637928382515" lon="5.787212167268926"><ele>473.0</ele><time>2026-03-28T14:43:40.999Z</time></trkpt><trkpt lat="43.456294624520936" lon="5.787160255606438"><ele>473.5</ele><time>2026-03-28T14:43:41.999Z</time></trkpt><trkpt lat="43.45618220835091" lon="5.78713072124914"><ele>474.0</ele><time>2026-03-28T14:43:42.999Z</time></trkpt><trkpt lat="43.45606408311063" lon="5.787093502582808"><ele>474.5</ele><time>2026-03-28T14:43:43.999Z</time></trkpt><trkpt lat="43.455934012936765" lon="5.787081596498918"><ele>475.0</ele><time>2026-03-28T14:43:45Z</time></trkpt><trkpt lat="43.45576714290973" lon="5.787082642011235"><ele>475.0</ele><time>2026-03-28T14:43:46Z</time></trkpt><trkpt lat="43.45562790934514" lon="5.78707936405091"><ele>475.0</ele><time>2026-03-28T14:43:47Z</time></trkpt><trkpt lat="43.45551736956673" lon="5.787060494554402"><ele>475.0</ele><time>2026-03-28T14:43:48Z</time></trkpt><trkpt lat="43.4554345014077" lon="5.7870048420906155"><ele>475.0</ele><time>2026-03-28T14:43:49Z</time></trkpt><trkpt lat="43.45536901422961" lon="5.786922577154841"><ele>475.0</ele><time>2026-03-28T14:43:50Z</time></trkpt><trkpt lat="43.45530518926182" lon="5.786821970428678"><ele>478.4</ele><time>2026-03-28T14:43:51Z</time></trkpt><trkpt lat="43.45525845030793" lon="5.786700491609235"><ele>481.8</ele><time>2026-03-28T14:43:52Z</time></trkpt><trkpt lat="43.455219440733515" lon="5.786571980195114"><ele>485.20000000000005</ele><time>2026-03-28T14:43:53Z</time></trkpt><trkpt lat="43.45516896738391" lon="5.786466649454385"><ele>488.6</ele><time>2026-03-28T14:43:54Z</time></trkpt><trkpt lat="43.45507462286709" lon="5.786403758004836"><ele>492.0</ele><time>2026-03-28T14:43:56Z</time></trkpt><trkpt lat="43.45500384453115" lon="5.786449893283498"><ele>492.0</ele><time>2026-03-28T14:43:57Z</time></trkpt><trkpt lat="43.454930704260754" lon="5.786534663283236"><ele>492.00000000000006</ele><time>2026-03-28T14:43:58Z</time></trkpt><trkpt lat="43.45485671195081" lon="5.78663022607326"><ele>492.00000000000006</ele><time>2026-03-28T14:43:59Z</time></trkpt><trkpt lat="43.454798416791895" lon="5.786712716251601"><ele>492.0</ele><time>2026-03-28T14:44:00Z</time></trkpt><trkpt lat="43.45475510613266" lon="5.786817532896193"><ele>492.0</ele><time>2026-03-28T14:44:01Z</time></trkpt><trkpt lat="43.45471740478172" lon="5.786934126235401"><ele>490.1666666666667</ele><time>2026-03-28T14:44:02Z</time></trkpt><trkpt lat="43.45470989692251" lon="5.787055278287626"><ele>488.33333333333337</ele><time>2026-03-28T14:44:03Z</time></trkpt><trkpt lat="43.45472782839396" lon="5.787171938382968"><ele>486.5</ele><time>2026-03-28T14:44:04Z</time></trkpt><trkpt lat="43.454775987858135" lon="5.78725468797159"><ele>484.6666666666667</ele><time>2026-03-28T14:44:05Z</time></trkpt><trkpt lat="43.4548181481509" lon="5.7873388193567425"><ele>482.83333333333337</ele><time>2026-03-28T14:44:06Z</time></trkpt><trkpt lat="43.45487713407522" lon="5.787460544629267"><ele>481.0</ele><time>2026-03-28T14:44:07Z</time></trkpt><trkpt lat="43.45489555743117" lon="5.787576738585911"><ele>480.1666666666667</ele><time>2026-03-28T14:44:08Z</time></trkpt><trkpt lat="43.45488770561954" lon="5.787691559771733"><ele>479.33333333333337</ele><time>2026-03-28T14:44:09Z</time></trkpt><trkpt lat="43.45486972838485" lon="5.787822516719336"><ele>478.5</ele><time>2026-03-28T14:44:10Z</time></trkpt><trkpt lat="43.454860194140544" lon="5.787942543625562"><ele>477.66666666666663</ele><time>2026-03-28T14:44:11Z</time></trkpt><trkpt lat="43.454873455962705" lon="5.788063169111364"><ele>476.8333333333333</ele><time>2026-03-28T14:44:12Z</time></trkpt><trkpt lat="43.45489787196395" lon="5.788178202342168"><ele>476.0</ele><time>2026-03-28T14:44:13Z</time></trkpt><trkpt lat="43.45492229129479" lon="5.788300839096471"><ele>476.0</ele><time>2026-03-28T14:44:14Z</time></trkpt><trkpt lat="43.45495954053717" lon="5.788424671796762"><ele>476.0</ele><time>2026-03-28T14:44:15Z</time></trkpt><trkpt lat="43.455026990688694" lon="5.788523128383287"><ele>476.0</ele><time>2026-03-28T14:44:16Z</time></trkpt><trkpt lat="43.45510927540945" lon="5.788608571479448"><ele>476.0</ele><time>2026-03-28T14:44:17Z</time></trkpt><trkpt lat="43.45519773559449" lon="5.788671560422943"><ele>476.0</ele><time>2026-03-28T14:44:18Z</time></trkpt><trkpt lat="43.45528303432287" lon="5.7887069555141455"><ele>475.99999999999994</ele><time>2026-03-28T14:44:19Z</time></trkpt><trkpt lat="43.45536888704211" lon="5.788730471896893"><ele>476.0</ele><time>2026-03-28T14:44:20Z</time></trkpt><trkpt lat="43.45545702143406" lon="5.788749876632962"><ele>476.0</ele><time>2026-03-28T14:44:21Z</time></trkpt><trkpt lat="43.455540485115" lon="5.788769946363459"><ele>476.0</ele><time>2026-03-28T14:44:22Z</time></trkpt><trkpt lat="43.455611203300116" lon="5.788801264235061"><ele>475.99999999999994</ele><time>2026-03-28T14:44:23Z</time></trkpt><trkpt lat="43.455672656608996" lon="5.788856096359358"><ele>476.0</ele><time>2026-03-28T14:44:24Z</time></trkpt><trkpt lat="43.45570986681542" lon="5.7889440254867255"><ele>473.0</ele><time>2026-03-28T14:44:25Z</time></trkpt><trkpt lat="43.455726264303465" lon="5.789046371726866"><ele>470.0</ele><time>2026-03-28T14:44:26Z</time></trkpt><trkpt lat="43.45572366937392" lon="5.789156852439134"><ele>467.0</ele><time>2026-03-28T14:44:27Z</time></trkpt><trkpt lat="43.45571167169839" lon="5.789288182309236"><ele>464.0</ele><time>2026-03-28T14:44:28Z</time></trkpt><trkpt lat="43.45568973165466" lon="5.7894362890050495"><ele>461.0</ele><time>2026-03-28T14:44:29Z</time></trkpt><trkpt lat="43.455662115973865" lon="5.78959575394527"><ele>460.66666666666663</ele><time>2026-03-28T14:44:30Z</time></trkpt><trkpt lat="43.455629180643946" lon="5.789806372338381"><ele>460.33333333333337</ele><time>2026-03-28T14:44:31Z</time></trkpt><trkpt lat="43.45560917908406" lon="5.790047918166536"><ele>460.0</ele><time>2026-03-28T14:44:32Z</time></trkpt><trkpt lat="43.45559886117956" lon="5.790266669125484"><ele>459.4</ele><time>2026-03-28T14:44:33Z</time></trkpt><trkpt lat="43.45558075221143" lon="5.790436157603029"><ele>458.8</ele><time>2026-03-28T14:44:34Z</time></trkpt><trkpt lat="43.455570722693274" lon="5.790572473135653"><ele>458.20000000000005</ele><time>2026-03-28T14:44:34.999Z</time></trkpt><trkpt lat="43.455558426582925" lon="5.790673986848534"><ele>457.6</ele><time>2026-03-28T14:44:35.999Z</time></trkpt><trkpt lat="43.455533287365135" lon="5.790815727562863"><ele>457.0</ele><time>2026-03-28T14:44:37.999Z</time></trkpt><trkpt lat="43.4555169017921" lon="5.79090543473279"><ele>457.00000000000006</ele><time>2026-03-28T14:44:39.999Z</time></trkpt><trkpt lat="43.45546297216447" lon="5.790965636900832"><ele>457.0</ele><time>2026-03-28T14:44:42.999Z</time></trkpt><trkpt lat="43.455476052083874" lon="5.791057116521189"><ele>457.0</ele><time>2026-03-28T14:45:29.999Z</time></trkpt><trkpt lat="43.45548839583706" lon="5.791143001450679"><ele>457.0</ele><time>2026-03-28T14:45:30.999Z</time></trkpt><trkpt lat="43.455509990722824" lon="5.791245850490569"><ele>457.00000000000006</ele><time>2026-03-28T14:45:31.999Z</time></trkpt><trkpt lat="43.45553593133751" lon="5.7913322914588665"><ele>457.0</ele><time>2026-03-28T14:45:32.999Z</time></trkpt><trkpt lat="43.455619680408795" lon="5.791425988727013"><ele>455.8</ele><time>2026-03-28T14:45:34.999Z</time></trkpt><trkpt lat="43.45573610795998" lon="5.791435621077189"><ele>454.6</ele><time>2026-03-28T14:45:36.999Z</time></trkpt><trkpt lat="43.45586521908096" lon="5.791441762957757"><ele>453.40000000000003</ele><time>2026-03-28T14:45:38.999Z</time></trkpt><trkpt lat="43.45593193142305" lon="5.7914461650828635"><ele>452.20000000000005</ele><time>2026-03-28T14:45:39.999Z</time></trkpt><trkpt lat="43.45602547488804" lon="5.7914695546031885"><ele>451.0</ele><time>2026-03-28T14:45:41.999Z</time></trkpt><trkpt lat="43.45612444346657" lon="5.791437440524704"><ele>451.0</ele><time>2026-03-28T14:45:43.999Z</time></trkpt><trkpt lat="43.45619707436633" lon="5.791409209875664"><ele>451.0</ele><time>2026-03-28T14:45:44.999Z</time></trkpt><trkpt lat="43.45631255079886" lon="5.791377291828567"><ele>451.0</ele><time>2026-03-28T14:45:45.999Z</time></trkpt><trkpt lat="43.45642986746181" lon="5.791348138918231"><ele>451.0</ele><time>2026-03-28T14:45:46.999Z</time></trkpt><trkpt lat="43.45653291550187" lon="5.791324743430939"><ele>451.0</ele><time>2026-03-28T14:45:47.999Z</time></trkpt><trkpt lat="43.45661364678374" lon="5.791303406931667"><ele>447.83333333333337</ele><time>2026-03-28T14:45:48.999Z</time></trkpt><trkpt lat="43.45668930164978" lon="5.791279654094549"><ele>444.6666666666667</ele><time>2026-03-28T14:45:49.999Z</time></trkpt><trkpt lat="43.45676957775542" lon="5.791258735210569"><ele>441.5</ele><time>2026-03-28T14:45:51Z</time></trkpt><trkpt lat="43.456855478012606" lon="5.791237625439731"><ele>438.33333333333337</ele><time>2026-03-28T14:45:52Z</time></trkpt><trkpt lat="43.45694228254481" lon="5.791209310245552"><ele>435.1666666666667</ele><time>2026-03-28T14:45:53Z</time></trkpt><trkpt lat="43.45703290389198" lon="5.791182594593043"><ele>432.0</ele><time>2026-03-28T14:45:54Z</time></trkpt><trkpt lat="43.45712615640024" lon="5.791200283959292"><ele>430.8</ele><time>2026-03-28T14:45:55Z</time></trkpt><trkpt lat="43.45722285289927" lon="5.791214599282275"><ele>429.6</ele><time>2026-03-28T14:45:56Z</time></trkpt><trkpt lat="43.457333119611896" lon="5.791222945975717"><ele>428.40000000000003</ele><time>2026-03-28T14:45:57Z</time></trkpt><trkpt lat="43.45743989800974" lon="5.791228516861466"><ele>427.20000000000005</ele><time>2026-03-28T14:45:58Z</time></trkpt><trkpt lat="43.457513479155956" lon="5.791239321068298"><ele>426.0</ele><time>2026-03-28T14:45:59Z</time></trkpt><trkpt lat="43.45758457347688" lon="5.791265987429451"><ele>426.0</ele><time>2026-03-28T14:46:00Z</time></trkpt><trkpt lat="43.45766452300416" lon="5.791311759950824"><ele>426.0</ele><time>2026-03-28T14:46:01Z</time></trkpt><trkpt lat="43.45775453167881" lon="5.791365606468322"><ele>426.0</ele><time>2026-03-28T14:46:02Z</time></trkpt><trkpt lat="43.45785519650958" lon="5.791449014295833"><ele>426.0</ele><time>2026-03-28T14:46:03Z</time></trkpt><trkpt lat="43.457974469581465" lon="5.791503061867008"><ele>426.0</ele><time>2026-03-28T14:46:04Z</time></trkpt><trkpt lat="43.458089807159496" lon="5.791557817848431"><ele>424.0</ele><time>2026-03-28T14:46:05Z</time></trkpt><trkpt lat="43.45818964972804" lon="5.791620197719961"><ele>422.0</ele><time>2026-03-28T14:46:06Z</time></trkpt><trkpt lat="43.45829524732122" lon="5.7916910886475215"><ele>420.0</ele><time>2026-03-28T14:46:07Z</time></trkpt><trkpt lat="43.45841078544623" lon="5.791764302484036"><ele>418.0</ele><time>2026-03-28T14:46:08Z</time></trkpt><trkpt lat="43.458529950865554" lon="5.7918443590021615"><ele>416.5</ele><time>2026-03-28T14:46:09Z</time></trkpt><trkpt lat="43.45864780974204" lon="5.791916701622527"><ele>415.0</ele><time>2026-03-28T14:46:10Z</time></trkpt><trkpt lat="43.45875024093087" lon="5.79199235265907"><ele>413.5</ele><time>2026-03-28T14:46:11Z</time></trkpt><trkpt lat="43.45886116450287" lon="5.792073446595308"><ele>412.0</ele><time>2026-03-28T14:46:12Z</time></trkpt><trkpt lat="43.45899192174887" lon="5.792160107622671"><ele>410.75</ele><time>2026-03-28T14:46:13Z</time></trkpt><trkpt lat="43.459121273991116" lon="5.792243841067539"><ele>409.5</ele><time>2026-03-28T14:46:14Z</time></trkpt><trkpt lat="43.459238596092" lon="5.792327417251612"><ele>408.25</ele><time>2026-03-28T14:46:15Z</time></trkpt><trkpt lat="43.45935323997618" lon="5.792403160230176"><ele>407.0</ele><time>2026-03-28T14:46:16Z</time></trkpt><trkpt lat="43.45946769103754" lon="5.792481495534729"><ele>407.0</ele><time>2026-03-28T14:46:17Z</time></trkpt><trkpt lat="43.45958883803632" lon="5.792565058171562"><ele>407.0</ele><time>2026-03-28T14:46:18Z</time></trkpt><trkpt lat="43.45973580254509" lon="5.792657069947638"><ele>407.0</ele><time>2026-03-28T14:46:19Z</time></trkpt><trkpt lat="43.45988400478808" lon="5.792750199681009"><ele>405.0</ele><time>2026-03-28T14:46:20Z</time></trkpt><trkpt lat="43.460019389478056" lon="5.79283620382885"><ele>403.0</ele><time>2026-03-28T14:46:21Z</time></trkpt><trkpt lat="43.46015054401972" lon="5.792917297121507"><ele>401.0</ele><time>2026-03-28T14:46:22Z</time></trkpt><trkpt lat="43.46027580605252" lon="5.792993157590766"><ele>399.0</ele><time>2026-03-28T14:46:23Z</time></trkpt><trkpt lat="43.46039324094959" lon="5.793064749105995"><ele>398.25</ele><time>2026-03-28T14:46:24Z</time></trkpt><trkpt lat="43.460504619633106" lon="5.793138432656296"><ele>397.5</ele><time>2026-03-28T14:46:25Z</time></trkpt><trkpt lat="43.46060918879863" lon="5.793216243930229"><ele>396.75</ele><time>2026-03-28T14:46:26Z</time></trkpt><trkpt lat="43.460709327300016" lon="5.793289693101169"><ele>396.0</ele><time>2026-03-28T14:46:27Z</time></trkpt><trkpt lat="43.46082553019894" lon="5.793373306651052"><ele>396.0</ele><time>2026-03-28T14:46:28Z</time></trkpt><trkpt lat="43.46095193038069" lon="5.793474380255012"><ele>396.0</ele><time>2026-03-28T14:46:29Z</time></trkpt><trkpt lat="43.46107643452832" lon="5.793581283385308"><ele>396.0</ele><time>2026-03-28T14:46:30Z</time></trkpt><trkpt lat="43.46118617935455" lon="5.793686097929677"><ele>396.0</ele><time>2026-03-28T14:46:30.999Z</time></trkpt><trkpt lat="43.46128996319784" lon="5.793783748855004"><ele>393.5</ele><time>2026-03-28T14:46:31.999Z</time></trkpt><trkpt lat="43.46139248782402" lon="5.793874487189564"><ele>391.0</ele><time>2026-03-28T14:46:32.999Z</time></trkpt><trkpt lat="43.46149539873927" lon="5.793962349858184"><ele>388.5</ele><time>2026-03-28T14:46:33.999Z</time></trkpt><trkpt lat="43.46159553430077" lon="5.7940319570424945"><ele>386.0</ele><time>2026-03-28T14:46:34.999Z</time></trkpt><trkpt lat="43.46169223084501" lon="5.794099676471315"><ele>386.0</ele><time>2026-03-28T14:46:35.999Z</time></trkpt><trkpt lat="43.46178274645575" lon="5.794169756439324"><ele>386.0</ele><time>2026-03-28T14:46:36.999Z</time></trkpt><trkpt lat="43.461866697808595" lon="5.794237158698904"><ele>386.0</ele><time>2026-03-28T14:46:37.999Z</time></trkpt><trkpt lat="43.46194704841468" lon="5.794319130283277"><ele>386.0</ele><time>2026-03-28T14:46:38.999Z</time></trkpt><trkpt lat="43.46202778251676" lon="5.794392808442932"><ele>386.0</ele><time>2026-03-28T14:46:39.999Z</time></trkpt><trkpt lat="43.46210597567024" lon="5.7944663337969065"><ele>385.0</ele><time>2026-03-28T14:46:40.999Z</time></trkpt><trkpt lat="43.462168803934055" lon="5.794527315869133"><ele>384.0</ele><time>2026-03-28T14:46:41.999Z</time></trkpt><trkpt lat="43.462258958120124" lon="5.79459242101685"><ele>383.0</ele><time>2026-03-28T14:46:43.999Z</time></trkpt><trkpt lat="43.46234035322873" lon="5.794526929002886"><ele>382.0</ele><time>2026-03-28T14:46:45.999Z</time></trkpt><trkpt lat="43.46241525934113" lon="5.794380148715252"><ele>381.0</ele><time>2026-03-28T14:46:47.999Z</time></trkpt><trkpt lat="43.462473131292654" lon="5.7942604405818585"><ele>381.0</ele><time>2026-03-28T14:46:48.999Z</time></trkpt><trkpt lat="43.462548810062245" lon="5.794125070655938"><ele>381.0</ele><time>2026-03-28T14:46:49.999Z</time></trkpt><trkpt lat="43.46260661508562" lon="5.794023054413644"><ele>381.0</ele><time>2026-03-28T14:46:50.999Z</time></trkpt><trkpt lat="43.462681873066664" lon="5.793905988493252"><ele>381.0</ele><time>2026-03-28T14:46:51.999Z</time></trkpt><trkpt lat="43.4627337898632" lon="5.7938103125713445"><ele>381.0</ele><time>2026-03-28T14:46:52.999Z</time></trkpt><trkpt lat="43.462785517953904" lon="5.793753066417669"><ele>381.0</ele><time>2026-03-28T14:46:53.999Z</time></trkpt><trkpt lat="43.462842692487015" lon="5.793705625192201"><ele>381.0</ele><time>2026-03-28T14:46:54.999Z</time></trkpt><trkpt lat="43.46294087579509" lon="5.79368336396608"><ele>381.0</ele><time>2026-03-28T14:46:56.999Z</time></trkpt><trkpt lat="43.462986507410704" lon="5.793762246717495"><ele>381.0</ele><time>2026-03-28T14:46:57.999Z</time></trkpt><trkpt lat="43.463075353338404" lon="5.793823448700213"><ele>381.0</ele><time>2026-03-28T14:46:58.999Z</time></trkpt><trkpt lat="43.46315507572877" lon="5.7938927314356405"><ele>381.0</ele><time>2026-03-28T14:46:59.999Z</time></trkpt><trkpt lat="43.46324555357109" lon="5.79395539537167"><ele>380.0</ele><time>2026-03-28T14:47:00.999Z</time></trkpt><trkpt lat="43.46333646681269" lon="5.79397565582522"><ele>379.0</ele><time>2026-03-28T14:47:01.999Z</time></trkpt><trkpt lat="43.463408226659446" lon="5.79401946200414"><ele>378.0</ele><time>2026-03-28T14:47:02.999Z</time></trkpt><trkpt lat="43.46347766982437" lon="5.794079464022495"><ele>377.0</ele><time>2026-03-28T14:47:03.999Z</time></trkpt><trkpt lat="43.46356309763885" lon="5.794156157180493"><ele>376.0</ele><time>2026-03-28T14:47:04.999Z</time></trkpt><trkpt lat="43.46367553066482" lon="5.794234552153655"><ele>376.0</ele><time>2026-03-28T14:47:05.999Z</time></trkpt><trkpt lat="43.46377358934213" lon="5.7943390553932055"><ele>376.0</ele><time>2026-03-28T14:47:06.999Z</time></trkpt><trkpt lat="43.46385136439414" lon="5.794416168923715"><ele>376.0</ele><time>2026-03-28T14:47:07.999Z</time></trkpt><trkpt lat="43.46391597885587" lon="5.794458294690589"><ele>376.0</ele><time>2026-03-28T14:47:08.999Z</time></trkpt><trkpt lat="43.463977425856356" lon="5.794509153922534"><ele>376.0</ele><time>2026-03-28T14:47:09.999Z</time></trkpt><trkpt lat="43.46404894222103" lon="5.794485624443056"><ele>376.0</ele><time>2026-03-28T14:47:10.999Z</time></trkpt><trkpt lat="43.464115640906826" lon="5.794462269848231"><ele>375.0</ele><time>2026-03-28T14:47:11.999Z</time></trkpt><trkpt lat="43.464178545305934" lon="5.79441894055699"><ele>374.0</ele><time>2026-03-28T14:47:12.999Z</time></trkpt><trkpt lat="43.464239657255604" lon="5.794355116641845"><ele>373.0</ele><time>2026-03-28T14:47:13.999Z</time></trkpt><trkpt lat="43.464322694019984" lon="5.794220983961772"><ele>372.0</ele><time>2026-03-28T14:47:15.999Z</time></trkpt><trkpt lat="43.46443447310767" lon="5.794152178701598"><ele>371.0</ele><time>2026-03-28T14:47:17.999Z</time></trkpt><trkpt lat="43.46455213174786" lon="5.794182630007034"><ele>371.0</ele><time>2026-03-28T14:47:19.999Z</time></trkpt><trkpt lat="43.46459084277031" lon="5.794275695585247"><ele>371.0</ele><time>2026-03-28T14:47:20.999Z</time></trkpt><trkpt lat="43.464619431150815" lon="5.794372562131002"><ele>371.0</ele><time>2026-03-28T14:47:21.999Z</time></trkpt><trkpt lat="43.46465982841727" lon="5.7945025522708296"><ele>371.0</ele><time>2026-03-28T14:47:22.999Z</time></trkpt><trkpt lat="43.46470789976167" lon="5.794617341928661"><ele>371.0</ele><time>2026-03-28T14:47:23.999Z</time></trkpt><trkpt lat="43.46475464933468" lon="5.794716107078606"><ele>371.0</ele><time>2026-03-28T14:47:24.999Z</time></trkpt><trkpt lat="43.46479301947275" lon="5.7948038176826016"><ele>371.25</ele><time>2026-03-28T14:47:25.999Z</time></trkpt><trkpt lat="43.464887538212054" lon="5.794832837373569"><ele>371.5</ele><time>2026-03-28T14:47:26.999Z</time></trkpt><trkpt lat="43.4649937649" lon="5.794905351603312"><ele>371.75</ele><time>2026-03-28T14:47:27.999Z</time></trkpt><trkpt lat="43.46511253798087" lon="5.794986146272885"><ele>372.0</ele><time>2026-03-28T14:47:28.999Z</time></trkpt><trkpt lat="43.46524494065568" lon="5.795086431755411"><ele>371.25</ele><time>2026-03-28T14:47:29.999Z</time></trkpt><trkpt lat="43.465371011919316" lon="5.795194621063097"><ele>370.5</ele><time>2026-03-28T14:47:30.999Z</time></trkpt><trkpt lat="43.465470893983266" lon="5.795273857645205"><ele>369.75</ele><time>2026-03-28T14:47:31.999Z</time></trkpt><trkpt lat="43.46555486279348" lon="5.795318231987949"><ele>369.0</ele><time>2026-03-28T14:47:32.999Z</time></trkpt><trkpt lat="43.46567394234732" lon="5.79535100742815"><ele>368.79999999999995</ele><time>2026-03-28T14:47:34.999Z</time></trkpt><trkpt lat="43.465763528687624" lon="5.795319247050993"><ele>368.59999999999997</ele><time>2026-03-28T14:47:36.999Z</time></trkpt><trkpt lat="43.46581895726084" lon="5.7952685722789745"><ele>368.4</ele><time>2026-03-28T14:47:38.999Z</time></trkpt><trkpt lat="43.46588603925851" lon="5.7951163628443085"><ele>368.2</ele><time>2026-03-28T14:47:40.999Z</time></trkpt><trkpt lat="43.46595563767147" lon="5.795025994255465"><ele>368.0</ele><time>2026-03-28T14:47:42.999Z</time></trkpt><trkpt lat="43.466030805619354" lon="5.795044854636596"><ele>368.0</ele><time>2026-03-28T14:47:45.999Z</time></trkpt><trkpt lat="43.46606303846281" lon="5.795129030804229"><ele>368.0</ele><time>2026-03-28T14:48:07Z</time></trkpt><trkpt lat="43.46618017158191" lon="5.7952330132297485"><ele>368.0</ele><time>2026-03-28T14:48:09Z</time></trkpt><trkpt lat="43.46626076535911" lon="5.795231204187734"><ele>368.0</ele><time>2026-03-28T14:48:10Z</time></trkpt><trkpt lat="43.466319022573245" lon="5.795177915197494"><ele>368.0</ele><time>2026-03-28T14:48:11Z</time></trkpt><trkpt lat="43.466348173388624" lon="5.7950947793643675"><ele>368.0</ele><time>2026-03-28T14:48:12Z</time></trkpt><trkpt lat="43.466350044342256" lon="5.794998724554591"><ele>368.5</ele><time>2026-03-28T14:48:13Z</time></trkpt><trkpt lat="43.46631619169558" lon="5.794913950123331"><ele>369.0</ele><time>2026-03-28T14:48:14Z</time></trkpt><trkpt lat="43.46625420124782" lon="5.794870073117142"><ele>369.5</ele><time>2026-03-28T14:48:15Z</time></trkpt><trkpt lat="43.4661670277919" lon="5.794862048239744"><ele>370.0</ele><time>2026-03-28T14:48:16Z</time></trkpt><trkpt lat="43.466059184518286" lon="5.794881657814948"><ele>370.5</ele><time>2026-03-28T14:48:17Z</time></trkpt><trkpt lat="43.46596670292021" lon="5.794932168248392"><ele>371.0</ele><time>2026-03-28T14:48:18Z</time></trkpt><trkpt lat="43.465896145595245" lon="5.795018034801312"><ele>371.5</ele><time>2026-03-28T14:48:19Z</time></trkpt><trkpt lat="43.465833933053865" lon="5.795141412991955"><ele>372.0</ele><time>2026-03-28T14:48:20Z</time></trkpt><trkpt lat="43.46577672947314" lon="5.795249522167735"><ele>372.5</ele><time>2026-03-28T14:48:21Z</time></trkpt><trkpt lat="43.46570414374405" lon="5.795300120254221"><ele>373.0</ele><time>2026-03-28T14:48:22Z</time></trkpt><trkpt lat="43.46562943785269" lon="5.795327941584801"><ele>373.5</ele><time>2026-03-28T14:48:23Z</time></trkpt><trkpt lat="43.46554695637102" lon="5.795312147968382"><ele>374.0</ele><time>2026-03-28T14:48:24Z</time></trkpt><trkpt lat="43.465470226344486" lon="5.795230944160776"><ele>373.5</ele><time>2026-03-28T14:48:24.999Z</time></trkpt><trkpt lat="43.465348754833485" lon="5.7951452522896085"><ele>373.0</ele><time>2026-03-28T14:48:25.999Z</time></trkpt><trkpt lat="43.46521285162081" lon="5.795065803616772"><ele>372.5</ele><time>2026-03-28T14:48:26.999Z</time></trkpt><trkpt lat="43.4651110615579" lon="5.794982973236828"><ele>372.0</ele><time>2026-03-28T14:48:27.999Z</time></trkpt><trkpt lat="43.465020793500884" lon="5.794883917935914"><ele>372.0</ele><time>2026-03-28T14:48:28.999Z</time></trkpt><trkpt lat="43.46492107020174" lon="5.794834345475194"><ele>372.0</ele><time>2026-03-28T14:48:29.999Z</time></trkpt><trkpt lat="43.46483677228822" lon="5.794774184631822"><ele>372.0</ele><time>2026-03-28T14:48:30.999Z</time></trkpt><trkpt lat="43.4647765466018" lon="5.7947051692234375"><ele>372.0</ele><time>2026-03-28T14:48:31.999Z</time></trkpt><trkpt lat="43.464731510678604" lon="5.794621276329386"><ele>372.0</ele><time>2026-03-28T14:48:32.999Z</time></trkpt><trkpt lat="43.46469653752313" lon="5.794526870220911"><ele>372.0</ele><time>2026-03-28T14:48:33.999Z</time></trkpt><trkpt lat="43.464658440965245" lon="5.794414996786681"><ele>372.1666666666667</ele><time>2026-03-28T14:48:34.999Z</time></trkpt><trkpt lat="43.464624600154856" lon="5.794294075194389"><ele>372.3333333333333</ele><time>2026-03-28T14:48:35.999Z</time></trkpt><trkpt lat="43.464582739243916" lon="5.794197460429086"><ele>372.5</ele><time>2026-03-28T14:48:36.999Z</time></trkpt><trkpt lat="43.46452055146082" lon="5.794130417703166"><ele>372.66666666666663</ele><time>2026-03-28T14:48:37.999Z</time></trkpt><trkpt lat="43.4644513441453" lon="5.794111723406236"><ele>372.8333333333333</ele><time>2026-03-28T14:48:38.999Z</time></trkpt><trkpt lat="43.464378246555356" lon="5.794136743521929"><ele>373.0</ele><time>2026-03-28T14:48:39.999Z</time></trkpt><trkpt lat="43.4642953962747" lon="5.7941786611446675"><ele>372.59999999999997</ele><time>2026-03-28T14:48:40.999Z</time></trkpt><trkpt lat="43.46424118960633" lon="5.794297399285606"><ele>372.2</ele><time>2026-03-28T14:48:41.999Z</time></trkpt><trkpt lat="43.46416883318783" lon="5.794377702375647"><ele>371.8</ele><time>2026-03-28T14:48:42.999Z</time></trkpt><trkpt lat="43.46411142926208" lon="5.794437877039721"><ele>371.4</ele><time>2026-03-28T14:48:43.999Z</time></trkpt><trkpt lat="43.46396802251945" lon="5.794473328731336"><ele>371.0</ele><time>2026-03-28T14:48:45.999Z</time></trkpt><trkpt lat="43.46387948038842" lon="5.794456166417443"><ele>371.0</ele><time>2026-03-28T14:48:46.999Z</time></trkpt><trkpt lat="43.46379689315334" lon="5.79440607626638"><ele>371.0</ele><time>2026-03-28T14:48:47.999Z</time></trkpt><trkpt lat="43.46370624398438" lon="5.794308933258718"><ele>371.0</ele><time>2026-03-28T14:48:48.999Z</time></trkpt><trkpt lat="43.46360687822108" lon="5.794192318056682"><ele>371.0</ele><time>2026-03-28T14:48:49.999Z</time></trkpt><trkpt lat="43.4635007408968" lon="5.794090594710208"><ele>372.0</ele><time>2026-03-28T14:48:50.999Z</time></trkpt><trkpt lat="43.46340651017746" lon="5.793998254358468"><ele>373.0</ele><time>2026-03-28T14:48:51.999Z</time></trkpt><trkpt lat="43.46331755719765" lon="5.7939334654973695"><ele>374.0</ele><time>2026-03-28T14:48:52.999Z</time></trkpt><trkpt lat="43.46322432624972" lon="5.7938842476869725"><ele>375.0</ele><time>2026-03-28T14:48:53.999Z</time></trkpt><trkpt lat="43.46312157084778" lon="5.793839733567818"><ele>376.0</ele><time>2026-03-28T14:48:54.999Z</time></trkpt><trkpt lat="43.46303973335439" lon="5.793769219097621"><ele>376.0</ele><time>2026-03-28T14:48:55.999Z</time></trkpt><trkpt lat="43.462973187999545" lon="5.793694338846474"><ele>376.0</ele><time>2026-03-28T14:48:56.999Z</time></trkpt><trkpt lat="43.462916470685016" lon="5.793633734543601"><ele>376.0</ele><time>2026-03-28T14:48:57.999Z</time></trkpt><trkpt lat="43.46278839565534" lon="5.793696520486501"><ele>376.0</ele><time>2026-03-28T14:48:59.999Z</time></trkpt><trkpt lat="43.46273610786625" lon="5.793766908122043"><ele>376.0</ele><time>2026-03-28T14:49:00.999Z</time></trkpt><trkpt lat="43.46267136480794" lon="5.793860944231381"><ele>377.0</ele><time>2026-03-28T14:49:01.999Z</time></trkpt><trkpt lat="43.46260560588821" lon="5.7939813593166525"><ele>378.0</ele><time>2026-03-28T14:49:02.999Z</time></trkpt><trkpt lat="43.46253413087433" lon="5.794117167711225"><ele>379.0</ele><time>2026-03-28T14:49:03.999Z</time></trkpt><trkpt lat="43.46246020850342" lon="5.794243582434868"><ele>380.0</ele><time>2026-03-28T14:49:04.999Z</time></trkpt><trkpt lat="43.46239884898216" lon="5.794351446290845"><ele>381.0</ele><time>2026-03-28T14:49:05.999Z</time></trkpt><trkpt lat="43.462348483757616" lon="5.794451159839194"><ele>381.0</ele><time>2026-03-28T14:49:06.999Z</time></trkpt><trkpt lat="43.462299769116" lon="5.794528876691852"><ele>381.0</ele><time>2026-03-28T14:49:07.999Z</time></trkpt><trkpt lat="43.462203735649204" lon="5.794588362932427"><ele>381.0</ele><time>2026-03-28T14:49:09.999Z</time></trkpt><trkpt lat="43.462097004985594" lon="5.7944832111693705"><ele>381.0</ele><time>2026-03-28T14:49:11.999Z</time></trkpt><trkpt lat="43.46202648570806" lon="5.794397463149239"><ele>381.0</ele><time>2026-03-28T14:49:12.999Z</time></trkpt><trkpt lat="43.46194082751635" lon="5.794301170438108"><ele>382.25</ele><time>2026-03-28T14:49:13.999Z</time></trkpt><trkpt lat="43.46183956116292" lon="5.794207702342678"><ele>383.5</ele><time>2026-03-28T14:49:14.999Z</time></trkpt><trkpt lat="43.461739676773874" lon="5.79412819494985"><ele>384.75</ele><time>2026-03-28T14:49:15.999Z</time></trkpt><trkpt lat="43.461635533953086" lon="5.794048076869434"><ele>386.0</ele><time>2026-03-28T14:49:16.999Z</time></trkpt><trkpt lat="43.46153020689084" lon="5.793966531640241"><ele>386.0</ele><time>2026-03-28T14:49:17.999Z</time></trkpt><trkpt lat="43.461415069590416" lon="5.793883762362479"><ele>386.0</ele><time>2026-03-28T14:49:18.999Z</time></trkpt><trkpt lat="43.46130589242123" lon="5.793797986843097"><ele>386.0</ele><time>2026-03-28T14:49:19.999Z</time></trkpt><trkpt lat="43.46119797566201" lon="5.793691229813101"><ele>386.0</ele><time>2026-03-28T14:49:20.999Z</time></trkpt><trkpt lat="43.461094443382365" lon="5.79359622051378"><ele>388.25</ele><time>2026-03-28T14:49:21.999Z</time></trkpt><trkpt lat="43.460998422441016" lon="5.7935112432375"><ele>390.5</ele><time>2026-03-28T14:49:22.999Z</time></trkpt><trkpt lat="43.46089531318211" lon="5.79343163123507"><ele>392.75</ele><time>2026-03-28T14:49:23.999Z</time></trkpt><trkpt lat="43.460796032073816" lon="5.793322685321596"><ele>395.0</ele><time>2026-03-28T14:49:24.999Z</time></trkpt><trkpt lat="43.460676437083286" lon="5.793236451514697"><ele>395.25</ele><time>2026-03-28T14:49:25.999Z</time></trkpt><trkpt lat="43.460547279467995" lon="5.793167892442737"><ele>395.5</ele><time>2026-03-28T14:49:26.999Z</time></trkpt><trkpt lat="43.460423947988254" lon="5.79307685526741"><ele>395.75</ele><time>2026-03-28T14:49:27.999Z</time></trkpt><trkpt lat="43.46028897479004" lon="5.79299072209621"><ele>396.0</ele><time>2026-03-28T14:49:28.999Z</time></trkpt><trkpt lat="43.460154207227916" lon="5.792907998647717"><ele>396.75</ele><time>2026-03-28T14:49:29.999Z</time></trkpt><trkpt lat="43.46001725158993" lon="5.792818098889714"><ele>397.5</ele><time>2026-03-28T14:49:30.999Z</time></trkpt><trkpt lat="43.45988464674444" lon="5.792739641795255"><ele>398.25</ele><time>2026-03-28T14:49:31.999Z</time></trkpt><trkpt lat="43.45977209573526" lon="5.792668447458136"><ele>399.0</ele><time>2026-03-28T14:49:32.999Z</time></trkpt><trkpt lat="43.45965613258796" lon="5.7925984890370135"><ele>401.0</ele><time>2026-03-28T14:49:33.999Z</time></trkpt><trkpt lat="43.45954220232051" lon="5.792498495131677"><ele>403.0</ele><time>2026-03-28T14:49:34.999Z</time></trkpt><trkpt lat="43.45941817828893" lon="5.792415665513493"><ele>405.0</ele><time>2026-03-28T14:49:35.999Z</time></trkpt><trkpt lat="43.45928393316624" lon="5.792349344338834"><ele>407.0</ele><time>2026-03-28T14:49:36.999Z</time></trkpt><trkpt lat="43.459151503262284" lon="5.792256447143352"><ele>407.0</ele><time>2026-03-28T14:49:37.999Z</time></trkpt><trkpt lat="43.45901799370054" lon="5.792171559821197"><ele>407.0</ele><time>2026-03-28T14:49:38.999Z</time></trkpt><trkpt lat="43.45890394661589" lon="5.792100164496452"><ele>407.0</ele><time>2026-03-28T14:49:39.999Z</time></trkpt><trkpt lat="43.458790028716315" lon="5.792027603759529"><ele>407.0</ele><time>2026-03-28T14:49:40.999Z</time></trkpt><trkpt lat="43.45866753268809" lon="5.79193993681007"><ele>408.25</ele><time>2026-03-28T14:49:41.999Z</time></trkpt><trkpt lat="43.4585431733428" lon="5.791851298114686"><ele>409.5</ele><time>2026-03-28T14:49:42.999Z</time></trkpt><trkpt lat="43.458426704100376" lon="5.791768808300147"><ele>410.75</ele><time>2026-03-28T14:49:43.999Z</time></trkpt><trkpt lat="43.458317970790716" lon="5.791697985711489"><ele>412.0</ele><time>2026-03-28T14:49:44.999Z</time></trkpt><trkpt lat="43.45820468417076" lon="5.79162483611746"><ele>413.5</ele><time>2026-03-28T14:49:45.999Z</time></trkpt><trkpt lat="43.45808532098553" lon="5.791547733161518"><ele>415.0</ele><time>2026-03-28T14:49:46.999Z</time></trkpt><trkpt lat="43.457974609788884" lon="5.791481537426034"><ele>416.5</ele><time>2026-03-28T14:49:47.999Z</time></trkpt><trkpt lat="43.45786770042516" lon="5.791420192635872"><ele>418.0</ele><time>2026-03-28T14:49:48.999Z</time></trkpt><trkpt lat="43.45776906871703" lon="5.79136441810228"><ele>419.59999999999997</ele><time>2026-03-28T14:49:49.999Z</time></trkpt><trkpt lat="43.45766828687916" lon="5.7913041786707655"><ele>421.2</ele><time>2026-03-28T14:49:50.999Z</time></trkpt><trkpt lat="43.45758556489324" lon="5.7912501472716045"><ele>422.8</ele><time>2026-03-28T14:49:51.999Z</time></trkpt><trkpt lat="43.45751032231469" lon="5.791216682104355"><ele>424.4</ele><time>2026-03-28T14:49:52.999Z</time></trkpt><trkpt lat="43.457418386251504" lon="5.7911973849975995"><ele>426.0</ele><time>2026-03-28T14:49:53.999Z</time></trkpt><trkpt lat="43.457317632912044" lon="5.7911944179750945"><ele>426.0</ele><time>2026-03-28T14:49:54.999Z</time></trkpt><trkpt lat="43.45720602513126" lon="5.791190781111676"><ele>426.0</ele><time>2026-03-28T14:49:55.999Z</time></trkpt><trkpt lat="43.457086367515224" lon="5.791184139205936"><ele>426.0</ele><time>2026-03-28T14:49:56.999Z</time></trkpt><trkpt lat="43.456981034461414" lon="5.791186676162704"><ele>426.0</ele><time>2026-03-28T14:49:57.999Z</time></trkpt><trkpt lat="43.456881978844976" lon="5.79121329279063"><ele>426.0</ele><time>2026-03-28T14:49:58.999Z</time></trkpt><trkpt lat="43.45677611822334" lon="5.791251300373099"><ele>427.20000000000005</ele><time>2026-03-28T14:49:59.999Z</time></trkpt><trkpt lat="43.456678506895734" lon="5.791282491691021"><ele>428.40000000000003</ele><time>2026-03-28T14:50:00.999Z</time></trkpt><trkpt lat="43.45658652736035" lon="5.791302535096495"><ele>429.6</ele><time>2026-03-28T14:50:01.999Z</time></trkpt><trkpt lat="43.45649489600164" lon="5.79132594074568"><ele>430.8</ele><time>2026-03-28T14:50:03Z</time></trkpt><trkpt lat="43.456394785445106" lon="5.791342410977801"><ele>432.0</ele><time>2026-03-28T14:50:04Z</time></trkpt><trkpt lat="43.4563192757527" lon="5.791357878974314"><ele>435.1666666666667</ele><time>2026-03-28T14:50:05Z</time></trkpt><trkpt lat="43.4562474902399" lon="5.7913780393154815"><ele>438.33333333333337</ele><time>2026-03-28T14:50:06Z</time></trkpt><trkpt lat="43.45616770071378" lon="5.791404752248522"><ele>441.5</ele><time>2026-03-28T14:50:07Z</time></trkpt><trkpt lat="43.456083125229895" lon="5.791426636777841"><ele>444.6666666666667</ele><time>2026-03-28T14:50:07.999Z</time></trkpt><trkpt lat="43.45598867197501" lon="5.791435802490594"><ele>447.83333333333337</ele><time>2026-03-28T14:50:08.999Z</time></trkpt><trkpt lat="43.455897165718916" lon="5.7914217580017135"><ele>451.0</ele><time>2026-03-28T14:50:10Z</time></trkpt><trkpt lat="43.455810045815646" lon="5.79140795648563"><ele>451.00000000000006</ele><time>2026-03-28T14:50:10.999Z</time></trkpt><trkpt lat="43.455718086197415" lon="5.7914101530221735"><ele>451.0</ele><time>2026-03-28T14:50:11.999Z</time></trkpt><trkpt lat="43.45563365858834" lon="5.791396934135128"><ele>451.0</ele><time>2026-03-28T14:50:13Z</time></trkpt><trkpt lat="43.45556459194058" lon="5.791366417628081"><ele>451.0</ele><time>2026-03-28T14:50:13.999Z</time></trkpt><trkpt lat="43.455514569909724" lon="5.791291265100439"><ele>451.00000000000006</ele><time>2026-03-28T14:50:14.999Z</time></trkpt><trkpt lat="43.45548570282173" lon="5.791185652601423"><ele>451.0</ele><time>2026-03-28T14:50:16Z</time></trkpt><trkpt lat="43.45547330733462" lon="5.791074931823174"><ele>452.00000000000006</ele><time>2026-03-28T14:50:16.999Z</time></trkpt><trkpt lat="43.4554878563611" lon="5.790923778271065"><ele>453.0</ele><time>2026-03-28T14:50:18.999Z</time></trkpt><trkpt lat="43.45553799988351" lon="5.79084803477515"><ele>454.0</ele><time>2026-03-28T14:50:20.999Z</time></trkpt><trkpt lat="43.45554952313974" lon="5.790757020155906"><ele>455.0</ele><time>2026-03-28T14:50:22.999Z</time></trkpt><trkpt lat="43.45555666238214" lon="5.790669079483416"><ele>456.00000000000006</ele><time>2026-03-28T14:50:23.999Z</time></trkpt><trkpt lat="43.45556964337416" lon="5.790533268294826"><ele>457.0</ele><time>2026-03-28T14:50:24.999Z</time></trkpt><trkpt lat="43.45557079274133" lon="5.79035677484497"><ele>458.0</ele><time>2026-03-28T14:50:25.999Z</time></trkpt><trkpt lat="43.45558580938542" lon="5.790138811379569"><ele>459.0</ele><time>2026-03-28T14:50:26.999Z</time></trkpt><trkpt lat="43.455606938195864" lon="5.789898989995763"><ele>460.0</ele><time>2026-03-28T14:50:27.999Z</time></trkpt><trkpt lat="43.45563158499405" lon="5.7897153994552175"><ele>460.0</ele><time>2026-03-28T14:50:28.999Z</time></trkpt><trkpt lat="43.455656335093444" lon="5.789545460907011"><ele>460.0</ele><time>2026-03-28T14:50:29.999Z</time></trkpt><trkpt lat="43.45567536502183" lon="5.789420755393644"><ele>460.0</ele><time>2026-03-28T14:50:30.999Z</time></trkpt><trkpt lat="43.455690286550585" lon="5.789313396949509"><ele>460.0</ele><time>2026-03-28T14:50:31.999Z</time></trkpt><trkpt lat="43.455705719697086" lon="5.7892075343580505"><ele>460.0</ele><time>2026-03-28T14:50:32.999Z</time></trkpt><trkpt lat="43.45570832177852" lon="5.78910222505526"><ele>460.1666666666667</ele><time>2026-03-28T14:50:33.999Z</time></trkpt><trkpt lat="43.45569054625158" lon="5.788976952575788"><ele>460.33333333333337</ele><time>2026-03-28T14:50:34.999Z</time></trkpt><trkpt lat="43.4556508832321" lon="5.7888745155694465"><ele>460.5</ele><time>2026-03-28T14:50:35.999Z</time></trkpt><trkpt lat="43.45559995993363" lon="5.788796359334235"><ele>460.66666666666663</ele><time>2026-03-28T14:50:36.999Z</time></trkpt><trkpt lat="43.45553388421238" lon="5.788748246208701"><ele>460.8333333333333</ele><time>2026-03-28T14:50:37.999Z</time></trkpt><trkpt lat="43.45545035005081" lon="5.788704861776264"><ele>461.0</ele><time>2026-03-28T14:50:38.999Z</time></trkpt><trkpt lat="43.45534664522531" lon="5.7886801997857615"><ele>464.0</ele><time>2026-03-28T14:50:39.999Z</time></trkpt><trkpt lat="43.4552400529859" lon="5.78865422856823"><ele>467.0</ele><time>2026-03-28T14:50:40.999Z</time></trkpt><trkpt lat="43.45515379147245" lon="5.788606574812414"><ele>470.0</ele><time>2026-03-28T14:50:41.999Z</time></trkpt><trkpt lat="43.45507779527754" lon="5.788518768211964"><ele>473.0</ele><time>2026-03-28T14:50:42.999Z</time></trkpt><trkpt lat="43.45499931411785" lon="5.788418693747091"><ele>476.0</ele><time>2026-03-28T14:50:43.999Z</time></trkpt><trkpt lat="43.454933300824344" lon="5.788322463251268"><ele>476.0</ele><time>2026-03-28T14:50:44.999Z</time></trkpt><trkpt lat="43.45488295536987" lon="5.788218424936978"><ele>476.0</ele><time>2026-03-28T14:50:45.999Z</time></trkpt><trkpt lat="43.45486491200076" lon="5.788092277363087"><ele>476.0</ele><time>2026-03-28T14:50:46.999Z</time></trkpt><trkpt lat="43.45486021961914" lon="5.787951920218313"><ele>476.0</ele><time>2026-03-28T14:50:47.999Z</time></trkpt><trkpt lat="43.454872255489015" lon="5.787816247007085"><ele>476.0</ele><time>2026-03-28T14:50:48.999Z</time></trkpt><trkpt lat="43.45486889408038" lon="5.7876757957317935"><ele>477.0</ele><time>2026-03-28T14:50:49.999Z</time></trkpt><trkpt lat="43.45487083730911" lon="5.7875257411769025"><ele>478.0</ele><time>2026-03-28T14:50:50.999Z</time></trkpt><trkpt lat="43.454863715039394" lon="5.787373767567256"><ele>479.0</ele><time>2026-03-28T14:50:51.999Z</time></trkpt><trkpt lat="43.45481831552982" lon="5.787246053863284"><ele>480.0</ele><time>2026-03-28T14:50:52.999Z</time></trkpt><trkpt lat="43.454759313840796" lon="5.787144292685513"><ele>481.0</ele><time>2026-03-28T14:50:53.999Z</time></trkpt><trkpt lat="43.4547078487678" lon="5.787068914053957"><ele>481.00000000000006</ele><time>2026-03-28T14:50:54.999Z</time></trkpt><trkpt lat="43.454693675768034" lon="5.786976696873466"><ele>481.0</ele><time>2026-03-28T14:50:55.999Z</time></trkpt><trkpt lat="43.45472054008109" lon="5.786895456890187"><ele>481.0</ele><time>2026-03-28T14:50:56.999Z</time></trkpt><trkpt lat="43.454768483144534" lon="5.786814304211071"><ele>481.0</ele><time>2026-03-28T14:50:58.999Z</time></trkpt><trkpt lat="43.45481353702871" lon="5.786677700851647"><ele>481.00000000000006</ele><time>2026-03-28T14:51:50.999Z</time></trkpt><trkpt lat="43.45486865231957" lon="5.786595412132555"><ele>481.0</ele><time>2026-03-28T14:51:51.999Z</time></trkpt><trkpt lat="43.45494547261948" lon="5.786512254657823"><ele>483.20000000000005</ele><time>2026-03-28T14:51:52.999Z</time></trkpt><trkpt lat="43.45501579995833" lon="5.786449300631291"><ele>485.40000000000003</ele><time>2026-03-28T14:51:53.999Z</time></trkpt><trkpt lat="43.45508799177309" lon="5.786410054083851"><ele>487.6</ele><time>2026-03-28T14:51:54.999Z</time></trkpt><trkpt lat="43.45519787552664" lon="5.7864495589627"><ele>489.8</ele><time>2026-03-28T14:51:56.999Z</time></trkpt><trkpt lat="43.45525010300523" lon="5.7865995162801465"><ele>492.0</ele><time>2026-03-28T14:51:58.999Z</time></trkpt><trkpt lat="43.45526469634322" lon="5.786687409420929"><ele>492.0</ele><time>2026-03-28T14:51:59.999Z</time></trkpt><trkpt lat="43.45528597928716" lon="5.786778350137436"><ele>492.0</ele><time>2026-03-28T14:52:00.999Z</time></trkpt><trkpt lat="43.4553208693474" lon="5.786865411244283"><ele>492.0</ele><time>2026-03-28T14:52:01.999Z</time></trkpt><trkpt lat="43.45537429725468" lon="5.786954634711679"><ele>492.0</ele><time>2026-03-28T14:52:02.999Z</time></trkpt><trkpt lat="43.45545235853227" lon="5.787024797217735"><ele>492.0</ele><time>2026-03-28T14:52:03.999Z</time></trkpt><trkpt lat="43.455532227265635" lon="5.7870725644144825"><ele>492.0</ele><time>2026-03-28T14:52:04.999Z</time></trkpt><trkpt lat="43.45561250637157" lon="5.787089010494365"><ele>487.75</ele><time>2026-03-28T14:52:05.999Z</time></trkpt><trkpt lat="43.45570198049562" lon="5.787087509093772"><ele>483.5</ele><time>2026-03-28T14:52:06.999Z</time></trkpt><trkpt lat="43.45582218182156" lon="5.787088390041897"><ele>479.25</ele><time>2026-03-28T14:52:07.999Z</time></trkpt><trkpt lat="43.45597935534273" lon="5.787092222714148"><ele>475.0</ele><time>2026-03-28T14:52:08.999Z</time></trkpt><trkpt lat="43.456123439565815" lon="5.787098934471827"><ele>475.0</ele><time>2026-03-28T14:52:09.999Z</time></trkpt><trkpt lat="43.45621358725285" lon="5.787118217291399"><ele>475.00000000000006</ele><time>2026-03-28T14:52:10.999Z</time></trkpt><trkpt lat="43.45627514579159" lon="5.787139182680445"><ele>475.0</ele><time>2026-03-28T14:52:11.999Z</time></trkpt><trkpt lat="43.45633821600584" lon="5.787160302302093"><ele>475.0</ele><time>2026-03-28T14:52:12.999Z</time></trkpt><trkpt lat="43.45640857534626" lon="5.7871762498429336"><ele>475.00000000000006</ele><time>2026-03-28T14:52:13.999Z</time></trkpt><trkpt lat="43.4564787561479" lon="5.787158631964047"><ele>475.0</ele><time>2026-03-28T14:52:14.999Z</time></trkpt><trkpt lat="43.4565533762538" lon="5.7871030974469395"><ele>475.0</ele><time>2026-03-28T14:52:15.999Z</time></trkpt><trkpt lat="43.45662874229803" lon="5.7870922483337965"><ele>474.5</ele><time>2026-03-28T14:52:16.999Z</time></trkpt><trkpt lat="43.45672498975754" lon="5.787066834718333"><ele>474.0</ele><time>2026-03-28T14:52:18.999Z</time></trkpt><trkpt lat="43.45680524871271" lon="5.787011031582503"><ele>473.5</ele><time>2026-03-28T14:52:19.999Z</time></trkpt><trkpt lat="43.456918171947464" lon="5.786972074600244"><ele>473.0</ele><time>2026-03-28T14:52:20.999Z</time></trkpt><trkpt lat="43.45707582496676" lon="5.786957874623616"><ele>471.75</ele><time>2026-03-28T14:52:21.999Z</time></trkpt><trkpt lat="43.457220100715034" lon="5.7869597553073255"><ele>470.5</ele><time>2026-03-28T14:52:22.999Z</time></trkpt><trkpt lat="43.45733754957802" lon="5.786956070504985"><ele>469.25</ele><time>2026-03-28T14:52:23.999Z</time></trkpt><trkpt lat="43.45744040787049" lon="5.786917161815909"><ele>468.0</ele><time>2026-03-28T14:52:24.999Z</time></trkpt><trkpt lat="43.45753657859491" lon="5.7868456580425836"><ele>469.59999999999997</ele><time>2026-03-28T14:52:25.999Z</time></trkpt><trkpt lat="43.45766408210643" lon="5.786766561853905"><ele>471.19999999999993</ele><time>2026-03-28T14:52:26.999Z</time></trkpt><trkpt lat="43.457788317668516" lon="5.786717480268216"><ele>472.8</ele><time>2026-03-28T14:52:27.999Z</time></trkpt><trkpt lat="43.45788296603041" lon="5.786688470947546"><ele>474.4</ele><time>2026-03-28T14:52:28.999Z</time></trkpt><trkpt lat="43.45794659532181" lon="5.786642735794589"><ele>476.0</ele><time>2026-03-28T14:52:29.999Z</time></trkpt><trkpt lat="43.457992214054784" lon="5.7865713584533225"><ele>476.0</ele><time>2026-03-28T14:52:30.999Z</time></trkpt><trkpt lat="43.45804619446178" lon="5.786458797138086"><ele>476.0</ele><time>2026-03-28T14:52:32Z</time></trkpt><trkpt lat="43.458102982212715" lon="5.786336178365866"><ele>476.0</ele><time>2026-03-28T14:52:33Z</time></trkpt><trkpt lat="43.45815467191156" lon="5.786204877175072"><ele>476.0</ele><time>2026-03-28T14:52:34Z</time></trkpt><trkpt lat="43.45820713600924" lon="5.786081389804362"><ele>476.0</ele><time>2026-03-28T14:52:35Z</time></trkpt><trkpt lat="43.458243689643126" lon="5.785937814430161"><ele>479.25</ele><time>2026-03-28T14:52:36Z</time></trkpt><trkpt lat="43.458296900705776" lon="5.785769306761246"><ele>482.5</ele><time>2026-03-28T14:52:37Z</time></trkpt><trkpt lat="43.45836635443428" lon="5.785619332555631"><ele>485.75</ele><time>2026-03-28T14:52:38Z</time></trkpt><trkpt lat="43.45841998454574" lon="5.785500660696341"><ele>489.0</ele><time>2026-03-28T14:52:39Z</time></trkpt><trkpt lat="43.45846473037247" lon="5.785339491214758"><ele>489.0</ele><time>2026-03-28T14:52:40Z</time></trkpt><trkpt lat="43.45852597288424" lon="5.785220619044731"><ele>489.0</ele><time>2026-03-28T14:52:41Z</time></trkpt><trkpt lat="43.45854348092417" lon="5.785118489003313"><ele>489.0</ele><time>2026-03-28T14:52:42Z</time></trkpt><trkpt lat="43.458573146758404" lon="5.785023370549064"><ele>489.0</ele><time>2026-03-28T14:52:43Z</time></trkpt><trkpt lat="43.45862451014647" lon="5.784965013439043"><ele>489.0</ele><time>2026-03-28T14:52:44Z</time></trkpt><trkpt lat="43.458720718462914" lon="5.7849452496935765"><ele>489.0</ele><time>2026-03-28T14:52:45Z</time></trkpt><trkpt lat="43.458825672660595" lon="5.784934328502492"><ele>488.6</ele><time>2026-03-28T14:52:46Z</time></trkpt><trkpt lat="43.45888276829673" lon="5.78488760693017"><ele>488.2</ele><time>2026-03-28T14:52:47Z</time></trkpt><trkpt lat="43.45890863205569" lon="5.7847993156296065"><ele>487.80000000000007</ele><time>2026-03-28T14:52:48Z</time></trkpt><trkpt lat="43.45894435049032" lon="5.784675403373651"><ele>487.40000000000003</ele><time>2026-03-28T14:52:49Z</time></trkpt><trkpt lat="43.45900171692181" lon="5.784528723617841"><ele>487.0</ele><time>2026-03-28T14:52:50Z</time></trkpt><trkpt lat="43.45909095341726" lon="5.784366229959361"><ele>491.25</ele><time>2026-03-28T14:52:51Z</time></trkpt><trkpt lat="43.459171345179215" lon="5.78420032927068"><ele>495.5</ele><time>2026-03-28T14:52:52Z</time></trkpt><trkpt lat="43.459221666387634" lon="5.784064412357775"><ele>499.75</ele><time>2026-03-28T14:52:53Z</time></trkpt><trkpt lat="43.45928363954675" lon="5.783912725371782"><ele>504.0</ele><time>2026-03-28T14:52:54Z</time></trkpt><trkpt lat="43.459349570023825" lon="5.7837644099892636"><ele>504.0</ele><time>2026-03-28T14:52:55Z</time></trkpt><trkpt lat="43.459396574514244" lon="5.78363777445606"><ele>504.0</ele><time>2026-03-28T14:52:56Z</time></trkpt><trkpt lat="43.45945944177359" lon="5.783602027578928"><ele>504.0</ele><time>2026-03-28T14:52:58Z</time></trkpt><trkpt lat="43.45953108911109" lon="5.783545730941922"><ele>504.0</ele><time>2026-03-28T14:53:06Z</time></trkpt><trkpt lat="43.459604889085604" lon="5.783537658838996"><ele>504.0</ele><time>2026-03-28T14:53:07Z</time></trkpt><trkpt lat="43.45970911849958" lon="5.783522073059802"><ele>504.0</ele><time>2026-03-28T14:53:08Z</time></trkpt><trkpt lat="43.45982755422355" lon="5.783526392255691"><ele>506.0</ele><time>2026-03-28T14:53:09Z</time></trkpt><trkpt lat="43.459913217960334" lon="5.783529279009746"><ele>508.0</ele><time>2026-03-28T14:53:10Z</time></trkpt><trkpt lat="43.460022494950465" lon="5.783472550657707"><ele>510.0</ele><time>2026-03-28T14:53:12Z</time></trkpt><trkpt lat="43.46012627471711" lon="5.783338050638931"><ele>512.0</ele><time>2026-03-28T14:53:14Z</time></trkpt><trkpt lat="43.46019275960143" lon="5.783247154458752"><ele>514.0</ele><time>2026-03-28T14:53:15Z</time></trkpt><trkpt lat="43.46025612952677" lon="5.7831982619246105"><ele>514.0</ele><time>2026-03-28T14:53:16Z</time></trkpt><trkpt lat="43.46031795162873" lon="5.783215840552725"><ele>514.0</ele><time>2026-03-28T14:53:17Z</time></trkpt><trkpt lat="43.46037636605759" lon="5.783273840670137"><ele>514.0</ele><time>2026-03-28T14:53:18Z</time></trkpt><trkpt lat="43.46046957945243" lon="5.783272325259055"><ele>514.0</ele><time>2026-03-28T14:53:20Z</time></trkpt><trkpt lat="43.46051176414412" lon="5.783182622672939"><ele>514.0</ele><time>2026-03-28T14:53:53Z</time></trkpt><trkpt lat="43.46057508135176" lon="5.783035684381669"><ele>514.0</ele><time>2026-03-28T14:53:55Z</time></trkpt><trkpt lat="43.460621021468775" lon="5.782880915716194"><ele>513.8333333333334</ele><time>2026-03-28T14:53:57Z</time></trkpt><trkpt lat="43.46065049314393" lon="5.7827762377010945"><ele>513.6666666666667</ele><time>2026-03-28T14:53:58Z</time></trkpt><trkpt lat="43.460661432752545" lon="5.782663550246683"><ele>513.5</ele><time>2026-03-28T14:53:59Z</time></trkpt><trkpt lat="43.460659706873635" lon="5.782559895709163"><ele>513.3333333333334</ele><time>2026-03-28T14:54:00Z</time></trkpt><trkpt lat="43.46067408468967" lon="5.782447018448886"><ele>513.1666666666666</ele><time>2026-03-28T14:54:01Z</time></trkpt><trkpt lat="43.460703767720084" lon="5.782327354220606"><ele>513.0</ele><time>2026-03-28T14:54:02Z</time></trkpt><trkpt lat="43.46072590788932" lon="5.782232608214967"><ele>513.0</ele><time>2026-03-28T14:54:03Z</time></trkpt><trkpt lat="43.46075206276382" lon="5.782130769344509"><ele>513.0</ele><time>2026-03-28T14:54:04Z</time></trkpt><trkpt lat="43.46077462091995" lon="5.782034785802625"><ele>513.0</ele><time>2026-03-28T14:54:05Z</time></trkpt><trkpt lat="43.46079059251265" lon="5.781950307454573"><ele>513.0</ele><time>2026-03-28T14:54:06Z</time></trkpt><trkpt lat="43.460823108784645" lon="5.781767574217582"><ele>513.0</ele><time>2026-03-28T14:54:08Z</time></trkpt><trkpt lat="43.4608533251607" lon="5.781662051512157"><ele>513.0</ele><time>2026-03-28T14:54:09Z</time></trkpt><trkpt lat="43.46087290950071" lon="5.781532416662272"><ele>515.0</ele><time>2026-03-28T14:54:11Z</time></trkpt><trkpt lat="43.46089933564584" lon="5.7814422656389235"><ele>517.0</ele><time>2026-03-28T14:54:14Z</time></trkpt><trkpt lat="43.460871142255066" lon="5.781527159365157"><ele>519.0</ele><time>2026-03-28T14:54:23Z</time></trkpt><trkpt lat="43.46088835648416" lon="5.781620253717625"><ele>521.0</ele><time>2026-03-28T14:54:38Z</time></trkpt><trkpt lat="43.46087873988296" lon="5.781466589238347"><ele>523.0</ele><time>2026-03-28T14:54:46Z</time></trkpt><trkpt lat="43.46088973064181" lon="5.7813436206305"><ele>525.0</ele><time>2026-03-28T14:54:47Z</time></trkpt><trkpt lat="43.460897866064016" lon="5.781171651787738"><ele>527.5</ele><time>2026-03-28T14:54:48Z</time></trkpt><trkpt lat="43.460920302416056" lon="5.780977609508721"><ele>530.0</ele><time>2026-03-28T14:54:49Z</time></trkpt><trkpt lat="43.46095040583555" lon="5.780826414854595"><ele>532.5</ele><time>2026-03-28T14:54:50Z</time></trkpt><trkpt lat="43.46098818936709" lon="5.780680090131538"><ele>535.0</ele><time>2026-03-28T14:54:51Z</time></trkpt><trkpt lat="43.461023545690615" lon="5.7805182214504"><ele>535.0</ele><time>2026-03-28T14:54:52Z</time></trkpt><trkpt lat="43.46104368343587" lon="5.7803840265833"><ele>535.0</ele><time>2026-03-28T14:54:53Z</time></trkpt><trkpt lat="43.46105768915553" lon="5.780243768643969"><ele>535.0</ele><time>2026-03-28T14:54:54Z</time></trkpt><trkpt lat="43.46107552252559" lon="5.780079532326818"><ele>535.0</ele><time>2026-03-28T14:54:55Z</time></trkpt><trkpt lat="43.461109591857316" lon="5.779933597625044"><ele>535.0</ele><time>2026-03-28T14:54:56Z</time></trkpt><trkpt lat="43.46118207149783" lon="5.7797867377360745"><ele>536.6</ele><time>2026-03-28T14:54:57Z</time></trkpt><trkpt lat="43.461256440886814" lon="5.779647562588065"><ele>538.2</ele><time>2026-03-28T14:54:58Z</time></trkpt><trkpt lat="43.46132408965006" lon="5.779545204371786"><ele>539.8</ele><time>2026-03-28T14:54:59Z</time></trkpt><trkpt lat="43.46139098719365" lon="5.7794616726306005"><ele>541.4</ele><time>2026-03-28T14:55:00Z</time></trkpt><trkpt lat="43.46142888331668" lon="5.7793689006269355"><ele>543.0</ele><time>2026-03-28T14:55:01Z</time></trkpt><trkpt lat="43.461437605841795" lon="5.779276486366386"><ele>544.1666666666666</ele><time>2026-03-28T14:55:02Z</time></trkpt><trkpt lat="43.4614136408837" lon="5.779189131538383"><ele>545.3333333333334</ele><time>2026-03-28T14:55:03Z</time></trkpt><trkpt lat="43.46137326208677" lon="5.779098078825616"><ele>546.5</ele><time>2026-03-28T14:55:04Z</time></trkpt><trkpt lat="43.461335831617404" lon="5.778995561884861"><ele>547.6666666666667</ele><time>2026-03-28T14:55:05Z</time></trkpt><trkpt lat="43.46128015165233" lon="5.77888305400688"><ele>548.8333333333334</ele><time>2026-03-28T14:55:06Z</time></trkpt><trkpt lat="43.461239440477684" lon="5.778779181432697"><ele>550.0</ele><time>2026-03-28T14:55:07Z</time></trkpt><trkpt lat="43.461247677685705" lon="5.778670719744397"><ele>544.2</ele><time>2026-03-28T14:55:08Z</time></trkpt><trkpt lat="43.461297985449704" lon="5.7785718279403575"><ele>538.4</ele><time>2026-03-28T14:55:09Z</time></trkpt><trkpt lat="43.46134667260205" lon="5.778487770488152"><ele>532.6</ele><time>2026-03-28T14:55:10Z</time></trkpt><trkpt lat="43.46137125683483" lon="5.778399449452431"><ele>526.8</ele><time>2026-03-28T14:55:11Z</time></trkpt><trkpt lat="43.46135778783855" lon="5.778225147873441"><ele>521.0</ele><time>2026-03-28T14:55:13Z</time></trkpt><trkpt lat="43.46131257934012" lon="5.778102459544394"><ele>521.2</ele><time>2026-03-28T14:55:14Z</time></trkpt><trkpt lat="43.461307807678466" lon="5.777964894916956"><ele>521.4000000000001</ele><time>2026-03-28T14:55:15Z</time></trkpt><trkpt lat="43.4613265515004" lon="5.777836886466866"><ele>521.6</ele><time>2026-03-28T14:55:16Z</time></trkpt><trkpt lat="43.46134210460505" lon="5.777714954009212"><ele>521.8000000000001</ele><time>2026-03-28T14:55:17Z</time></trkpt><trkpt lat="43.46136512451796" lon="5.777607439713079"><ele>522.0</ele><time>2026-03-28T14:55:18Z</time></trkpt><trkpt lat="43.46136294943567" lon="5.777475193800034"><ele>522.0</ele><time>2026-03-28T14:55:19Z</time></trkpt><trkpt lat="43.46132554423506" lon="5.777341768147334"><ele>522.0</ele><time>2026-03-28T14:55:20Z</time></trkpt><trkpt lat="43.46129260471917" lon="5.777207234963512"><ele>522.0</ele><time>2026-03-28T14:55:21Z</time></trkpt><trkpt lat="43.461285336289315" lon="5.77709777342084"><ele>522.0</ele><time>2026-03-28T14:55:22Z</time></trkpt><trkpt lat="43.46131694403656" lon="5.777009559978359"><ele>522.0</ele><time>2026-03-28T14:55:23Z</time></trkpt><trkpt lat="43.46137492138361" lon="5.77691006230553"><ele>523.6</ele><time>2026-03-28T14:55:24Z</time></trkpt><trkpt lat="43.46143620430234" lon="5.776812513699744"><ele>525.2</ele><time>2026-03-28T14:55:25Z</time></trkpt><trkpt lat="43.46146874741119" lon="5.776685340888788"><ele>526.8</ele><time>2026-03-28T14:55:26Z</time></trkpt><trkpt lat="43.46148341376629" lon="5.776572166036397"><ele>528.4</ele><time>2026-03-28T14:55:27Z</time></trkpt><trkpt lat="43.46148519485384" lon="5.776464211690036"><ele>530.0</ele><time>2026-03-28T14:55:28Z</time></trkpt><trkpt lat="43.461463669209195" lon="5.776334462758295"><ele>530.0</ele><time>2026-03-28T14:55:29Z</time></trkpt><trkpt lat="43.46144098920336" lon="5.776173700078333"><ele>530.0</ele><time>2026-03-28T14:55:30Z</time></trkpt><trkpt lat="43.46144206990038" lon="5.77602145485488"><ele>530.0</ele><time>2026-03-28T14:55:31Z</time></trkpt><trkpt lat="43.46149169024681" lon="5.775860792973674"><ele>530.0</ele><time>2026-03-28T14:55:32Z</time></trkpt><trkpt lat="43.461555006148636" lon="5.775728144657063"><ele>531.3333333333333</ele><time>2026-03-28T14:55:33Z</time></trkpt><trkpt lat="43.46158877721529" lon="5.7756456489043915"><ele>532.6666666666666</ele><time>2026-03-28T14:55:34Z</time></trkpt><trkpt lat="43.46159851331399" lon="5.775553908121703"><ele>534.0</ele><time>2026-03-28T14:55:35Z</time></trkpt><trkpt lat="43.461594568981404" lon="5.775456828979957"><ele>535.3333333333334</ele><time>2026-03-28T14:55:36Z</time></trkpt><trkpt lat="43.46158435386628" lon="5.775369524985425"><ele>536.6666666666667</ele><time>2026-03-28T14:55:37Z</time></trkpt><trkpt lat="43.46152788358304" lon="5.775216732112484"><ele>538.0</ele><time>2026-03-28T14:55:39Z</time></trkpt><trkpt lat="43.46151576213558" lon="5.775101104085172"><ele>538.0</ele><time>2026-03-28T14:55:40Z</time></trkpt><trkpt lat="43.46149522401249" lon="5.7749713838593975"><ele>538.0</ele><time>2026-03-28T14:55:42Z</time></trkpt><trkpt lat="43.46143667414396" lon="5.774922580270688"><ele>538.0</ele><time>2026-03-28T14:55:43Z</time></trkpt><trkpt lat="43.46136089852922" lon="5.774867796569474"><ele>538.0</ele><time>2026-03-28T14:55:44Z</time></trkpt><trkpt lat="43.461269987552285" lon="5.774847997885629"><ele>538.0</ele><time>2026-03-28T14:55:45Z</time></trkpt><trkpt lat="43.46115686242124" lon="5.774854376705204"><ele>541.6</ele><time>2026-03-28T14:55:46Z</time></trkpt><trkpt lat="43.461044743731115" lon="5.774867339168714"><ele>545.1999999999999</ele><time>2026-03-28T14:55:47Z</time></trkpt><trkpt lat="43.46095321565294" lon="5.774903636665535"><ele>548.8</ele><time>2026-03-28T14:55:48Z</time></trkpt><trkpt lat="43.46087747523288" lon="5.774904575194737"><ele>552.4</ele><time>2026-03-28T14:55:49Z</time></trkpt><trkpt lat="43.46079200322308" lon="5.774862161157746"><ele>556.0</ele><time>2026-03-28T14:55:50Z</time></trkpt><trkpt lat="43.46073939446208" lon="5.774758319180878"><ele>556.0</ele><time>2026-03-28T14:55:51Z</time></trkpt><trkpt lat="43.46068947266021" lon="5.774640403153552"><ele>556.0</ele><time>2026-03-28T14:55:52Z</time></trkpt><trkpt lat="43.46065730927451" lon="5.774539397106606"><ele>556.0</ele><time>2026-03-28T14:55:53Z</time></trkpt><trkpt lat="43.46056459923292" lon="5.77441500416953"><ele>556.0</ele><time>2026-03-28T14:55:55Z</time></trkpt><trkpt lat="43.46048578168297" lon="5.77435146574093"><ele>556.0</ele><time>2026-03-28T14:55:56Z</time></trkpt><trkpt lat="43.460367322581774" lon="5.774253552028149"><ele>559.25</ele><time>2026-03-28T14:55:57Z</time></trkpt><trkpt lat="43.46025472232577" lon="5.774134504453436"><ele>562.5</ele><time>2026-03-28T14:55:58Z</time></trkpt><trkpt lat="43.460189190043785" lon="5.773985996089489"><ele>565.75</ele><time>2026-03-28T14:55:59Z</time></trkpt><trkpt lat="43.460132748679605" lon="5.773831674183688"><ele>569.0</ele><time>2026-03-28T14:56:00Z</time></trkpt><trkpt lat="43.46007497026418" lon="5.773674934580594"><ele>568.0</ele><time>2026-03-28T14:56:01Z</time></trkpt><trkpt lat="43.4600245371474" lon="5.773511849563014"><ele>567.0</ele><time>2026-03-28T14:56:02Z</time></trkpt><trkpt lat="43.460003353152494" lon="5.7733770565081555"><ele>566.0</ele><time>2026-03-28T14:56:03Z</time></trkpt><trkpt lat="43.45998433251066" lon="5.773271629193981"><ele>565.0</ele><time>2026-03-28T14:56:04Z</time></trkpt><trkpt lat="43.45994401400653" lon="5.7731929044321335"><ele>564.0</ele><time>2026-03-28T14:56:05Z</time></trkpt><trkpt lat="43.45986780384693" lon="5.77309561145957"><ele>564.0</ele><time>2026-03-28T14:56:06Z</time></trkpt><trkpt lat="43.4597837305389" lon="5.772972061716301"><ele>564.0</ele><time>2026-03-28T14:56:07Z</time></trkpt><trkpt lat="43.45970189250794" lon="5.772816002479015"><ele>564.0</ele><time>2026-03-28T14:56:08Z</time></trkpt><trkpt lat="43.4596232567548" lon="5.772650992558773"><ele>564.0</ele><time>2026-03-28T14:56:09Z</time></trkpt><trkpt lat="43.459568191957906" lon="5.772488608721818"><ele>565.0</ele><time>2026-03-28T14:56:10Z</time></trkpt><trkpt lat="43.45950605507187" lon="5.772316872087446"><ele>566.0</ele><time>2026-03-28T14:56:11Z</time></trkpt><trkpt lat="43.459436306841575" lon="5.772119660314842"><ele>567.0</ele><time>2026-03-28T14:56:12Z</time></trkpt><trkpt lat="43.45937103167172" lon="5.771940789486896"><ele>568.0</ele><time>2026-03-28T14:56:13Z</time></trkpt><trkpt lat="43.45932203737504" lon="5.7717995188365965"><ele>568.0</ele><time>2026-03-28T14:56:14Z</time></trkpt><trkpt lat="43.45927553201719" lon="5.771644631300654"><ele>568.0</ele><time>2026-03-28T14:56:15Z</time></trkpt><trkpt lat="43.4592360925724" lon="5.7714986328093545"><ele>568.0</ele><time>2026-03-28T14:56:16Z</time></trkpt><trkpt lat="43.45919844857602" lon="5.771383272099542"><ele>568.0</ele><time>2026-03-28T14:56:16.999Z</time></trkpt><trkpt lat="43.459161857498536" lon="5.7712767519912465"><ele>568.0</ele><time>2026-03-28T14:56:17.999Z</time></trkpt><trkpt lat="43.45913353704265" lon="5.771189863841389"><ele>568.0</ele><time>2026-03-28T14:56:19Z</time></trkpt><trkpt lat="43.459079784707384" lon="5.771128128736271"><ele>568.0</ele><time>2026-03-28T14:56:21Z</time></trkpt><trkpt lat="43.45904097116435" lon="5.771203765394641"><ele>568.0</ele><time>2026-03-28T14:56:24Z</time></trkpt><trkpt lat="43.45899195715477" lon="5.771271519611441"><ele>568.0</ele><time>2026-03-28T14:56:25Z</time></trkpt><trkpt lat="43.45894627234654" lon="5.771367873618127"><ele>568.0</ele><time>2026-03-28T14:56:26Z</time></trkpt><trkpt lat="43.45889621571466" lon="5.771456645918863"><ele>568.0</ele><time>2026-03-28T14:56:27Z</time></trkpt><trkpt lat="43.45882233006186" lon="5.771548562649998"><ele>568.0</ele><time>2026-03-28T14:56:28Z</time></trkpt><trkpt lat="43.458751212543426" lon="5.771640844386784"><ele>568.0</ele><time>2026-03-28T14:56:29Z</time></trkpt><trkpt lat="43.458704203515225" lon="5.771721289574284"><ele>568.0</ele><time>2026-03-28T14:56:30Z</time></trkpt><trkpt lat="43.45866579055153" lon="5.771824952370715"><ele>568.0</ele><time>2026-03-28T14:56:31Z</time></trkpt><trkpt lat="43.458638292039474" lon="5.771964639461193"><ele>568.0</ele><time>2026-03-28T14:56:32Z</time></trkpt><trkpt lat="43.45862535230674" lon="5.772101542447383"><ele>568.0</ele><time>2026-03-28T14:56:33Z</time></trkpt><trkpt lat="43.458626794455796" lon="5.77222713178978"><ele>568.0</ele><time>2026-03-28T14:56:34Z</time></trkpt><trkpt lat="43.45863525060349" lon="5.772327569356453"><ele>568.0</ele><time>2026-03-28T14:56:35Z</time></trkpt><trkpt lat="43.45865040109866" lon="5.772438433811459"><ele>568.0</ele><time>2026-03-28T14:56:36Z</time></trkpt><trkpt lat="43.45868123127437" lon="5.7725710834615676"><ele>568.0</ele><time>2026-03-28T14:56:37Z</time></trkpt><trkpt lat="43.45869142699754" lon="5.7727317097938915"><ele>569.5</ele><time>2026-03-28T14:56:38Z</time></trkpt><trkpt lat="43.45869774759855" lon="5.772901127585912"><ele>571.0</ele><time>2026-03-28T14:56:39Z</time></trkpt><trkpt lat="43.45870672964596" lon="5.773123780276623"><ele>572.5</ele><time>2026-03-28T14:56:40Z</time></trkpt><trkpt lat="43.45870637637553" lon="5.7733210685927006"><ele>574.0</ele><time>2026-03-28T14:56:41Z</time></trkpt><trkpt lat="43.45870331469103" lon="5.773464476099602"><ele>577.5</ele><time>2026-03-28T14:56:42Z</time></trkpt><trkpt lat="43.458699821059916" lon="5.773635630913212"><ele>581.0</ele><time>2026-03-28T14:56:43Z</time></trkpt><trkpt lat="43.45868421101185" lon="5.773772413755047"><ele>584.5</ele><time>2026-03-28T14:56:44Z</time></trkpt><trkpt lat="43.45866655335012" lon="5.773937679456724"><ele>588.0</ele><time>2026-03-28T14:56:45Z</time></trkpt><trkpt lat="43.45862623448783" lon="5.774120490417726"><ele>588.0</ele><time>2026-03-28T14:56:46Z</time></trkpt><trkpt lat="43.458579494587354" lon="5.774268422242955"><ele>588.0</ele><time>2026-03-28T14:56:47Z</time></trkpt><trkpt lat="43.458523847599814" lon="5.774386226525915"><ele>588.0</ele><time>2026-03-28T14:56:48Z</time></trkpt><trkpt lat="43.45845792300407" lon="5.774516602060083"><ele>588.0</ele><time>2026-03-28T14:56:49Z</time></trkpt><trkpt lat="43.45839018773956" lon="5.77464879170081"><ele>592.5</ele><time>2026-03-28T14:56:50Z</time></trkpt><trkpt lat="43.45830623396045" lon="5.774786847197477"><ele>597.0</ele><time>2026-03-28T14:56:51Z</time></trkpt><trkpt lat="43.4582323906392" lon="5.774926442585723"><ele>601.5</ele><time>2026-03-28T14:56:52Z</time></trkpt><trkpt lat="43.45816157185432" lon="5.775049046148029"><ele>606.0</ele><time>2026-03-28T14:56:53Z</time></trkpt><trkpt lat="43.45808951480635" lon="5.775148017485295"><ele>607.0</ele><time>2026-03-28T14:56:54Z</time></trkpt><trkpt lat="43.45802026466457" lon="5.775232063045222"><ele>608.0</ele><time>2026-03-28T14:56:55Z</time></trkpt><trkpt lat="43.4579488827639" lon="5.775322638249715"><ele>609.0</ele><time>2026-03-28T14:56:56Z</time></trkpt><trkpt lat="43.45788249617535" lon="5.775470380627245"><ele>610.0</ele><time>2026-03-28T14:56:57Z</time></trkpt><trkpt lat="43.45784412109679" lon="5.775618643261891"><ele>611.0</ele><time>2026-03-28T14:56:58Z</time></trkpt><trkpt lat="43.45782030484846" lon="5.775776026293658"><ele>611.0</ele><time>2026-03-28T14:56:59Z</time></trkpt><trkpt lat="43.457780247766784" lon="5.775956893118417"><ele>611.0</ele><time>2026-03-28T14:57:00Z</time></trkpt><trkpt lat="43.457725447815264" lon="5.776146023120175"><ele>611.0</ele><time>2026-03-28T14:57:01Z</time></trkpt><trkpt lat="43.4576820146413" lon="5.776310583337686"><ele>611.0</ele><time>2026-03-28T14:57:02Z</time></trkpt><trkpt lat="43.45763568816284" lon="5.776444926056653"><ele>613.0</ele><time>2026-03-28T14:57:03Z</time></trkpt><trkpt lat="43.4575949461177" lon="5.776555170098854"><ele>615.0</ele><time>2026-03-28T14:57:04Z</time></trkpt><trkpt lat="43.45754728435684" lon="5.776636969355303"><ele>617.0</ele><time>2026-03-28T14:57:05Z</time></trkpt><trkpt lat="43.45747511067982" lon="5.776626724729177"><ele>619.0</ele><time>2026-03-28T14:57:49Z</time></trkpt><trkpt lat="43.45739683039386" lon="5.776564630322491"><ele>621.0</ele><time>2026-03-28T14:57:51Z</time></trkpt><trkpt lat="43.457361979948224" lon="5.776487165367508"><ele>623.0</ele><time>2026-03-28T14:57:52Z</time></trkpt><trkpt lat="43.457316342681295" lon="5.776358634481451"><ele>623.0</ele><time>2026-03-28T14:57:53Z</time></trkpt><trkpt lat="43.4572618640237" lon="5.776205060945115"><ele>623.0</ele><time>2026-03-28T14:57:54Z</time></trkpt><trkpt lat="43.45719766383122" lon="5.7760426269119"><ele>623.0</ele><time>2026-03-28T14:57:55Z</time></trkpt><trkpt lat="43.45715009686523" lon="5.77592069941779"><ele>623.0</ele><time>2026-03-28T14:57:56Z</time></trkpt><trkpt lat="43.45710461513582" lon="5.775818079496587"><ele>623.0</ele><time>2026-03-28T14:57:57Z</time></trkpt><trkpt lat="43.45705662083716" lon="5.775722547319449"><ele>624.6</ele><time>2026-03-28T14:57:58Z</time></trkpt><trkpt lat="43.45702128625675" lon="5.775634043086227"><ele>626.1999999999999</ele><time>2026-03-28T14:57:59Z</time></trkpt><trkpt lat="43.45698623407187" lon="5.775561487085452"><ele>627.8</ele><time>2026-03-28T14:58:00Z</time></trkpt><trkpt lat="43.45683505720469" lon="5.775463915475467"><ele>629.4</ele><time>2026-03-28T14:58:02Z</time></trkpt><trkpt lat="43.456740863094474" lon="5.77541806232563"><ele>631.0</ele><time>2026-03-28T14:58:03Z</time></trkpt><trkpt lat="43.456658550067544" lon="5.775368835999509"><ele>631.0</ele><time>2026-03-28T14:58:04Z</time></trkpt><trkpt lat="43.45660089573875" lon="5.775308617339565"><ele>631.0</ele><time>2026-03-28T14:58:05Z</time></trkpt><trkpt lat="43.45653637826773" lon="5.775278058979778"><ele>631.0</ele><time>2026-03-28T14:58:06Z</time></trkpt><trkpt lat="43.456459562558535" lon="5.7752916711318"><ele>631.0</ele><time>2026-03-28T14:58:07Z</time></trkpt><trkpt lat="43.456379582087806" lon="5.775337120913135"><ele>631.0</ele><time>2026-03-28T14:58:08Z</time></trkpt><trkpt lat="43.45626681184088" lon="5.775407979773954"><ele>631.0</ele><time>2026-03-28T14:58:09Z</time></trkpt><trkpt lat="43.45615971347889" lon="5.775464159185364"><ele>631.4</ele><time>2026-03-28T14:58:10Z</time></trkpt><trkpt lat="43.456049366159135" lon="5.775475202030217"><ele>631.8</ele><time>2026-03-28T14:58:11Z</time></trkpt><trkpt lat="43.45594567670196" lon="5.775504424215352"><ele>632.1999999999999</ele><time>2026-03-28T14:58:12Z</time></trkpt><trkpt lat="43.45588155092649" lon="5.7755655147374005"><ele>632.6</ele><time>2026-03-28T14:58:13Z</time></trkpt><trkpt lat="43.45579086794264" lon="5.775587740952233"><ele>633.0</ele><time>2026-03-28T14:58:14Z</time></trkpt><trkpt lat="43.45568978264763" lon="5.775637751596788"><ele>633.0</ele><time>2026-03-28T14:58:15Z</time></trkpt><trkpt lat="43.455589167254246" lon="5.775706563006204"><ele>633.0</ele><time>2026-03-28T14:58:16Z</time></trkpt><trkpt lat="43.455503474923596" lon="5.775756216825687"><ele>633.0</ele><time>2026-03-28T14:58:16.999Z</time></trkpt><trkpt lat="43.45544078700154" lon="5.775772615158192"><ele>633.0</ele><time>2026-03-28T14:58:17.999Z</time></trkpt><trkpt lat="43.45534233785055" lon="5.775853729174184"><ele>633.0</ele><time>2026-03-28T14:58:19.999Z</time></trkpt><trkpt lat="43.45530612096633" lon="5.775941707365827"><ele>634.4</ele><time>2026-03-28T14:58:20.999Z</time></trkpt><trkpt lat="43.45527481200913" lon="5.776060766584996"><ele>635.8</ele><time>2026-03-28T14:58:21.999Z</time></trkpt><trkpt lat="43.45524123753624" lon="5.776200349050896"><ele>637.2</ele><time>2026-03-28T14:58:22.999Z</time></trkpt><trkpt lat="43.455207839318184" lon="5.776348917976639"><ele>638.6</ele><time>2026-03-28T14:58:24Z</time></trkpt><trkpt lat="43.455191363026536" lon="5.776474216850517"><ele>640.0</ele><time>2026-03-28T14:58:25Z</time></trkpt><trkpt lat="43.45517619888703" lon="5.776588349609406"><ele>640.0</ele><time>2026-03-28T14:58:26Z</time></trkpt><trkpt lat="43.45516141364965" lon="5.776721730380541"><ele>640.0</ele><time>2026-03-28T14:58:27Z</time></trkpt><trkpt lat="43.45514473608356" lon="5.776868560514946"><ele>640.0</ele><time>2026-03-28T14:58:28Z</time></trkpt><trkpt lat="43.455129796649814" lon="5.777005460167167"><ele>640.0</ele><time>2026-03-28T14:58:29Z</time></trkpt><trkpt lat="43.455097756405856" lon="5.777147619315469"><ele>640.0</ele><time>2026-03-28T14:58:30Z</time></trkpt><trkpt lat="43.45503921792764" lon="5.777289421394331"><ele>641.6</ele><time>2026-03-28T14:58:31Z</time></trkpt><trkpt lat="43.45497255201049" lon="5.777412374913665"><ele>643.2</ele><time>2026-03-28T14:58:32Z</time></trkpt><trkpt lat="43.45489001135823" lon="5.777529840769037"><ele>644.8</ele><time>2026-03-28T14:58:33Z</time></trkpt><trkpt lat="43.45481291489112" lon="5.777636736243382"><ele>646.4</ele><time>2026-03-28T14:58:34Z</time></trkpt><trkpt lat="43.454765368567266" lon="5.777738244823787"><ele>648.0</ele><time>2026-03-28T14:58:35Z</time></trkpt><trkpt lat="43.45471897058854" lon="5.7778552063577395"><ele>649.4</ele><time>2026-03-28T14:58:36Z</time></trkpt><trkpt lat="43.45469344273047" lon="5.7780026722312545"><ele>650.8</ele><time>2026-03-28T14:58:37Z</time></trkpt><trkpt lat="43.45468835717422" lon="5.778121524563688"><ele>652.2</ele><time>2026-03-28T14:58:38Z</time></trkpt><trkpt lat="43.45470153340796" lon="5.778229780058661"><ele>653.6</ele><time>2026-03-28T14:58:40Z</time></trkpt><trkpt lat="43.45466781076412" lon="5.778336840289009"><ele>655.0</ele><time>2026-03-28T14:58:50Z</time></trkpt><trkpt lat="43.45462893495203" lon="5.778464436078392"><ele>653.0</ele><time>2026-03-28T14:58:51Z</time></trkpt><trkpt lat="43.454590134951644" lon="5.778623942703396"><ele>651.0</ele><time>2026-03-28T14:58:52Z</time></trkpt><trkpt lat="43.45455247333766" lon="5.778760833749145"><ele>649.0</ele><time>2026-03-28T14:58:53Z</time></trkpt><trkpt lat="43.45450717402318" lon="5.778881635083335"><ele>647.0</ele><time>2026-03-28T14:58:54Z</time></trkpt><trkpt lat="43.45446419870957" lon="5.77900285569465"><ele>645.0</ele><time>2026-03-28T14:58:55Z</time></trkpt><trkpt lat="43.45442746745138" lon="5.779116205748933"><ele>645.0</ele><time>2026-03-28T14:58:56Z</time></trkpt><trkpt lat="43.45440053330069" lon="5.779217849145249"><ele>645.0</ele><time>2026-03-28T14:58:57Z</time></trkpt><trkpt lat="43.45439207210685" lon="5.779307016847785"><ele>645.0</ele><time>2026-03-28T14:58:58Z</time></trkpt><trkpt lat="43.4543477098796" lon="5.779369266976972"><ele>645.0</ele><time>2026-03-28T14:58:59Z</time></trkpt><trkpt lat="43.45426764627689" lon="5.779437097855562"><ele>645.0</ele><time>2026-03-28T14:59:01Z</time></trkpt><trkpt lat="43.454166123920544" lon="5.779404358948779"><ele>645.0</ele><time>2026-03-28T14:59:14Z</time></trkpt><trkpt lat="43.45409227610725" lon="5.779373129677962"><ele>645.0</ele><time>2026-03-28T14:59:15Z</time></trkpt><trkpt lat="43.454019638301695" lon="5.779347514271365"><ele>645.0</ele><time>2026-03-28T14:59:16Z</time></trkpt><trkpt lat="43.45395304300724" lon="5.77934853287255"><ele>645.0</ele><time>2026-03-28T14:59:17Z</time></trkpt><trkpt lat="43.4538927715757" lon="5.779388538554412"><ele>645.0</ele><time>2026-03-28T14:59:18Z</time></trkpt><trkpt lat="43.453839875789235" lon="5.7794604766495326"><ele>645.0</ele><time>2026-03-28T14:59:19Z</time></trkpt><trkpt lat="43.453807500400345" lon="5.779545018342522"><ele>645.0</ele><time>2026-03-28T14:59:20Z</time></trkpt><trkpt lat="43.453771878682204" lon="5.77964389828937"><ele>645.0</ele><time>2026-03-28T14:59:21Z</time></trkpt><trkpt lat="43.45372610768582" lon="5.779708273457119"><ele>644.2857142857143</ele><time>2026-03-28T14:59:22Z</time></trkpt><trkpt lat="43.45367057643585" lon="5.77975756746615"><ele>643.5714285714286</ele><time>2026-03-28T14:59:23Z</time></trkpt><trkpt lat="43.45359989997382" lon="5.779782966145315"><ele>642.8571428571429</ele><time>2026-03-28T14:59:24Z</time></trkpt><trkpt lat="43.453518002133315" lon="5.779803607473984"><ele>642.1428571428571</ele><time>2026-03-28T14:59:25Z</time></trkpt><trkpt lat="43.45345447930877" lon="5.779874582565631"><ele>641.4285714285714</ele><time>2026-03-28T14:59:26Z</time></trkpt><trkpt lat="43.45341702810206" lon="5.779960838220636"><ele>640.7142857142857</ele><time>2026-03-28T14:59:27Z</time></trkpt><trkpt lat="43.45340914925069" lon="5.780056216219452"><ele>640.0</ele><time>2026-03-28T14:59:28Z</time></trkpt><trkpt lat="43.45344921709533" lon="5.780157531437398"><ele>640.4</ele><time>2026-03-28T14:59:29Z</time></trkpt><trkpt lat="43.45350340109524" lon="5.780267880067787"><ele>640.8</ele><time>2026-03-28T14:59:30Z</time></trkpt><trkpt lat="43.45355021471556" lon="5.780391242929703"><ele>641.2</ele><time>2026-03-28T14:59:31Z</time></trkpt><trkpt lat="43.45354372912684" lon="5.780517000350644"><ele>641.6</ele><time>2026-03-28T14:59:32Z</time></trkpt><trkpt lat="43.45356655543523" lon="5.780640134866055"><ele>642.0</ele><time>2026-03-28T14:59:33Z</time></trkpt><trkpt lat="43.453606352531594" lon="5.780780884773866"><ele>642.0</ele><time>2026-03-28T14:59:34Z</time></trkpt><trkpt lat="43.45364113746651" lon="5.780906072376241"><ele>642.0</ele><time>2026-03-28T14:59:35Z</time></trkpt><trkpt lat="43.453658742113156" lon="5.781005585430374"><ele>642.0</ele><time>2026-03-28T14:59:36Z</time></trkpt><trkpt lat="43.45365016200528" lon="5.78114000754703"><ele>642.0</ele><time>2026-03-28T14:59:37Z</time></trkpt><trkpt lat="43.453630106886486" lon="5.781271008008932"><ele>642.0</ele><time>2026-03-28T14:59:38Z</time></trkpt><trkpt lat="43.45359319692805" lon="5.78137518342173"><ele>639.5</ele><time>2026-03-28T14:59:39Z</time></trkpt><trkpt lat="43.453542661965045" lon="5.7814512223946775"><ele>637.0</ele><time>2026-03-28T14:59:40Z</time></trkpt><trkpt lat="43.45348336712641" lon="5.781515547527013"><ele>634.5</ele><time>2026-03-28T14:59:41Z</time></trkpt><trkpt lat="43.453416070766686" lon="5.781576146727751"><ele>632.0</ele><time>2026-03-28T14:59:42Z</time></trkpt><trkpt lat="43.453351495290995" lon="5.7816360932141135"><ele>629.5</ele><time>2026-03-28T14:59:43Z</time></trkpt><trkpt lat="43.45328621721902" lon="5.781666439318638"><ele>627.0</ele><time>2026-03-28T14:59:44Z</time></trkpt><trkpt lat="43.45315895739106" lon="5.7817191834349"><ele>627.0</ele><time>2026-03-28T14:59:46Z</time></trkpt><trkpt lat="43.45307760241376" lon="5.781747081180821"><ele>627.0</ele><time>2026-03-28T14:59:47Z</time></trkpt><trkpt lat="43.452969946580865" lon="5.781738170699273"><ele>627.0</ele><time>2026-03-28T14:59:48Z</time></trkpt><trkpt lat="43.45285874264984" lon="5.781721558285314"><ele>627.0</ele><time>2026-03-28T14:59:49Z</time></trkpt><trkpt lat="43.452764422415534" lon="5.781731112962267"><ele>627.0</ele><time>2026-03-28T14:59:50Z</time></trkpt><trkpt lat="43.452683986437364" lon="5.781736662218261"><ele>627.1666666666666</ele><time>2026-03-28T14:59:51Z</time></trkpt><trkpt lat="43.45260207108641" lon="5.781768845939912"><ele>627.3333333333334</ele><time>2026-03-28T14:59:52Z</time></trkpt><trkpt lat="43.45251360991483" lon="5.781814702968676"><ele>627.5</ele><time>2026-03-28T14:59:53Z</time></trkpt><trkpt lat="43.452423520378" lon="5.781861300336036"><ele>627.6666666666667</ele><time>2026-03-28T14:59:54Z</time></trkpt><trkpt lat="43.45236231762912" lon="5.781932865611243"><ele>627.8333333333334</ele><time>2026-03-28T14:59:55Z</time></trkpt><trkpt lat="43.45234493076129" lon="5.782043521072524"><ele>628.0</ele><time>2026-03-28T14:59:56Z</time></trkpt><trkpt lat="43.45235919620792" lon="5.782156731545455"><ele>628.0</ele><time>2026-03-28T14:59:57Z</time></trkpt><trkpt lat="43.45240256207967" lon="5.782269709502737"><ele>628.0</ele><time>2026-03-28T14:59:58Z</time></trkpt><trkpt lat="43.45247161126672" lon="5.782404133851545"><ele>628.0</ele><time>2026-03-28T14:59:59Z</time></trkpt><trkpt lat="43.452517150486024" lon="5.782534418750235"><ele>628.0</ele><time>2026-03-28T15:00:00Z</time></trkpt><trkpt lat="43.452546833889926" lon="5.782642899679192"><ele>628.0</ele><time>2026-03-28T15:00:01Z</time></trkpt><trkpt lat="43.452576792209754" lon="5.782750391684059"><ele>628.0</ele><time>2026-03-28T15:00:02Z</time></trkpt><trkpt lat="43.452605285485284" lon="5.782854414749282"><ele>628.0</ele><time>2026-03-28T15:00:03Z</time></trkpt><trkpt lat="43.4526049337742" lon="5.783002747211898"><ele>628.0</ele><time>2026-03-28T15:00:04Z</time></trkpt><trkpt lat="43.45261889413656" lon="5.783137691566559"><ele>628.0</ele><time>2026-03-28T15:00:05Z</time></trkpt><trkpt lat="43.45260332023301" lon="5.783254419077952"><ele>628.0</ele><time>2026-03-28T15:00:06Z</time></trkpt><trkpt lat="43.45259906652544" lon="5.783385240425321"><ele>627.1666666666667</ele><time>2026-03-28T15:00:07Z</time></trkpt><trkpt lat="43.45259974105858" lon="5.783525666640654"><ele>626.3333333333334</ele><time>2026-03-28T15:00:08Z</time></trkpt><trkpt lat="43.452601221794865" lon="5.78365182616266"><ele>625.5</ele><time>2026-03-28T15:00:09Z</time></trkpt><trkpt lat="43.452589723080926" lon="5.783760634083159"><ele>624.6666666666666</ele><time>2026-03-28T15:00:10Z</time></trkpt><trkpt lat="43.45255322742522" lon="5.783835522162463"><ele>623.8333333333333</ele><time>2026-03-28T15:00:10.999Z</time></trkpt><trkpt lat="43.45249384840582" lon="5.783866766134499"><ele>623.0</ele><time>2026-03-28T15:00:11.999Z</time></trkpt><trkpt lat="43.45242080223323" lon="5.783867290142744"><ele>623.0</ele><time>2026-03-28T15:00:12.999Z</time></trkpt><trkpt lat="43.4523329740266" lon="5.783851497268784"><ele>623.0</ele><time>2026-03-28T15:00:13.999Z</time></trkpt><trkpt lat="43.45223068640268" lon="5.783838403742048"><ele>623.0</ele><time>2026-03-28T15:00:14.999Z</time></trkpt><trkpt lat="43.45213725847508" lon="5.783822516692507"><ele>623.0</ele><time>2026-03-28T15:00:15.999Z</time></trkpt><trkpt lat="43.452070597461365" lon="5.783798304683298"><ele>623.0</ele><time>2026-03-28T15:00:16.999Z</time></trkpt><trkpt lat="43.45200230057291" lon="5.783796805879954"><ele>623.0</ele><time>2026-03-28T15:00:17.999Z</time></trkpt><trkpt lat="43.451930222804705" lon="5.783734120899159"><ele>623.8333333333333</ele><time>2026-03-28T15:00:18.999Z</time></trkpt><trkpt lat="43.451866848159796" lon="5.783698351684087"><ele>624.6666666666666</ele><time>2026-03-28T15:00:19.999Z</time></trkpt><trkpt lat="43.45179899143701" lon="5.783720043812828"><ele>625.5</ele><time>2026-03-28T15:00:20.999Z</time></trkpt><trkpt lat="43.45173859302231" lon="5.783795427802828"><ele>626.3333333333334</ele><time>2026-03-28T15:00:21.999Z</time></trkpt><trkpt lat="43.45172259932123" lon="5.783907754103784"><ele>627.1666666666667</ele><time>2026-03-28T15:00:22.999Z</time></trkpt><trkpt lat="43.45175080017625" lon="5.784008737082595"><ele>628.0</ele><time>2026-03-28T15:00:23.999Z</time></trkpt><trkpt lat="43.45178587553428" lon="5.784123309197982"><ele>628.0</ele><time>2026-03-28T15:00:25.999Z</time></trkpt><trkpt lat="43.45178317437565" lon="5.784216185759498"><ele>628.0</ele><time>2026-03-28T15:00:26.999Z</time></trkpt><trkpt lat="43.451689091595895" lon="5.784287474151561"><ele>628.0</ele><time>2026-03-28T15:00:28.999Z</time></trkpt><trkpt lat="43.45162525628863" lon="5.784282343804198"><ele>628.0</ele><time>2026-03-28T15:00:30Z</time></trkpt><trkpt lat="43.45156742815089" lon="5.784334652695711"><ele>628.0</ele><time>2026-03-28T15:00:31Z</time></trkpt><trkpt lat="43.45155123933171" lon="5.784510535003814"><ele>628.0</ele><time>2026-03-28T15:00:33Z</time></trkpt><trkpt lat="43.451596545274846" lon="5.784593238449137"><ele>626.4</ele><time>2026-03-28T15:00:34Z</time></trkpt><trkpt lat="43.451629918462054" lon="5.7846888818943984"><ele>624.8</ele><time>2026-03-28T15:00:35Z</time></trkpt><trkpt lat="43.451593422813566" lon="5.7848197881945165"><ele>623.2</ele><time>2026-03-28T15:00:37Z</time></trkpt><trkpt lat="43.45154522287213" lon="5.78488864229445"><ele>621.6</ele><time>2026-03-28T15:00:38Z</time></trkpt><trkpt lat="43.45151723412407" lon="5.784969681841434"><ele>620.0</ele><time>2026-03-28T15:00:39Z</time></trkpt><trkpt lat="43.4515815601638" lon="5.785147282864626"><ele>620.6</ele><time>2026-03-28T15:00:41Z</time></trkpt><trkpt lat="43.45163567689231" lon="5.785252835399989"><ele>621.2</ele><time>2026-03-28T15:00:42Z</time></trkpt><trkpt lat="43.451663678266996" lon="5.785363604036091"><ele>621.8</ele><time>2026-03-28T15:00:43Z</time></trkpt><trkpt lat="43.45166601092546" lon="5.785496726514647"><ele>622.4</ele><time>2026-03-28T15:00:44Z</time></trkpt><trkpt lat="43.451659428870066" lon="5.785645571941482"><ele>623.0</ele><time>2026-03-28T15:00:45Z</time></trkpt><trkpt lat="43.45162586120575" lon="5.785752421096784"><ele>623.0</ele><time>2026-03-28T15:00:46Z</time></trkpt><trkpt lat="43.45157573478614" lon="5.78585200482704"><ele>623.0</ele><time>2026-03-28T15:00:47Z</time></trkpt><trkpt lat="43.45154101072353" lon="5.785981904058787"><ele>623.0</ele><time>2026-03-28T15:00:48Z</time></trkpt><trkpt lat="43.45152851402793" lon="5.786140724074046"><ele>623.0</ele><time>2026-03-28T15:00:49Z</time></trkpt><trkpt lat="43.451528798406216" lon="5.786251664758613"><ele>623.0</ele><time>2026-03-28T15:00:50Z</time></trkpt><trkpt lat="43.45151316628529" lon="5.786343769713916"><ele>623.8</ele><time>2026-03-28T15:00:51Z</time></trkpt><trkpt lat="43.4514709312829" lon="5.786423065244439"><ele>624.5999999999999</ele><time>2026-03-28T15:00:52Z</time></trkpt><trkpt lat="43.45140403990674" lon="5.786521766891058"><ele>625.4000000000001</ele><time>2026-03-28T15:00:53Z</time></trkpt><trkpt lat="43.45137141127391" lon="5.7866602164303025"><ele>626.2</ele><time>2026-03-28T15:00:54Z</time></trkpt><trkpt lat="43.451385072592856" lon="5.786782352859408"><ele>627.0</ele><time>2026-03-28T15:00:55Z</time></trkpt><trkpt lat="43.45144160927333" lon="5.786899056188728"><ele>627.8000000000001</ele><time>2026-03-28T15:00:56Z</time></trkpt><trkpt lat="43.45149101269754" lon="5.787049563170436"><ele>628.6</ele><time>2026-03-28T15:00:57Z</time></trkpt><trkpt lat="43.45148403516535" lon="5.787181102548691"><ele>629.4000000000001</ele><time>2026-03-28T15:00:58Z</time></trkpt><trkpt lat="43.451461536451056" lon="5.78733043048699"><ele>630.2</ele><time>2026-03-28T15:00:59Z</time></trkpt><trkpt lat="43.45143992847546" lon="5.787453592868017"><ele>631.0</ele><time>2026-03-28T15:01:00Z</time></trkpt><trkpt lat="43.45142773273364" lon="5.787557136889835"><ele>631.0</ele><time>2026-03-28T15:01:01Z</time></trkpt><trkpt lat="43.451402272999054" lon="5.787657021676321"><ele>631.0</ele><time>2026-03-28T15:01:02Z</time></trkpt><trkpt lat="43.45135262734636" lon="5.787751966393327"><ele>631.0</ele><time>2026-03-28T15:01:03Z</time></trkpt><trkpt lat="43.451297570062636" lon="5.787837222581529"><ele>631.0</ele><time>2026-03-28T15:01:04Z</time></trkpt><trkpt lat="43.45119779543902" lon="5.7879442284578255"><ele>631.0</ele><time>2026-03-28T15:01:05Z</time></trkpt><trkpt lat="43.45109569025756" lon="5.788057800740577"><ele>630.0</ele><time>2026-03-28T15:01:06Z</time></trkpt><trkpt lat="43.45101046460165" lon="5.7881717682860705"><ele>629.0</ele><time>2026-03-28T15:01:07Z</time></trkpt><trkpt lat="43.45095770047835" lon="5.788292892919048"><ele>628.0</ele><time>2026-03-28T15:01:08Z</time></trkpt><trkpt lat="43.450906642971844" lon="5.788403200535421"><ele>627.0</ele><time>2026-03-28T15:01:09Z</time></trkpt><trkpt lat="43.45085457614519" lon="5.7885082191807795"><ele>626.0</ele><time>2026-03-28T15:01:10Z</time></trkpt><trkpt lat="43.45078872691056" lon="5.788582078148212"><ele>625.3333333333333</ele><time>2026-03-28T15:01:11Z</time></trkpt><trkpt lat="43.45072782402613" lon="5.788670917324309"><ele>624.6666666666666</ele><time>2026-03-28T15:01:12Z</time></trkpt><trkpt lat="43.45066164833827" lon="5.78873771593872"><ele>624.0</ele><time>2026-03-28T15:01:13Z</time></trkpt><trkpt lat="43.450600650569655" lon="5.788796160771592"><ele>623.3333333333334</ele><time>2026-03-28T15:01:14Z</time></trkpt><trkpt lat="43.45052305485413" lon="5.7888406777265855"><ele>622.6666666666667</ele><time>2026-03-28T15:01:15Z</time></trkpt><trkpt lat="43.45044552884347" lon="5.78887695513862"><ele>622.0</ele><time>2026-03-28T15:01:16Z</time></trkpt><trkpt lat="43.45038261730628" lon="5.788943915815897"><ele>622.0</ele><time>2026-03-28T15:01:17Z</time></trkpt><trkpt lat="43.45034640095751" lon="5.789078130302341"><ele>622.0</ele><time>2026-03-28T15:01:18Z</time></trkpt><trkpt lat="43.450318727556976" lon="5.789207538468551"><ele>622.0</ele><time>2026-03-28T15:01:19Z</time></trkpt><trkpt lat="43.45029573086371" lon="5.789324314311915"><ele>622.0</ele><time>2026-03-28T15:01:20Z</time></trkpt><trkpt lat="43.45026718325878" lon="5.789427057155753"><ele>622.0</ele><time>2026-03-28T15:01:21Z</time></trkpt><trkpt lat="43.450241323035215" lon="5.789529050013928"><ele>622.0</ele><time>2026-03-28T15:01:22Z</time></trkpt><trkpt lat="43.45019705508651" lon="5.789611398655967"><ele>619.8333333333334</ele><time>2026-03-28T15:01:23Z</time></trkpt><trkpt lat="43.45015100616018" lon="5.789672510550912"><ele>617.6666666666667</ele><time>2026-03-28T15:01:24Z</time></trkpt><trkpt lat="43.450088534015656" lon="5.789709884986468"><ele>615.5</ele><time>2026-03-28T15:01:25Z</time></trkpt><trkpt lat="43.4499782600274" lon="5.78967310205636"><ele>613.3333333333334</ele><time>2026-03-28T15:01:27Z</time></trkpt><trkpt lat="43.449895040148235" lon="5.78960508650245"><ele>611.1666666666666</ele><time>2026-03-28T15:01:28Z</time></trkpt><trkpt lat="43.44980365491397" lon="5.789543942925942"><ele>609.0</ele><time>2026-03-28T15:01:29Z</time></trkpt><trkpt lat="43.44969243326378" lon="5.789614262487485"><ele>609.0</ele><time>2026-03-28T15:01:31Z</time></trkpt><trkpt lat="43.44966848765411" lon="5.789711214412808"><ele>609.0</ele><time>2026-03-28T15:01:32Z</time></trkpt><trkpt lat="43.449664340383066" lon="5.789854725795058"><ele>609.0</ele><time>2026-03-28T15:01:33Z</time></trkpt><trkpt lat="43.449661943066886" lon="5.790029460686419"><ele>609.0</ele><time>2026-03-28T15:01:34Z</time></trkpt><trkpt lat="43.44966484359954" lon="5.790186682098841"><ele>609.0</ele><time>2026-03-28T15:01:35Z</time></trkpt><trkpt lat="43.44968365360378" lon="5.790296308160251"><ele>610.0</ele><time>2026-03-28T15:01:36Z</time></trkpt><trkpt lat="43.44969821280361" lon="5.7904024657450055"><ele>611.0</ele><time>2026-03-28T15:01:37Z</time></trkpt><trkpt lat="43.44969470053373" lon="5.790558327702164"><ele>612.0</ele><time>2026-03-28T15:01:39Z</time></trkpt><trkpt lat="43.44968916207088" lon="5.790652994845086"><ele>613.0</ele><time>2026-03-28T15:01:40Z</time></trkpt><trkpt lat="43.44963767461882" lon="5.790749498752897"><ele>614.0</ele><time>2026-03-28T15:01:42Z</time></trkpt><trkpt lat="43.449546068581476" lon="5.790707029726361"><ele>615.0</ele><time>2026-03-28T15:01:44Z</time></trkpt><trkpt lat="43.449483714625096" lon="5.790657338570989"><ele>615.0</ele><time>2026-03-28T15:01:45Z</time></trkpt><trkpt lat="43.44941910065939" lon="5.79060953412383"><ele>615.0</ele><time>2026-03-28T15:01:46Z</time></trkpt><trkpt lat="43.44934983123341" lon="5.790643766697138"><ele>615.0</ele><time>2026-03-28T15:01:47Z</time></trkpt><trkpt lat="43.449304597978454" lon="5.790725764445367"><ele>615.0</ele><time>2026-03-28T15:01:48Z</time></trkpt><trkpt lat="43.44928494408725" lon="5.790828897715998"><ele>615.0</ele><time>2026-03-28T15:01:49Z</time></trkpt><trkpt lat="43.44926859686106" lon="5.7909546358091015"><ele>615.0</ele><time>2026-03-28T15:01:50Z</time></trkpt><trkpt lat="43.449286527315515" lon="5.791081963009387"><ele>611.0</ele><time>2026-03-28T15:01:51Z</time></trkpt><trkpt lat="43.4493040222661" lon="5.7911864635508925"><ele>607.0</ele><time>2026-03-28T15:01:52Z</time></trkpt><trkpt lat="43.44931252843753" lon="5.79128055114771"><ele>603.0</ele><time>2026-03-28T15:01:53Z</time></trkpt><trkpt lat="43.44923715855239" lon="5.7914142702140055"><ele>599.0</ele><time>2026-03-28T15:01:55Z</time></trkpt><trkpt lat="43.44911699488161" lon="5.7914268673255425"><ele>595.0</ele><time>2026-03-28T15:01:57Z</time></trkpt><trkpt lat="43.44902838332377" lon="5.79150271292361"><ele>595.0</ele><time>2026-03-28T15:01:59Z</time></trkpt><trkpt lat="43.44901654226727" lon="5.7915992546360195"><ele>595.0</ele><time>2026-03-28T15:02:00Z</time></trkpt><trkpt lat="43.449033939270784" lon="5.79168927185579"><ele>595.0</ele><time>2026-03-28T15:02:01Z</time></trkpt><trkpt lat="43.449090988222586" lon="5.791825531450905"><ele>595.0</ele><time>2026-03-28T15:02:03Z</time></trkpt><trkpt lat="43.44900908119448" lon="5.79191006620761"><ele>595.0</ele><time>2026-03-28T15:02:05Z</time></trkpt><trkpt lat="43.44894512054397" lon="5.791910092564737"><ele>595.0</ele><time>2026-03-28T15:02:06Z</time></trkpt><trkpt lat="43.44880240459605" lon="5.791842682371069"><ele>599.6</ele><time>2026-03-28T15:02:08Z</time></trkpt><trkpt lat="43.4487396671529" lon="5.791745808213314"><ele>604.2</ele><time>2026-03-28T15:02:08.999Z</time></trkpt><trkpt lat="43.448652987906215" lon="5.791711858549366"><ele>608.8</ele><time>2026-03-28T15:02:10.999Z</time></trkpt><trkpt lat="43.448643975766856" lon="5.7918613913460675"><ele>613.4</ele><time>2026-03-28T15:02:11.999Z</time></trkpt><trkpt lat="43.44864744030487" lon="5.791968966362884"><ele>618.0</ele><time>2026-03-28T15:02:12.999Z</time></trkpt><trkpt lat="43.44868057304254" lon="5.792196806868232"><ele>618.0</ele><time>2026-03-28T15:02:13.999Z</time></trkpt><trkpt lat="43.448704073787525" lon="5.79235676403107"><ele>618.0</ele><time>2026-03-28T15:02:14.999Z</time></trkpt><trkpt lat="43.44873392281697" lon="5.7925114587823705"><ele>618.0</ele><time>2026-03-28T15:02:15.999Z</time></trkpt><trkpt lat="43.44875561365464" lon="5.792624579401008"><ele>618.0</ele><time>2026-03-28T15:02:16.999Z</time></trkpt><trkpt lat="43.4487779402468" lon="5.792709981634982"><ele>618.0</ele><time>2026-03-28T15:02:17.999Z</time></trkpt><trkpt lat="43.44881546657749" lon="5.792811760308625"><ele>611.8</ele><time>2026-03-28T15:02:18.999Z</time></trkpt><trkpt lat="43.44887122468727" lon="5.792866339368827"><ele>605.5999999999999</ele><time>2026-03-28T15:02:19.999Z</time></trkpt><trkpt lat="43.4489794470395" lon="5.79292206916845"><ele>599.4000000000001</ele><time>2026-03-28T15:02:21.999Z</time></trkpt><trkpt lat="43.44894238459781" lon="5.793046482593506"><ele>593.2</ele><time>2026-03-28T15:02:23.999Z</time></trkpt><trkpt lat="43.448902877126265" lon="5.793245186440066"><ele>587.0</ele><time>2026-03-28T15:02:25.999Z</time></trkpt><trkpt lat="43.448920614992474" lon="5.79333779340607"><ele>587.0</ele><time>2026-03-28T15:02:26.999Z</time></trkpt><trkpt lat="43.448959653176125" lon="5.793422227635416"><ele>587.0</ele><time>2026-03-28T15:02:27.999Z</time></trkpt><trkpt lat="43.449056317802295" lon="5.793422305572876"><ele>587.0</ele><time>2026-03-28T15:02:29.999Z</time></trkpt><trkpt lat="43.4491209553575" lon="5.793389808864322"><ele>587.0</ele><time>2026-03-28T15:02:30.999Z</time></trkpt><trkpt lat="43.44922698295304" lon="5.79341035834559"><ele>587.0</ele><time>2026-03-28T15:02:32.999Z</time></trkpt><trkpt lat="43.44927072755297" lon="5.793547484981081"><ele>589.8000000000001</ele><time>2026-03-28T15:02:34.999Z</time></trkpt><trkpt lat="43.449295170071856" lon="5.793682021170393"><ele>592.6</ele><time>2026-03-28T15:02:37Z</time></trkpt><trkpt lat="43.449324203345476" lon="5.793771262307387"><ele>595.4000000000001</ele><time>2026-03-28T15:02:39Z</time></trkpt><trkpt lat="43.44934758861138" lon="5.793927994969155"><ele>598.2</ele><time>2026-03-28T15:02:56Z</time></trkpt><trkpt lat="43.44935179435367" lon="5.794034959065087"><ele>601.0</ele><time>2026-03-28T15:02:57Z</time></trkpt><trkpt lat="43.449305731908844" lon="5.794162657261057"><ele>601.0</ele><time>2026-03-28T15:02:59Z</time></trkpt><trkpt lat="43.449272983353445" lon="5.794262203792588"><ele>601.0</ele><time>2026-03-28T15:03:00Z</time></trkpt><trkpt lat="43.449275432524175" lon="5.79438803981647"><ele>601.0</ele><time>2026-03-28T15:03:02Z</time></trkpt><trkpt lat="43.44927690575375" lon="5.794477720365355"><ele>601.0</ele><time>2026-03-28T15:03:03Z</time></trkpt><trkpt lat="43.44926087159302" lon="5.794579525207337"><ele>601.0</ele><time>2026-03-28T15:03:04Z</time></trkpt><trkpt lat="43.44923982154586" lon="5.794669276523414"><ele>601.0</ele><time>2026-03-28T15:03:05Z</time></trkpt><trkpt lat="43.449196444837355" lon="5.794762803721865"><ele>601.8</ele><time>2026-03-28T15:03:06Z</time></trkpt><trkpt lat="43.4491582116431" lon="5.794875893557898"><ele>602.6</ele><time>2026-03-28T15:03:07Z</time></trkpt><trkpt lat="43.44911936303911" lon="5.794998431697896"><ele>603.4</ele><time>2026-03-28T15:03:08Z</time></trkpt><trkpt lat="43.44911133124722" lon="5.795107970414877"><ele>604.2</ele><time>2026-03-28T15:03:09Z</time></trkpt><trkpt lat="43.44908474856056" lon="5.795246057888783"><ele>605.0</ele><time>2026-03-28T15:03:11Z</time></trkpt><trkpt lat="43.449090720427016" lon="5.795369344290207"><ele>606.1666666666666</ele><time>2026-03-28T15:03:14Z</time></trkpt><trkpt lat="43.44910955303925" lon="5.795463056253372"><ele>607.3333333333333</ele><time>2026-03-28T15:03:15Z</time></trkpt><trkpt lat="43.449147851127826" lon="5.795589996433741"><ele>608.5</ele><time>2026-03-28T15:03:17Z</time></trkpt><trkpt lat="43.44916196409257" lon="5.795717550973266"><ele>609.6666666666666</ele><time>2026-03-28T15:03:20Z</time></trkpt><trkpt lat="43.44915966667165" lon="5.795809521261319"><ele>610.8333333333334</ele><time>2026-03-28T15:03:21Z</time></trkpt><trkpt lat="43.44914037180271" lon="5.795902074481334"><ele>612.0</ele><time>2026-03-28T15:03:22Z</time></trkpt><trkpt lat="43.44913499026844" lon="5.796048401127272"><ele>612.5</ele><time>2026-03-28T15:03:24Z</time></trkpt><trkpt lat="43.44909790461866" lon="5.796128070664799"><ele>613.0</ele><time>2026-03-28T15:03:25Z</time></trkpt><trkpt lat="43.44905311245222" lon="5.796242032586319"><ele>613.5</ele><time>2026-03-28T15:03:26Z</time></trkpt><trkpt lat="43.44907002012072" lon="5.796369529708585"><ele>614.0</ele><time>2026-03-28T15:03:28Z</time></trkpt><trkpt lat="43.44906518053494" lon="5.796492127931875"><ele>614.5</ele><time>2026-03-28T15:03:30Z</time></trkpt><trkpt lat="43.449064469258445" lon="5.796593725293303"><ele>615.0</ele><time>2026-03-28T15:03:32Z</time></trkpt><trkpt lat="43.44906187153088" lon="5.796694990871597"><ele>615.0</ele><time>2026-03-28T15:03:35Z</time></trkpt><trkpt lat="43.44899100121288" lon="5.796746269142181"><ele>615.0</ele><time>2026-03-28T15:03:37Z</time></trkpt><trkpt lat="43.4489448982567" lon="5.796901211939922"><ele>615.0</ele><time>2026-03-28T15:03:39Z</time></trkpt><trkpt lat="43.44889493960309" lon="5.796996173566363"><ele>615.0</ele><time>2026-03-28T15:03:42Z</time></trkpt><trkpt lat="43.448877895361385" lon="5.797104585330311"><ele>615.0</ele><time>2026-03-28T15:03:43Z</time></trkpt><trkpt lat="43.44885523343713" lon="5.79721127293954"><ele>615.0</ele><time>2026-03-28T15:03:44Z</time></trkpt><trkpt lat="43.448806114039094" lon="5.7973223350563305"><ele>618.6</ele><time>2026-03-28T15:03:46Z</time></trkpt><trkpt lat="43.44876380863361" lon="5.797516851215189"><ele>622.2</ele><time>2026-03-28T15:03:48Z</time></trkpt><trkpt lat="43.44872752737244" lon="5.797629926925314"><ele>625.8</ele><time>2026-03-28T15:03:49Z</time></trkpt><trkpt lat="43.44869657751881" lon="5.797707763992641"><ele>629.4</ele><time>2026-03-28T15:03:50Z</time></trkpt><trkpt lat="43.44866547846715" lon="5.797862558282926"><ele>633.0</ele><time>2026-03-28T15:03:52Z</time></trkpt><trkpt lat="43.44866007553613" lon="5.797971363490495"><ele>633.25</ele><time>2026-03-28T15:03:53Z</time></trkpt><trkpt lat="43.448625819821636" lon="5.7981356271495175"><ele>633.5</ele><time>2026-03-28T15:03:55Z</time></trkpt><trkpt lat="43.44858432115289" lon="5.798299327684299"><ele>633.75</ele><time>2026-03-28T15:03:57Z</time></trkpt><trkpt lat="43.44854919831481" lon="5.79839411661862"><ele>634.0</ele><time>2026-03-28T15:03:58Z</time></trkpt><trkpt lat="43.448544099174285" lon="5.798570615788104"><ele>634.0</ele><time>2026-03-28T15:04:00Z</time></trkpt><trkpt lat="43.448535881597024" lon="5.798707447101557"><ele>634.0</ele><time>2026-03-28T15:04:01Z</time></trkpt><trkpt lat="43.44852998934122" lon="5.798857859409007"><ele>634.0</ele><time>2026-03-28T15:04:02Z</time></trkpt><trkpt lat="43.448520364563294" lon="5.798986793811619"><ele>634.0</ele><time>2026-03-28T15:04:03Z</time></trkpt><trkpt lat="43.448513692652064" lon="5.799133773314738"><ele>634.0</ele><time>2026-03-28T15:04:03.999Z</time></trkpt><trkpt lat="43.44851012621542" lon="5.799258044415238"><ele>633.2857142857143</ele><time>2026-03-28T15:04:04.999Z</time></trkpt><trkpt lat="43.44850612872705" lon="5.799356621960638"><ele>632.5714285714286</ele><time>2026-03-28T15:04:05.999Z</time></trkpt><trkpt lat="43.44849548829773" lon="5.799449425053721"><ele>631.8571428571429</ele><time>2026-03-28T15:04:06.999Z</time></trkpt><trkpt lat="43.448474064862616" lon="5.799542983291507"><ele>631.1428571428571</ele><time>2026-03-28T15:04:07.999Z</time></trkpt><trkpt lat="43.44845411319348" lon="5.799632172155006"><ele>630.4285714285714</ele><time>2026-03-28T15:04:08.999Z</time></trkpt><trkpt lat="43.44845637676227" lon="5.799721642062911"><ele>629.7142857142857</ele><time>2026-03-28T15:04:09.999Z</time></trkpt><trkpt lat="43.44845152109699" lon="5.799812117518683"><ele>629.0</ele><time>2026-03-28T15:04:10.999Z</time></trkpt><trkpt lat="43.44844170291069" lon="5.79989994542732"><ele>629.0</ele><time>2026-03-28T15:04:11.999Z</time></trkpt><trkpt lat="43.448420507736294" lon="5.799982333139113"><ele>629.0</ele><time>2026-03-28T15:04:12.999Z</time></trkpt><trkpt lat="43.44839131006483" lon="5.8000662714078866"><ele>629.0</ele><time>2026-03-28T15:04:13.999Z</time></trkpt><trkpt lat="43.44836933377267" lon="5.800158288504615"><ele>629.0</ele><time>2026-03-28T15:04:14.999Z</time></trkpt><trkpt lat="43.44835891289327" lon="5.800260821425414"><ele>629.0</ele><time>2026-03-28T15:04:15.999Z</time></trkpt><trkpt lat="43.44834365169423" lon="5.800361958583929"><ele>629.0</ele><time>2026-03-28T15:04:16.999Z</time></trkpt><trkpt lat="43.448324248104086" lon="5.800452515069212"><ele>629.0</ele><time>2026-03-28T15:04:17.999Z</time></trkpt><trkpt lat="43.4483023825129" lon="5.80055073790203"><ele>627.0</ele><time>2026-03-28T15:04:18.999Z</time></trkpt><trkpt lat="43.44826595400664" lon="5.800710087928636"><ele>625.0</ele><time>2026-03-28T15:04:20.999Z</time></trkpt><trkpt lat="43.44824732530148" lon="5.8007939987033"><ele>623.0</ele><time>2026-03-28T15:04:21.999Z</time></trkpt><trkpt lat="43.44823007736385" lon="5.800879551583667"><ele>621.0</ele><time>2026-03-28T15:04:22.999Z</time></trkpt><trkpt lat="43.448184634155766" lon="5.801026228464801"><ele>619.0</ele><time>2026-03-28T15:04:24.999Z</time></trkpt><trkpt lat="43.448222349306384" lon="5.8011665174516445"><ele>618.8</ele><time>2026-03-28T15:04:26.999Z</time></trkpt><trkpt lat="43.44831192498046" lon="5.801217894222551"><ele>618.5999999999999</ele><time>2026-03-28T15:04:28.999Z</time></trkpt><trkpt lat="43.44837339823618" lon="5.801256292842452"><ele>618.4</ele><time>2026-03-28T15:04:30.999Z</time></trkpt><trkpt lat="43.448413844353766" lon="5.801387464057582"><ele>618.1999999999999</ele><time>2026-03-28T15:04:32.999Z</time></trkpt><trkpt lat="43.44839988278112" lon="5.80150815741259"><ele>618.0</ele><time>2026-03-28T15:04:33.999Z</time></trkpt><trkpt lat="43.448377504012996" lon="5.801663142949138"><ele>618.25</ele><time>2026-03-28T15:04:34.999Z</time></trkpt><trkpt lat="43.44836019295838" lon="5.801877632978492"><ele>618.5</ele><time>2026-03-28T15:04:35.999Z</time></trkpt><trkpt lat="43.44834021869366" lon="5.802069803266118"><ele>618.75</ele><time>2026-03-28T15:04:36.999Z</time></trkpt><trkpt lat="43.4483169126579" lon="5.8022265479260415"><ele>619.0</ele><time>2026-03-28T15:04:37.999Z</time></trkpt><trkpt lat="43.44831025449581" lon="5.802373587683003"><ele>619.0</ele><time>2026-03-28T15:04:38.999Z</time></trkpt><trkpt lat="43.44833022496198" lon="5.802510534831884"><ele>619.0</ele><time>2026-03-28T15:04:39.999Z</time></trkpt><trkpt lat="43.4483755412003" lon="5.8026472975585195"><ele>619.0</ele><time>2026-03-28T15:04:41Z</time></trkpt><trkpt lat="43.44841381548898" lon="5.802795812461908"><ele>619.0</ele><time>2026-03-28T15:04:42Z</time></trkpt><trkpt lat="43.44842967819407" lon="5.8029314547531765"><ele>619.0</ele><time>2026-03-28T15:04:43Z</time></trkpt><trkpt lat="43.44843476953237" lon="5.803048698120757"><ele>618.8</ele><time>2026-03-28T15:04:44Z</time></trkpt><trkpt lat="43.4484309173711" lon="5.803162286084594"><ele>618.5999999999999</ele><time>2026-03-28T15:04:45Z</time></trkpt><trkpt lat="43.44842442013485" lon="5.80328263150316"><ele>618.4</ele><time>2026-03-28T15:04:46Z</time></trkpt><trkpt lat="43.448398206248044" lon="5.803394484533768"><ele>618.1999999999999</ele><time>2026-03-28T15:04:47Z</time></trkpt><trkpt lat="43.448376285551845" lon="5.803512757380758"><ele>618.0</ele><time>2026-03-28T15:04:48Z</time></trkpt><trkpt lat="43.44837368760625" lon="5.803663735447698"><ele>617.5</ele><time>2026-03-28T15:04:49Z</time></trkpt><trkpt lat="43.44838561148771" lon="5.803797048433479"><ele>617.0</ele><time>2026-03-28T15:04:50Z</time></trkpt><trkpt lat="43.44837213694897" lon="5.803918190826758"><ele>616.5</ele><time>2026-03-28T15:04:51Z</time></trkpt><trkpt lat="43.448355921243525" lon="5.804032351964314"><ele>616.0</ele><time>2026-03-28T15:04:52Z</time></trkpt><trkpt lat="43.44834793252192" lon="5.804149124327551"><ele>615.5</ele><time>2026-03-28T15:04:53Z</time></trkpt><trkpt lat="43.44832990232012" lon="5.804262312984215"><ele>615.0</ele><time>2026-03-28T15:04:54Z</time></trkpt><trkpt lat="43.448308336339835" lon="5.804378115181818"><ele>614.3333333333334</ele><time>2026-03-28T15:04:55Z</time></trkpt><trkpt lat="43.448290475511186" lon="5.804481494585766"><ele>613.6666666666666</ele><time>2026-03-28T15:04:56Z</time></trkpt><trkpt lat="43.44827246767238" lon="5.804565556444075"><ele>613.0</ele><time>2026-03-28T15:04:57Z</time></trkpt><trkpt lat="43.44824759866038" lon="5.8046502812220675"><ele>612.3333333333333</ele><time>2026-03-28T15:05:05Z</time></trkpt><trkpt lat="43.44827455020339" lon="5.804842770549974"><ele>611.6666666666666</ele><time>2026-03-28T15:05:07Z</time></trkpt><trkpt lat="43.44829260889379" lon="5.8049607466431326"><ele>611.0</ele><time>2026-03-28T15:05:08Z</time></trkpt><trkpt lat="43.448317187534684" lon="5.805113893098884"><ele>611.0</ele><time>2026-03-28T15:05:10Z</time></trkpt><trkpt lat="43.44821021890311" lon="5.805066918140924"><ele>611.0</ele><time>2026-03-28T15:05:18Z</time></trkpt><trkpt lat="43.448143106526224" lon="5.805012653394252"><ele>611.0</ele><time>2026-03-28T15:05:19Z</time></trkpt><trkpt lat="43.44805282234023" lon="5.804925968224734"><ele>611.0</ele><time>2026-03-28T15:05:21Z</time></trkpt><trkpt lat="43.447934712765345" lon="5.804964511953166"><ele>611.0</ele><time>2026-03-28T15:05:24Z</time></trkpt><trkpt lat="43.44789725402073" lon="5.805035202231873"><ele>610.0</ele><time>2026-03-28T15:05:26Z</time></trkpt><trkpt lat="43.44791177196431" lon="5.80513048974397"><ele>609.0</ele><time>2026-03-28T15:05:29Z</time></trkpt><trkpt lat="43.447958608983676" lon="5.805216009856708"><ele>608.0</ele><time>2026-03-28T15:05:31Z</time></trkpt><trkpt lat="43.448007736600694" lon="5.8052920902608065"><ele>607.0</ele><time>2026-03-28T15:05:32Z</time></trkpt><trkpt lat="43.4480422393468" lon="5.805373983191364"><ele>606.0</ele><time>2026-03-28T15:05:33Z</time></trkpt><trkpt lat="43.44808032087396" lon="5.805478604248864"><ele>605.0</ele><time>2026-03-28T15:05:35Z</time></trkpt><trkpt lat="43.448165026575836" lon="5.805559778040785"><ele>604.8333333333333</ele><time>2026-03-28T15:05:38Z</time></trkpt><trkpt lat="43.44823775309256" lon="5.805611705197108"><ele>604.6666666666666</ele><time>2026-03-28T15:05:40Z</time></trkpt><trkpt lat="43.44823723334604" lon="5.805705177961086"><ele>604.5</ele><time>2026-03-28T15:05:42Z</time></trkpt><trkpt lat="43.448252004793986" lon="5.805804427832226"><ele>604.3333333333334</ele><time>2026-03-28T15:05:45Z</time></trkpt><trkpt lat="43.44826509455278" lon="5.805902615833522"><ele>604.1666666666667</ele><time>2026-03-28T15:05:47Z</time></trkpt><trkpt lat="43.448253079155556" lon="5.806030630079168"><ele>604.0</ele><time>2026-03-28T15:05:49Z</time></trkpt><trkpt lat="43.44826379791211" lon="5.806186545673411"><ele>602.6</ele><time>2026-03-28T15:05:52Z</time></trkpt><trkpt lat="43.44825895806422" lon="5.806293670890301"><ele>601.2</ele><time>2026-03-28T15:05:53Z</time></trkpt><trkpt lat="43.44825711968023" lon="5.806446898964389"><ele>599.8000000000001</ele><time>2026-03-28T15:05:55Z</time></trkpt><trkpt lat="43.448278682190924" lon="5.806615144428792"><ele>598.4</ele><time>2026-03-28T15:05:57Z</time></trkpt><trkpt lat="43.44827416500766" lon="5.806752224934115"><ele>597.0</ele><time>2026-03-28T15:05:59Z</time></trkpt><trkpt lat="43.44823101633569" lon="5.806881522181296"><ele>596.6</ele><time>2026-03-28T15:06:01Z</time></trkpt><trkpt lat="43.44821994072596" lon="5.8069751357042225"><ele>596.2</ele><time>2026-03-28T15:06:02Z</time></trkpt><trkpt lat="43.44822608524158" lon="5.80709711092875"><ele>595.8</ele><time>2026-03-28T15:06:03.999Z</time></trkpt><trkpt lat="43.4482402176275" lon="5.807225732202156"><ele>595.4</ele><time>2026-03-28T15:06:05.999Z</time></trkpt><trkpt lat="43.448240955394255" lon="5.807396311464422"><ele>595.0</ele><time>2026-03-28T15:06:07.999Z</time></trkpt><trkpt lat="43.44820400488831" lon="5.807558573730223"><ele>595.0</ele><time>2026-03-28T15:06:09.999Z</time></trkpt><trkpt lat="43.44817559027795" lon="5.807657691672589"><ele>595.0</ele><time>2026-03-28T15:06:10.999Z</time></trkpt><trkpt lat="43.44816112099662" lon="5.807749056127354"><ele>595.0</ele><time>2026-03-28T15:06:11.999Z</time></trkpt><trkpt lat="43.44812756513553" lon="5.807885227516446"><ele>595.0</ele><time>2026-03-28T15:06:13.999Z</time></trkpt><trkpt lat="43.44807552949449" lon="5.8080462637131385"><ele>595.0</ele><time>2026-03-28T15:06:15.999Z</time></trkpt><trkpt lat="43.448043195719364" lon="5.808152482847513"><ele>595.0</ele><time>2026-03-28T15:06:16.999Z</time></trkpt><trkpt lat="43.44798828018672" lon="5.808260917706221"><ele>595.0</ele><time>2026-03-28T15:06:18.999Z</time></trkpt><trkpt lat="43.447929006977354" lon="5.808375907764797"><ele>595.0</ele><time>2026-03-28T15:06:20.999Z</time></trkpt><trkpt lat="43.44783155182089" lon="5.8084861719108005"><ele>595.0</ele><time>2026-03-28T15:06:22.999Z</time></trkpt><trkpt lat="43.44777180987251" lon="5.808553561622841"><ele>595.0</ele><time>2026-03-28T15:06:23.999Z</time></trkpt><trkpt lat="43.4477067394782" lon="5.808639482501982"><ele>593.3333333333334</ele><time>2026-03-28T15:06:24.999Z</time></trkpt><trkpt lat="43.447667493683284" lon="5.808716484987664"><ele>591.6666666666667</ele><time>2026-03-28T15:06:25.999Z</time></trkpt><trkpt lat="43.447601123549205" lon="5.808831304525529"><ele>590.0</ele><time>2026-03-28T15:06:28.999Z</time></trkpt><trkpt lat="43.447540143259445" lon="5.80889339723343"><ele>588.3333333333334</ele><time>2026-03-28T15:06:29.999Z</time></trkpt><trkpt lat="43.4474755251483" lon="5.808988866132497"><ele>586.6666666666666</ele><time>2026-03-28T15:06:30.999Z</time></trkpt><trkpt lat="43.447408098812474" lon="5.809066199624081"><ele>585.0</ele><time>2026-03-28T15:06:31.999Z</time></trkpt><trkpt lat="43.44735540526527" lon="5.809127495550221"><ele>585.0</ele><time>2026-03-28T15:06:32.999Z</time></trkpt><trkpt lat="43.447304787054726" lon="5.809181083071236"><ele>585.0</ele><time>2026-03-28T15:06:33.999Z</time></trkpt><trkpt lat="43.447252755089636" lon="5.809249427946195"><ele>585.0</ele><time>2026-03-28T15:06:34.999Z</time></trkpt><trkpt lat="43.44717528052153" lon="5.8093542658650295"><ele>585.0</ele><time>2026-03-28T15:06:36.999Z</time></trkpt><trkpt lat="43.44712429305831" lon="5.80941017599893"><ele>585.0</ele><time>2026-03-28T15:06:37.999Z</time></trkpt><trkpt lat="43.44706383670313" lon="5.809531050489583"><ele>585.0</ele><time>2026-03-28T15:06:39.999Z</time></trkpt><trkpt lat="43.447022215415714" lon="5.809607656174252"><ele>583.4</ele><time>2026-03-28T15:06:40.999Z</time></trkpt><trkpt lat="43.446962386957416" lon="5.809745859773794"><ele>581.8</ele><time>2026-03-28T15:06:42.999Z</time></trkpt><trkpt lat="43.446929898343804" lon="5.809833668749737"><ele>580.2</ele><time>2026-03-28T15:06:43.999Z</time></trkpt><trkpt lat="43.44687811761991" lon="5.80995273190978"><ele>578.6</ele><time>2026-03-28T15:06:45.999Z</time></trkpt><trkpt lat="43.44681841770164" lon="5.810082505078631"><ele>577.0</ele><time>2026-03-28T15:06:51Z</time></trkpt><trkpt lat="43.44676994005339" lon="5.810170242102832"><ele>577.0</ele><time>2026-03-28T15:06:52Z</time></trkpt><trkpt lat="43.44673957368928" lon="5.810278662119519"><ele>577.0</ele><time>2026-03-28T15:06:53Z</time></trkpt><trkpt lat="43.44665200707722" lon="5.810426478010502"><ele>577.0</ele><time>2026-03-28T15:06:56Z</time></trkpt><trkpt lat="43.44659456600654" lon="5.810547143628815"><ele>577.0</ele><time>2026-03-28T15:06:57Z</time></trkpt><trkpt lat="43.44652037550152" lon="5.810614085977099"><ele>577.0</ele><time>2026-03-28T15:07:00Z</time></trkpt><trkpt lat="43.44645981446433" lon="5.810739265647856"><ele>577.0</ele><time>2026-03-28T15:07:02Z</time></trkpt><trkpt lat="43.446408841621746" lon="5.810855492443721"><ele>577.0</ele><time>2026-03-28T15:07:04Z</time></trkpt><trkpt lat="43.44636337296893" lon="5.810936363748347"><ele>577.0</ele><time>2026-03-28T15:07:06Z</time></trkpt><trkpt lat="43.44630696644138" lon="5.811027461074114"><ele>577.0</ele><time>2026-03-28T15:07:08Z</time></trkpt><trkpt lat="43.44621166304935" lon="5.811169806940565"><ele>577.0</ele><time>2026-03-28T15:07:10Z</time></trkpt><trkpt lat="43.44616619082802" lon="5.811248816430204"><ele>573.6</ele><time>2026-03-28T15:07:11Z</time></trkpt><trkpt lat="43.4461260231805" lon="5.811318446599862"><ele>570.2</ele><time>2026-03-28T15:07:12Z</time></trkpt><trkpt lat="43.446060365898745" lon="5.811392070422845"><ele>566.8</ele><time>2026-03-28T15:07:16Z</time></trkpt><trkpt lat="43.44609925558325" lon="5.811261303812828"><ele>563.4</ele><time>2026-03-28T15:07:20Z</time></trkpt><trkpt lat="43.446142426166396" lon="5.8110790868224695"><ele>560.0</ele><time>2026-03-28T15:07:22Z</time></trkpt><trkpt lat="43.446155904265936" lon="5.810992293339281"><ele>557.4</ele><time>2026-03-28T15:07:23Z</time></trkpt><trkpt lat="43.44618502434566" lon="5.810860542604759"><ele>554.8</ele><time>2026-03-28T15:07:25Z</time></trkpt><trkpt lat="43.446202728294075" lon="5.810701109110545"><ele>552.2</ele><time>2026-03-28T15:07:27Z</time></trkpt><trkpt lat="43.4462274766402" lon="5.810562057018202"><ele>549.6</ele><time>2026-03-28T15:07:29Z</time></trkpt><trkpt lat="43.446248543463895" lon="5.81039239357598"><ele>547.0</ele><time>2026-03-28T15:07:31Z</time></trkpt><trkpt lat="43.446273965854864" lon="5.810294926165576"><ele>550.0</ele><time>2026-03-28T15:07:32Z</time></trkpt><trkpt lat="43.44629951742068" lon="5.810211910063638"><ele>553.0</ele><time>2026-03-28T15:07:33Z</time></trkpt><trkpt lat="43.446316446533075" lon="5.810103848611103"><ele>556.0</ele><time>2026-03-28T15:07:34Z</time></trkpt><trkpt lat="43.44634847127533" lon="5.809984858147738"><ele>559.0</ele><time>2026-03-28T15:07:35Z</time></trkpt><trkpt lat="43.44637402821204" lon="5.80988598162684"><ele>562.0</ele><time>2026-03-28T15:07:36Z</time></trkpt><trkpt lat="43.44638811341192" lon="5.809799707341187"><ele>565.0</ele><time>2026-03-28T15:07:37Z</time></trkpt><trkpt lat="43.44643144661838" lon="5.809668760431454"><ele>565.0</ele><time>2026-03-28T15:07:39Z</time></trkpt><trkpt lat="43.44645599871416" lon="5.80947292204369"><ele>565.0</ele><time>2026-03-28T15:07:41Z</time></trkpt><trkpt lat="43.44648403710613" lon="5.809359937400794"><ele>565.0</ele><time>2026-03-28T15:07:42Z</time></trkpt><trkpt lat="43.44651297969623" lon="5.809203699938219"><ele>565.0</ele><time>2026-03-28T15:07:44Z</time></trkpt><trkpt lat="43.44654188140846" lon="5.809064528797793"><ele>563.4</ele><time>2026-03-28T15:07:46Z</time></trkpt><trkpt lat="43.446570547056275" lon="5.80892740162311"><ele>561.8</ele><time>2026-03-28T15:07:48Z</time></trkpt><trkpt lat="43.44660122380265" lon="5.80885136174534"><ele>560.2</ele><time>2026-03-28T15:07:49Z</time></trkpt><trkpt lat="43.44661635154737" lon="5.808761517873789"><ele>558.6</ele><time>2026-03-28T15:07:50Z</time></trkpt><trkpt lat="43.4466783177834" lon="5.808630517908761"><ele>557.0</ele><time>2026-03-28T15:07:52Z</time></trkpt><trkpt lat="43.44672789265311" lon="5.808498435045102"><ele>557.0</ele><time>2026-03-28T15:07:53.999Z</time></trkpt><trkpt lat="43.44672929911448" lon="5.8083751763047164"><ele>557.0</ele><time>2026-03-28T15:07:55.999Z</time></trkpt><trkpt lat="43.44664887681688" lon="5.808375389896179"><ele>557.0</ele><time>2026-03-28T15:07:59.999Z</time></trkpt><trkpt lat="43.446609099924196" lon="5.808454887302428"><ele>557.0</ele><time>2026-03-28T15:08:01.999Z</time></trkpt><trkpt lat="43.44659775433639" lon="5.8085539988994315"><ele>557.0</ele><time>2026-03-28T15:08:03.999Z</time></trkpt><trkpt lat="43.4465213212296" lon="5.80874493758109"><ele>557.0</ele><time>2026-03-28T15:08:05.999Z</time></trkpt><trkpt lat="43.44647672496903" lon="5.808845944016927"><ele>557.0</ele><time>2026-03-28T15:08:06.999Z</time></trkpt><trkpt lat="43.44641013211783" lon="5.808964515723099"><ele>557.0</ele><time>2026-03-28T15:08:08.999Z</time></trkpt><trkpt lat="43.44634222575565" lon="5.809065681450459"><ele>557.0</ele><time>2026-03-28T15:08:10.999Z</time></trkpt><trkpt lat="43.44630056399621" lon="5.809132059169184"><ele>557.0</ele><time>2026-03-28T15:08:12.999Z</time></trkpt><trkpt lat="43.44624787057965" lon="5.809223087264587"><ele>557.0</ele><time>2026-03-28T15:08:13.999Z</time></trkpt><trkpt lat="43.44618773189005" lon="5.809329726628923"><ele>554.0</ele><time>2026-03-28T15:08:14.999Z</time></trkpt><trkpt lat="43.446081119329506" lon="5.8094098478687215"><ele>551.0</ele><time>2026-03-28T15:08:16.999Z</time></trkpt><trkpt lat="43.44596752275118" lon="5.809462571147319"><ele>548.0</ele><time>2026-03-28T15:08:18.999Z</time></trkpt><trkpt lat="43.445906671773564" lon="5.809505771441814"><ele>545.0</ele><time>2026-03-28T15:08:19.999Z</time></trkpt><trkpt lat="43.44586202841444" lon="5.809652700541029"><ele>542.0</ele><time>2026-03-28T15:08:21.999Z</time></trkpt><trkpt lat="43.44578811156557" lon="5.809766140468443"><ele>542.0</ele><time>2026-03-28T15:08:23.999Z</time></trkpt><trkpt lat="43.4457506661189" lon="5.809878142330189"><ele>542.0</ele><time>2026-03-28T15:08:25.999Z</time></trkpt><trkpt lat="43.445733027306794" lon="5.809971044250572"><ele>542.0</ele><time>2026-03-28T15:08:26.999Z</time></trkpt><trkpt lat="43.445693884238516" lon="5.8100409051395685"><ele>542.0</ele><time>2026-03-28T15:08:27.999Z</time></trkpt><trkpt lat="43.44561453383815" lon="5.8101174606720525"><ele>542.0</ele><time>2026-03-28T15:08:29.999Z</time></trkpt><trkpt lat="43.445531238343406" lon="5.810019329417765"><ele>542.0</ele><time>2026-03-28T15:08:31.999Z</time></trkpt><trkpt lat="43.44548159563759" lon="5.810105025460169"><ele>540.5</ele><time>2026-03-28T15:08:34.999Z</time></trkpt><trkpt lat="43.44545006690417" lon="5.810204188722633"><ele>539.0</ele><time>2026-03-28T15:08:35.999Z</time></trkpt><trkpt lat="43.44545826430612" lon="5.810350012152271"><ele>537.5</ele><time>2026-03-28T15:08:37.999Z</time></trkpt><trkpt lat="43.44545805741077" lon="5.8104596412697385"><ele>536.0</ele><time>2026-03-28T15:08:39.999Z</time></trkpt><trkpt lat="43.445418687322324" lon="5.810577019991496"><ele>534.5</ele><time>2026-03-28T15:08:41.999Z</time></trkpt><trkpt lat="43.44538374768062" lon="5.810657290942257"><ele>533.0</ele><time>2026-03-28T15:08:42.999Z</time></trkpt><trkpt lat="43.445317226830355" lon="5.810767183252429"><ele>533.0</ele><time>2026-03-28T15:08:44.999Z</time></trkpt><trkpt lat="43.445255630374284" lon="5.810874089483616"><ele>533.0</ele><time>2026-03-28T15:08:46.999Z</time></trkpt><trkpt lat="43.44517223113135" lon="5.81093233668892"><ele>533.0</ele><time>2026-03-28T15:08:50.999Z</time></trkpt><trkpt lat="43.44508880008793" lon="5.811034022214418"><ele>533.0</ele><time>2026-03-28T15:08:53Z</time></trkpt><trkpt lat="43.44504460709591" lon="5.811135630913557"><ele>533.0</ele><time>2026-03-28T15:08:55Z</time></trkpt><trkpt lat="43.44496780135724" lon="5.811233287034372"><ele>532.6666666666666</ele><time>2026-03-28T15:08:57Z</time></trkpt><trkpt lat="43.44492252029799" lon="5.811300617425267"><ele>532.3333333333333</ele><time>2026-03-28T15:08:58Z</time></trkpt><trkpt lat="43.44490388923443" lon="5.811412318333076"><ele>532.0</ele><time>2026-03-28T15:09:01Z</time></trkpt><trkpt lat="43.44483668249909" lon="5.811432879291269"><ele>531.6666666666666</ele><time>2026-03-28T15:09:04Z</time></trkpt><trkpt lat="43.44478644392853" lon="5.8115132178817275"><ele>531.3333333333334</ele><time>2026-03-28T15:09:06Z</time></trkpt><trkpt lat="43.444713967594474" lon="5.811611669563306"><ele>531.0</ele><time>2026-03-28T15:09:09Z</time></trkpt><trkpt lat="43.444649721217935" lon="5.811673909713524"><ele>530.4</ele><time>2026-03-28T15:09:11Z</time></trkpt><trkpt lat="43.44454815734673" lon="5.811780013077736"><ele>529.8</ele><time>2026-03-28T15:09:13Z</time></trkpt><trkpt lat="43.444475847993886" lon="5.811918534597999"><ele>529.1999999999999</ele><time>2026-03-28T15:09:15Z</time></trkpt><trkpt lat="43.44442380203462" lon="5.812025120151739"><ele>528.6</ele><time>2026-03-28T15:09:16Z</time></trkpt><trkpt lat="43.44437864027032" lon="5.812122633997209"><ele>528.0</ele><time>2026-03-28T15:09:17Z</time></trkpt><trkpt lat="43.4443355885706" lon="5.812195581737142"><ele>526.4</ele><time>2026-03-28T15:09:18Z</time></trkpt><trkpt lat="43.44427448822641" lon="5.812313311954757"><ele>524.8</ele><time>2026-03-28T15:09:20Z</time></trkpt><trkpt lat="43.444191326382466" lon="5.812450198990574"><ele>523.2</ele><time>2026-03-28T15:09:22Z</time></trkpt><trkpt lat="43.444163694864564" lon="5.812580086746874"><ele>521.6</ele><time>2026-03-28T15:09:24Z</time></trkpt><trkpt lat="43.44412987143043" lon="5.812672847918099"><ele>520.0</ele><time>2026-03-28T15:09:26Z</time></trkpt><trkpt lat="43.44411832407524" lon="5.812773367281762"><ele>519.5</ele><time>2026-03-28T15:09:27Z</time></trkpt><trkpt lat="43.44410448204163" lon="5.812883979793255"><ele>519.0</ele><time>2026-03-28T15:09:28Z</time></trkpt><trkpt lat="43.444105219003184" lon="5.812983906032473"><ele>518.5</ele><time>2026-03-28T15:09:29Z</time></trkpt><trkpt lat="43.44409484855013" lon="5.813111494552239"><ele>518.0</ele><time>2026-03-28T15:09:31Z</time></trkpt><trkpt lat="43.4440895274247" lon="5.813231243199058"><ele>517.5</ele><time>2026-03-28T15:09:33Z</time></trkpt><trkpt lat="43.44408617628164" lon="5.813326231149904"><ele>517.0</ele><time>2026-03-28T15:09:34Z</time></trkpt><trkpt lat="43.444062702874355" lon="5.813461071454411"><ele>516.6666666666667</ele><time>2026-03-28T15:09:36Z</time></trkpt><trkpt lat="43.444004461729" lon="5.813589950102691"><ele>516.3333333333334</ele><time>2026-03-28T15:09:39Z</time></trkpt><trkpt lat="43.443945801502835" lon="5.813676835286251"><ele>516.0</ele><time>2026-03-28T15:09:42Z</time></trkpt><trkpt lat="43.44393695511483" lon="5.813789449552255"><ele>515.6666666666666</ele><time>2026-03-28T15:09:44.999Z</time></trkpt><trkpt lat="43.4438926485921" lon="5.8138603608502715"><ele>515.3333333333333</ele><time>2026-03-28T15:09:46.999Z</time></trkpt><trkpt lat="43.44383232231824" lon="5.813937981470002"><ele>515.0</ele><time>2026-03-28T15:09:49.999Z</time></trkpt><trkpt lat="43.44379309743136" lon="5.814038428065804"><ele>513.3333333333333</ele><time>2026-03-28T15:09:53.999Z</time></trkpt><trkpt lat="43.443753135915856" lon="5.8141255011022155"><ele>511.66666666666663</ele><time>2026-03-28T15:09:55.999Z</time></trkpt><trkpt lat="43.443710180633026" lon="5.814197479907731"><ele>510.0</ele><time>2026-03-28T15:09:57.999Z</time></trkpt><trkpt lat="43.44365658638798" lon="5.814337271706685"><ele>508.33333333333337</ele><time>2026-03-28T15:09:59.999Z</time></trkpt><trkpt lat="43.443654768530585" lon="5.814459504272649"><ele>506.6666666666667</ele><time>2026-03-28T15:10:01.999Z</time></trkpt><trkpt lat="43.443655535176575" lon="5.81454996444849"><ele>505.0</ele><time>2026-03-28T15:10:04.999Z</time></trkpt><trkpt lat="43.44365728049794" lon="5.814675829170321"><ele>504.0</ele><time>2026-03-28T15:10:07.999Z</time></trkpt><trkpt lat="43.44365538039613" lon="5.81479537505954"><ele>503.0</ele><time>2026-03-28T15:10:09.999Z</time></trkpt><trkpt lat="43.4435765019709" lon="5.815069869237353"><ele>502.0</ele><time>2026-03-28T15:10:13.999Z</time></trkpt><trkpt lat="43.443515915580385" lon="5.815108466198735"><ele>501.0</ele><time>2026-03-28T15:10:15.999Z</time></trkpt><trkpt lat="43.44340217661736" lon="5.815116606173862"><ele>501.0</ele><time>2026-03-28T15:10:18.999Z</time></trkpt><trkpt lat="43.44332988104238" lon="5.815126835919108"><ele>501.0</ele><time>2026-03-28T15:10:20.999Z</time></trkpt><trkpt lat="43.4432801251447" lon="5.815051033117812"><ele>501.0</ele><time>2026-03-28T15:10:21.999Z</time></trkpt><trkpt lat="43.4431935237" lon="5.814948399763978"><ele>501.0</ele><time>2026-03-28T15:10:28.999Z</time></trkpt><trkpt lat="43.44310510654325" lon="5.8149503901219655"><ele>501.0</ele><time>2026-03-28T15:10:30.999Z</time></trkpt><trkpt lat="43.443032269345295" lon="5.814949342261514"><ele>501.0</ele><time>2026-03-28T15:10:32.999Z</time></trkpt><trkpt lat="43.442950996785996" lon="5.8149584159735985"><ele>499.3333333333333</ele><time>2026-03-28T15:10:34.999Z</time></trkpt><trkpt lat="43.44291777619731" lon="5.8150485480554375"><ele>497.66666666666663</ele><time>2026-03-28T15:10:36.999Z</time></trkpt><trkpt lat="43.44284996631713" lon="5.815046158988525"><ele>496.0</ele><time>2026-03-28T15:10:40.999Z</time></trkpt><trkpt lat="43.44276039197036" lon="5.8150980612030505"><ele>494.3333333333333</ele><time>2026-03-28T15:10:43.999Z</time></trkpt><trkpt lat="43.44272263883245" lon="5.815182522730867"><ele>492.66666666666663</ele><time>2026-03-28T15:10:47.999Z</time></trkpt><trkpt lat="43.442668275367986" lon="5.815281400662369"><ele>491.0</ele><time>2026-03-28T15:10:50.999Z</time></trkpt><trkpt lat="43.44260332849109" lon="5.815395650676368"><ele>490.8</ele><time>2026-03-28T15:10:52.999Z</time></trkpt><trkpt lat="43.44255495290945" lon="5.815488996275248"><ele>490.6</ele><time>2026-03-28T15:10:54.999Z</time></trkpt><trkpt lat="43.44249004745239" lon="5.81560784054569"><ele>490.4</ele><time>2026-03-28T15:10:56.999Z</time></trkpt><trkpt lat="43.44244642718499" lon="5.815673528852594"><ele>490.2</ele><time>2026-03-28T15:11:00Z</time></trkpt><trkpt lat="43.4423222092089" lon="5.81572182304225"><ele>490.0</ele><time>2026-03-28T15:11:03Z</time></trkpt><trkpt lat="43.442265821052324" lon="5.815806737686399"><ele>490.0</ele><time>2026-03-28T15:11:04Z</time></trkpt><trkpt lat="43.44218398203235" lon="5.815960107780463"><ele>490.0</ele><time>2026-03-28T15:11:06Z</time></trkpt><trkpt lat="43.442138649376005" lon="5.816085464531078"><ele>490.0</ele><time>2026-03-28T15:11:08Z</time></trkpt><trkpt lat="43.442099391204195" lon="5.816226762041477"><ele>490.0</ele><time>2026-03-28T15:11:09Z</time></trkpt><trkpt lat="43.44208110536245" lon="5.816358144253941"><ele>490.0</ele><time>2026-03-28T15:11:11Z</time></trkpt><trkpt lat="43.44200422785917" lon="5.816531220605115"><ele>488.75</ele><time>2026-03-28T15:11:15Z</time></trkpt><trkpt lat="43.44191007526187" lon="5.816687618195464"><ele>487.5</ele><time>2026-03-28T15:11:17Z</time></trkpt><trkpt lat="43.44183842977356" lon="5.816767754484572"><ele>486.25</ele><time>2026-03-28T15:11:19Z</time></trkpt><trkpt lat="43.441796071328476" lon="5.816933552048691"><ele>485.0</ele><time>2026-03-28T15:11:21Z</time></trkpt><trkpt lat="43.44179492257784" lon="5.817058944038259"><ele>484.0</ele><time>2026-03-28T15:11:23Z</time></trkpt><trkpt lat="43.44180708381015" lon="5.817171300651254"><ele>483.0</ele><time>2026-03-28T15:11:24Z</time></trkpt><trkpt lat="43.44184501355206" lon="5.817292525684325"><ele>482.0</ele><time>2026-03-28T15:11:26Z</time></trkpt><trkpt lat="43.441831990967444" lon="5.817463815916546"><ele>481.0</ele><time>2026-03-28T15:11:29Z</time></trkpt><trkpt lat="43.44175640740127" lon="5.8176140691091245"><ele>480.0</ele><time>2026-03-28T15:11:31Z</time></trkpt><trkpt lat="43.441709632104455" lon="5.817693649279812"><ele>479.6</ele><time>2026-03-28T15:11:32Z</time></trkpt><trkpt lat="43.44165548674069" lon="5.81782079434085"><ele>479.2</ele><time>2026-03-28T15:11:34Z</time></trkpt><trkpt lat="43.44157143488803" lon="5.817842123501159"><ele>478.79999999999995</ele><time>2026-03-28T15:11:35.999Z</time></trkpt><trkpt lat="43.44147238144638" lon="5.817874924811867"><ele>478.4</ele><time>2026-03-28T15:11:37.999Z</time></trkpt><trkpt lat="43.44140915733263" lon="5.817971091713681"><ele>478.0</ele><time>2026-03-28T15:11:39.999Z</time></trkpt><trkpt lat="43.441378073335656" lon="5.818111340174795"><ele>478.00000000000006</ele><time>2026-03-28T15:11:41.999Z</time></trkpt><trkpt lat="43.441370525431815" lon="5.818204196455349"><ele>478.0</ele><time>2026-03-28T15:11:43.999Z</time></trkpt><trkpt lat="43.441348318344005" lon="5.81833152363071"><ele>478.0</ele><time>2026-03-28T15:11:46.999Z</time></trkpt><trkpt lat="43.44130089273376" lon="5.818421355566817"><ele>478.0</ele><time>2026-03-28T15:11:48.999Z</time></trkpt><trkpt lat="43.441326085140346" lon="5.818546962362228"><ele>478.00000000000006</ele><time>2026-03-28T15:11:52.999Z</time></trkpt><trkpt lat="43.44129765377967" lon="5.81867513576759"><ele>478.0</ele><time>2026-03-28T15:11:55.999Z</time></trkpt><trkpt lat="43.44130037738421" lon="5.818772297798184"><ele>478.33333333333337</ele><time>2026-03-28T15:12:08.999Z</time></trkpt><trkpt lat="43.44129042971923" lon="5.818683547950016"><ele>478.6666666666667</ele><time>2026-03-28T15:12:28.999Z</time></trkpt><trkpt lat="43.44120230564318" lon="5.818645676092289"><ele>479.0</ele><time>2026-03-28T15:12:37.999Z</time></trkpt><trkpt lat="43.441087139615796" lon="5.818675079882712"><ele>479.33333333333337</ele><time>2026-03-28T15:12:39.999Z</time></trkpt><trkpt lat="43.44099712686708" lon="5.818662825821417"><ele>479.6666666666667</ele><time>2026-03-28T15:12:41.999Z</time></trkpt><trkpt lat="43.44099108605043" lon="5.818574316969199"><ele>480.0</ele><time>2026-03-28T15:12:43.999Z</time></trkpt><trkpt lat="43.44098905910583" lon="5.818476617896347"><ele>481.1666666666667</ele><time>2026-03-28T15:12:45.999Z</time></trkpt><trkpt lat="43.44091730988489" lon="5.818456444316446"><ele>482.33333333333337</ele><time>2026-03-28T15:12:49.999Z</time></trkpt><trkpt lat="43.44084214246923" lon="5.818339141171725"><ele>483.5</ele><time>2026-03-28T15:12:51.999Z</time></trkpt><trkpt lat="43.44079806596235" lon="5.818262788282931"><ele>484.6666666666667</ele><time>2026-03-28T15:12:55.999Z</time></trkpt><trkpt lat="43.44073723369466" lon="5.818184163884448"><ele>485.83333333333337</ele><time>2026-03-28T15:15:23Z</time></trkpt><trkpt lat="43.4406957697671" lon="5.818070194056499"><ele>487.0</ele><time>2026-03-28T15:15:25Z</time></trkpt><trkpt lat="43.44072659872561" lon="5.81797227612148"><ele>487.00000000000006</ele><time>2026-03-28T15:15:27Z</time></trkpt><trkpt lat="43.44066445584856" lon="5.817943013661005"><ele>487.0</ele><time>2026-03-28T15:15:30Z</time></trkpt><trkpt lat="43.44058375819502" lon="5.818000414477738"><ele>487.0</ele><time>2026-03-28T15:15:33Z</time></trkpt><trkpt lat="43.44051370870437" lon="5.8179666913775705"><ele>487.0</ele><time>2026-03-28T15:15:36Z</time></trkpt><trkpt lat="43.44046692330231" lon="5.817893434559301"><ele>487.00000000000006</ele><time>2026-03-28T15:15:41Z</time></trkpt><trkpt lat="43.440389649360654" lon="5.81786138537332"><ele>487.0</ele><time>2026-03-28T15:15:44Z</time></trkpt><trkpt lat="43.44033762143875" lon="5.817784109297814"><ele>491.33333333333337</ele><time>2026-03-28T15:15:47Z</time></trkpt><trkpt lat="43.44026250733044" lon="5.817782418234032"><ele>495.6666666666667</ele><time>2026-03-28T15:15:50Z</time></trkpt><trkpt lat="43.44020774987563" lon="5.817738783046473"><ele>500.0</ele><time>2026-03-28T15:15:53.999Z</time></trkpt><trkpt lat="43.44017895139832" lon="5.817817740428146"><ele>504.33333333333337</ele><time>2026-03-28T15:16:02.999Z</time></trkpt><trkpt lat="43.44015546858775" lon="5.8179267352903405"><ele>508.6666666666667</ele><time>2026-03-28T15:17:28.001Z</time></trkpt><trkpt lat="43.44017186986904" lon="5.817786334125414"><ele>513.0</ele><time>2026-03-28T15:18:53Z</time></trkpt><trkpt lat="43.44023495051274" lon="5.817789408310396"><ele>513.0000000000001</ele><time>2026-03-28T15:19:56Z</time></trkpt><trkpt lat="43.440171459646" lon="5.817793275771805"><ele>513.0</ele><time>2026-03-28T15:21:34Z</time></trkpt><trkpt lat="43.44013889150126" lon="5.817884800634826"><ele>513.0</ele><time>2026-03-28T15:22:29Z</time></trkpt><trkpt lat="43.44019223660792" lon="5.817830877042549"><ele>513.0</ele><time>2026-03-28T15:24:53Z</time></trkpt><trkpt lat="43.440201916906794" lon="5.8177421139995715"><ele>513.0</ele><time>2026-03-28T15:25:03Z</time></trkpt><trkpt lat="43.44026192968293" lon="5.817769068406479"><ele>513.0000000000001</ele><time>2026-03-28T15:25:11Z</time></trkpt><trkpt lat="43.44032643553634" lon="5.8177611896347265"><ele>513.0</ele><time>2026-03-28T15:26:38Z</time></trkpt><trkpt lat="43.4403823289054" lon="5.8178577710597414"><ele>513.0000000000001</ele><time>2026-03-28T15:26:42Z</time></trkpt><trkpt lat="43.44044506286955" lon="5.817880376091227"><ele>513.0</ele><time>2026-03-28T15:26:50Z</time></trkpt><trkpt lat="43.44050997669256" lon="5.817967247115698"><ele>513.0</ele><time>2026-03-28T15:26:54Z</time></trkpt><trkpt lat="43.44057956489789" lon="5.817991160303897"><ele>513.0</ele><time>2026-03-28T15:26:58Z</time></trkpt><trkpt lat="43.44063008756617" lon="5.817933312086091"><ele>513.0</ele><time>2026-03-28T15:27:01Z</time></trkpt><trkpt lat="43.44068243074566" lon="5.817983685426113"><ele>513.0000000000001</ele><time>2026-03-28T15:27:03Z</time></trkpt><trkpt lat="43.44069105364839" lon="5.818093736577717"><ele>513.0</ele><time>2026-03-28T15:27:06Z</time></trkpt><trkpt lat="43.4407111732961" lon="5.818185010744092"><ele>508.6666666666667</ele><time>2026-03-28T15:27:08Z</time></trkpt><trkpt lat="43.440787998605465" lon="5.818252129242492"><ele>504.33333333333337</ele><time>2026-03-28T15:27:11Z</time></trkpt><trkpt lat="43.44085937307616" lon="5.8183595612245975"><ele>500.0</ele><time>2026-03-28T15:27:14Z</time></trkpt><trkpt lat="43.44089461619362" lon="5.818432531715422"><ele>495.6666666666667</ele><time>2026-03-28T15:27:15.999Z</time></trkpt><trkpt lat="43.440958093078166" lon="5.8184678334068005"><ele>491.33333333333337</ele><time>2026-03-28T15:27:17.999Z</time></trkpt><trkpt lat="43.44097967064677" lon="5.8185660811251605"><ele>487.0</ele><time>2026-03-28T15:27:21.999Z</time></trkpt><trkpt lat="43.44100699697562" lon="5.818645595530637"><ele>485.83333333333337</ele><time>2026-03-28T15:27:24.999Z</time></trkpt><trkpt lat="43.44108640860803" lon="5.818672840680881"><ele>484.6666666666667</ele><time>2026-03-28T15:27:29.999Z</time></trkpt><trkpt lat="43.44118481745887" lon="5.8186540175656365"><ele>483.5</ele><time>2026-03-28T15:27:31.999Z</time></trkpt><trkpt lat="43.44125389670248" lon="5.818692313529365"><ele>482.33333333333337</ele><time>2026-03-28T15:27:34.999Z</time></trkpt><trkpt lat="43.44126628240689" lon="5.818796102137507"><ele>481.1666666666667</ele><time>2026-03-28T15:27:49Z</time></trkpt><trkpt lat="43.4412746122457" lon="5.81890210779973"><ele>480.0</ele><time>2026-03-28T15:27:52Z</time></trkpt><trkpt lat="43.441277515131254" lon="5.819000577388747"><ele>480.0</ele><time>2026-03-28T15:27:54Z</time></trkpt><trkpt lat="43.44125354059479" lon="5.819117906998042"><ele>480.0</ele><time>2026-03-28T15:27:57Z</time></trkpt><trkpt lat="43.44122541448949" lon="5.819225483456359"><ele>480.0</ele><time>2026-03-28T15:28:00Z</time></trkpt><trkpt lat="43.44122597737558" lon="5.819321305818334"><ele>480.0</ele><time>2026-03-28T15:28:06Z</time></trkpt><trkpt lat="43.44122839881394" lon="5.819408630427044"><ele>480.0</ele><time>2026-03-28T15:28:10Z</time></trkpt><trkpt lat="43.44119211137211" lon="5.819516022925533"><ele>480.0</ele><time>2026-03-28T15:28:17Z</time></trkpt><trkpt lat="43.44118130980585" lon="5.8196210372351915"><ele>479.0</ele><time>2026-03-28T15:28:19Z</time></trkpt><trkpt lat="43.4411733159657" lon="5.819730762184795"><ele>478.0</ele><time>2026-03-28T15:28:21Z</time></trkpt><trkpt lat="43.441135798407494" lon="5.819833986835058"><ele>477.0</ele><time>2026-03-28T15:28:23Z</time></trkpt><trkpt lat="43.44109376630531" lon="5.819933539666063"><ele>476.0</ele><time>2026-03-28T15:28:25Z</time></trkpt><trkpt lat="43.441046713961015" lon="5.820020373729244"><ele>475.0</ele><time>2026-03-28T15:28:27Z</time></trkpt><trkpt lat="43.44103184054028" lon="5.820147678083369"><ele>474.0</ele><time>2026-03-28T15:28:29Z</time></trkpt><trkpt lat="43.440992875632425" lon="5.820262978080498"><ele>473.0</ele><time>2026-03-28T15:28:31Z</time></trkpt><trkpt lat="43.44093197997471" lon="5.820355670395551"><ele>472.0</ele><time>2026-03-28T15:28:33Z</time></trkpt><trkpt lat="43.44090482128502" lon="5.820446349782612"><ele>471.0</ele><time>2026-03-28T15:28:35Z</time></trkpt><trkpt lat="43.44087968075145" lon="5.820551901972196"><ele>470.0</ele><time>2026-03-28T15:28:37Z</time></trkpt><trkpt lat="43.44087358800041" lon="5.820641445365481"><ele>469.0</ele><time>2026-03-28T15:28:38Z</time></trkpt><trkpt lat="43.440876945350325" lon="5.820763376152532"><ele>468.0</ele><time>2026-03-28T15:28:40Z</time></trkpt><trkpt lat="43.440839915364954" lon="5.820916779914335"><ele>467.5</ele><time>2026-03-28T15:28:42Z</time></trkpt><trkpt lat="43.44085271756442" lon="5.8210549807861085"><ele>467.0</ele><time>2026-03-28T15:28:44Z</time></trkpt><trkpt lat="43.440837997126444" lon="5.8211610519952455"><ele>466.5</ele><time>2026-03-28T15:28:46Z</time></trkpt><trkpt lat="43.44076607858167" lon="5.821217139865698"><ele>466.0</ele><time>2026-03-28T15:28:48Z</time></trkpt><trkpt lat="43.44074301667236" lon="5.8213295842618615"><ele>465.5</ele><time>2026-03-28T15:28:49Z</time></trkpt><trkpt lat="43.44073746997342" lon="5.821454436735405"><ele>465.0</ele><time>2026-03-28T15:28:50Z</time></trkpt><trkpt lat="43.44073378672225" lon="5.82156585852279"><ele>465.0</ele><time>2026-03-28T15:28:51Z</time></trkpt><trkpt lat="43.44072762064508" lon="5.8216612852830645"><ele>465.0</ele><time>2026-03-28T15:28:52Z</time></trkpt><trkpt lat="43.44071745061329" lon="5.821754968441432"><ele>465.0</ele><time>2026-03-28T15:28:53Z</time></trkpt><trkpt lat="43.440696654186" lon="5.82190331823926"><ele>465.0</ele><time>2026-03-28T15:28:55Z</time></trkpt><trkpt lat="43.440707345843286" lon="5.821996084014624"><ele>465.0</ele><time>2026-03-28T15:28:56Z</time></trkpt><trkpt lat="43.44071191089722" lon="5.8221080911155045"><ele>465.0</ele><time>2026-03-28T15:28:58Z</time></trkpt><trkpt lat="43.44067774716155" lon="5.8221855774742375"><ele>465.1666666666667</ele><time>2026-03-28T15:29:02Z</time></trkpt><trkpt lat="43.44070448988633" lon="5.822326003558403"><ele>465.33333333333337</ele><time>2026-03-28T15:29:04Z</time></trkpt><trkpt lat="43.440692419873564" lon="5.822433270782408"><ele>465.5</ele><time>2026-03-28T15:29:05Z</time></trkpt><trkpt lat="43.44066675558238" lon="5.822531671844272"><ele>465.6666666666667</ele><time>2026-03-28T15:29:07Z</time></trkpt><trkpt lat="43.44058437867803" lon="5.822583135852331"><ele>465.83333333333337</ele><time>2026-03-28T15:29:09Z</time></trkpt><trkpt lat="43.44055638913362" lon="5.822686670186252"><ele>466.0</ele><time>2026-03-28T15:29:11Z</time></trkpt><trkpt lat="43.44054091517981" lon="5.8227857123471685"><ele>465.33333333333337</ele><time>2026-03-28T15:29:12.999Z</time></trkpt><trkpt lat="43.44049656680731" lon="5.822917875330133"><ele>464.6666666666667</ele><time>2026-03-28T15:29:14.999Z</time></trkpt><trkpt lat="43.440522862312164" lon="5.823040105088838"><ele>464.0</ele><time>2026-03-28T15:29:19.999Z</time></trkpt><trkpt lat="43.440593338969734" lon="5.823090234404662"><ele>463.33333333333337</ele><time>2026-03-28T15:29:21.999Z</time></trkpt><trkpt lat="43.44065205742539" lon="5.823145661799569"><ele>462.6666666666667</ele><time>2026-03-28T15:29:23.999Z</time></trkpt><trkpt lat="43.440630863474304" lon="5.823265336886058"><ele>462.0</ele><time>2026-03-28T15:29:25.999Z</time></trkpt><trkpt lat="43.44055957060731" lon="5.823349521010567"><ele>462.0</ele><time>2026-03-28T15:29:27.999Z</time></trkpt><trkpt lat="43.44048940693543" lon="5.8234561701595045"><ele>462.00000000000006</ele><time>2026-03-28T15:29:29.999Z</time></trkpt><trkpt lat="43.440439314208014" lon="5.823561218832562"><ele>462.00000000000006</ele><time>2026-03-28T15:29:31.999Z</time></trkpt><trkpt lat="43.44039138271943" lon="5.823618406578305"><ele>462.0</ele><time>2026-03-28T15:29:32.999Z</time></trkpt><trkpt lat="43.44032521257452" lon="5.823702063996024"><ele>462.0</ele><time>2026-03-28T15:29:34.999Z</time></trkpt><trkpt lat="43.44020538225761" lon="5.823711604872229"><ele>459.6</ele><time>2026-03-28T15:29:39.999Z</time></trkpt><trkpt lat="43.44007820992969" lon="5.823838186885353"><ele>457.20000000000005</ele><time>2026-03-28T15:29:41.999Z</time></trkpt><trkpt lat="43.43999015845751" lon="5.823893881431618"><ele>454.8</ele><time>2026-03-28T15:29:42.999Z</time></trkpt><trkpt lat="43.43993329906456" lon="5.823977078341924"><ele>452.4</ele><time>2026-03-28T15:29:43.999Z</time></trkpt><trkpt lat="43.43989986524294" lon="5.824066421031313"><ele>450.0</ele><time>2026-03-28T15:29:44.999Z</time></trkpt><trkpt lat="43.43988608773055" lon="5.824164639325548"><ele>450.0</ele><time>2026-03-28T15:29:45.999Z</time></trkpt><trkpt lat="43.439906299545626" lon="5.8242728485507165"><ele>450.0</ele><time>2026-03-28T15:29:46.999Z</time></trkpt><trkpt lat="43.43992896315273" lon="5.824413805512905"><ele>450.0</ele><time>2026-03-28T15:29:47.999Z</time></trkpt><trkpt lat="43.43994811264625" lon="5.824572768865054"><ele>450.0</ele><time>2026-03-28T15:29:48.999Z</time></trkpt><trkpt lat="43.43994200139055" lon="5.824708788474887"><ele>450.0</ele><time>2026-03-28T15:29:49.999Z</time></trkpt><trkpt lat="43.43993408176855" lon="5.8248281031607405"><ele>449.6666666666667</ele><time>2026-03-28T15:29:50.999Z</time></trkpt><trkpt lat="43.43995417712225" lon="5.824943739735655"><ele>449.33333333333337</ele><time>2026-03-28T15:29:51.999Z</time></trkpt><trkpt lat="43.43996632030071" lon="5.825072290978405"><ele>449.0</ele><time>2026-03-28T15:29:53Z</time></trkpt><trkpt lat="43.439956385491016" lon="5.825199539463525"><ele>448.6666666666667</ele><time>2026-03-28T15:29:54Z</time></trkpt><trkpt lat="43.439939419855264" lon="5.825315930847676"><ele>448.33333333333337</ele><time>2026-03-28T15:29:55Z</time></trkpt><trkpt lat="43.43991734591163" lon="5.8254165883052575"><ele>448.0</ele><time>2026-03-28T15:29:56Z</time></trkpt><trkpt lat="43.43990055445695" lon="5.825518382651079"><ele>447.5</ele><time>2026-03-28T15:29:57Z</time></trkpt><trkpt lat="43.439899805822286" lon="5.825632008701254"><ele>447.0</ele><time>2026-03-28T15:29:58Z</time></trkpt><trkpt lat="43.439914580197595" lon="5.825780026607492"><ele>446.5</ele><time>2026-03-28T15:29:59Z</time></trkpt><trkpt lat="43.439921983232296" lon="5.825942776554313"><ele>446.0</ele><time>2026-03-28T15:30:00Z</time></trkpt><trkpt lat="43.439899809677435" lon="5.826133338107465"><ele>446.0</ele><time>2026-03-28T15:30:01Z</time></trkpt><trkpt lat="43.439862214449754" lon="5.826345387711173"><ele>446.0</ele><time>2026-03-28T15:30:02Z</time></trkpt><trkpt lat="43.439854543097674" lon="5.8265282350650125"><ele>446.0</ele><time>2026-03-28T15:30:03Z</time></trkpt><trkpt lat="43.43986680213752" lon="5.826685605183915"><ele>446.0</ele><time>2026-03-28T15:30:04Z</time></trkpt><trkpt lat="43.439911410994505" lon="5.826832982001695"><ele>445.0</ele><time>2026-03-28T15:30:05Z</time></trkpt><trkpt lat="43.43997557058705" lon="5.826989773654356"><ele>444.0</ele><time>2026-03-28T15:30:06Z</time></trkpt><trkpt lat="43.440018171707024" lon="5.8271652865191506"><ele>443.0</ele><time>2026-03-28T15:30:07Z</time></trkpt><trkpt lat="43.44004934812585" lon="5.8273252809097675"><ele>442.0</ele><time>2026-03-28T15:30:08Z</time></trkpt><trkpt lat="43.44005494220053" lon="5.827476907985212"><ele>441.75</ele><time>2026-03-28T15:30:09Z</time></trkpt><trkpt lat="43.440049853879295" lon="5.827646137479507"><ele>441.5</ele><time>2026-03-28T15:30:10Z</time></trkpt><trkpt lat="43.440031597903136" lon="5.827850577381521"><ele>441.25</ele><time>2026-03-28T15:30:11Z</time></trkpt><trkpt lat="43.440008850466796" lon="5.8280588537332845"><ele>441.0</ele><time>2026-03-28T15:30:12Z</time></trkpt><trkpt lat="43.439998186514096" lon="5.82823195742678"><ele>441.0</ele><time>2026-03-28T15:30:13Z</time></trkpt><trkpt lat="43.440002369575176" lon="5.828393705846341"><ele>441.0</ele><time>2026-03-28T15:30:14Z</time></trkpt><trkpt lat="43.44001730580693" lon="5.828538185379647"><ele>441.0</ele><time>2026-03-28T15:30:15Z</time></trkpt><trkpt lat="43.44003745618259" lon="5.828649356465489"><ele>441.0</ele><time>2026-03-28T15:30:16Z</time></trkpt><trkpt lat="43.44009988855832" lon="5.828772441156134"><ele>441.0</ele><time>2026-03-28T15:30:18Z</time></trkpt><trkpt lat="43.44017210661744" lon="5.828782446115188"><ele>440.8333333333333</ele><time>2026-03-28T15:31:54.999Z</time></trkpt><trkpt lat="43.44022890163069" lon="5.828734542552888"><ele>440.66666666666663</ele><time>2026-03-28T15:31:56.999Z</time></trkpt><trkpt lat="43.440336281144475" lon="5.828799856036392"><ele>440.5</ele><time>2026-03-28T15:31:59Z</time></trkpt><trkpt lat="43.44040361921825" lon="5.82887112891148"><ele>440.3333333333333</ele><time>2026-03-28T15:32:00Z</time></trkpt><trkpt lat="43.44045347054198" lon="5.828954577412463"><ele>440.16666666666663</ele><time>2026-03-28T15:32:01Z</time></trkpt><trkpt lat="43.440467287043646" lon="5.82905321091255"><ele>440.0</ele><time>2026-03-28T15:32:02Z</time></trkpt><trkpt lat="43.44046591718135" lon="5.829171934413967"><ele>439.99999999999994</ele><time>2026-03-28T15:32:03Z</time></trkpt><trkpt lat="43.44045903514276" lon="5.829282916016846"><ele>440.0</ele><time>2026-03-28T15:32:04Z</time></trkpt><trkpt lat="43.440449817709464" lon="5.829374867511003"><ele>440.0</ele><time>2026-03-28T15:32:05Z</time></trkpt><trkpt lat="43.44042732862325" lon="5.82949483708887"><ele>440.0</ele><time>2026-03-28T15:32:06Z</time></trkpt><trkpt lat="43.440393197929154" lon="5.829624567386049"><ele>439.99999999999994</ele><time>2026-03-28T15:32:07Z</time></trkpt><trkpt lat="43.440379763127076" lon="5.829732525186046"><ele>440.0</ele><time>2026-03-28T15:32:08Z</time></trkpt><trkpt lat="43.440396462211986" lon="5.829855289693531"><ele>439.6</ele><time>2026-03-28T15:32:09Z</time></trkpt><trkpt lat="43.440432788068634" lon="5.830010119803843"><ele>439.2</ele><time>2026-03-28T15:32:10Z</time></trkpt><trkpt lat="43.44048345535321" lon="5.830125166441751"><ele>438.79999999999995</ele><time>2026-03-28T15:32:11Z</time></trkpt><trkpt lat="43.44055505001043" lon="5.830201115291936"><ele>438.4</ele><time>2026-03-28T15:32:12Z</time></trkpt><trkpt lat="43.44060754918576" lon="5.830283454641514"><ele>438.0</ele><time>2026-03-28T15:32:13Z</time></trkpt><trkpt lat="43.440641314195965" lon="5.830364646382082"><ele>438.0</ele><time>2026-03-28T15:32:14Z</time></trkpt><trkpt lat="43.440668084106974" lon="5.830446244869332"><ele>438.0</ele><time>2026-03-28T15:32:15Z</time></trkpt><trkpt lat="43.44068403163036" lon="5.830542279481658"><ele>438.0</ele><time>2026-03-28T15:32:16Z</time></trkpt><trkpt lat="43.44070289268515" lon="5.83066209775895"><ele>438.0</ele><time>2026-03-28T15:32:17Z</time></trkpt><trkpt lat="43.440709818063155" lon="5.830771233082445"><ele>438.0</ele><time>2026-03-28T15:32:18Z</time></trkpt><trkpt lat="43.44071193154087" lon="5.830870630059838"><ele>438.0</ele><time>2026-03-28T15:32:19Z</time></trkpt><trkpt lat="43.440700606895675" lon="5.830987404082901"><ele>437.0</ele><time>2026-03-28T15:32:20Z</time></trkpt><trkpt lat="43.4407104206412" lon="5.831131311138519"><ele>436.0</ele><time>2026-03-28T15:32:21Z</time></trkpt><trkpt lat="43.44071341377522" lon="5.83125992394437"><ele>435.0</ele><time>2026-03-28T15:32:22Z</time></trkpt><trkpt lat="43.440730036426494" lon="5.83136916900387"><ele>434.0</ele><time>2026-03-28T15:32:23Z</time></trkpt><trkpt lat="43.440752501883004" lon="5.831472015044143"><ele>433.0</ele><time>2026-03-28T15:32:24Z</time></trkpt><trkpt lat="43.44075407148314" lon="5.831569788528302"><ele>432.0</ele><time>2026-03-28T15:32:25Z</time></trkpt><trkpt lat="43.4407629932922" lon="5.831735552072039"><ele>432.0</ele><time>2026-03-28T15:32:27Z</time></trkpt><trkpt lat="43.44078133763613" lon="5.831832307481347"><ele>432.0</ele><time>2026-03-28T15:32:28Z</time></trkpt><trkpt lat="43.44079757056466" lon="5.8319166411722465"><ele>432.0</ele><time>2026-03-28T15:32:29Z</time></trkpt><trkpt lat="43.44078060185671" lon="5.832078949687549"><ele>432.0</ele><time>2026-03-28T15:32:31Z</time></trkpt><trkpt lat="43.44076448683019" lon="5.832188580386476"><ele>432.0</ele><time>2026-03-28T15:32:32Z</time></trkpt><trkpt lat="43.44075801273193" lon="5.832293808465182"><ele>432.0</ele><time>2026-03-28T15:32:33Z</time></trkpt><trkpt lat="43.44075323492365" lon="5.832404655866683"><ele>432.0</ele><time>2026-03-28T15:32:34Z</time></trkpt><trkpt lat="43.440753531529126" lon="5.832525257679151"><ele>432.0</ele><time>2026-03-28T15:32:35Z</time></trkpt><trkpt lat="43.44075841903315" lon="5.832641083495589"><ele>432.0</ele><time>2026-03-28T15:32:36Z</time></trkpt><trkpt lat="43.440753690142586" lon="5.832750361013341"><ele>432.0</ele><time>2026-03-28T15:32:37Z</time></trkpt><trkpt lat="43.4407481782888" lon="5.832847730442247"><ele>432.0</ele><time>2026-03-28T15:32:38Z</time></trkpt><trkpt lat="43.44075244894824" lon="5.83294027072044"><ele>432.0</ele><time>2026-03-28T15:32:39Z</time></trkpt><trkpt lat="43.44075664148786" lon="5.833032562610511"><ele>430.8333333333333</ele><time>2026-03-28T15:32:40Z</time></trkpt><trkpt lat="43.440761075794285" lon="5.833130420886672"><ele>429.66666666666663</ele><time>2026-03-28T15:32:41Z</time></trkpt><trkpt lat="43.440770220183055" lon="5.833243086033865"><ele>428.5</ele><time>2026-03-28T15:32:42Z</time></trkpt><trkpt lat="43.44078472533559" lon="5.833363107697825"><ele>427.3333333333333</ele><time>2026-03-28T15:32:43Z</time></trkpt><trkpt lat="43.44079364655675" lon="5.833467484122668"><ele>426.16666666666663</ele><time>2026-03-28T15:32:44Z</time></trkpt><trkpt lat="43.44080888782527" lon="5.833557556117688"><ele>425.0</ele><time>2026-03-28T15:32:45Z</time></trkpt><trkpt lat="43.440833903471706" lon="5.833729791032488"><ele>424.16666666666663</ele><time>2026-03-28T15:32:47Z</time></trkpt><trkpt lat="43.440844081889544" lon="5.833828911736975"><ele>423.3333333333333</ele><time>2026-03-28T15:32:48Z</time></trkpt><trkpt lat="43.44085961707705" lon="5.833938648087004"><ele>422.5</ele><time>2026-03-28T15:32:49Z</time></trkpt><trkpt lat="43.44087941902044" lon="5.834055428373726"><ele>421.66666666666663</ele><time>2026-03-28T15:32:50Z</time></trkpt><trkpt lat="43.44090057861367" lon="5.834175603844643"><ele>420.8333333333333</ele><time>2026-03-28T15:32:51Z</time></trkpt><trkpt lat="43.44090663032994" lon="5.834286215632223"><ele>420.0</ele><time>2026-03-28T15:32:52Z</time></trkpt><trkpt lat="43.440915196311295" lon="5.834384118774497"><ele>420.0</ele><time>2026-03-28T15:32:53Z</time></trkpt><trkpt lat="43.44093327451735" lon="5.834470619121495"><ele>420.0</ele><time>2026-03-28T15:32:54Z</time></trkpt><trkpt lat="43.44096880632748" lon="5.834544375184543"><ele>420.0</ele><time>2026-03-28T15:32:55Z</time></trkpt><trkpt lat="43.44100287466174" lon="5.83462268451451"><ele>420.0</ele><time>2026-03-28T15:32:57.999Z</time></trkpt><trkpt lat="43.44099127629529" lon="5.834524328957024"><ele>420.0</ele><time>2026-03-28T15:33:13.999Z</time></trkpt><trkpt lat="43.44104489058577" lon="5.834443377911483"><ele>420.0</ele><time>2026-03-28T15:33:16.999Z</time></trkpt><trkpt lat="43.44105567331814" lon="5.834334653186218"><ele>420.0</ele><time>2026-03-28T15:33:19.999Z</time></trkpt><trkpt lat="43.44107559576268" lon="5.834223196342896"><ele>420.0</ele><time>2026-03-28T15:33:21.999Z</time></trkpt><trkpt lat="43.441088237656544" lon="5.8341255723949805"><ele>420.0</ele><time>2026-03-28T15:33:24.999Z</time></trkpt><trkpt lat="43.44108009463399" lon="5.834011475106533"><ele>420.0</ele><time>2026-03-28T15:33:26.999Z</time></trkpt><trkpt lat="43.441100672315216" lon="5.833913968308142"><ele>420.0</ele><time>2026-03-28T15:33:28.999Z</time></trkpt><trkpt lat="43.44109697868698" lon="5.833782029229739"><ele>420.0</ele><time>2026-03-28T15:33:30.999Z</time></trkpt><trkpt lat="43.441108909576656" lon="5.83368434501236"><ele>420.0</ele><time>2026-03-28T15:33:34.999Z</time></trkpt><trkpt lat="43.44108256491279" lon="5.833575126205933"><ele>420.0</ele><time>2026-03-28T15:33:36.999Z</time></trkpt><trkpt lat="43.441115619086574" lon="5.833472920683371"><ele>420.0</ele><time>2026-03-28T15:33:38.999Z</time></trkpt><trkpt lat="43.441121153843284" lon="5.833384983431544"><ele>420.0</ele><time>2026-03-28T15:33:42.999Z</time></trkpt><trkpt lat="43.44111187751461" lon="5.833268267109923"><ele>420.0</ele><time>2026-03-28T15:33:47.999Z</time></trkpt><trkpt lat="43.441141087914055" lon="5.833173713421185"><ele>420.0</ele><time>2026-03-28T15:33:50.999Z</time></trkpt><trkpt lat="43.441141141795505" lon="5.833078780417153"><ele>420.0</ele><time>2026-03-28T15:33:52.999Z</time></trkpt><trkpt lat="43.44114606457211" lon="5.832990567030546"><ele>420.0</ele><time>2026-03-28T15:33:55.999Z</time></trkpt><trkpt lat="43.44117746485877" lon="5.832902236381795"><ele>420.8333333333333</ele><time>2026-03-28T15:33:58.999Z</time></trkpt><trkpt lat="43.44119610234549" lon="5.832748429090343"><ele>421.66666666666663</ele><time>2026-03-28T15:34:00.999Z</time></trkpt><trkpt lat="43.441237196483875" lon="5.832678726494331"><ele>422.5</ele><time>2026-03-28T15:34:05Z</time></trkpt><trkpt lat="43.44127433562736" lon="5.832605628096438"><ele>423.3333333333333</ele><time>2026-03-28T15:34:08Z</time></trkpt><trkpt lat="43.44130373097588" lon="5.8325278593894225"><ele>424.16666666666663</ele><time>2026-03-28T15:34:10Z</time></trkpt><trkpt lat="43.44132376454745" lon="5.832444043011714"><ele>425.0</ele><time>2026-03-28T15:34:12Z</time></trkpt><trkpt lat="43.44135819086378" lon="5.832245969184267"><ele>429.8</ele><time>2026-03-28T15:34:14Z</time></trkpt><trkpt lat="43.44138501592015" lon="5.832163423579502"><ele>434.6</ele><time>2026-03-28T15:34:15Z</time></trkpt><trkpt lat="43.441423512388454" lon="5.832080061819791"><ele>439.4</ele><time>2026-03-28T15:34:16Z</time></trkpt><trkpt lat="43.44145730928006" lon="5.831990717457843"><ele>444.2</ele><time>2026-03-28T15:34:17Z</time></trkpt><trkpt lat="43.44152825434844" lon="5.831882339579816"><ele>449.0</ele><time>2026-03-28T15:34:19Z</time></trkpt><trkpt lat="43.44155203848298" lon="5.831690632346702"><ele>449.6</ele><time>2026-03-28T15:34:21Z</time></trkpt><trkpt lat="43.44155591786602" lon="5.83156336210969"><ele>450.2</ele><time>2026-03-28T15:34:22Z</time></trkpt><trkpt lat="43.44155717449074" lon="5.831387583216268"><ele>450.80000000000007</ele><time>2026-03-28T15:34:23Z</time></trkpt><trkpt lat="43.44156180549351" lon="5.831232346446021"><ele>451.40000000000003</ele><time>2026-03-28T15:34:24Z</time></trkpt><trkpt lat="43.44156229904259" lon="5.831097600673815"><ele>452.0</ele><time>2026-03-28T15:34:25Z</time></trkpt><trkpt lat="43.4415502766878" lon="5.830921135061376"><ele>453.16666666666663</ele><time>2026-03-28T15:34:27Z</time></trkpt><trkpt lat="43.44154313416409" lon="5.830810808787463"><ele>454.3333333333333</ele><time>2026-03-28T15:34:28Z</time></trkpt><trkpt lat="43.44153284222874" lon="5.830695710264957"><ele>455.5</ele><time>2026-03-28T15:34:29Z</time></trkpt><trkpt lat="43.44153626962675" lon="5.830592065898087"><ele>456.66666666666663</ele><time>2026-03-28T15:34:30Z</time></trkpt><trkpt lat="43.441515749138595" lon="5.830431977717386"><ele>457.8333333333333</ele><time>2026-03-28T15:34:32Z</time></trkpt><trkpt lat="43.44152058480126" lon="5.830337265999622"><ele>459.0</ele><time>2026-03-28T15:34:33Z</time></trkpt><trkpt lat="43.441544301790884" lon="5.830239628016862"><ele>459.0</ele><time>2026-03-28T15:34:34Z</time></trkpt><trkpt lat="43.441570703885155" lon="5.830155192988762"><ele>459.0</ele><time>2026-03-28T15:34:35Z</time></trkpt><trkpt lat="43.44155469424814" lon="5.829973358610542"><ele>459.0</ele><time>2026-03-28T15:34:37Z</time></trkpt><trkpt lat="43.44154565446306" lon="5.829841774363728"><ele>459.0</ele><time>2026-03-28T15:34:38Z</time></trkpt><trkpt lat="43.44155125515194" lon="5.829712875775026"><ele>459.0</ele><time>2026-03-28T15:34:39Z</time></trkpt><trkpt lat="43.44155564801128" lon="5.829574756962196"><ele>460.2</ele><time>2026-03-28T15:34:40Z</time></trkpt><trkpt lat="43.441565159570004" lon="5.829472589998987"><ele>461.4</ele><time>2026-03-28T15:34:41Z</time></trkpt><trkpt lat="43.441622467997355" lon="5.829300596208773"><ele>462.6</ele><time>2026-03-28T15:34:43Z</time></trkpt><trkpt lat="43.44164066372329" lon="5.829202655694903"><ele>463.8</ele><time>2026-03-28T15:34:44Z</time></trkpt><trkpt lat="43.44164112629943" lon="5.829090308215879"><ele>465.0</ele><time>2026-03-28T15:34:45Z</time></trkpt><trkpt lat="43.441622417678545" lon="5.828958881968684"><ele>465.3333333333333</ele><time>2026-03-28T15:34:46Z</time></trkpt><trkpt lat="43.44161293877778" lon="5.82885700255843"><ele>465.66666666666663</ele><time>2026-03-28T15:34:47Z</time></trkpt><trkpt lat="43.44162392021427" lon="5.828758583478828"><ele>466.0</ele><time>2026-03-28T15:34:48Z</time></trkpt><trkpt lat="43.441648322943664" lon="5.828647112552912"><ele>466.3333333333333</ele><time>2026-03-28T15:34:49Z</time></trkpt><trkpt lat="43.44165799847136" lon="5.82855386095729"><ele>466.66666666666663</ele><time>2026-03-28T15:34:50Z</time></trkpt><trkpt lat="43.44171727178756" lon="5.828510858763932"><ele>467.0</ele><time>2026-03-28T15:34:51.999Z</time></trkpt><trkpt lat="43.44182075125907" lon="5.828499507856898"><ele>467.99999999999994</ele><time>2026-03-28T15:34:53.999Z</time></trkpt><trkpt lat="43.441883274126326" lon="5.828441735008339"><ele>469.0</ele><time>2026-03-28T15:34:54.999Z</time></trkpt><trkpt lat="43.44195570300063" lon="5.828392306849344"><ele>470.0</ele><time>2026-03-28T15:34:55.999Z</time></trkpt><trkpt lat="43.44201826471604" lon="5.828296650237501"><ele>471.0</ele><time>2026-03-28T15:34:56.999Z</time></trkpt><trkpt lat="43.442094577859635" lon="5.828221564269145"><ele>471.99999999999994</ele><time>2026-03-28T15:34:58.999Z</time></trkpt><trkpt lat="43.44217008616728" lon="5.828189698679237"><ele>473.0</ele><time>2026-03-28T15:35:00.999Z</time></trkpt><trkpt lat="43.44222207517908" lon="5.828240674834362"><ele>473.0</ele><time>2026-03-28T15:35:02.999Z</time></trkpt><trkpt lat="43.44230370937389" lon="5.828287925312386"><ele>472.99999999999994</ele><time>2026-03-28T15:35:23.999Z</time></trkpt><trkpt lat="43.442361633470284" lon="5.8283367288582415"><ele>472.99999999999994</ele><time>2026-03-28T15:35:24.999Z</time></trkpt><trkpt lat="43.44241203917926" lon="5.82841158761062"><ele>473.0</ele><time>2026-03-28T15:35:25.999Z</time></trkpt><trkpt lat="43.44244346970709" lon="5.828586230338834"><ele>473.0</ele><time>2026-03-28T15:35:27.999Z</time></trkpt><trkpt lat="43.44248575043161" lon="5.828722943479061"><ele>472.49999999999994</ele><time>2026-03-28T15:35:28.999Z</time></trkpt><trkpt lat="43.442530027186095" lon="5.8288191785666745"><ele>472.0</ele><time>2026-03-28T15:35:29.999Z</time></trkpt><trkpt lat="43.44256292527579" lon="5.8289050018334985"><ele>471.5</ele><time>2026-03-28T15:35:30.999Z</time></trkpt><trkpt lat="43.44263451406072" lon="5.828994513829765"><ele>471.0</ele><time>2026-03-28T15:35:32.999Z</time></trkpt><trkpt lat="43.44270863174578" lon="5.829070479836081"><ele>470.49999999999994</ele><time>2026-03-28T15:35:34.999Z</time></trkpt><trkpt lat="43.44271616796483" lon="5.829170624652121"><ele>470.0</ele><time>2026-03-28T15:35:35.999Z</time></trkpt><trkpt lat="43.44270748420029" lon="5.829309700599971"><ele>469.66666666666663</ele><time>2026-03-28T15:35:36.999Z</time></trkpt><trkpt lat="43.44268447994054" lon="5.829487508924176"><ele>469.33333333333337</ele><time>2026-03-28T15:35:37.999Z</time></trkpt><trkpt lat="43.44266772239808" lon="5.829714745119793"><ele>469.0</ele><time>2026-03-28T15:35:38.999Z</time></trkpt><trkpt lat="43.44265399582661" lon="5.829942467783304"><ele>469.0</ele><time>2026-03-28T15:35:39.999Z</time></trkpt><trkpt lat="43.44264521080586" lon="5.830111743417925"><ele>469.0</ele><time>2026-03-28T15:35:40.999Z</time></trkpt><trkpt lat="43.4426428490791" lon="5.8302777162295945"><ele>469.0</ele><time>2026-03-28T15:35:41.999Z</time></trkpt><trkpt lat="43.442640392441255" lon="5.830429111950936"><ele>469.0</ele><time>2026-03-28T15:35:42.999Z</time></trkpt><trkpt lat="43.44263414984496" lon="5.830570246541006"><ele>468.25</ele><time>2026-03-28T15:35:43.999Z</time></trkpt><trkpt lat="43.44262901889661" lon="5.830755645876928"><ele>467.5</ele><time>2026-03-28T15:35:44.999Z</time></trkpt><trkpt lat="43.44261851706206" lon="5.8309409460380595"><ele>466.75</ele><time>2026-03-28T15:35:45.999Z</time></trkpt><trkpt lat="43.44261875407847" lon="5.831091019943558"><ele>466.0</ele><time>2026-03-28T15:35:46.999Z</time></trkpt><trkpt lat="43.4426188383942" lon="5.831239308678846"><ele>465.83333333333337</ele><time>2026-03-28T15:35:47.999Z</time></trkpt><trkpt lat="43.44261621704308" lon="5.831369756002375"><ele>465.6666666666667</ele><time>2026-03-28T15:35:48.999Z</time></trkpt><trkpt lat="43.44260889483128" lon="5.831494558082243"><ele>465.5</ele><time>2026-03-28T15:35:49.999Z</time></trkpt><trkpt lat="43.44260410942102" lon="5.831607785274243"><ele>465.33333333333337</ele><time>2026-03-28T15:35:50.999Z</time></trkpt><trkpt lat="43.44259996742423" lon="5.831711644174624"><ele>465.1666666666667</ele><time>2026-03-28T15:35:51.999Z</time></trkpt><trkpt lat="43.442616509642676" lon="5.831804458879231"><ele>465.0</ele><time>2026-03-28T15:35:52.999Z</time></trkpt><trkpt lat="43.44266362727073" lon="5.831898581288153"><ele>464.4</ele><time>2026-03-28T15:35:53.999Z</time></trkpt><trkpt lat="43.442727447444675" lon="5.832010714714395"><ele>463.8</ele><time>2026-03-28T15:35:54.999Z</time></trkpt><trkpt lat="43.442787189683564" lon="5.832111301377138"><ele>463.20000000000005</ele><time>2026-03-28T15:35:55.999Z</time></trkpt><trkpt lat="43.44284905555192" lon="5.832197927310968"><ele>462.6</ele><time>2026-03-28T15:35:56.999Z</time></trkpt><trkpt lat="43.44288948439514" lon="5.832301594566403"><ele>462.0</ele><time>2026-03-28T15:35:57.999Z</time></trkpt><trkpt lat="43.44290029880534" lon="5.83242574300128"><ele>462.0</ele><time>2026-03-28T15:35:58.999Z</time></trkpt><trkpt lat="43.44291249433611" lon="5.832588057299498"><ele>462.00000000000006</ele><time>2026-03-28T15:35:59.999Z</time></trkpt><trkpt lat="43.44291943057391" lon="5.832741705178895"><ele>462.00000000000006</ele><time>2026-03-28T15:36:00.999Z</time></trkpt><trkpt lat="43.44292840264547" lon="5.832878556311713"><ele>462.0</ele><time>2026-03-28T15:36:01.999Z</time></trkpt><trkpt lat="43.44296765050106" lon="5.833002486245135"><ele>462.0</ele><time>2026-03-28T15:36:02.999Z</time></trkpt><trkpt lat="43.44302743206915" lon="5.83313017691624"><ele>460.75</ele><time>2026-03-28T15:36:03.999Z</time></trkpt><trkpt lat="43.443084166090195" lon="5.833246202255083"><ele>459.5</ele><time>2026-03-28T15:36:04.999Z</time></trkpt><trkpt lat="43.443115286967846" lon="5.833371723741029"><ele>458.25</ele><time>2026-03-28T15:36:05.999Z</time></trkpt><trkpt lat="43.4431241213461" lon="5.833530189696321"><ele>457.0</ele><time>2026-03-28T15:36:06.999Z</time></trkpt><trkpt lat="43.44314126369232" lon="5.83373035406937"><ele>456.5</ele><time>2026-03-28T15:36:07.999Z</time></trkpt><trkpt lat="43.443175008170044" lon="5.833960824372159"><ele>456.0</ele><time>2026-03-28T15:36:09Z</time></trkpt><trkpt lat="43.4432098790257" lon="5.834158634315094"><ele>455.5</ele><time>2026-03-28T15:36:10Z</time></trkpt><trkpt lat="43.44323180566055" lon="5.834309779532654"><ele>455.0</ele><time>2026-03-28T15:36:11Z</time></trkpt><trkpt lat="43.44323669077783" lon="5.834463348584904"><ele>455.0</ele><time>2026-03-28T15:36:12Z</time></trkpt><trkpt lat="43.44322586829727" lon="5.834608154797388"><ele>455.0</ele><time>2026-03-28T15:36:13Z</time></trkpt><trkpt lat="43.443229862237104" lon="5.834754103925261"><ele>455.0</ele><time>2026-03-28T15:36:14Z</time></trkpt><trkpt lat="43.443256791757925" lon="5.834915904793009"><ele>455.0</ele><time>2026-03-28T15:36:15Z</time></trkpt><trkpt lat="43.44328869319531" lon="5.835073404482425"><ele>454.6</ele><time>2026-03-28T15:36:16Z</time></trkpt><trkpt lat="43.443317737300895" lon="5.835225877325217"><ele>454.2</ele><time>2026-03-28T15:36:17Z</time></trkpt><trkpt lat="43.443342384306234" lon="5.8353889871275015"><ele>453.79999999999995</ele><time>2026-03-28T15:36:18Z</time></trkpt><trkpt lat="43.443355686915645" lon="5.835531991487438"><ele>453.4</ele><time>2026-03-28T15:36:19Z</time></trkpt><trkpt lat="43.4433509134778" lon="5.835665994608661"><ele>453.0</ele><time>2026-03-28T15:36:20Z</time></trkpt><trkpt lat="43.443368857045606" lon="5.835794548615886"><ele>453.0</ele><time>2026-03-28T15:36:21Z</time></trkpt><trkpt lat="43.443404325693535" lon="5.835943119682534"><ele>453.0</ele><time>2026-03-28T15:36:22Z</time></trkpt><trkpt lat="43.44341086434012" lon="5.836107299840989"><ele>453.0</ele><time>2026-03-28T15:36:23Z</time></trkpt><trkpt lat="43.443408533401886" lon="5.836310080639829"><ele>453.0</ele><time>2026-03-28T15:36:24Z</time></trkpt><trkpt lat="43.44341067618341" lon="5.836514196675241"><ele>452.5</ele><time>2026-03-28T15:36:25Z</time></trkpt><trkpt lat="43.44340720959144" lon="5.836692640597551"><ele>452.0</ele><time>2026-03-28T15:36:26Z</time></trkpt><trkpt lat="43.44340660519002" lon="5.836851682294876"><ele>451.5</ele><time>2026-03-28T15:36:27Z</time></trkpt><trkpt lat="43.44342087976108" lon="5.837006618948888"><ele>451.0</ele><time>2026-03-28T15:36:28Z</time></trkpt><trkpt lat="43.44343009509057" lon="5.8371591664151055"><ele>450.4</ele><time>2026-03-28T15:36:29Z</time></trkpt><trkpt lat="43.44343010404695" lon="5.837314703344822"><ele>449.8</ele><time>2026-03-28T15:36:30Z</time></trkpt><trkpt lat="43.44342985530977" lon="5.837460082018539"><ele>449.19999999999993</ele><time>2026-03-28T15:36:31Z</time></trkpt><trkpt lat="43.44341292166556" lon="5.837587803604654"><ele>448.59999999999997</ele><time>2026-03-28T15:36:32Z</time></trkpt><trkpt lat="43.44338278069027" lon="5.83770886873288"><ele>448.0</ele><time>2026-03-28T15:36:33Z</time></trkpt><trkpt lat="43.44336906770932" lon="5.837835058683798"><ele>447.25</ele><time>2026-03-28T15:36:34Z</time></trkpt><trkpt lat="43.4433794502581" lon="5.837984487571394"><ele>446.5</ele><time>2026-03-28T15:36:35Z</time></trkpt><trkpt lat="43.44341593294076" lon="5.838171587907733"><ele>445.75</ele><time>2026-03-28T15:36:36Z</time></trkpt><trkpt lat="43.443451034152126" lon="5.838364532123277"><ele>445.0</ele><time>2026-03-28T15:36:37Z</time></trkpt><trkpt lat="43.443487750830194" lon="5.838524452938759"><ele>444.4</ele><time>2026-03-28T15:36:38Z</time></trkpt><trkpt lat="43.44351970267675" lon="5.838673380625076"><ele>443.8</ele><time>2026-03-28T15:36:39Z</time></trkpt><trkpt lat="43.443544433433345" lon="5.8388112802185885"><ele>443.20000000000005</ele><time>2026-03-28T15:36:40Z</time></trkpt><trkpt lat="43.44356241173524" lon="5.8389410037987926"><ele>442.6</ele><time>2026-03-28T15:36:41Z</time></trkpt><trkpt lat="43.443588226466915" lon="5.839072397429341"><ele>442.0</ele><time>2026-03-28T15:36:42Z</time></trkpt><trkpt lat="43.44359623623244" lon="5.839189718082076"><ele>441.14285714285717</ele><time>2026-03-28T15:36:43Z</time></trkpt><trkpt lat="43.44357890741945" lon="5.839306779964201"><ele>440.2857142857143</ele><time>2026-03-28T15:36:44Z</time></trkpt><trkpt lat="43.443560984984735" lon="5.839413948872296"><ele>439.42857142857144</ele><time>2026-03-28T15:36:45Z</time></trkpt><trkpt lat="43.44356594735505" lon="5.839517127479833"><ele>438.57142857142856</ele><time>2026-03-28T15:36:46Z</time></trkpt><trkpt lat="43.44358921935375" lon="5.8396086424781375"><ele>437.7142857142857</ele><time>2026-03-28T15:36:47Z</time></trkpt><trkpt lat="43.443625842266336" lon="5.839687248075114"><ele>436.8571428571429</ele><time>2026-03-28T15:36:48Z</time></trkpt><trkpt lat="43.4436504540497" lon="5.839768783684115"><ele>436.0</ele><time>2026-03-28T15:36:49Z</time></trkpt><trkpt lat="43.44363602730696" lon="5.8398682154070505"><ele>436.00000000000006</ele><time>2026-03-28T15:36:49.999Z</time></trkpt><trkpt lat="43.4436127896402" lon="5.83995498600116"><ele>436.0</ele><time>2026-03-28T15:36:50.999Z</time></trkpt><trkpt lat="43.4436068491978" lon="5.84005554534997"><ele>436.0</ele><time>2026-03-28T15:36:51.999Z</time></trkpt><trkpt lat="43.4436164365351" lon="5.840141593881493"><ele>436.0</ele><time>2026-03-28T15:36:52.999Z</time></trkpt><trkpt lat="43.443641476893596" lon="5.840272125232902"><ele>436.00000000000006</ele><time>2026-03-28T15:36:54.999Z</time></trkpt><trkpt lat="43.443645182668526" lon="5.840414289967055"><ele>436.0</ele><time>2026-03-28T15:36:56.999Z</time></trkpt><trkpt lat="43.443622489378434" lon="5.840561643738387"><ele>434.6666666666667</ele><time>2026-03-28T15:36:58.999Z</time></trkpt><trkpt lat="43.44360103530187" lon="5.840733093337241"><ele>433.33333333333337</ele><time>2026-03-28T15:37:00.999Z</time></trkpt><trkpt lat="43.443582579980216" lon="5.840834191538637"><ele>432.0</ele><time>2026-03-28T15:37:01.999Z</time></trkpt><trkpt lat="43.44356266934132" lon="5.840936176170838"><ele>430.66666666666663</ele><time>2026-03-28T15:37:02.999Z</time></trkpt><trkpt lat="43.44354201325437" lon="5.841035970494013"><ele>429.3333333333333</ele><time>2026-03-28T15:37:03.999Z</time></trkpt><trkpt lat="43.44352112445477" lon="5.841138145450925"><ele>428.0</ele><time>2026-03-28T15:37:04.999Z</time></trkpt><trkpt lat="43.44349726545755" lon="5.841247159645602"><ele>426.66666666666663</ele><time>2026-03-28T15:37:05.999Z</time></trkpt><trkpt lat="43.443485532471904" lon="5.8413496668858516"><ele>425.3333333333333</ele><time>2026-03-28T15:37:06.999Z</time></trkpt><trkpt lat="43.44350318201091" lon="5.841456047109671"><ele>424.0</ele><time>2026-03-28T15:37:07.999Z</time></trkpt><trkpt lat="43.44351475044169" lon="5.841597088187874"><ele>422.66666666666663</ele><time>2026-03-28T15:37:09.999Z</time></trkpt><trkpt lat="43.4434341431592" lon="5.841650215903646"><ele>421.3333333333333</ele><time>2026-03-28T15:37:11.999Z</time></trkpt><trkpt lat="43.443362495611204" lon="5.84174200234833"><ele>420.0</ele><time>2026-03-28T15:37:13.999Z</time></trkpt><trkpt lat="43.44336556636814" lon="5.841904201021545"><ele>418.4</ele><time>2026-03-28T15:37:15.999Z</time></trkpt><trkpt lat="43.44337349426047" lon="5.8420258098963185"><ele>416.8</ele><time>2026-03-28T15:37:16.999Z</time></trkpt><trkpt lat="43.443377400121605" lon="5.842194117519311"><ele>415.20000000000005</ele><time>2026-03-28T15:37:17.999Z</time></trkpt><trkpt lat="43.443363489629455" lon="5.842366009705671"><ele>413.6</ele><time>2026-03-28T15:37:18.999Z</time></trkpt><trkpt lat="43.44334443250192" lon="5.842513599490199"><ele>412.0</ele><time>2026-03-28T15:37:19.999Z</time></trkpt><trkpt lat="43.44332630538121" lon="5.842647991086706"><ele>410.6</ele><time>2026-03-28T15:37:20.999Z</time></trkpt><trkpt lat="43.443342035209284" lon="5.842801966110111"><ele>409.20000000000005</ele><time>2026-03-28T15:37:21.999Z</time></trkpt><trkpt lat="43.4433774174731" lon="5.8429506578299435"><ele>407.8</ele><time>2026-03-28T15:37:22.999Z</time></trkpt><trkpt lat="43.443429073129096" lon="5.8430552493024095"><ele>406.4</ele><time>2026-03-28T15:37:23.999Z</time></trkpt><trkpt lat="43.44349930072967" lon="5.843150767557877"><ele>405.0</ele><time>2026-03-28T15:37:24.999Z</time></trkpt><trkpt lat="43.44357622885534" lon="5.843236938895666"><ele>405.0</ele><time>2026-03-28T15:37:25.999Z</time></trkpt><trkpt lat="43.443633123082165" lon="5.843354884413087"><ele>405.0</ele><time>2026-03-28T15:37:26.999Z</time></trkpt><trkpt lat="43.443669389958075" lon="5.843489919376603"><ele>405.0</ele><time>2026-03-28T15:37:27.999Z</time></trkpt><trkpt lat="43.44368762491048" lon="5.843645715501046"><ele>405.0</ele><time>2026-03-28T15:37:28.999Z</time></trkpt><trkpt lat="43.443655262331255" lon="5.843768452186269"><ele>405.0</ele><time>2026-03-28T15:37:29.999Z</time></trkpt><trkpt lat="43.44361136655162" lon="5.843894983421052"><ele>404.0</ele><time>2026-03-28T15:37:30.999Z</time></trkpt><trkpt lat="43.443562051912544" lon="5.844000098746869"><ele>403.0</ele><time>2026-03-28T15:37:31.999Z</time></trkpt><trkpt lat="43.44350335978327" lon="5.844086665358721"><ele>402.0</ele><time>2026-03-28T15:37:32.999Z</time></trkpt><trkpt lat="43.44346065682742" lon="5.844187405752245"><ele>401.0</ele><time>2026-03-28T15:37:33.999Z</time></trkpt><trkpt lat="43.44346142642755" lon="5.8443227790809775"><ele>400.0</ele><time>2026-03-28T15:37:34.999Z</time></trkpt><trkpt lat="43.44348629521688" lon="5.844489507684323"><ele>398.75</ele><time>2026-03-28T15:37:35.999Z</time></trkpt><trkpt lat="43.44352424050721" lon="5.8446829434883805"><ele>397.5</ele><time>2026-03-28T15:37:36.999Z</time></trkpt><trkpt lat="43.44353662955955" lon="5.844870512139817"><ele>396.25</ele><time>2026-03-28T15:37:37.999Z</time></trkpt><trkpt lat="43.44356006497425" lon="5.845030187112847"><ele>395.0</ele><time>2026-03-28T15:37:38.999Z</time></trkpt><trkpt lat="43.44358504417321" lon="5.845186452380506"><ele>394.0</ele><time>2026-03-28T15:37:39.999Z</time></trkpt><trkpt lat="43.44363477700994" lon="5.845316971190448"><ele>393.0</ele><time>2026-03-28T15:37:40.999Z</time></trkpt><trkpt lat="43.44368791861371" lon="5.845445729952289"><ele>392.0</ele><time>2026-03-28T15:37:41.999Z</time></trkpt><trkpt lat="43.4437478650115" lon="5.845567424146514"><ele>391.0</ele><time>2026-03-28T15:37:42.999Z</time></trkpt><trkpt lat="43.443802764965916" lon="5.845691740654987"><ele>390.0</ele><time>2026-03-28T15:37:43.999Z</time></trkpt><trkpt lat="43.44384178751992" lon="5.845848074024414"><ele>387.5</ele><time>2026-03-28T15:37:44.999Z</time></trkpt><trkpt lat="43.44391354462365" lon="5.846012164027627"><ele>385.0</ele><time>2026-03-28T15:37:45.999Z</time></trkpt><trkpt lat="43.44398468896233" lon="5.846201192141419"><ele>382.5</ele><time>2026-03-28T15:37:46.999Z</time></trkpt><trkpt lat="43.444064798667874" lon="5.846367562143872"><ele>380.0</ele><time>2026-03-28T15:37:47.999Z</time></trkpt><trkpt lat="43.444146694875016" lon="5.846519668008379"><ele>380.0</ele><time>2026-03-28T15:37:48.999Z</time></trkpt><trkpt lat="43.444230264182266" lon="5.846657743693044"><ele>380.0</ele><time>2026-03-28T15:37:49.999Z</time></trkpt><trkpt lat="43.44430538095376" lon="5.8467956806519705"><ele>380.0</ele><time>2026-03-28T15:37:50.999Z</time></trkpt><trkpt lat="43.444372682185026" lon="5.846911496737111"><ele>380.0</ele><time>2026-03-28T15:37:51.999Z</time></trkpt><trkpt lat="43.444429369648425" lon="5.847003366691623"><ele>379.6666666666667</ele><time>2026-03-28T15:37:52.999Z</time></trkpt><trkpt lat="43.44448334876362" lon="5.847091351996843"><ele>379.33333333333337</ele><time>2026-03-28T15:37:53.999Z</time></trkpt><trkpt lat="43.44452677232867" lon="5.847185479568288"><ele>379.0</ele><time>2026-03-28T15:37:54.999Z</time></trkpt><trkpt lat="43.44454437468656" lon="5.847298016500568"><ele>378.6666666666667</ele><time>2026-03-28T15:37:55.999Z</time></trkpt><trkpt lat="43.44459371247192" lon="5.847405729035335"><ele>378.3333333333333</ele><time>2026-03-28T15:37:56.999Z</time></trkpt><trkpt lat="43.44464423319258" lon="5.847534790542353"><ele>378.0</ele><time>2026-03-28T15:37:57.999Z</time></trkpt><trkpt lat="43.44470727418906" lon="5.847653219436706"><ele>375.79999999999995</ele><time>2026-03-28T15:37:58.999Z</time></trkpt><trkpt lat="43.44473187058913" lon="5.8477884585950415"><ele>373.6</ele><time>2026-03-28T15:37:59.999Z</time></trkpt><trkpt lat="43.44476985459168" lon="5.847917898471863"><ele>371.4</ele><time>2026-03-28T15:38:00.999Z</time></trkpt><trkpt lat="43.44478065311359" lon="5.848070526836462"><ele>369.20000000000005</ele><time>2026-03-28T15:38:01.999Z</time></trkpt><trkpt lat="43.44479281689949" lon="5.8482516514365965"><ele>367.0</ele><time>2026-03-28T15:38:02.999Z</time></trkpt><trkpt lat="43.444810154080066" lon="5.848455517592455"><ele>366.25</ele><time>2026-03-28T15:38:03.999Z</time></trkpt><trkpt lat="43.44482649261147" lon="5.848643067325076"><ele>365.5</ele><time>2026-03-28T15:38:04.999Z</time></trkpt><trkpt lat="43.44486408506525" lon="5.848806670013917"><ele>364.75</ele><time>2026-03-28T15:38:05.999Z</time></trkpt><trkpt lat="43.44491816007013" lon="5.848964102920686"><ele>364.0</ele><time>2026-03-28T15:38:06.999Z</time></trkpt><trkpt lat="43.444977344546786" lon="5.849110305431665"><ele>364.0</ele><time>2026-03-28T15:38:07.999Z</time></trkpt><trkpt lat="43.44503646856697" lon="5.849253139344608"><ele>364.0</ele><time>2026-03-28T15:38:08.999Z</time></trkpt><trkpt lat="43.44509020414877" lon="5.849390457985519"><ele>364.0</ele><time>2026-03-28T15:38:09.999Z</time></trkpt><trkpt lat="43.44514539840138" lon="5.8495407510342865"><ele>364.0</ele><time>2026-03-28T15:38:10.999Z</time></trkpt><trkpt lat="43.44521015327599" lon="5.8497188377789895"><ele>363.25</ele><time>2026-03-28T15:38:11.999Z</time></trkpt><trkpt lat="43.445269448563515" lon="5.849892145588145"><ele>362.5</ele><time>2026-03-28T15:38:12.999Z</time></trkpt><trkpt lat="43.44532419659894" lon="5.85005627213379"><ele>361.75</ele><time>2026-03-28T15:38:13.999Z</time></trkpt><trkpt lat="43.44538365028327" lon="5.850213091766738"><ele>361.0</ele><time>2026-03-28T15:38:15Z</time></trkpt><trkpt lat="43.44544063054881" lon="5.850365772389402"><ele>358.75</ele><time>2026-03-28T15:38:16Z</time></trkpt><trkpt lat="43.44550124396758" lon="5.850515026290549"><ele>356.5</ele><time>2026-03-28T15:38:17Z</time></trkpt><trkpt lat="43.44556112654313" lon="5.8506664367787335"><ele>354.25</ele><time>2026-03-28T15:38:18Z</time></trkpt><trkpt lat="43.44561894291971" lon="5.850823029204212"><ele>352.0</ele><time>2026-03-28T15:38:19Z</time></trkpt><trkpt lat="43.44566596873088" lon="5.850986124909403"><ele>350.0</ele><time>2026-03-28T15:38:20Z</time></trkpt><trkpt lat="43.44571310227294" lon="5.851151926131763"><ele>348.0</ele><time>2026-03-28T15:38:21Z</time></trkpt><trkpt lat="43.4457712382232" lon="5.851311350721308"><ele>346.0</ele><time>2026-03-28T15:38:22Z</time></trkpt><trkpt lat="43.445845103368306" lon="5.85146408948102"><ele>344.0</ele><time>2026-03-28T15:38:23Z</time></trkpt><trkpt lat="43.445922609670106" lon="5.851619184201143"><ele>344.0</ele><time>2026-03-28T15:38:24Z</time></trkpt><trkpt lat="43.44599742219182" lon="5.851775398372477"><ele>344.0</ele><time>2026-03-28T15:38:25Z</time></trkpt><trkpt lat="43.446064733559794" lon="5.851914085938159"><ele>344.0</ele><time>2026-03-28T15:38:26Z</time></trkpt><trkpt lat="43.446131826431134" lon="5.852048181906096"><ele>344.0</ele><time>2026-03-28T15:38:27Z</time></trkpt><trkpt lat="43.44618036835764" lon="5.852191941327408"><ele>343.6</ele><time>2026-03-28T15:38:28Z</time></trkpt><trkpt lat="43.44623771927109" lon="5.852316582755725"><ele>343.2</ele><time>2026-03-28T15:38:29Z</time></trkpt><trkpt lat="43.44623483457671" lon="5.852448868771266"><ele>342.8</ele><time>2026-03-28T15:38:30Z</time></trkpt><trkpt lat="43.44625236996886" lon="5.852572300491498"><ele>342.40000000000003</ele><time>2026-03-28T15:38:31Z</time></trkpt><trkpt lat="43.44628744233116" lon="5.852708526398587"><ele>342.0</ele><time>2026-03-28T15:38:32Z</time></trkpt><trkpt lat="43.44629795494662" lon="5.852864317165176"><ele>342.0</ele><time>2026-03-28T15:38:33Z</time></trkpt><trkpt lat="43.446313138771814" lon="5.853032445580165"><ele>342.0</ele><time>2026-03-28T15:38:34Z</time></trkpt><trkpt lat="43.44631320051166" lon="5.853191808506044"><ele>342.0</ele><time>2026-03-28T15:38:35Z</time></trkpt><trkpt lat="43.44632829312663" lon="5.853338896382415"><ele>342.0</ele><time>2026-03-28T15:38:36Z</time></trkpt><trkpt lat="43.446362953566044" lon="5.853485392761498"><ele>341.8</ele><time>2026-03-28T15:38:37Z</time></trkpt><trkpt lat="43.44639452273849" lon="5.853643984653383"><ele>341.6</ele><time>2026-03-28T15:38:38Z</time></trkpt><trkpt lat="43.446433803338664" lon="5.85379336971437"><ele>341.40000000000003</ele><time>2026-03-28T15:38:39Z</time></trkpt><trkpt lat="43.446460379009366" lon="5.853924793939731"><ele>341.20000000000005</ele><time>2026-03-28T15:38:40Z</time></trkpt><trkpt lat="43.44647137238249" lon="5.854053875418284"><ele>341.0</ele><time>2026-03-28T15:38:41Z</time></trkpt><trkpt lat="43.44644787541339" lon="5.854192597414515"><ele>340.20000000000005</ele><time>2026-03-28T15:38:41.999Z</time></trkpt><trkpt lat="43.44645347250348" lon="5.854345892471958"><ele>339.40000000000003</ele><time>2026-03-28T15:38:42.999Z</time></trkpt><trkpt lat="43.44645487418754" lon="5.854497704937381"><ele>338.6</ele><time>2026-03-28T15:38:43.999Z</time></trkpt><trkpt lat="43.446471826558025" lon="5.854645195971787"><ele>337.8</ele><time>2026-03-28T15:38:44.999Z</time></trkpt><trkpt lat="43.44649664841794" lon="5.8547931699238696"><ele>337.0</ele><time>2026-03-28T15:38:45.999Z</time></trkpt><trkpt lat="43.446516545743926" lon="5.8549408116901915"><ele>337.0</ele><time>2026-03-28T15:38:46.999Z</time></trkpt><trkpt lat="43.446536144449105" lon="5.8550997409533325"><ele>337.0</ele><time>2026-03-28T15:38:47.999Z</time></trkpt><trkpt lat="43.44655342106846" lon="5.855256377516025"><ele>337.0</ele><time>2026-03-28T15:38:48.999Z</time></trkpt><trkpt lat="43.446583375641204" lon="5.85540958010264"><ele>337.0</ele><time>2026-03-28T15:38:49.999Z</time></trkpt><trkpt lat="43.446626952368135" lon="5.855550306233487"><ele>336.20000000000005</ele><time>2026-03-28T15:38:50.999Z</time></trkpt><trkpt lat="43.446694396525935" lon="5.855665205181961"><ele>335.4</ele><time>2026-03-28T15:38:51.999Z</time></trkpt><trkpt lat="43.4467722216356" lon="5.855745585974688"><ele>334.6</ele><time>2026-03-28T15:38:52.999Z</time></trkpt><trkpt lat="43.44687184459704" lon="5.855804050172546"><ele>333.79999999999995</ele><time>2026-03-28T15:38:54.999Z</time></trkpt><trkpt lat="43.44691646903769" lon="5.8558790085575865"><ele>333.0</ele><time>2026-03-28T15:39:22.999Z</time></trkpt><trkpt lat="43.44701947437819" lon="5.855951847551283"><ele>332.79999999999995</ele><time>2026-03-28T15:39:24.999Z</time></trkpt><trkpt lat="43.44710287449373" lon="5.855970558204355"><ele>332.6</ele><time>2026-03-28T15:39:25.999Z</time></trkpt><trkpt lat="43.44720167101327" lon="5.855985541501282"><ele>332.4</ele><time>2026-03-28T15:39:26.999Z</time></trkpt><trkpt lat="43.447302492040585" lon="5.85601496338358"><ele>332.20000000000005</ele><time>2026-03-28T15:39:27.999Z</time></trkpt><trkpt lat="43.447393387093996" lon="5.856096118908972"><ele>332.0</ele><time>2026-03-28T15:39:28.999Z</time></trkpt><trkpt lat="43.447479036684435" lon="5.8561939298727115"><ele>332.0</ele><time>2026-03-28T15:39:29.999Z</time></trkpt><trkpt lat="43.447553598032094" lon="5.856302060474226"><ele>332.0</ele><time>2026-03-28T15:39:30.999Z</time></trkpt><trkpt lat="43.44761486050879" lon="5.856416362625806"><ele>332.0</ele><time>2026-03-28T15:39:31.999Z</time></trkpt><trkpt lat="43.44767596691602" lon="5.856544652727205"><ele>332.0</ele><time>2026-03-28T15:39:32.999Z</time></trkpt><trkpt lat="43.44774084141856" lon="5.85668780204429"><ele>332.0</ele><time>2026-03-28T15:39:33.999Z</time></trkpt><trkpt lat="43.44780515516265" lon="5.856816730925469"><ele>330.8</ele><time>2026-03-28T15:39:34.999Z</time></trkpt><trkpt lat="43.44786106594464" lon="5.856924686739104"><ele>329.6</ele><time>2026-03-28T15:39:35.999Z</time></trkpt><trkpt lat="43.447908051679505" lon="5.85701011927124"><ele>328.40000000000003</ele><time>2026-03-28T15:39:36.999Z</time></trkpt><trkpt lat="43.44793982899406" lon="5.857140822388499"><ele>327.20000000000005</ele><time>2026-03-28T15:39:38.999Z</time></trkpt><trkpt lat="43.447871159655264" lon="5.857274709776906"><ele>326.0</ele><time>2026-03-28T15:39:40.999Z</time></trkpt><trkpt lat="43.44782406280045" lon="5.857411829900671"><ele>326.0</ele><time>2026-03-28T15:39:41.999Z</time></trkpt><trkpt lat="43.4477505938594" lon="5.85756352121483"><ele>326.0</ele><time>2026-03-28T15:39:42.999Z</time></trkpt><trkpt lat="43.44766070226625" lon="5.857743738493203"><ele>326.0</ele><time>2026-03-28T15:39:43.999Z</time></trkpt><trkpt lat="43.447571533377115" lon="5.8579188954237305"><ele>326.0</ele><time>2026-03-28T15:39:44.999Z</time></trkpt><trkpt lat="43.44749259291051" lon="5.858075201415786"><ele>325.5</ele><time>2026-03-28T15:39:45.999Z</time></trkpt><trkpt lat="43.44742250728836" lon="5.858224711091686"><ele>325.0</ele><time>2026-03-28T15:39:46.999Z</time></trkpt><trkpt lat="43.44734841634321" lon="5.858383514352961"><ele>324.5</ele><time>2026-03-28T15:39:47.999Z</time></trkpt><trkpt lat="43.4472759486512" lon="5.858539002829839"><ele>324.0</ele><time>2026-03-28T15:39:48.999Z</time></trkpt><trkpt lat="43.447207213880915" lon="5.858691687550028"><ele>323.25</ele><time>2026-03-28T15:39:49.999Z</time></trkpt><trkpt lat="43.44713902895524" lon="5.858831592418056"><ele>322.5</ele><time>2026-03-28T15:39:50.999Z</time></trkpt><trkpt lat="43.447070279039266" lon="5.858962239889551"><ele>321.75</ele><time>2026-03-28T15:39:51.999Z</time></trkpt><trkpt lat="43.44700207740856" lon="5.859091148516859"><ele>321.0</ele><time>2026-03-28T15:39:52.999Z</time></trkpt><trkpt lat="43.446935023562865" lon="5.859222023749715"><ele>320.8</ele><time>2026-03-28T15:39:53.999Z</time></trkpt><trkpt lat="43.44687611626176" lon="5.859352645600152"><ele>320.6</ele><time>2026-03-28T15:39:54.999Z</time></trkpt><trkpt lat="43.446817586144164" lon="5.859474582880993"><ele>320.4</ele><time>2026-03-28T15:39:55.999Z</time></trkpt><trkpt lat="43.44675357329671" lon="5.859594269625436"><ele>320.2</ele><time>2026-03-28T15:39:56.999Z</time></trkpt><trkpt lat="43.44669803179374" lon="5.859713842052685"><ele>320.0</ele><time>2026-03-28T15:39:57.999Z</time></trkpt><trkpt lat="43.44664750077551" lon="5.859824095866959"><ele>320.0</ele><time>2026-03-28T15:39:58.999Z</time></trkpt><trkpt lat="43.446603567022045" lon="5.859932776972986"><ele>320.0</ele><time>2026-03-28T15:39:59.999Z</time></trkpt><trkpt lat="43.44656197674191" lon="5.860033267750049"><ele>320.0</ele><time>2026-03-28T15:40:00.999Z</time></trkpt><trkpt lat="43.446517220838516" lon="5.860102252206742"><ele>320.0</ele><time>2026-03-28T15:40:01.999Z</time></trkpt><trkpt lat="43.44647761898296" lon="5.860171862400579"><ele>320.0</ele><time>2026-03-28T15:40:39.999Z</time></trkpt><trkpt lat="43.44645979584354" lon="5.860278625271872"><ele>320.0</ele><time>2026-03-28T15:40:41.999Z</time></trkpt><trkpt lat="43.446513154582384" lon="5.860355971048925"><ele>319.6</ele><time>2026-03-28T15:40:43.999Z</time></trkpt><trkpt lat="43.4465775175551" lon="5.860385906796679"><ele>319.2</ele><time>2026-03-28T15:40:44.999Z</time></trkpt><trkpt lat="43.44666636366253" lon="5.860418972668914"><ele>318.8</ele><time>2026-03-28T15:40:45.999Z</time></trkpt><trkpt lat="43.44676495686811" lon="5.860452205238472"><ele>318.4</ele><time>2026-03-28T15:40:46.999Z</time></trkpt><trkpt lat="43.44687259694764" lon="5.860492714453496"><ele>318.0</ele><time>2026-03-28T15:40:47.999Z</time></trkpt><trkpt lat="43.44698702348979" lon="5.860537109797431"><ele>318.0</ele><time>2026-03-28T15:40:48.999Z</time></trkpt><trkpt lat="43.447089739236" lon="5.860574255881318"><ele>318.0</ele><time>2026-03-28T15:40:49.999Z</time></trkpt><trkpt lat="43.447188152957125" lon="5.860611387581634"><ele>318.0</ele><time>2026-03-28T15:40:50.999Z</time></trkpt><trkpt lat="43.44729086609082" lon="5.860651277002761"><ele>318.0</ele><time>2026-03-28T15:40:51.999Z</time></trkpt><trkpt lat="43.44739624109379" lon="5.8606921685798925"><ele>318.0</ele><time>2026-03-28T15:40:52.999Z</time></trkpt><trkpt lat="43.447496781250386" lon="5.860732557877668"><ele>317.5</ele><time>2026-03-28T15:40:53.999Z</time></trkpt><trkpt lat="43.447590797090335" lon="5.860766235686316"><ele>317.0</ele><time>2026-03-28T15:40:54.999Z</time></trkpt><trkpt lat="43.44767885451732" lon="5.8607958419327595"><ele>316.5</ele><time>2026-03-28T15:40:55.999Z</time></trkpt><trkpt lat="43.44776366529277" lon="5.860807751199115"><ele>316.0</ele><time>2026-03-28T15:40:56.999Z</time></trkpt><trkpt lat="43.44784531019874" lon="5.860808285005704"><ele>315.5</ele><time>2026-03-28T15:40:57.999Z</time></trkpt><trkpt lat="43.447922314129926" lon="5.860812436514154"><ele>315.0</ele><time>2026-03-28T15:40:58.999Z</time></trkpt><trkpt lat="43.44799681613934" lon="5.8608164959000355"><ele>314.5</ele><time>2026-03-28T15:40:59.999Z</time></trkpt><trkpt lat="43.44806603113121" lon="5.860813157439972"><ele>314.0</ele><time>2026-03-28T15:41:00.999Z</time></trkpt><trkpt lat="43.448132915141116" lon="5.860813426460985"><ele>313.5</ele><time>2026-03-28T15:41:01.999Z</time></trkpt><trkpt lat="43.448208397378004" lon="5.860866319106105"><ele>313.0</ele><time>2026-03-28T15:41:03.999Z</time></trkpt><trkpt lat="43.44827667158884" lon="5.8609633210583"><ele>312.5</ele><time>2026-03-28T15:41:12.999Z</time></trkpt><trkpt lat="43.448299258461205" lon="5.861053017798511"><ele>312.0</ele><time>2026-03-28T15:41:13.999Z</time></trkpt><trkpt lat="43.4482811780361" lon="5.861173751822163"><ele>311.8333333333333</ele><time>2026-03-28T15:41:14.999Z</time></trkpt><trkpt lat="43.4483414603586" lon="5.861292316339116"><ele>311.6666666666667</ele><time>2026-03-28T15:41:15.999Z</time></trkpt><trkpt lat="43.448391622057194" lon="5.861388528108434"><ele>311.5</ele><time>2026-03-28T15:41:16.999Z</time></trkpt><trkpt lat="43.448440368567006" lon="5.861451190240319"><ele>311.33333333333337</ele><time>2026-03-28T15:41:17.999Z</time></trkpt><trkpt lat="43.44837531315787" lon="5.861571721167726"><ele>311.1666666666667</ele><time>2026-03-28T15:41:18.999Z</time></trkpt><trkpt lat="43.44831891032495" lon="5.861643086204835"><ele>311.0</ele><time>2026-03-28T15:41:19.999Z</time></trkpt><trkpt lat="43.44824958599708" lon="5.861769863823609"><ele>311.2</ele><time>2026-03-28T15:41:20.999Z</time></trkpt><trkpt lat="43.448157566916706" lon="5.861868126293727"><ele>311.40000000000003</ele><time>2026-03-28T15:41:21.999Z</time></trkpt><trkpt lat="43.4480879913953" lon="5.861952102735402"><ele>311.6</ele><time>2026-03-28T15:41:22.999Z</time></trkpt><trkpt lat="43.44805242590142" lon="5.862111900080081"><ele>311.8</ele><time>2026-03-28T15:41:24.999Z</time></trkpt><trkpt lat="43.448087641987065" lon="5.862195014911291"><ele>312.0</ele><time>2026-03-28T15:41:25.999Z</time></trkpt><trkpt lat="43.44816488072453" lon="5.862263380886784"><ele>312.0</ele><time>2026-03-28T15:41:26.999Z</time></trkpt><trkpt lat="43.4482532002174" lon="5.862352256766458"><ele>312.0</ele><time>2026-03-28T15:41:27.999Z</time></trkpt><trkpt lat="43.44835014173359" lon="5.862466079749289"><ele>312.0</ele><time>2026-03-28T15:41:28.999Z</time></trkpt><trkpt lat="43.448418464189075" lon="5.862575718097142"><ele>312.0</ele><time>2026-03-28T15:41:29.999Z</time></trkpt><trkpt lat="43.44847168282986" lon="5.86267355327161"><ele>312.0</ele><time>2026-03-28T15:41:30.999Z</time></trkpt><trkpt lat="43.448504062624075" lon="5.862762287282985"><ele>311.25</ele><time>2026-03-28T15:41:31.999Z</time></trkpt><trkpt lat="43.44850570027039" lon="5.862902452153557"><ele>310.5</ele><time>2026-03-28T15:41:33.999Z</time></trkpt><trkpt lat="43.44839550933819" lon="5.862937539183511"><ele>309.75</ele><time>2026-03-28T15:41:34.999Z</time></trkpt><trkpt lat="43.44831411308683" lon="5.863051336946966"><ele>309.0</ele><time>2026-03-28T15:41:35.999Z</time></trkpt><trkpt lat="43.44819216815494" lon="5.863152375035549"><ele>309.0</ele><time>2026-03-28T15:41:36.999Z</time></trkpt><trkpt lat="43.44809011026777" lon="5.8632822783066905"><ele>309.0</ele><time>2026-03-28T15:41:37.999Z</time></trkpt><trkpt lat="43.44799815433572" lon="5.863411358931857"><ele>309.0</ele><time>2026-03-28T15:41:38.999Z</time></trkpt><trkpt lat="43.447906176515055" lon="5.863534597911126"><ele>309.0</ele><time>2026-03-28T15:41:39.999Z</time></trkpt><trkpt lat="43.44782281175829" lon="5.863644667473773"><ele>309.25</ele><time>2026-03-28T15:41:40.999Z</time></trkpt><trkpt lat="43.44774743891063" lon="5.863755302123482"><ele>309.5</ele><time>2026-03-28T15:41:41.999Z</time></trkpt><trkpt lat="43.447677383800496" lon="5.863863104646337"><ele>309.75</ele><time>2026-03-28T15:41:42.999Z</time></trkpt><trkpt lat="43.447595442637095" lon="5.863978577994271"><ele>310.0</ele><time>2026-03-28T15:41:43.999Z</time></trkpt><trkpt lat="43.447490104664624" lon="5.8640966018978355"><ele>310.0</ele><time>2026-03-28T15:41:44.999Z</time></trkpt><trkpt lat="43.44734649403537" lon="5.8641838931248484"><ele>310.0</ele><time>2026-03-28T15:41:45.999Z</time></trkpt><trkpt lat="43.44721106531066" lon="5.864264863539263"><ele>310.0</ele><time>2026-03-28T15:41:46.999Z</time></trkpt><trkpt lat="43.44711118489005" lon="5.8643840008637"><ele>310.0</ele><time>2026-03-28T15:41:47.999Z</time></trkpt><trkpt lat="43.44700393142185" lon="5.864441107756916"><ele>311.6</ele><time>2026-03-28T15:41:48.999Z</time></trkpt><trkpt lat="43.446912014964404" lon="5.864493550074615"><ele>313.2</ele><time>2026-03-28T15:41:49.999Z</time></trkpt><trkpt lat="43.44683100208384" lon="5.864539561007905"><ele>314.8</ele><time>2026-03-28T15:41:50.999Z</time></trkpt><trkpt lat="43.446753018940036" lon="5.864511933288547"><ele>316.4</ele><time>2026-03-28T15:41:51.999Z</time></trkpt><trkpt lat="43.44662970782211" lon="5.864515820204629"><ele>318.0</ele><time>2026-03-28T15:41:53.999Z</time></trkpt><trkpt lat="43.44653491115023" lon="5.864425375186076"><ele>318.0</ele><time>2026-03-28T15:41:55.999Z</time></trkpt><trkpt lat="43.446411984849576" lon="5.864636495522925"><ele>318.0</ele><time>2026-03-28T15:41:56.999Z</time></trkpt><trkpt lat="43.446346376406794" lon="5.864602207200956"><ele>318.0</ele><time>2026-03-28T15:41:57.999Z</time></trkpt><trkpt lat="43.4462526786947" lon="5.864526981447144"><ele>318.0</ele><time>2026-03-28T15:41:59.999Z</time></trkpt><trkpt lat="43.44618480651421" lon="5.864449591604835"><ele>318.0</ele><time>2026-03-28T15:42:01.999Z</time></trkpt><trkpt lat="43.44612735396388" lon="5.864521154139493"><ele>318.0</ele><time>2026-03-28T15:42:04.999Z</time></trkpt><trkpt lat="43.44612969422517" lon="5.864608718220584"><ele>318.0</ele><time>2026-03-28T15:42:05.999Z</time></trkpt><trkpt lat="43.44614646263255" lon="5.864726648335783"><ele>318.0</ele><time>2026-03-28T15:42:07.999Z</time></trkpt><trkpt lat="43.44613247127225" lon="5.864821685883474"><ele>318.0</ele><time>2026-03-28T15:42:09.999Z</time></trkpt><trkpt lat="43.446063747678636" lon="5.864823798881085"><ele>318.0</ele><time>2026-03-28T15:42:12.999Z</time></trkpt><trkpt lat="43.44597787966712" lon="5.864998575378728"><ele>318.0</ele><time>2026-03-28T15:48:09Z</time></trkpt><trkpt lat="43.44596874855859" lon="5.865091784171376"><ele>318.0</ele><time>2026-03-28T15:48:10Z</time></trkpt><trkpt lat="43.44589446242609" lon="5.8651447759711886"><ele>318.0</ele><time>2026-03-28T15:48:12Z</time></trkpt><trkpt lat="43.44583460898805" lon="5.865093613110543"><ele>318.0</ele><time>2026-03-28T15:48:14Z</time></trkpt><trkpt lat="43.44582488348761" lon="5.864941348936662"><ele>318.0</ele><time>2026-03-28T15:48:17Z</time></trkpt><trkpt lat="43.445810171009676" lon="5.864782188211991"><ele>318.0</ele><time>2026-03-28T15:48:19Z</time></trkpt><trkpt lat="43.44580345878157" lon="5.864620688680932"><ele>318.0</ele><time>2026-03-28T15:48:21Z</time></trkpt><trkpt lat="43.44582714242297" lon="5.864535930381973"><ele>318.0</ele><time>2026-03-28T15:48:22Z</time></trkpt><trkpt lat="43.44587555650483" lon="5.864439576472224"><ele>318.0</ele><time>2026-03-28T15:48:23Z</time></trkpt><trkpt lat="43.445938620909125" lon="5.8643392898199345"><ele>318.0</ele><time>2026-03-28T15:48:24Z</time></trkpt><trkpt lat="43.44602204003849" lon="5.864251072281353"><ele>318.8</ele><time>2026-03-28T15:48:25Z</time></trkpt><trkpt lat="43.446091060315084" lon="5.864150309258302"><ele>319.6</ele><time>2026-03-28T15:48:26Z</time></trkpt><trkpt lat="43.44615186223116" lon="5.8640628859412685"><ele>320.40000000000003</ele><time>2026-03-28T15:48:27Z</time></trkpt><trkpt lat="43.44621087109623" lon="5.8639785397948465"><ele>321.20000000000005</ele><time>2026-03-28T15:48:28Z</time></trkpt><trkpt lat="43.44628105602563" lon="5.863879873179513"><ele>322.0</ele><time>2026-03-28T15:48:29Z</time></trkpt><trkpt lat="43.44635967814327" lon="5.863771589675525"><ele>321.0</ele><time>2026-03-28T15:48:30Z</time></trkpt><trkpt lat="43.44643174783299" lon="5.863672330603934"><ele>320.0</ele><time>2026-03-28T15:48:31Z</time></trkpt><trkpt lat="43.44649530695615" lon="5.863582786680568"><ele>319.0</ele><time>2026-03-28T15:48:32Z</time></trkpt><trkpt lat="43.4465555553972" lon="5.8634983266240805"><ele>318.0</ele><time>2026-03-28T15:48:33Z</time></trkpt><trkpt lat="43.44661397500499" lon="5.863415941459182"><ele>317.0</ele><time>2026-03-28T15:48:33.999Z</time></trkpt><trkpt lat="43.4466775366799" lon="5.863325784541481"><ele>317.0</ele><time>2026-03-28T15:48:34.999Z</time></trkpt><trkpt lat="43.446743116341636" lon="5.863232765275157"><ele>317.0</ele><time>2026-03-28T15:48:35.999Z</time></trkpt><trkpt lat="43.44681284209827" lon="5.863133865127358"><ele>317.0</ele><time>2026-03-28T15:48:36.999Z</time></trkpt><trkpt lat="43.44688604015687" lon="5.863030039798326"><ele>317.0</ele><time>2026-03-28T15:48:37.999Z</time></trkpt><trkpt lat="43.44696274074613" lon="5.8629212464362315"><ele>317.0</ele><time>2026-03-28T15:48:38.999Z</time></trkpt><trkpt lat="43.44705158450129" lon="5.862797499546287"><ele>316.0</ele><time>2026-03-28T15:48:39.999Z</time></trkpt><trkpt lat="43.44715621126441" lon="5.8626525457867045"><ele>315.0</ele><time>2026-03-28T15:48:40.999Z</time></trkpt><trkpt lat="43.44727496574414" lon="5.86248813703151"><ele>314.0</ele><time>2026-03-28T15:48:41.999Z</time></trkpt><trkpt lat="43.44739290165748" lon="5.862324861480211"><ele>314.0</ele><time>2026-03-28T15:48:42.999Z</time></trkpt><trkpt lat="43.44751835870147" lon="5.862151173848427"><ele>314.0</ele><time>2026-03-28T15:48:44Z</time></trkpt><trkpt lat="43.44763065065141" lon="5.861995541862885"><ele>314.0</ele><time>2026-03-28T15:48:45Z</time></trkpt><trkpt lat="43.447727479038555" lon="5.861835467250829"><ele>313.75</ele><time>2026-03-28T15:48:46Z</time></trkpt><trkpt lat="43.44783035851875" lon="5.861703207439898"><ele>313.5</ele><time>2026-03-28T15:48:47Z</time></trkpt><trkpt lat="43.44792951288914" lon="5.86158335079167"><ele>313.25</ele><time>2026-03-28T15:48:48Z</time></trkpt><trkpt lat="43.44801857803611" lon="5.86147508217386"><ele>313.0</ele><time>2026-03-28T15:48:49Z</time></trkpt><trkpt lat="43.44809230366669" lon="5.861388596788258"><ele>312.66666666666663</ele><time>2026-03-28T15:48:50Z</time></trkpt><trkpt lat="43.44815160040727" lon="5.861321156663014"><ele>312.3333333333333</ele><time>2026-03-28T15:48:51Z</time></trkpt><trkpt lat="43.44821561566332" lon="5.861273571535073"><ele>312.0</ele><time>2026-03-28T15:48:52Z</time></trkpt><trkpt lat="43.44828347677701" lon="5.861258977936444"><ele>311.6666666666667</ele><time>2026-03-28T15:48:53Z</time></trkpt><trkpt lat="43.44841335412841" lon="5.861258444379945"><ele>311.33333333333337</ele><time>2026-03-28T15:48:55Z</time></trkpt><trkpt lat="43.44848214092934" lon="5.8612261275918325"><ele>311.0</ele><time>2026-03-28T15:48:56Z</time></trkpt><trkpt lat="43.44853691840564" lon="5.8611636459057985"><ele>311.0</ele><time>2026-03-28T15:48:57Z</time></trkpt><trkpt lat="43.44859890592187" lon="5.8611430350834"><ele>311.0</ele><time>2026-03-28T15:48:58Z</time></trkpt><trkpt lat="43.44856481628741" lon="5.860993035591835"><ele>311.0</ele><time>2026-03-28T15:48:59Z</time></trkpt><trkpt lat="43.44852708352328" lon="5.860904813141867"><ele>311.0</ele><time>2026-03-28T15:49:00Z</time></trkpt><trkpt lat="43.448455294719565" lon="5.860848577176657"><ele>311.0</ele><time>2026-03-28T15:49:01Z</time></trkpt><trkpt lat="43.44835798857124" lon="5.860811688331164"><ele>311.0</ele><time>2026-03-28T15:49:02Z</time></trkpt><trkpt lat="43.44824078298231" lon="5.8607724599982784"><ele>311.25</ele><time>2026-03-28T15:49:03Z</time></trkpt><trkpt lat="43.44811766230835" lon="5.860746046707161"><ele>311.5</ele><time>2026-03-28T15:49:04Z</time></trkpt><trkpt lat="43.44798324430343" lon="5.860745075012252"><ele>311.75</ele><time>2026-03-28T15:49:05Z</time></trkpt><trkpt lat="43.447816532885206" lon="5.860754275514687"><ele>312.0</ele><time>2026-03-28T15:49:06Z</time></trkpt><trkpt lat="43.44763057034117" lon="5.860740851202084"><ele>313.0</ele><time>2026-03-28T15:49:07Z</time></trkpt><trkpt lat="43.44745100551482" lon="5.860657577630011"><ele>314.0</ele><time>2026-03-28T15:49:08Z</time></trkpt><trkpt lat="43.4472739664135" lon="5.860591363397512"><ele>315.0</ele><time>2026-03-28T15:49:09Z</time></trkpt><trkpt lat="43.447122930572164" lon="5.860534201676876"><ele>315.6</ele><time>2026-03-28T15:49:10Z</time></trkpt><trkpt lat="43.44700422702017" lon="5.860489239141898"><ele>316.2</ele><time>2026-03-28T15:49:11Z</time></trkpt><trkpt lat="43.44691265441735" lon="5.860454506074487"><ele>316.8</ele><time>2026-03-28T15:49:12Z</time></trkpt><trkpt lat="43.44683281773624" lon="5.860424224462704"><ele>317.4</ele><time>2026-03-28T15:49:13Z</time></trkpt><trkpt lat="43.446761279738354" lon="5.860396777506456"><ele>318.0</ele><time>2026-03-28T15:49:14Z</time></trkpt><trkpt lat="43.44667025251674" lon="5.860361944337768"><ele>318.0</ele><time>2026-03-28T15:49:16Z</time></trkpt><trkpt lat="43.446572642116465" lon="5.860312672376167"><ele>318.0</ele><time>2026-03-28T15:49:40Z</time></trkpt><trkpt lat="43.446493451876464" lon="5.860276788467717"><ele>318.0</ele><time>2026-03-28T15:49:41Z</time></trkpt><trkpt lat="43.44637836109043" lon="5.860257948278236"><ele>318.0</ele><time>2026-03-28T15:49:42Z</time></trkpt><trkpt lat="43.44628115275482" lon="5.860226206474469"><ele>318.0</ele><time>2026-03-28T15:49:43Z</time></trkpt><trkpt lat="43.44616351058251" lon="5.86018059665938"><ele>318.0</ele><time>2026-03-28T15:49:44Z</time></trkpt><trkpt lat="43.44604274650957" lon="5.860132638507224"><ele>318.0</ele><time>2026-03-28T15:49:45Z</time></trkpt><trkpt lat="43.44592584121117" lon="5.860095540208046"><ele>318.0</ele><time>2026-03-28T15:49:46Z</time></trkpt><trkpt lat="43.44579455691949" lon="5.860051446847748"><ele>318.0</ele><time>2026-03-28T15:49:47Z</time></trkpt><trkpt lat="43.445650944059224" lon="5.859999663805714"><ele>318.25</ele><time>2026-03-28T15:49:48Z</time></trkpt><trkpt lat="43.44550787745191" lon="5.859948443422518"><ele>318.5</ele><time>2026-03-28T15:49:49Z</time></trkpt><trkpt lat="43.44537281768879" lon="5.859892810775836"><ele>318.75</ele><time>2026-03-28T15:49:50Z</time></trkpt><trkpt lat="43.44521904305043" lon="5.859834642264939"><ele>319.0</ele><time>2026-03-28T15:49:51Z</time></trkpt><trkpt lat="43.4450533311743" lon="5.859770656103687"><ele>320.0</ele><time>2026-03-28T15:49:52Z</time></trkpt><trkpt lat="43.44487998374988" lon="5.859691007436396"><ele>321.0</ele><time>2026-03-28T15:49:53Z</time></trkpt><trkpt lat="43.44469957810196" lon="5.859605827735873"><ele>322.0</ele><time>2026-03-28T15:49:54Z</time></trkpt><trkpt lat="43.44453465071197" lon="5.859533100746205"><ele>322.0</ele><time>2026-03-28T15:49:55Z</time></trkpt><trkpt lat="43.44438460139266" lon="5.859472839530585"><ele>322.0</ele><time>2026-03-28T15:49:56Z</time></trkpt><trkpt lat="43.44423750443323" lon="5.859415718362707"><ele>322.0</ele><time>2026-03-28T15:49:57Z</time></trkpt><trkpt lat="43.444097723236105" lon="5.859363666045017"><ele>322.0</ele><time>2026-03-28T15:49:58Z</time></trkpt><trkpt lat="43.443965833153754" lon="5.859317999674223"><ele>322.0</ele><time>2026-03-28T15:49:59Z</time></trkpt><trkpt lat="43.44384181156033" lon="5.859277628307142"><ele>322.0</ele><time>2026-03-28T15:50:00Z</time></trkpt><trkpt lat="43.44371302888168" lon="5.859232536124561"><ele>322.0</ele><time>2026-03-28T15:50:01Z</time></trkpt><trkpt lat="43.443585722139915" lon="5.8591862072802385"><ele>323.25</ele><time>2026-03-28T15:50:02Z</time></trkpt><trkpt lat="43.443464781851034" lon="5.8591421998688356"><ele>324.5</ele><time>2026-03-28T15:50:03Z</time></trkpt><trkpt lat="43.44334439099308" lon="5.859097872686806"><ele>325.75</ele><time>2026-03-28T15:50:04Z</time></trkpt><trkpt lat="43.443232578442284" lon="5.85905333269547"><ele>327.0</ele><time>2026-03-28T15:50:05Z</time></trkpt><trkpt lat="43.4431156724356" lon="5.859009247432323"><ele>327.0</ele><time>2026-03-28T15:50:06Z</time></trkpt><trkpt lat="43.44300110121019" lon="5.858963613047356"><ele>327.0</ele><time>2026-03-28T15:50:07Z</time></trkpt><trkpt lat="43.44287811997508" lon="5.8589212186202895"><ele>327.0</ele><time>2026-03-28T15:50:08Z</time></trkpt><trkpt lat="43.442767291789494" lon="5.858882405868625"><ele>327.0</ele><time>2026-03-28T15:50:09Z</time></trkpt><trkpt lat="43.442662287707456" lon="5.858842326816296"><ele>328.75</ele><time>2026-03-28T15:50:10Z</time></trkpt><trkpt lat="43.442553359839806" lon="5.858801079626623"><ele>330.5</ele><time>2026-03-28T15:50:11Z</time></trkpt><trkpt lat="43.44244348095215" lon="5.858760264833977"><ele>332.25</ele><time>2026-03-28T15:50:12Z</time></trkpt><trkpt lat="43.442335757847104" lon="5.85871841212483"><ele>334.0</ele><time>2026-03-28T15:50:13Z</time></trkpt><trkpt lat="43.44222425281824" lon="5.8586762008655064"><ele>334.0</ele><time>2026-03-28T15:50:14Z</time></trkpt><trkpt lat="43.442105624151594" lon="5.858629541229516"><ele>334.0</ele><time>2026-03-28T15:50:15Z</time></trkpt><trkpt lat="43.441979767074066" lon="5.858561949303018"><ele>334.0</ele><time>2026-03-28T15:50:16Z</time></trkpt><trkpt lat="43.441837536826675" lon="5.8585078216661675"><ele>334.0</ele><time>2026-03-28T15:50:17Z</time></trkpt><trkpt lat="43.44168479379467" lon="5.858449693245248"><ele>334.0</ele><time>2026-03-28T15:50:18Z</time></trkpt><trkpt lat="43.4415298991097" lon="5.858390745984563"><ele>334.0</ele><time>2026-03-28T15:50:19Z</time></trkpt><trkpt lat="43.441380617092825" lon="5.8583331502734834"><ele>334.0</ele><time>2026-03-28T15:50:20Z</time></trkpt><trkpt lat="43.44123616765041" lon="5.858299288858588"><ele>335.5</ele><time>2026-03-28T15:50:21Z</time></trkpt><trkpt lat="43.44109792331895" lon="5.858243838556241"><ele>337.0</ele><time>2026-03-28T15:50:22Z</time></trkpt><trkpt lat="43.440963610281436" lon="5.858188976225558"><ele>338.5</ele><time>2026-03-28T15:50:23Z</time></trkpt><trkpt lat="43.44083678211518" lon="5.858134498339397"><ele>340.0</ele><time>2026-03-28T15:50:24Z</time></trkpt><trkpt lat="43.44071600659708" lon="5.858085477612759"><ele>340.0</ele><time>2026-03-28T15:50:25Z</time></trkpt><trkpt lat="43.440600636819774" lon="5.858041662553737"><ele>340.0</ele><time>2026-03-28T15:50:26Z</time></trkpt><trkpt lat="43.44047632621348" lon="5.857990970815424"><ele>340.0</ele><time>2026-03-28T15:50:27Z</time></trkpt><trkpt lat="43.4403629049679" lon="5.8579475323130215"><ele>340.0</ele><time>2026-03-28T15:50:28Z</time></trkpt><trkpt lat="43.44025162828557" lon="5.857906004655262"><ele>341.5</ele><time>2026-03-28T15:50:29Z</time></trkpt><trkpt lat="43.44013656116026" lon="5.857862005592009"><ele>343.0</ele><time>2026-03-28T15:50:29.999Z</time></trkpt><trkpt lat="43.440013895387104" lon="5.857816981922126"><ele>344.5</ele><time>2026-03-28T15:50:30.999Z</time></trkpt><trkpt lat="43.43989889871268" lon="5.857773719052077"><ele>346.0</ele><time>2026-03-28T15:50:31.999Z</time></trkpt><trkpt lat="43.439791721497286" lon="5.857732082302698"><ele>346.0</ele><time>2026-03-28T15:50:32.999Z</time></trkpt><trkpt lat="43.439688371197676" lon="5.857694664522945"><ele>346.0</ele><time>2026-03-28T15:50:33.999Z</time></trkpt><trkpt lat="43.439595522563756" lon="5.857656269315909"><ele>346.0</ele><time>2026-03-28T15:50:34.999Z</time></trkpt><trkpt lat="43.43951648919732" lon="5.857599331155601"><ele>346.0</ele><time>2026-03-28T15:50:35.999Z</time></trkpt><trkpt lat="43.4394717123751" lon="5.857500887308624"><ele>346.0</ele><time>2026-03-28T15:50:36.999Z</time></trkpt><trkpt lat="43.43950620948345" lon="5.857391761441716"><ele>346.20000000000005</ele><time>2026-03-28T15:50:37.999Z</time></trkpt><trkpt lat="43.43953025763784" lon="5.8572985569511005"><ele>346.40000000000003</ele><time>2026-03-28T15:50:38.999Z</time></trkpt><trkpt lat="43.43956437902917" lon="5.857188472339067"><ele>346.6</ele><time>2026-03-28T15:50:39.999Z</time></trkpt><trkpt lat="43.43959023165062" lon="5.857054805589026"><ele>346.8</ele><time>2026-03-28T15:50:40.999Z</time></trkpt><trkpt lat="43.43964492181096" lon="5.856916163063315"><ele>347.0</ele><time>2026-03-28T15:50:41.999Z</time></trkpt><trkpt lat="43.43965954099543" lon="5.856761136155751"><ele>345.0</ele><time>2026-03-28T15:50:42.999Z</time></trkpt><trkpt lat="43.439662860835206" lon="5.856620082081858"><ele>343.0</ele><time>2026-03-28T15:50:43.999Z</time></trkpt><trkpt lat="43.439668229866804" lon="5.856472501861092"><ele>341.0</ele><time>2026-03-28T15:50:44.999Z</time></trkpt><trkpt lat="43.43968182305847" lon="5.856311018134072"><ele>339.0</ele><time>2026-03-28T15:50:45.999Z</time></trkpt><trkpt lat="43.439700580328335" lon="5.8561402343152"><ele>339.0</ele><time>2026-03-28T15:50:46.999Z</time></trkpt><trkpt lat="43.43972179602234" lon="5.855965328997465"><ele>339.0</ele><time>2026-03-28T15:50:47.999Z</time></trkpt><trkpt lat="43.4397428573047" lon="5.8558078438101715"><ele>339.0</ele><time>2026-03-28T15:50:48.999Z</time></trkpt><trkpt lat="43.439766605722966" lon="5.855657075511842"><ele>339.0</ele><time>2026-03-28T15:50:50Z</time></trkpt><trkpt lat="43.43979421632542" lon="5.8555188359806225"><ele>340.0</ele><time>2026-03-28T15:50:51Z</time></trkpt><trkpt lat="43.439826755735645" lon="5.855391194148569"><ele>341.0</ele><time>2026-03-28T15:50:52Z</time></trkpt><trkpt lat="43.43987079300642" lon="5.855237712217285"><ele>342.0</ele><time>2026-03-28T15:50:53Z</time></trkpt><trkpt lat="43.439913613393074" lon="5.855063998556701"><ele>343.0</ele><time>2026-03-28T15:50:54Z</time></trkpt><trkpt lat="43.439943348473776" lon="5.854856593492996"><ele>344.5</ele><time>2026-03-28T15:50:55Z</time></trkpt><trkpt lat="43.43993191997457" lon="5.854655912243607"><ele>346.0</ele><time>2026-03-28T15:50:56Z</time></trkpt><trkpt lat="43.43994442968143" lon="5.854458659349334"><ele>347.5</ele><time>2026-03-28T15:50:57Z</time></trkpt><trkpt lat="43.439950713681846" lon="5.854293658434969"><ele>349.0</ele><time>2026-03-28T15:50:58Z</time></trkpt><trkpt lat="43.439975859533526" lon="5.854148604999211"><ele>349.3333333333333</ele><time>2026-03-28T15:50:59Z</time></trkpt><trkpt lat="43.440004736553725" lon="5.854018893020321"><ele>349.66666666666663</ele><time>2026-03-28T15:51:00Z</time></trkpt><trkpt lat="43.440031720892286" lon="5.853914140479808"><ele>350.0</ele><time>2026-03-28T15:51:01Z</time></trkpt><trkpt lat="43.440035536962775" lon="5.853817367781092"><ele>350.3333333333333</ele><time>2026-03-28T15:51:03Z</time></trkpt><trkpt lat="43.440030397806034" lon="5.853684934080877"><ele>350.6666666666667</ele><time>2026-03-28T15:51:06Z</time></trkpt><trkpt lat="43.44000744125774" lon="5.853586941061382"><ele>351.0</ele><time>2026-03-28T15:51:07Z</time></trkpt><trkpt lat="43.43997707216173" lon="5.853457552985625"><ele>352.25</ele><time>2026-03-28T15:51:08Z</time></trkpt><trkpt lat="43.4399988505313" lon="5.853286780792135"><ele>353.5</ele><time>2026-03-28T15:51:09Z</time></trkpt><trkpt lat="43.440008644215126" lon="5.853075836009977"><ele>354.75</ele><time>2026-03-28T15:51:10Z</time></trkpt><trkpt lat="43.43999464579699" lon="5.852900677359131"><ele>356.0</ele><time>2026-03-28T15:51:11Z</time></trkpt><trkpt lat="43.44002102114315" lon="5.852777717504288"><ele>356.0</ele><time>2026-03-28T15:51:12Z</time></trkpt><trkpt lat="43.44002727781603" lon="5.85266718414498"><ele>356.0</ele><time>2026-03-28T15:51:13Z</time></trkpt><trkpt lat="43.43994525789537" lon="5.852529165940714"><ele>356.0</ele><time>2026-03-28T15:51:15Z</time></trkpt><trkpt lat="43.43987660696732" lon="5.852496383914078"><ele>356.0</ele><time>2026-03-28T15:51:16Z</time></trkpt><trkpt lat="43.439800948741286" lon="5.852470056710709"><ele>356.0</ele><time>2026-03-28T15:51:17Z</time></trkpt><trkpt lat="43.43970321659614" lon="5.852419655550954"><ele>359.0</ele><time>2026-03-28T15:51:18Z</time></trkpt><trkpt lat="43.43958318568037" lon="5.852323623956281"><ele>362.0</ele><time>2026-03-28T15:51:19Z</time></trkpt><trkpt lat="43.43945478118368" lon="5.852240852187247"><ele>365.0</ele><time>2026-03-28T15:51:20Z</time></trkpt><trkpt lat="43.439342268609046" lon="5.85216949749886"><ele>368.0</ele><time>2026-03-28T15:51:21Z</time></trkpt><trkpt lat="43.43920685911938" lon="5.852081393014302"><ele>368.0</ele><time>2026-03-28T15:51:22Z</time></trkpt><trkpt lat="43.43908816327004" lon="5.851994857028803"><ele>368.0</ele><time>2026-03-28T15:51:23Z</time></trkpt><trkpt lat="43.43899519656181" lon="5.851956206969335"><ele>368.0</ele><time>2026-03-28T15:51:24Z</time></trkpt><trkpt lat="43.43890572308572" lon="5.8519318484186424"><ele>368.0</ele><time>2026-03-28T15:51:26Z</time></trkpt><trkpt lat="43.438863547292776" lon="5.852084554785331"><ele>368.0</ele><time>2026-03-28T15:51:28Z</time></trkpt><trkpt lat="43.43885581323767" lon="5.852188896924695"><ele>368.0</ele><time>2026-03-28T15:51:29Z</time></trkpt><trkpt lat="43.438820417342576" lon="5.852308646402274"><ele>368.0</ele><time>2026-03-28T15:51:30Z</time></trkpt><trkpt lat="43.43879237332654" lon="5.8524188737828515"><ele>361.0</ele><time>2026-03-28T15:51:31Z</time></trkpt><trkpt lat="43.438771838202676" lon="5.852504070081782"><ele>361.0</ele><time>2026-03-28T15:51:32Z</time></trkpt><trkpt lat="43.4387254317769" lon="5.852597651099418"><ele>361.0</ele><time>2026-03-28T15:51:48Z</time></trkpt></trkseg></trk></gpx>